<?xml version='1.0' encoding='UTF-8'?><gpx version="1.1" creator="JPX - https://github.com/jenetics/jpx" xmlns="http://www.topografix.com/GPX/1/1"><trk><trkseg><trkpt lat="45.55274258620817" lon="9.07514735273845"><ele>165.0</ele><time>2026-04-05T06:28:53.999Z</time></trkpt><trkpt lat="45.55263869840811" lon="9.075175930717542"><ele>165.0</ele><time>2026-04-05T06:31:34.998Z</time></trkpt><trkpt lat="45.55271652707597" lon="9.075174290422957"><ele>165.0</ele><time>2026-04-05T06:32:06.997Z</time></trkpt><trkpt lat="45.55280912408679" lon="9.07514088161743"><ele>165.0</ele><time>2026-04-05T06:32:10.997Z</time></trkpt><trkpt lat="45.5528963294728" lon="9.075142006972039"><ele>165.0</ele><time>2026-04-05T06:32:13.997Z</time></trkpt><trkpt lat="45.55297564525553" lon="9.075156475367933"><ele>165.0</ele><time>2026-04-05T06:32:16.997Z</time></trkpt><trkpt lat="45.553002703369465" lon="9.075288212089298"><ele>165.0</ele><time>2026-04-05T06:32:19.997Z</time></trkpt><trkpt lat="45.553017915939314" lon="9.075395127718808"><ele>165.0</ele><time>2026-04-05T06:32:21.997Z</time></trkpt><trkpt lat="45.55303142117318" lon="9.075517014067126"><ele>165.0</ele><time>2026-04-05T06:32:23.997Z</time></trkpt><trkpt lat="45.55304067807632" lon="9.075636750768714"><ele>165.0</ele><time>2026-04-05T06:32:25.997Z</time></trkpt><trkpt lat="45.553064245959376" lon="9.075746219331753"><ele>165.0</ele><time>2026-04-05T06:32:27.997Z</time></trkpt><trkpt lat="45.5530872974082" lon="9.075839058082206"><ele>165.0</ele><time>2026-04-05T06:32:29.997Z</time></trkpt><trkpt lat="45.55311334520602" lon="9.075957475634178"><ele>165.00000000000003</ele><time>2026-04-05T06:32:32.997Z</time></trkpt><trkpt lat="45.55313204846148" lon="9.076044150927764"><ele>165.0</ele><time>2026-04-05T06:32:34.997Z</time></trkpt><trkpt lat="45.553144633594236" lon="9.076139218961245"><ele>165.0</ele><time>2026-04-05T06:32:36.997Z</time></trkpt><trkpt lat="45.55313102239502" lon="9.076240317903817"><ele>165.0</ele><time>2026-04-05T06:32:38.997Z</time></trkpt><trkpt lat="45.553144981077395" lon="9.076353543809985"><ele>165.0</ele><time>2026-04-05T06:32:41.997Z</time></trkpt><trkpt lat="45.553155457853684" lon="9.076466720114288"><ele>165.00000000000003</ele><time>2026-04-05T06:32:44.997Z</time></trkpt><trkpt lat="45.55316851379443" lon="9.076579011419367"><ele>165.0</ele><time>2026-04-05T06:32:47.997Z</time></trkpt><trkpt lat="45.553197786563345" lon="9.076718926917101"><ele>165.0</ele><time>2026-04-05T06:32:49.997Z</time></trkpt><trkpt lat="45.553233626617185" lon="9.076875495241033"><ele>165.0</ele><time>2026-04-05T06:32:51.997Z</time></trkpt><trkpt lat="45.55324000379035" lon="9.076965060388465"><ele>165.0</ele><time>2026-04-05T06:32:52.997Z</time></trkpt><trkpt lat="45.55324598741109" lon="9.077058917011756"><ele>165.0</ele><time>2026-04-05T06:32:53.997Z</time></trkpt><trkpt lat="45.55323610428394" lon="9.077162768346216"><ele>165.0</ele><time>2026-04-05T06:32:54.997Z</time></trkpt><trkpt lat="45.55322421527576" lon="9.077255329193221"><ele>165.0</ele><time>2026-04-05T06:32:55.997Z</time></trkpt><trkpt lat="45.55322969686235" lon="9.07740685521249"><ele>165.0</ele><time>2026-04-05T06:32:57.997Z</time></trkpt><trkpt lat="45.553256602080666" lon="9.07754263989188"><ele>165.0</ele><time>2026-04-05T06:32:59.997Z</time></trkpt><trkpt lat="45.553276432737384" lon="9.077699643490222"><ele>165.0</ele><time>2026-04-05T06:33:01.997Z</time></trkpt><trkpt lat="45.55329434875504" lon="9.077845421927947"><ele>165.0</ele><time>2026-04-05T06:33:03.997Z</time></trkpt><trkpt lat="45.55329894572267" lon="9.077979512425834"><ele>165.0</ele><time>2026-04-05T06:33:05.997Z</time></trkpt><trkpt lat="45.55331017132793" lon="9.078100386034205"><ele>165.0</ele><time>2026-04-05T06:33:07.997Z</time></trkpt><trkpt lat="45.55331896905174" lon="9.07820940806559"><ele>165.0</ele><time>2026-04-05T06:33:09.997Z</time></trkpt><trkpt lat="45.553345292321495" lon="9.078297713796267"><ele>165.0</ele><time>2026-04-05T06:33:11.997Z</time></trkpt><trkpt lat="45.553427827554486" lon="9.078360347070255"><ele>165.0</ele><time>2026-04-05T06:33:13.997Z</time></trkpt><trkpt lat="45.55346919854492" lon="9.078446797766428"><ele>165.0</ele><time>2026-04-05T06:33:15.997Z</time></trkpt><trkpt lat="45.55346684308817" lon="9.078575751915642"><ele>165.0</ele><time>2026-04-05T06:33:17.997Z</time></trkpt><trkpt lat="45.553483046104226" lon="9.078718604730037"><ele>165.0</ele><time>2026-04-05T06:33:19.996Z</time></trkpt><trkpt lat="45.553483910445024" lon="9.078867830542096"><ele>165.0</ele><time>2026-04-05T06:33:21.996Z</time></trkpt><trkpt lat="45.553478598943514" lon="9.079006802936659"><ele>165.0</ele><time>2026-04-05T06:33:23.996Z</time></trkpt><trkpt lat="45.553482854278435" lon="9.07915015253016"><ele>165.0</ele><time>2026-04-05T06:33:25.996Z</time></trkpt><trkpt lat="45.55348686523065" lon="9.079290634584481"><ele>165.0</ele><time>2026-04-05T06:33:27.996Z</time></trkpt><trkpt lat="45.55348089735356" lon="9.079434102380837"><ele>165.0</ele><time>2026-04-05T06:33:29.996Z</time></trkpt><trkpt lat="45.553493533503236" lon="9.079562257632286"><ele>165.0</ele><time>2026-04-05T06:33:31.996Z</time></trkpt><trkpt lat="45.55350299110906" lon="9.079687385707757"><ele>165.0</ele><time>2026-04-05T06:33:33.996Z</time></trkpt><trkpt lat="45.553503118713216" lon="9.079833560492313"><ele>165.0</ele><time>2026-04-05T06:33:35.996Z</time></trkpt><trkpt lat="45.553501668465856" lon="9.079980563128265"><ele>165.0</ele><time>2026-04-05T06:33:37.996Z</time></trkpt><trkpt lat="45.55350599103695" lon="9.080106602761898"><ele>165.16666666666666</ele><time>2026-04-05T06:33:39.996Z</time></trkpt><trkpt lat="45.55351851572025" lon="9.080233541775609"><ele>165.33333333333334</ele><time>2026-04-05T06:33:41.996Z</time></trkpt><trkpt lat="45.55352829000029" lon="9.080357384850732"><ele>165.5</ele><time>2026-04-05T06:33:43.996Z</time></trkpt><trkpt lat="45.553532959252536" lon="9.080455580310543"><ele>165.66666666666669</ele><time>2026-04-05T06:33:45.996Z</time></trkpt><trkpt lat="45.553531678226776" lon="9.08057021816929"><ele>165.83333333333334</ele><time>2026-04-05T06:33:47.996Z</time></trkpt><trkpt lat="45.55352952302132" lon="9.080679869963308"><ele>166.0</ele><time>2026-04-05T06:33:49.996Z</time></trkpt><trkpt lat="45.55347229977123" lon="9.080772917454324"><ele>166.0</ele><time>2026-04-05T06:33:51.996Z</time></trkpt><trkpt lat="45.55338560172917" lon="9.080818822919928"><ele>166.0</ele><time>2026-04-05T06:33:53.996Z</time></trkpt><trkpt lat="45.55330390035434" lon="9.080848853890515"><ele>166.0</ele><time>2026-04-05T06:33:55.996Z</time></trkpt><trkpt lat="45.55323083070869" lon="9.080882580907858"><ele>166.0</ele><time>2026-04-05T06:33:57.996Z</time></trkpt><trkpt lat="45.55314925415735" lon="9.08091977177252"><ele>166.0</ele><time>2026-04-05T06:33:59.996Z</time></trkpt><trkpt lat="45.553059245076035" lon="9.080961330149629"><ele>166.0</ele><time>2026-04-05T06:34:01.996Z</time></trkpt><trkpt lat="45.55296139818711" lon="9.080950215388796"><ele>166.0</ele><time>2026-04-05T06:34:03.996Z</time></trkpt><trkpt lat="45.5528600495262" lon="9.080962786554048"><ele>166.0</ele><time>2026-04-05T06:34:05.996Z</time></trkpt><trkpt lat="45.55276805299555" lon="9.081029733479673"><ele>166.0</ele><time>2026-04-05T06:34:07.996Z</time></trkpt><trkpt lat="45.552738754891486" lon="9.081157487391858"><ele>166.0</ele><time>2026-04-05T06:34:09.996Z</time></trkpt><trkpt lat="45.55276549503565" lon="9.081291703768084"><ele>166.0</ele><time>2026-04-05T06:34:11.996Z</time></trkpt><trkpt lat="45.55281662367467" lon="9.08140226282898"><ele>166.0</ele><time>2026-04-05T06:34:13.996Z</time></trkpt><trkpt lat="45.552857826572634" lon="9.081501200676223"><ele>166.0</ele><time>2026-04-05T06:34:15.996Z</time></trkpt><trkpt lat="45.552892804721296" lon="9.081592685238576"><ele>166.0</ele><time>2026-04-05T06:34:17.996Z</time></trkpt><trkpt lat="45.55292330192866" lon="9.081675764040778"><ele>166.0</ele><time>2026-04-05T06:34:19.996Z</time></trkpt><trkpt lat="45.55296922683223" lon="9.081782005324277"><ele>166.0</ele><time>2026-04-05T06:34:22.996Z</time></trkpt><trkpt lat="45.553001434041995" lon="9.08190540816372"><ele>166.0</ele><time>2026-04-05T06:34:24.996Z</time></trkpt><trkpt lat="45.553040720653826" lon="9.082025574330336"><ele>165.66666666666669</ele><time>2026-04-05T06:34:26.996Z</time></trkpt><trkpt lat="45.55308277861009" lon="9.08215063541336"><ele>165.33333333333334</ele><time>2026-04-05T06:34:28.996Z</time></trkpt><trkpt lat="45.55311498866029" lon="9.082255272573974"><ele>165.0</ele><time>2026-04-05T06:34:30.996Z</time></trkpt><trkpt lat="45.55315701998892" lon="9.082386964873894"><ele>164.66666666666666</ele><time>2026-04-05T06:34:32.996Z</time></trkpt><trkpt lat="45.55318712039801" lon="9.082475331777085"><ele>164.33333333333331</ele><time>2026-04-05T06:34:34.996Z</time></trkpt><trkpt lat="45.55323099761791" lon="9.082573464623373"><ele>164.0</ele><time>2026-04-05T06:34:36.996Z</time></trkpt><trkpt lat="45.55326955883691" lon="9.082684613197655"><ele>164.0</ele><time>2026-04-05T06:34:38.996Z</time></trkpt><trkpt lat="45.55332401943592" lon="9.082772257032069"><ele>164.0</ele><time>2026-04-05T06:34:40.996Z</time></trkpt><trkpt lat="45.55336951809053" lon="9.082885041795015"><ele>164.0</ele><time>2026-04-05T06:34:42.996Z</time></trkpt><trkpt lat="45.55342144062208" lon="9.082995930924476"><ele>164.0</ele><time>2026-04-05T06:34:45.996Z</time></trkpt><trkpt lat="45.553479254481914" lon="9.083094954402455"><ele>164.0</ele><time>2026-04-05T06:34:47.996Z</time></trkpt><trkpt lat="45.553505396195725" lon="9.083178405124965"><ele>164.0</ele><time>2026-04-05T06:34:49.996Z</time></trkpt><trkpt lat="45.55355564074514" lon="9.083281965710299"><ele>164.0</ele><time>2026-04-05T06:34:51.996Z</time></trkpt><trkpt lat="45.55358685532428" lon="9.083363067570696"><ele>164.0</ele><time>2026-04-05T06:34:53.996Z</time></trkpt><trkpt lat="45.5536467998792" lon="9.083464223730978"><ele>164.0</ele><time>2026-04-05T06:34:55.996Z</time></trkpt><trkpt lat="45.55370745659302" lon="9.083581387121969"><ele>164.0</ele><time>2026-04-05T06:34:58.995Z</time></trkpt><trkpt lat="45.55373784831282" lon="9.08368480702245"><ele>164.0</ele><time>2026-04-05T06:35:00.995Z</time></trkpt><trkpt lat="45.55379471051852" lon="9.08380834447488"><ele>164.0</ele><time>2026-04-05T06:35:02.995Z</time></trkpt><trkpt lat="45.55384442408908" lon="9.083939782049168"><ele>164.0</ele><time>2026-04-05T06:35:04.995Z</time></trkpt><trkpt lat="45.553884631401026" lon="9.084089782361223"><ele>164.0</ele><time>2026-04-05T06:35:06.995Z</time></trkpt><trkpt lat="45.553934449688334" lon="9.0842171886661"><ele>164.0</ele><time>2026-04-05T06:35:08.995Z</time></trkpt><trkpt lat="45.554001362319134" lon="9.084314367974464"><ele>164.0</ele><time>2026-04-05T06:35:10.995Z</time></trkpt><trkpt lat="45.55408327187138" lon="9.084400244995194"><ele>164.0</ele><time>2026-04-05T06:35:12.995Z</time></trkpt><trkpt lat="45.55416049714245" lon="9.084500819011414"><ele>164.39999999999998</ele><time>2026-04-05T06:35:14.995Z</time></trkpt><trkpt lat="45.55421959642551" lon="9.08462146013267"><ele>164.8</ele><time>2026-04-05T06:35:16.995Z</time></trkpt><trkpt lat="45.554273367518206" lon="9.084722132172"><ele>165.2</ele><time>2026-04-05T06:35:18.995Z</time></trkpt><trkpt lat="45.554323265925035" lon="9.084811179270119"><ele>165.60000000000002</ele><time>2026-04-05T06:35:20.995Z</time></trkpt><trkpt lat="45.55437680009761" lon="9.084930423979987"><ele>166.0</ele><time>2026-04-05T06:35:22.995Z</time></trkpt><trkpt lat="45.554444570368815" lon="9.085042734845342"><ele>166.0</ele><time>2026-04-05T06:35:24.995Z</time></trkpt><trkpt lat="45.55449304165342" lon="9.085139965558625"><ele>166.0</ele><time>2026-04-05T06:35:26.995Z</time></trkpt><trkpt lat="45.55454314740059" lon="9.085267073216823"><ele>166.0</ele><time>2026-04-05T06:35:28.995Z</time></trkpt><trkpt lat="45.554602207295396" lon="9.08541049795044"><ele>166.0</ele><time>2026-04-05T06:35:30.995Z</time></trkpt><trkpt lat="45.55466223842098" lon="9.08553696726016"><ele>166.0</ele><time>2026-04-05T06:35:32.995Z</time></trkpt><trkpt lat="45.55471107795287" lon="9.085653866623254"><ele>166.4</ele><time>2026-04-05T06:35:34.995Z</time></trkpt><trkpt lat="45.554753576308514" lon="9.085787165374533"><ele>166.8</ele><time>2026-04-05T06:35:36.995Z</time></trkpt><trkpt lat="45.554801835608885" lon="9.085906628848944"><ele>167.20000000000002</ele><time>2026-04-05T06:35:38.995Z</time></trkpt><trkpt lat="45.554837864896356" lon="9.086042856321008"><ele>167.60000000000002</ele><time>2026-04-05T06:35:40.995Z</time></trkpt><trkpt lat="45.554878063819075" lon="9.086168262417093"><ele>168.0</ele><time>2026-04-05T06:35:42.995Z</time></trkpt><trkpt lat="45.55492145442869" lon="9.086291812349323"><ele>168.0</ele><time>2026-04-05T06:35:44.995Z</time></trkpt><trkpt lat="45.55496015634641" lon="9.086409553422857"><ele>168.0</ele><time>2026-04-05T06:35:46.995Z</time></trkpt><trkpt lat="45.55498919972591" lon="9.08653672217323"><ele>168.0</ele><time>2026-04-05T06:35:48.995Z</time></trkpt><trkpt lat="45.55499826796157" lon="9.08667858831141"><ele>168.0</ele><time>2026-04-05T06:35:50.995Z</time></trkpt><trkpt lat="45.55499795762864" lon="9.086816854858075"><ele>168.0</ele><time>2026-04-05T06:35:52.995Z</time></trkpt><trkpt lat="45.55500962669344" lon="9.08695095703577"><ele>167.83333333333334</ele><time>2026-04-05T06:35:54.995Z</time></trkpt><trkpt lat="45.555048993667164" lon="9.087072011397055"><ele>167.66666666666666</ele><time>2026-04-05T06:35:56.995Z</time></trkpt><trkpt lat="45.55510849670278" lon="9.087163094540841"><ele>167.5</ele><time>2026-04-05T06:35:58.995Z</time></trkpt><trkpt lat="45.55517043561121" lon="9.08723401643932"><ele>167.33333333333331</ele><time>2026-04-05T06:36:00.995Z</time></trkpt><trkpt lat="45.55523510079288" lon="9.087258029048051"><ele>167.16666666666666</ele><time>2026-04-05T06:36:02.995Z</time></trkpt><trkpt lat="45.55531181016964" lon="9.087279632433889"><ele>167.0</ele><time>2026-04-05T06:36:04.995Z</time></trkpt><trkpt lat="45.555387541686414" lon="9.087313182256581"><ele>167.33333333333331</ele><time>2026-04-05T06:36:06.995Z</time></trkpt><trkpt lat="45.555454970832464" lon="9.087360180867023"><ele>167.66666666666666</ele><time>2026-04-05T06:36:08.995Z</time></trkpt><trkpt lat="45.555519925263404" lon="9.08744986541173"><ele>168.0</ele><time>2026-04-05T06:36:10.995Z</time></trkpt><trkpt lat="45.555577876948476" lon="9.087558522954478"><ele>168.33333333333334</ele><time>2026-04-05T06:36:12.995Z</time></trkpt><trkpt lat="45.555630326997665" lon="9.087667500101412"><ele>168.66666666666669</ele><time>2026-04-05T06:36:14.995Z</time></trkpt><trkpt lat="45.555671917711024" lon="9.087775071396605"><ele>169.0</ele><time>2026-04-05T06:36:16.995Z</time></trkpt><trkpt lat="45.55570625554014" lon="9.087893809570925"><ele>168.33333333333334</ele><time>2026-04-05T06:36:18.995Z</time></trkpt><trkpt lat="45.555763781341824" lon="9.087999213699652"><ele>167.66666666666669</ele><time>2026-04-05T06:36:20.995Z</time></trkpt><trkpt lat="45.55582063812826" lon="9.08807581883256"><ele>167.0</ele><time>2026-04-05T06:36:22.995Z</time></trkpt><trkpt lat="45.55587924081991" lon="9.088145806205358"><ele>166.33333333333334</ele><time>2026-04-05T06:36:24.995Z</time></trkpt><trkpt lat="45.555952165046286" lon="9.088221205813309"><ele>165.66666666666666</ele><time>2026-04-05T06:36:26.995Z</time></trkpt><trkpt lat="45.55601330218713" lon="9.088297475661829"><ele>165.0</ele><time>2026-04-05T06:36:28.995Z</time></trkpt><trkpt lat="45.55603252204357" lon="9.088405292039381"><ele>164.8</ele><time>2026-04-05T06:36:30.995Z</time></trkpt><trkpt lat="45.55605395091636" lon="9.088518889543938"><ele>164.6</ele><time>2026-04-05T06:36:33.995Z</time></trkpt><trkpt lat="45.5562365771582" lon="9.08853135859161"><ele>164.39999999999998</ele><time>2026-04-05T06:36:40.994Z</time></trkpt><trkpt lat="45.55629396565938" lon="9.088599377751962"><ele>164.2</ele><time>2026-04-05T06:36:42.994Z</time></trkpt><trkpt lat="45.55629692492657" lon="9.088712480714998"><ele>164.0</ele><time>2026-04-05T06:36:44.994Z</time></trkpt><trkpt lat="45.55630004073085" lon="9.088814919766264"><ele>164.0</ele><time>2026-04-05T06:36:46.994Z</time></trkpt><trkpt lat="45.55630391760822" lon="9.088915259290454"><ele>164.0</ele><time>2026-04-05T06:36:48.994Z</time></trkpt><trkpt lat="45.556314780945236" lon="9.089028876038805"><ele>164.0</ele><time>2026-04-05T06:36:50.994Z</time></trkpt><trkpt lat="45.55632695325744" lon="9.089156966783372"><ele>164.0</ele><time>2026-04-05T06:36:52.994Z</time></trkpt><trkpt lat="45.556343894390466" lon="9.089280543107497"><ele>164.0</ele><time>2026-04-05T06:36:54.994Z</time></trkpt><trkpt lat="45.55635857174362" lon="9.089410036878604"><ele>164.0</ele><time>2026-04-05T06:36:56.994Z</time></trkpt><trkpt lat="45.55637427869799" lon="9.089535863220513"><ele>164.2</ele><time>2026-04-05T06:36:58.994Z</time></trkpt><trkpt lat="45.556381503137" lon="9.089663821935288"><ele>164.39999999999998</ele><time>2026-04-05T06:37:00.994Z</time></trkpt><trkpt lat="45.55639401988143" lon="9.089787770646232"><ele>164.6</ele><time>2026-04-05T06:37:02.994Z</time></trkpt><trkpt lat="45.556412943872004" lon="9.08997393680293"><ele>164.8</ele><time>2026-04-05T06:37:05.994Z</time></trkpt><trkpt lat="45.55642439643949" lon="9.09010489898311"><ele>165.0</ele><time>2026-04-05T06:37:07.994Z</time></trkpt><trkpt lat="45.55644017880399" lon="9.09023316975299"><ele>165.0</ele><time>2026-04-05T06:37:09.994Z</time></trkpt><trkpt lat="45.55644942256006" lon="9.090360568576942"><ele>165.0</ele><time>2026-04-05T06:37:11.994Z</time></trkpt><trkpt lat="45.55646576850023" lon="9.090483105877674"><ele>165.0</ele><time>2026-04-05T06:37:13.994Z</time></trkpt><trkpt lat="45.5564752063756" lon="9.090614504444863"><ele>165.0</ele><time>2026-04-05T06:37:15.994Z</time></trkpt><trkpt lat="45.556490557645446" lon="9.090744470089534"><ele>165.0</ele><time>2026-04-05T06:37:17.994Z</time></trkpt><trkpt lat="45.55650267454046" lon="9.09087879419163"><ele>165.2</ele><time>2026-04-05T06:37:19.994Z</time></trkpt><trkpt lat="45.55651460736312" lon="9.091009610323935"><ele>165.4</ele><time>2026-04-05T06:37:21.994Z</time></trkpt><trkpt lat="45.55652751957133" lon="9.091136465282196"><ele>165.60000000000002</ele><time>2026-04-05T06:37:23.994Z</time></trkpt><trkpt lat="45.55654394538876" lon="9.091261579519157"><ele>165.8</ele><time>2026-04-05T06:37:25.994Z</time></trkpt><trkpt lat="45.556558443124985" lon="9.091390615145773"><ele>166.0</ele><time>2026-04-05T06:37:27.994Z</time></trkpt><trkpt lat="45.556564224715814" lon="9.091522543359803"><ele>165.4</ele><time>2026-04-05T06:37:29.994Z</time></trkpt><trkpt lat="45.55657176453866" lon="9.09164779601476"><ele>164.8</ele><time>2026-04-05T06:37:31.994Z</time></trkpt><trkpt lat="45.556586498339996" lon="9.091777145018641"><ele>164.20000000000002</ele><time>2026-04-05T06:37:33.994Z</time></trkpt><trkpt lat="45.55659881382998" lon="9.091913493114573"><ele>163.60000000000002</ele><time>2026-04-05T06:37:35.994Z</time></trkpt><trkpt lat="45.556611515127805" lon="9.09204207118098"><ele>163.0</ele><time>2026-04-05T06:37:37.994Z</time></trkpt><trkpt lat="45.556628620649754" lon="9.092172624091285"><ele>163.0</ele><time>2026-04-05T06:37:39.994Z</time></trkpt><trkpt lat="45.55663845976287" lon="9.092306391552366"><ele>163.0</ele><time>2026-04-05T06:37:41.994Z</time></trkpt><trkpt lat="45.55665071896722" lon="9.09244665856204"><ele>163.0</ele><time>2026-04-05T06:37:43.994Z</time></trkpt><trkpt lat="45.55666638245713" lon="9.092588493095462"><ele>163.0</ele><time>2026-04-05T06:37:45.994Z</time></trkpt><trkpt lat="45.55668154212829" lon="9.092727891161191"><ele>163.0</ele><time>2026-04-05T06:37:47.994Z</time></trkpt><trkpt lat="45.55669198855135" lon="9.092864301086372"><ele>163.0</ele><time>2026-04-05T06:37:49.994Z</time></trkpt><trkpt lat="45.55670685709112" lon="9.093001063848478"><ele>163.0</ele><time>2026-04-05T06:37:51.994Z</time></trkpt><trkpt lat="45.556721971007406" lon="9.093139381296742"><ele>163.0</ele><time>2026-04-05T06:37:53.994Z</time></trkpt><trkpt lat="45.55673689230823" lon="9.093275280104814"><ele>163.0</ele><time>2026-04-05T06:37:55.994Z</time></trkpt><trkpt lat="45.55674988414558" lon="9.093410662911324"><ele>163.0</ele><time>2026-04-05T06:37:57.994Z</time></trkpt><trkpt lat="45.55676141599323" lon="9.093542067503103"><ele>163.0</ele><time>2026-04-05T06:37:59.994Z</time></trkpt><trkpt lat="45.55677729264517" lon="9.0936748387828"><ele>163.0</ele><time>2026-04-05T06:38:01.994Z</time></trkpt><trkpt lat="45.55678947694118" lon="9.093810172186595"><ele>163.0</ele><time>2026-04-05T06:38:03.994Z</time></trkpt><trkpt lat="45.55680401023277" lon="9.093943399895206"><ele>163.0</ele><time>2026-04-05T06:38:05.994Z</time></trkpt><trkpt lat="45.556811521273225" lon="9.094078611500903"><ele>163.0</ele><time>2026-04-05T06:38:07.994Z</time></trkpt><trkpt lat="45.556829355736205" lon="9.094210968051978"><ele>162.4</ele><time>2026-04-05T06:38:09.994Z</time></trkpt><trkpt lat="45.55684345976857" lon="9.094349627008622"><ele>161.8</ele><time>2026-04-05T06:38:11.994Z</time></trkpt><trkpt lat="45.556859002330285" lon="9.094482849579412"><ele>161.2</ele><time>2026-04-05T06:38:13.994Z</time></trkpt><trkpt lat="45.5568711938675" lon="9.094619827474132"><ele>160.6</ele><time>2026-04-05T06:38:15.994Z</time></trkpt><trkpt lat="45.55688822629639" lon="9.09475271620025"><ele>160.0</ele><time>2026-04-05T06:38:17.994Z</time></trkpt><trkpt lat="45.55689798407836" lon="9.094877768324075"><ele>160.28571428571428</ele><time>2026-04-05T06:38:19.994Z</time></trkpt><trkpt lat="45.556906459650854" lon="9.094977688100554"><ele>160.57142857142858</ele><time>2026-04-05T06:38:21.993Z</time></trkpt><trkpt lat="45.556902933912355" lon="9.0950712003284"><ele>160.85714285714286</ele><time>2026-04-05T06:38:23.993Z</time></trkpt><trkpt lat="45.556918942601996" lon="9.095166241429999"><ele>161.14285714285714</ele><time>2026-04-05T06:38:26.993Z</time></trkpt><trkpt lat="45.556970670860046" lon="9.095222607513374"><ele>161.42857142857142</ele><time>2026-04-05T06:38:29.993Z</time></trkpt><trkpt lat="45.55703803564123" lon="9.095284819401611"><ele>161.71428571428572</ele><time>2026-04-05T06:38:31.993Z</time></trkpt><trkpt lat="45.55704194810192" lon="9.095399995349837"><ele>162.0</ele><time>2026-04-05T06:38:33.993Z</time></trkpt><trkpt lat="45.55704971462491" lon="9.095512268664988"><ele>162.0</ele><time>2026-04-05T06:38:35.993Z</time></trkpt><trkpt lat="45.55707330474635" lon="9.09560557828069"><ele>162.0</ele><time>2026-04-05T06:38:37.993Z</time></trkpt><trkpt lat="45.55714147956941" lon="9.095659674605379"><ele>162.0</ele><time>2026-04-05T06:38:39.993Z</time></trkpt><trkpt lat="45.557233482121724" lon="9.095647252537711"><ele>162.0</ele><time>2026-04-05T06:38:41.993Z</time></trkpt><trkpt lat="45.55730913662055" lon="9.095627928188025"><ele>162.0</ele><time>2026-04-05T06:38:43.993Z</time></trkpt><trkpt lat="45.557371853786236" lon="9.095610912238234"><ele>162.0</ele><time>2026-04-05T06:38:45.993Z</time></trkpt><trkpt lat="45.55744467258784" lon="9.095602799432946"><ele>162.0</ele><time>2026-04-05T06:38:47.993Z</time></trkpt><trkpt lat="45.557516577580266" lon="9.095581267460137"><ele>162.0</ele><time>2026-04-05T06:38:49.993Z</time></trkpt><trkpt lat="45.557588368286936" lon="9.095564427590746"><ele>162.0</ele><time>2026-04-05T06:38:51.993Z</time></trkpt><trkpt lat="45.55767125942078" lon="9.095546694269357"><ele>162.0</ele><time>2026-04-05T06:38:53.993Z</time></trkpt><trkpt lat="45.55775137461716" lon="9.095520734336796"><ele>162.0</ele><time>2026-04-05T06:38:55.993Z</time></trkpt><trkpt lat="45.55783414344243" lon="9.09549300868414"><ele>162.0</ele><time>2026-04-05T06:38:57.993Z</time></trkpt><trkpt lat="45.55791723752796" lon="9.095453776158811"><ele>162.6</ele><time>2026-04-05T06:38:59.993Z</time></trkpt><trkpt lat="45.557996376001334" lon="9.095423049160383"><ele>163.2</ele><time>2026-04-05T06:39:01.993Z</time></trkpt><trkpt lat="45.558074394807996" lon="9.095386629798812"><ele>163.8</ele><time>2026-04-05T06:39:03.993Z</time></trkpt><trkpt lat="45.55820373362705" lon="9.09539587574792"><ele>164.4</ele><time>2026-04-05T06:39:06.993Z</time></trkpt><trkpt lat="45.55829984799017" lon="9.095395683381955"><ele>165.0</ele><time>2026-04-05T06:39:08.993Z</time></trkpt><trkpt lat="45.55838045194324" lon="9.095375927493647"><ele>165.0</ele><time>2026-04-05T06:39:10.993Z</time></trkpt><trkpt lat="45.55845457167609" lon="9.095367136718929"><ele>165.0</ele><time>2026-04-05T06:39:12.993Z</time></trkpt><trkpt lat="45.55853112695722" lon="9.095335893685052"><ele>165.0</ele><time>2026-04-05T06:39:14.993Z</time></trkpt><trkpt lat="45.55860486919058" lon="9.0953095329097"><ele>165.0</ele><time>2026-04-05T06:39:16.993Z</time></trkpt><trkpt lat="45.55868226454459" lon="9.09530267139336"><ele>165.0</ele><time>2026-04-05T06:39:18.993Z</time></trkpt><trkpt lat="45.558776996430105" lon="9.09527337959262"><ele>165.0</ele><time>2026-04-05T06:39:21.993Z</time></trkpt><trkpt lat="45.55885612787952" lon="9.09526325686783"><ele>165.33333333333334</ele><time>2026-04-05T06:39:23.993Z</time></trkpt><trkpt lat="45.55893529595689" lon="9.09524724071713"><ele>165.66666666666666</ele><time>2026-04-05T06:39:25.993Z</time></trkpt><trkpt lat="45.559020476179754" lon="9.095231767331251"><ele>166.0</ele><time>2026-04-05T06:39:27.993Z</time></trkpt><trkpt lat="45.55909521218875" lon="9.095217710699535"><ele>166.33333333333331</ele><time>2026-04-05T06:39:29.993Z</time></trkpt><trkpt lat="45.55916484608183" lon="9.09519213708016"><ele>166.66666666666666</ele><time>2026-04-05T06:39:31.993Z</time></trkpt><trkpt lat="45.5592482361956" lon="9.095177975491927"><ele>167.0</ele><time>2026-04-05T06:39:33.993Z</time></trkpt><trkpt lat="45.559331872496045" lon="9.095159823425398"><ele>167.0</ele><time>2026-04-05T06:39:35.993Z</time></trkpt><trkpt lat="45.55940967534107" lon="9.095138279998462"><ele>167.0</ele><time>2026-04-05T06:39:37.993Z</time></trkpt><trkpt lat="45.559489869047376" lon="9.095134823128841"><ele>167.0</ele><time>2026-04-05T06:39:39.993Z</time></trkpt><trkpt lat="45.55955497987519" lon="9.095207862725111"><ele>167.0</ele><time>2026-04-05T06:39:42.993Z</time></trkpt><trkpt lat="45.559581163627634" lon="9.095315671962188"><ele>167.0</ele><time>2026-04-05T06:39:44.993Z</time></trkpt><trkpt lat="45.559585127427106" lon="9.095413577214236"><ele>167.0</ele><time>2026-04-05T06:39:46.993Z</time></trkpt><trkpt lat="45.55960351877533" lon="9.09552411205531"><ele>167.0</ele><time>2026-04-05T06:39:48.993Z</time></trkpt><trkpt lat="45.55961747702154" lon="9.09562568473414"><ele>167.0</ele><time>2026-04-05T06:39:50.993Z</time></trkpt><trkpt lat="45.559623611491745" lon="9.095741629382085"><ele>167.0</ele><time>2026-04-05T06:39:52.993Z</time></trkpt><trkpt lat="45.55963828516122" lon="9.095875260882584"><ele>167.0</ele><time>2026-04-05T06:39:54.993Z</time></trkpt><trkpt lat="45.559652507008416" lon="9.095990887637084"><ele>167.0</ele><time>2026-04-05T06:39:56.993Z</time></trkpt><trkpt lat="45.559661552558175" lon="9.096088951681114"><ele>167.0</ele><time>2026-04-05T06:39:58.993Z</time></trkpt><trkpt lat="45.55966344890616" lon="9.096220459122755"><ele>167.0</ele><time>2026-04-05T06:40:00.993Z</time></trkpt><trkpt lat="45.559678266290504" lon="9.096347120559713"><ele>167.0</ele><time>2026-04-05T06:40:02.992Z</time></trkpt><trkpt lat="45.55968826117167" lon="9.096478616330188"><ele>167.0</ele><time>2026-04-05T06:40:04.992Z</time></trkpt><trkpt lat="45.559682589561504" lon="9.096592016364024"><ele>167.0</ele><time>2026-04-05T06:40:06.992Z</time></trkpt><trkpt lat="45.559692865710694" lon="9.096729613017942"><ele>167.0</ele><time>2026-04-05T06:40:08.992Z</time></trkpt><trkpt lat="45.559708878371715" lon="9.096874236043268"><ele>167.0</ele><time>2026-04-05T06:40:10.992Z</time></trkpt><trkpt lat="45.55972396238269" lon="9.097011127779894"><ele>167.0</ele><time>2026-04-05T06:40:12.992Z</time></trkpt><trkpt lat="45.55973601366241" lon="9.097139222841822"><ele>167.0</ele><time>2026-04-05T06:40:14.992Z</time></trkpt><trkpt lat="45.55975465820784" lon="9.097271652815422"><ele>167.0</ele><time>2026-04-05T06:40:16.992Z</time></trkpt><trkpt lat="45.55977063195996" lon="9.097402430303637"><ele>167.0</ele><time>2026-04-05T06:40:18.992Z</time></trkpt><trkpt lat="45.55980130509452" lon="9.097535478563115"><ele>167.16666666666666</ele><time>2026-04-05T06:40:20.992Z</time></trkpt><trkpt lat="45.55984836734736" lon="9.097663274379823"><ele>167.33333333333331</ele><time>2026-04-05T06:40:22.992Z</time></trkpt><trkpt lat="45.55988674502947" lon="9.097756747806809"><ele>167.5</ele><time>2026-04-05T06:40:24.992Z</time></trkpt><trkpt lat="45.559933998316524" lon="9.097839674689745"><ele>167.66666666666666</ele><time>2026-04-05T06:40:27.992Z</time></trkpt><trkpt lat="45.560012871008226" lon="9.097852374415071"><ele>167.83333333333334</ele><time>2026-04-05T06:40:30.992Z</time></trkpt><trkpt lat="45.560060003190756" lon="9.097927079715474"><ele>168.0</ele><time>2026-04-05T06:40:33.992Z</time></trkpt><trkpt lat="45.560043214438956" lon="9.098014020923307"><ele>168.0</ele><time>2026-04-05T06:40:36.992Z</time></trkpt><trkpt lat="45.56009437389797" lon="9.098098091100974"><ele>168.0</ele><time>2026-04-05T06:40:39.992Z</time></trkpt><trkpt lat="45.560149669329704" lon="9.098152598170783"><ele>168.0</ele><time>2026-04-05T06:40:41.992Z</time></trkpt><trkpt lat="45.560210354533794" lon="9.098208109100058"><ele>168.0</ele><time>2026-04-05T06:40:43.992Z</time></trkpt><trkpt lat="45.56028893772351" lon="9.098267221958476"><ele>168.0</ele><time>2026-04-05T06:40:45.992Z</time></trkpt><trkpt lat="45.56037134827137" lon="9.0983289291295"><ele>168.0</ele><time>2026-04-05T06:40:47.992Z</time></trkpt><trkpt lat="45.560461579259794" lon="9.098394834987602"><ele>168.4</ele><time>2026-04-05T06:40:49.992Z</time></trkpt><trkpt lat="45.560532293112324" lon="9.098449936562568"><ele>168.8</ele><time>2026-04-05T06:40:51.992Z</time></trkpt><trkpt lat="45.56061001639819" lon="9.098512432646277"><ele>169.2</ele><time>2026-04-05T06:40:53.992Z</time></trkpt><trkpt lat="45.560713930547635" lon="9.098585335585518"><ele>169.6</ele><time>2026-04-05T06:40:55.992Z</time></trkpt><trkpt lat="45.56080532623275" lon="9.098656908188644"><ele>170.0</ele><time>2026-04-05T06:40:57.992Z</time></trkpt><trkpt lat="45.56089569801276" lon="9.098727003828794"><ele>170.0</ele><time>2026-04-05T06:40:59.992Z</time></trkpt><trkpt lat="45.560983657826775" lon="9.098802369144817"><ele>170.0</ele><time>2026-04-05T06:41:01.992Z</time></trkpt><trkpt lat="45.56108018730306" lon="9.098865617754875"><ele>170.0</ele><time>2026-04-05T06:41:03.992Z</time></trkpt><trkpt lat="45.56116583004636" lon="9.098928401319696"><ele>170.0</ele><time>2026-04-05T06:41:05.992Z</time></trkpt><trkpt lat="45.561245264194675" lon="9.0989857945111"><ele>170.0</ele><time>2026-04-05T06:41:07.992Z</time></trkpt><trkpt lat="45.56132937963143" lon="9.099047051451398"><ele>169.83333333333331</ele><time>2026-04-05T06:41:09.992Z</time></trkpt><trkpt lat="45.56141151045985" lon="9.099108323467618"><ele>169.66666666666666</ele><time>2026-04-05T06:41:11.992Z</time></trkpt><trkpt lat="45.56149390201828" lon="9.099170589988866"><ele>169.5</ele><time>2026-04-05T06:41:13.992Z</time></trkpt><trkpt lat="45.56157045457358" lon="9.099220281342122"><ele>169.33333333333334</ele><time>2026-04-05T06:41:16.992Z</time></trkpt><trkpt lat="45.56163157286795" lon="9.099283704290404"><ele>169.16666666666669</ele><time>2026-04-05T06:41:18.992Z</time></trkpt><trkpt lat="45.56171745733358" lon="9.09934282393007"><ele>169.0</ele><time>2026-04-05T06:41:20.992Z</time></trkpt><trkpt lat="45.561806074699724" lon="9.099403472394073"><ele>169.0</ele><time>2026-04-05T06:41:22.992Z</time></trkpt><trkpt lat="45.56188984061809" lon="9.09946739772117"><ele>169.0</ele><time>2026-04-05T06:41:24.992Z</time></trkpt><trkpt lat="45.56196870448583" lon="9.09951770937303"><ele>169.0</ele><time>2026-04-05T06:41:26.992Z</time></trkpt><trkpt lat="45.56203778818111" lon="9.09955530221879"><ele>169.0</ele><time>2026-04-05T06:41:28.992Z</time></trkpt><trkpt lat="45.56211919358256" lon="9.099601316437946"><ele>169.0</ele><time>2026-04-05T06:41:30.992Z</time></trkpt><trkpt lat="45.56219141020344" lon="9.099690464992243"><ele>169.0</ele><time>2026-04-05T06:41:33.992Z</time></trkpt><trkpt lat="45.56226345154365" lon="9.09974701583392"><ele>168.33333333333334</ele><time>2026-04-05T06:41:36.992Z</time></trkpt><trkpt lat="45.56231321622734" lon="9.099834981078432"><ele>167.66666666666669</ele><time>2026-04-05T06:41:38.992Z</time></trkpt><trkpt lat="45.562368703085205" lon="9.099879255373935"><ele>167.0</ele><time>2026-04-05T06:41:40.992Z</time></trkpt><trkpt lat="45.562430845625244" lon="9.099963814322887"><ele>166.33333333333334</ele><time>2026-04-05T06:41:42.991Z</time></trkpt><trkpt lat="45.56251008492235" lon="9.100074618018061"><ele>165.66666666666666</ele><time>2026-04-05T06:41:44.991Z</time></trkpt><trkpt lat="45.56255316514856" lon="9.100153564047725"><ele>165.0</ele><time>2026-04-05T06:41:45.991Z</time></trkpt><trkpt lat="45.56264148188456" lon="9.100272876107454"><ele>165.0</ele><time>2026-04-05T06:41:47.991Z</time></trkpt><trkpt lat="45.562710270448356" lon="9.10039581717627"><ele>165.0</ele><time>2026-04-05T06:41:49.991Z</time></trkpt><trkpt lat="45.56278957654832" lon="9.100507374660618"><ele>165.0</ele><time>2026-04-05T06:41:51.991Z</time></trkpt><trkpt lat="45.56283422701523" lon="9.100576545639601"><ele>165.0</ele><time>2026-04-05T06:41:53.991Z</time></trkpt><trkpt lat="45.56289986241746" lon="9.100700096524582"><ele>165.0</ele><time>2026-04-05T06:41:56.991Z</time></trkpt><trkpt lat="45.562962501132034" lon="9.100837624864514"><ele>165.5</ele><time>2026-04-05T06:41:57.991Z</time></trkpt><trkpt lat="45.563008033717345" lon="9.10090914094575"><ele>166.0</ele><time>2026-04-05T06:41:58.991Z</time></trkpt><trkpt lat="45.56303975216926" lon="9.100989684544112"><ele>166.5</ele><time>2026-04-05T06:41:59.991Z</time></trkpt><trkpt lat="45.563064620620935" lon="9.101086444887292"><ele>167.0</ele><time>2026-04-05T06:42:00.991Z</time></trkpt><trkpt lat="45.563082675258265" lon="9.101180554102198"><ele>167.5</ele><time>2026-04-05T06:42:01.991Z</time></trkpt><trkpt lat="45.56311320689279" lon="9.101342433880884"><ele>168.0</ele><time>2026-04-05T06:42:03.991Z</time></trkpt><trkpt lat="45.56311272440011" lon="9.101493461363022"><ele>168.0</ele><time>2026-04-05T06:42:05.991Z</time></trkpt><trkpt lat="45.5631175683805" lon="9.101634335908196"><ele>168.0</ele><time>2026-04-05T06:42:07.991Z</time></trkpt><trkpt lat="45.56310570272106" lon="9.101788317740692"><ele>168.0</ele><time>2026-04-05T06:42:09.991Z</time></trkpt><trkpt lat="45.56309027588492" lon="9.10191022078209"><ele>168.0</ele><time>2026-04-05T06:42:11.991Z</time></trkpt><trkpt lat="45.56306304862569" lon="9.102029502772039"><ele>168.0</ele><time>2026-04-05T06:42:13.991Z</time></trkpt><trkpt lat="45.56304458499745" lon="9.102138756609545"><ele>168.0</ele><time>2026-04-05T06:42:15.991Z</time></trkpt><trkpt lat="45.563032253138694" lon="9.102227008506926"><ele>168.0</ele><time>2026-04-05T06:42:17.991Z</time></trkpt><trkpt lat="45.563018613879336" lon="9.10234757756658"><ele>168.0</ele><time>2026-04-05T06:42:20.991Z</time></trkpt><trkpt lat="45.562985118314685" lon="9.102435050324631"><ele>168.0</ele><time>2026-04-05T06:42:22.991Z</time></trkpt><trkpt lat="45.562926574396585" lon="9.10246987782673"><ele>168.0</ele><time>2026-04-05T06:42:24.991Z</time></trkpt><trkpt lat="45.562856085218826" lon="9.102514179298351"><ele>168.0</ele><time>2026-04-05T06:42:26.991Z</time></trkpt><trkpt lat="45.5627915865052" lon="9.102602610503128"><ele>168.0</ele><time>2026-04-05T06:42:28.991Z</time></trkpt><trkpt lat="45.56274413647522" lon="9.102702957131777"><ele>168.5</ele><time>2026-04-05T06:42:30.991Z</time></trkpt><trkpt lat="45.562676679163566" lon="9.10278795082352"><ele>169.0</ele><time>2026-04-05T06:42:32.991Z</time></trkpt><trkpt lat="45.562602239602846" lon="9.102850706482654"><ele>169.5</ele><time>2026-04-05T06:42:34.991Z</time></trkpt><trkpt lat="45.5625601081934" lon="9.102939134573395"><ele>170.0</ele><time>2026-04-05T06:42:36.991Z</time></trkpt><trkpt lat="45.56253491325754" lon="9.10304873645598"><ele>170.5</ele><time>2026-04-05T06:42:38.991Z</time></trkpt><trkpt lat="45.562458095880785" lon="9.10312941758822"><ele>171.0</ele><time>2026-04-05T06:42:40.991Z</time></trkpt><trkpt lat="45.56238975373895" lon="9.103201779071048"><ele>170.83333333333334</ele><time>2026-04-05T06:42:42.991Z</time></trkpt><trkpt lat="45.56232217059164" lon="9.103274027712947"><ele>170.66666666666666</ele><time>2026-04-05T06:42:44.991Z</time></trkpt><trkpt lat="45.562241726840185" lon="9.103359481324237"><ele>170.5</ele><time>2026-04-05T06:42:46.991Z</time></trkpt><trkpt lat="45.56216550330488" lon="9.103423773259589"><ele>170.33333333333331</ele><time>2026-04-05T06:42:48.991Z</time></trkpt><trkpt lat="45.56212011591946" lon="9.103494715624427"><ele>170.16666666666666</ele><time>2026-04-05T06:42:50.991Z</time></trkpt><trkpt lat="45.56204314537358" lon="9.103556503906907"><ele>170.0</ele><time>2026-04-05T06:42:52.991Z</time></trkpt><trkpt lat="45.56197715282472" lon="9.103610562547344"><ele>169.6</ele><time>2026-04-05T06:42:54.991Z</time></trkpt><trkpt lat="45.56191176499979" lon="9.103692740149455"><ele>169.2</ele><time>2026-04-05T06:42:57.991Z</time></trkpt><trkpt lat="45.561825394619284" lon="9.103779792268414"><ele>168.8</ele><time>2026-04-05T06:43:00.991Z</time></trkpt><trkpt lat="45.56174301362957" lon="9.103826679929849"><ele>168.4</ele><time>2026-04-05T06:43:02.991Z</time></trkpt><trkpt lat="45.56167289394293" lon="9.103893563126206"><ele>168.0</ele><time>2026-04-05T06:43:04.991Z</time></trkpt><trkpt lat="45.561590385801615" lon="9.103964851230248"><ele>168.0</ele><time>2026-04-05T06:43:07.991Z</time></trkpt><trkpt lat="45.561524822097454" lon="9.104038654612092"><ele>168.0</ele><time>2026-04-05T06:43:09.991Z</time></trkpt><trkpt lat="45.56145919465615" lon="9.104105253843766"><ele>168.0</ele><time>2026-04-05T06:43:11.991Z</time></trkpt><trkpt lat="45.561389327615416" lon="9.104167606535908"><ele>168.0</ele><time>2026-04-05T06:43:13.991Z</time></trkpt><trkpt lat="45.56132001766325" lon="9.104225039921987"><ele>168.0</ele><time>2026-04-05T06:43:15.991Z</time></trkpt><trkpt lat="45.561242854081364" lon="9.10428883790264"><ele>168.0</ele><time>2026-04-05T06:43:17.991Z</time></trkpt><trkpt lat="45.56118074900828" lon="9.104360953161722"><ele>167.66666666666666</ele><time>2026-04-05T06:43:19.991Z</time></trkpt><trkpt lat="45.56111200275732" lon="9.104432191626335"><ele>167.33333333333334</ele><time>2026-04-05T06:43:21.991Z</time></trkpt><trkpt lat="45.56104648082292" lon="9.104524216196468"><ele>167.0</ele><time>2026-04-05T06:43:23.99Z</time></trkpt><trkpt lat="45.56096671671745" lon="9.104581869340056"><ele>166.66666666666669</ele><time>2026-04-05T06:43:25.99Z</time></trkpt><trkpt lat="45.56091619100779" lon="9.104637019674431"><ele>166.33333333333334</ele><time>2026-04-05T06:43:27.99Z</time></trkpt><trkpt lat="45.56085337217608" lon="9.10471007160213"><ele>166.0</ele><time>2026-04-05T06:43:29.99Z</time></trkpt><trkpt lat="45.56078811231244" lon="9.104778979164102"><ele>166.0</ele><time>2026-04-05T06:43:31.99Z</time></trkpt><trkpt lat="45.56071809618676" lon="9.104863650882177"><ele>166.0</ele><time>2026-04-05T06:43:34.99Z</time></trkpt><trkpt lat="45.56064658409756" lon="9.104933016274249"><ele>166.0</ele><time>2026-04-05T06:43:36.99Z</time></trkpt><trkpt lat="45.56055869790655" lon="9.104991836970004"><ele>166.0</ele><time>2026-04-05T06:43:38.99Z</time></trkpt><trkpt lat="45.56048353321684" lon="9.105050843361246"><ele>166.0</ele><time>2026-04-05T06:43:40.99Z</time></trkpt><trkpt lat="45.56040318357855" lon="9.105114704829251"><ele>165.8</ele><time>2026-04-05T06:43:42.99Z</time></trkpt><trkpt lat="45.56031505097627" lon="9.105180449691726"><ele>165.60000000000002</ele><time>2026-04-05T06:43:44.99Z</time></trkpt><trkpt lat="45.56023724905937" lon="9.105246716025217"><ele>165.4</ele><time>2026-04-05T06:43:46.99Z</time></trkpt><trkpt lat="45.56016397167656" lon="9.105308589697088"><ele>165.2</ele><time>2026-04-05T06:43:48.99Z</time></trkpt><trkpt lat="45.56008659714105" lon="9.105381228111675"><ele>165.0</ele><time>2026-04-05T06:43:50.99Z</time></trkpt><trkpt lat="45.5600118898667" lon="9.105451360749827"><ele>165.0</ele><time>2026-04-05T06:43:52.99Z</time></trkpt><trkpt lat="45.55996850720284" lon="9.105565090742262"><ele>165.0</ele><time>2026-04-05T06:43:54.99Z</time></trkpt><trkpt lat="45.559976231485045" lon="9.105687079184664"><ele>165.0</ele><time>2026-04-05T06:43:56.99Z</time></trkpt><trkpt lat="45.55998973449469" lon="9.105782842752731"><ele>165.0</ele><time>2026-04-05T06:43:58.99Z</time></trkpt><trkpt lat="45.559997273359926" lon="9.105888234210436"><ele>165.0</ele><time>2026-04-05T06:44:00.99Z</time></trkpt><trkpt lat="45.56000326078282" lon="9.10600737484335"><ele>165.0</ele><time>2026-04-05T06:44:02.99Z</time></trkpt><trkpt lat="45.560016217456166" lon="9.10610114209156"><ele>165.0</ele><time>2026-04-05T06:44:04.99Z</time></trkpt><trkpt lat="45.560038284103996" lon="9.10622587158957"><ele>165.0</ele><time>2026-04-05T06:44:06.99Z</time></trkpt><trkpt lat="45.56004080225996" lon="9.10634829610463"><ele>165.0</ele><time>2026-04-05T06:44:08.99Z</time></trkpt><trkpt lat="45.56006159431045" lon="9.106434680513557"><ele>165.0</ele><time>2026-04-05T06:44:10.99Z</time></trkpt><trkpt lat="45.56007434969168" lon="9.106530670231242"><ele>165.0</ele><time>2026-04-05T06:44:12.99Z</time></trkpt><trkpt lat="45.56009001796044" lon="9.106632979193197"><ele>165.0</ele><time>2026-04-05T06:44:14.99Z</time></trkpt><trkpt lat="45.56011291413275" lon="9.106725647746229"><ele>165.33333333333334</ele><time>2026-04-05T06:44:16.99Z</time></trkpt><trkpt lat="45.56013839036555" lon="9.106842782035855"><ele>165.66666666666666</ele><time>2026-04-05T06:44:18.99Z</time></trkpt><trkpt lat="45.56015303531118" lon="9.106965954416035"><ele>166.0</ele><time>2026-04-05T06:44:20.99Z</time></trkpt><trkpt lat="45.56015562539291" lon="9.107078719533506"><ele>166.33333333333331</ele><time>2026-04-05T06:44:22.99Z</time></trkpt><trkpt lat="45.560160842561466" lon="9.107178055984502"><ele>166.66666666666666</ele><time>2026-04-05T06:44:24.99Z</time></trkpt><trkpt lat="45.560151775789386" lon="9.107303740917963"><ele>167.0</ele><time>2026-04-05T06:44:26.99Z</time></trkpt><trkpt lat="45.56013946870327" lon="9.10742157877225"><ele>167.0</ele><time>2026-04-05T06:44:28.99Z</time></trkpt><trkpt lat="45.5601357634578" lon="9.10753316593466"><ele>167.0</ele><time>2026-04-05T06:44:30.99Z</time></trkpt><trkpt lat="45.56013603429211" lon="9.107646214993617"><ele>167.0</ele><time>2026-04-05T06:44:32.99Z</time></trkpt><trkpt lat="45.56013321759153" lon="9.107754851215356"><ele>167.0</ele><time>2026-04-05T06:44:34.99Z</time></trkpt><trkpt lat="45.560152454277365" lon="9.10785957732346"><ele>167.0</ele><time>2026-04-05T06:44:36.99Z</time></trkpt><trkpt lat="45.56016412662206" lon="9.107969007944531"><ele>167.0</ele><time>2026-04-05T06:44:38.99Z</time></trkpt><trkpt lat="45.560165009717146" lon="9.108091903353259"><ele>167.0</ele><time>2026-04-05T06:44:40.99Z</time></trkpt><trkpt lat="45.56017478533096" lon="9.10821514315983"><ele>167.0</ele><time>2026-04-05T06:44:42.99Z</time></trkpt><trkpt lat="45.56017885439509" lon="9.108328009882444"><ele>167.0</ele><time>2026-04-05T06:44:44.99Z</time></trkpt><trkpt lat="45.560194093375415" lon="9.108437296687722"><ele>167.0</ele><time>2026-04-05T06:44:46.99Z</time></trkpt><trkpt lat="45.56019418990907" lon="9.10855367852159"><ele>167.0</ele><time>2026-04-05T06:44:48.99Z</time></trkpt><trkpt lat="45.56022562244879" lon="9.108651588563982"><ele>167.0</ele><time>2026-04-05T06:44:50.99Z</time></trkpt><trkpt lat="45.56029035977893" lon="9.108695689029632"><ele>166.85714285714286</ele><time>2026-04-05T06:44:52.99Z</time></trkpt><trkpt lat="45.56035380294013" lon="9.108687234531402"><ele>166.71428571428572</ele><time>2026-04-05T06:44:54.99Z</time></trkpt><trkpt lat="45.56042266127871" lon="9.108677265788074"><ele>166.57142857142856</ele><time>2026-04-05T06:44:56.99Z</time></trkpt><trkpt lat="45.56049204495951" lon="9.108656150133287"><ele>166.42857142857144</ele><time>2026-04-05T06:44:58.99Z</time></trkpt><trkpt lat="45.5605627331866" lon="9.10863841719161"><ele>166.2857142857143</ele><time>2026-04-05T06:45:00.99Z</time></trkpt><trkpt lat="45.56063558798001" lon="9.108626950309192"><ele>166.14285714285714</ele><time>2026-04-05T06:45:02.99Z</time></trkpt><trkpt lat="45.56069736193672" lon="9.108659141799365"><ele>166.0</ele><time>2026-04-05T06:45:04.989Z</time></trkpt><trkpt lat="45.560729545789506" lon="9.108740199608615"><ele>166.0</ele><time>2026-04-05T06:45:06.989Z</time></trkpt><trkpt lat="45.560725603647576" lon="9.108836837167981"><ele>166.0</ele><time>2026-04-05T06:45:08.989Z</time></trkpt><trkpt lat="45.56072192011444" lon="9.10892729818806"><ele>166.0</ele><time>2026-04-05T06:45:10.989Z</time></trkpt><trkpt lat="45.56071822772361" lon="9.109017599393251"><ele>166.0</ele><time>2026-04-05T06:45:12.989Z</time></trkpt><trkpt lat="45.560705863641566" lon="9.10910600801595"><ele>166.0</ele><time>2026-04-05T06:45:14.989Z</time></trkpt><trkpt lat="45.560699857413155" lon="9.10921789048754"><ele>166.0</ele><time>2026-04-05T06:45:17.989Z</time></trkpt><trkpt lat="45.56069610557641" lon="9.109326549857009"><ele>166.0</ele><time>2026-04-05T06:45:20.989Z</time></trkpt><trkpt lat="45.5606790980488" lon="9.109428421140382"><ele>165.83333333333334</ele><time>2026-04-05T06:45:23.989Z</time></trkpt><trkpt lat="45.560713718638205" lon="9.109514708445746"><ele>165.66666666666669</ele><time>2026-04-05T06:45:27.989Z</time></trkpt><trkpt lat="45.560787329231175" lon="9.109504543305643"><ele>165.5</ele><time>2026-04-05T06:45:30.989Z</time></trkpt><trkpt lat="45.5608690210068" lon="9.10950401509318"><ele>165.33333333333334</ele><time>2026-04-05T06:45:33.989Z</time></trkpt><trkpt lat="45.560945435807696" lon="9.1094865818229"><ele>165.16666666666666</ele><time>2026-04-05T06:45:36.989Z</time></trkpt><trkpt lat="45.56103117278241" lon="9.109465576290141"><ele>165.0</ele><time>2026-04-05T06:45:39.989Z</time></trkpt><trkpt lat="45.56111639372716" lon="9.109451725331834"><ele>165.0</ele><time>2026-04-05T06:45:42.989Z</time></trkpt><trkpt lat="45.56119773379469" lon="9.109435324073424"><ele>165.0</ele><time>2026-04-05T06:45:45.989Z</time></trkpt><trkpt lat="45.56127865020496" lon="9.109421790636356"><ele>165.0</ele><time>2026-04-05T06:45:48.989Z</time></trkpt><trkpt lat="45.561362197779566" lon="9.1094050741611"><ele>165.0</ele><time>2026-04-05T06:45:51.989Z</time></trkpt><trkpt lat="45.56144165236017" lon="9.109379286264227"><ele>165.0</ele><time>2026-04-05T06:45:54.989Z</time></trkpt><trkpt lat="45.56150811786556" lon="9.109361879625807"><ele>165.0</ele><time>2026-04-05T06:45:57.989Z</time></trkpt><trkpt lat="45.56158611703068" lon="9.10934187995821"><ele>165.33333333333334</ele><time>2026-04-05T06:46:00.989Z</time></trkpt><trkpt lat="45.56166360801481" lon="9.10933372985168"><ele>165.66666666666666</ele><time>2026-04-05T06:46:03.989Z</time></trkpt><trkpt lat="45.561747869196786" lon="9.109340879109554"><ele>166.0</ele><time>2026-04-05T06:46:07.989Z</time></trkpt><trkpt lat="45.56182908927898" lon="9.109420142773091"><ele>166.33333333333331</ele><time>2026-04-05T06:46:10.989Z</time></trkpt><trkpt lat="45.561870699476735" lon="9.10956102598247"><ele>166.66666666666666</ele><time>2026-04-05T06:46:12.989Z</time></trkpt><trkpt lat="45.561886480641405" lon="9.109650218868802"><ele>167.0</ele><time>2026-04-05T06:46:13.989Z</time></trkpt><trkpt lat="45.56188988640926" lon="9.109754363949335"><ele>167.0</ele><time>2026-04-05T06:46:14.989Z</time></trkpt><trkpt lat="45.56188487346121" lon="9.10985819944932"><ele>167.0</ele><time>2026-04-05T06:46:15.989Z</time></trkpt><trkpt lat="45.56187535144414" lon="9.109953854575592"><ele>167.0</ele><time>2026-04-05T06:46:16.989Z</time></trkpt><trkpt lat="45.5618803924794" lon="9.110046529185036"><ele>167.0</ele><time>2026-04-05T06:46:17.989Z</time></trkpt><trkpt lat="45.56195645307769" lon="9.110169127709376"><ele>167.0</ele><time>2026-04-05T06:46:19.989Z</time></trkpt><trkpt lat="45.56203761853421" lon="9.110173911707703"><ele>167.0</ele><time>2026-04-05T06:46:21.989Z</time></trkpt><trkpt lat="45.56209815010291" lon="9.11014159130101"><ele>166.83333333333331</ele><time>2026-04-05T06:46:23.989Z</time></trkpt><trkpt lat="45.56217102995385" lon="9.110087541954034"><ele>166.66666666666666</ele><time>2026-04-05T06:46:26.989Z</time></trkpt><trkpt lat="45.562247984882056" lon="9.110036324068298"><ele>166.5</ele><time>2026-04-05T06:46:29.989Z</time></trkpt><trkpt lat="45.56232549508196" lon="9.109977148348392"><ele>166.33333333333334</ele><time>2026-04-05T06:46:32.989Z</time></trkpt><trkpt lat="45.562390778513134" lon="9.109879601544687"><ele>166.16666666666669</ele><time>2026-04-05T06:46:35.989Z</time></trkpt><trkpt lat="45.562459005268664" lon="9.109783459266758"><ele>166.0</ele><time>2026-04-05T06:46:38.989Z</time></trkpt><trkpt lat="45.56250329611454" lon="9.109717072366982"><ele>166.0</ele><time>2026-04-05T06:46:40.989Z</time></trkpt><trkpt lat="45.562553412251525" lon="9.109649271706415"><ele>166.0</ele><time>2026-04-05T06:46:42.989Z</time></trkpt><trkpt lat="45.56259972661201" lon="9.109580091582764"><ele>166.0</ele><time>2026-04-05T06:46:44.989Z</time></trkpt><trkpt lat="45.56265496875249" lon="9.109515193399075"><ele>166.0</ele><time>2026-04-05T06:46:46.988Z</time></trkpt><trkpt lat="45.56269527802808" lon="9.10944296202205"><ele>166.0</ele><time>2026-04-05T06:46:48.988Z</time></trkpt><trkpt lat="45.56274207933923" lon="9.10937342662815"><ele>166.0</ele><time>2026-04-05T06:46:50.988Z</time></trkpt><trkpt lat="45.56278969140944" lon="9.10930604462204"><ele>166.0</ele><time>2026-04-05T06:46:52.988Z</time></trkpt><trkpt lat="45.56283892171179" lon="9.109237293693193"><ele>166.0</ele><time>2026-04-05T06:46:54.988Z</time></trkpt><trkpt lat="45.56291335029598" lon="9.109152417252533"><ele>166.0</ele><time>2026-04-05T06:46:57.988Z</time></trkpt><trkpt lat="45.562996703491784" lon="9.109131398335299"><ele>166.0</ele><time>2026-04-05T06:47:00.988Z</time></trkpt><trkpt lat="45.5630616207321" lon="9.109193503375435"><ele>166.0</ele><time>2026-04-05T06:47:03.988Z</time></trkpt><trkpt lat="45.56312254885838" lon="9.109259408789942"><ele>166.0</ele><time>2026-04-05T06:47:07.988Z</time></trkpt><trkpt lat="45.563190710143694" lon="9.109181225738496"><ele>166.0</ele><time>2026-04-05T06:47:10.988Z</time></trkpt><trkpt lat="45.563232230459526" lon="9.109097811707814"><ele>166.14285714285714</ele><time>2026-04-05T06:47:12.988Z</time></trkpt><trkpt lat="45.563287953232425" lon="9.109022437894488"><ele>166.2857142857143</ele><time>2026-04-05T06:47:14.988Z</time></trkpt><trkpt lat="45.56334327698582" lon="9.108974192566437"><ele>166.42857142857144</ele><time>2026-04-05T06:47:16.988Z</time></trkpt><trkpt lat="45.5634220190976" lon="9.108951013067566"><ele>166.57142857142856</ele><time>2026-04-05T06:47:20.988Z</time></trkpt><trkpt lat="45.563488232833" lon="9.1089387566977"><ele>166.71428571428572</ele><time>2026-04-05T06:47:22.988Z</time></trkpt><trkpt lat="45.56355309339533" lon="9.108924253060977"><ele>166.85714285714286</ele><time>2026-04-05T06:47:24.988Z</time></trkpt><trkpt lat="45.56362629879829" lon="9.108925444854275"><ele>167.0</ele><time>2026-04-05T06:47:26.988Z</time></trkpt><trkpt lat="45.56369423079255" lon="9.108936372902212"><ele>167.28571428571428</ele><time>2026-04-05T06:47:28.988Z</time></trkpt><trkpt lat="45.56376206789559" lon="9.108948450877145"><ele>167.57142857142858</ele><time>2026-04-05T06:47:30.988Z</time></trkpt><trkpt lat="45.56384076627974" lon="9.108966152732863"><ele>167.85714285714286</ele><time>2026-04-05T06:47:33.988Z</time></trkpt><trkpt lat="45.56390778648369" lon="9.10896969950698"><ele>168.14285714285714</ele><time>2026-04-05T06:47:35.988Z</time></trkpt><trkpt lat="45.56397525114362" lon="9.108962058968475"><ele>168.42857142857142</ele><time>2026-04-05T06:47:38.004Z</time></trkpt><trkpt lat="45.56406364897628" lon="9.108961896887916"><ele>168.71428571428572</ele><time>2026-04-05T06:47:41.004Z</time></trkpt><trkpt lat="45.564131078993896" lon="9.108930855021327"><ele>169.0</ele><time>2026-04-05T06:47:43.004Z</time></trkpt><trkpt lat="45.56418973171324" lon="9.108881845452265"><ele>169.0</ele><time>2026-04-05T06:47:45.004Z</time></trkpt><trkpt lat="45.564255630807125" lon="9.108855322053092"><ele>169.0</ele><time>2026-04-05T06:47:47.003Z</time></trkpt><trkpt lat="45.56432351698737" lon="9.108851439249387"><ele>169.0</ele><time>2026-04-05T06:47:49.003Z</time></trkpt><trkpt lat="45.56440804862284" lon="9.108890606983975"><ele>169.0</ele><time>2026-04-05T06:47:52.003Z</time></trkpt><trkpt lat="45.5645001357418" lon="9.108895621433563"><ele>169.0</ele><time>2026-04-05T06:47:55.003Z</time></trkpt><trkpt lat="45.564567394592835" lon="9.108913766145077"><ele>169.0</ele><time>2026-04-05T06:47:57.003Z</time></trkpt><trkpt lat="45.56463977573163" lon="9.108917494458009"><ele>168.66666666666669</ele><time>2026-04-05T06:47:59.003Z</time></trkpt><trkpt lat="45.56473194615895" lon="9.1089266041049"><ele>168.33333333333334</ele><time>2026-04-05T06:48:02.003Z</time></trkpt><trkpt lat="45.56480188778969" lon="9.10893365393176"><ele>168.0</ele><time>2026-04-05T06:48:04.003Z</time></trkpt><trkpt lat="45.5648949877033" lon="9.108931067363299"><ele>167.66666666666666</ele><time>2026-04-05T06:48:07.003Z</time></trkpt><trkpt lat="45.564969387186395" lon="9.108948123559264"><ele>167.33333333333331</ele><time>2026-04-05T06:48:09.003Z</time></trkpt><trkpt lat="45.56504095753024" lon="9.108958546142603"><ele>167.0</ele><time>2026-04-05T06:48:11.003Z</time></trkpt><trkpt lat="45.56511063447104" lon="9.1089661120824"><ele>167.0</ele><time>2026-04-05T06:48:13.003Z</time></trkpt><trkpt lat="45.565186503189565" lon="9.108962622243952"><ele>167.0</ele><time>2026-04-05T06:48:15.003Z</time></trkpt><trkpt lat="45.56526510380989" lon="9.108974806919546"><ele>167.0</ele><time>2026-04-05T06:48:17.003Z</time></trkpt><trkpt lat="45.56535409511392" lon="9.108983150204754"><ele>167.0</ele><time>2026-04-05T06:48:19.003Z</time></trkpt><trkpt lat="45.56543312050116" lon="9.108997821105113"><ele>167.0</ele><time>2026-04-05T06:48:21.003Z</time></trkpt><trkpt lat="45.56550888262184" lon="9.109015894542539"><ele>167.0</ele><time>2026-04-05T06:48:23.003Z</time></trkpt><trkpt lat="45.56558337389121" lon="9.10902931169924"><ele>167.16666666666666</ele><time>2026-04-05T06:48:25.005Z</time></trkpt><trkpt lat="45.565665687506225" lon="9.109044573594778"><ele>167.33333333333331</ele><time>2026-04-05T06:48:27.005Z</time></trkpt><trkpt lat="45.56574136596888" lon="9.109058709730109"><ele>167.5</ele><time>2026-04-05T06:48:29.005Z</time></trkpt><trkpt lat="45.56581414783649" lon="9.109061177931057"><ele>167.66666666666666</ele><time>2026-04-05T06:48:31.005Z</time></trkpt><trkpt lat="45.56589183820139" lon="9.109075180025778"><ele>167.83333333333334</ele><time>2026-04-05T06:48:33.005Z</time></trkpt><trkpt lat="45.56595905982203" lon="9.1090863004205"><ele>168.0</ele><time>2026-04-05T06:48:35.005Z</time></trkpt><trkpt lat="45.566032500265734" lon="9.109091083188583"><ele>168.0</ele><time>2026-04-05T06:48:37.005Z</time></trkpt><trkpt lat="45.566095923672705" lon="9.109086954839695"><ele>168.0</ele><time>2026-04-05T06:48:39.005Z</time></trkpt><trkpt lat="45.56617007115501" lon="9.109095632747746"><ele>168.0</ele><time>2026-04-05T06:48:41.005Z</time></trkpt><trkpt lat="45.56623570314748" lon="9.10911601082319"><ele>168.0</ele><time>2026-04-05T06:48:43.005Z</time></trkpt><trkpt lat="45.5663168097383" lon="9.109132914551031"><ele>168.0</ele><time>2026-04-05T06:48:45.005Z</time></trkpt><trkpt lat="45.56641334324964" lon="9.109152042438609"><ele>168.0</ele><time>2026-04-05T06:48:48.005Z</time></trkpt><trkpt lat="45.56647652786776" lon="9.109147547502568"><ele>168.0</ele><time>2026-04-05T06:48:50.005Z</time></trkpt><trkpt lat="45.5665519513672" lon="9.10915714490545"><ele>168.16666666666666</ele><time>2026-04-05T06:48:52.005Z</time></trkpt><trkpt lat="45.566636152410055" lon="9.109172935029616"><ele>168.33333333333334</ele><time>2026-04-05T06:48:54.005Z</time></trkpt><trkpt lat="45.56671725147282" lon="9.109177452060345"><ele>168.5</ele><time>2026-04-05T06:48:56.005Z</time></trkpt><trkpt lat="45.566797269244596" lon="9.109194435250664"><ele>168.66666666666669</ele><time>2026-04-05T06:48:58.005Z</time></trkpt><trkpt lat="45.56688088034851" lon="9.109204901897991"><ele>168.83333333333334</ele><time>2026-04-05T06:49:00.005Z</time></trkpt><trkpt lat="45.566955657554274" lon="9.109212397600146"><ele>169.0</ele><time>2026-04-05T06:49:02.005Z</time></trkpt><trkpt lat="45.567038916109915" lon="9.10922841868489"><ele>169.0</ele><time>2026-04-05T06:49:04.005Z</time></trkpt><trkpt lat="45.567113626294095" lon="9.109239125652033"><ele>169.0</ele><time>2026-04-05T06:49:06.005Z</time></trkpt><trkpt lat="45.56719001085162" lon="9.109241721032006"><ele>169.0</ele><time>2026-04-05T06:49:08.005Z</time></trkpt><trkpt lat="45.567267771298475" lon="9.109251543577944"><ele>169.0</ele><time>2026-04-05T06:49:10.005Z</time></trkpt><trkpt lat="45.567344352120614" lon="9.10925995354105"><ele>169.0</ele><time>2026-04-05T06:49:12.004Z</time></trkpt><trkpt lat="45.56742421153592" lon="9.109265279137164"><ele>169.0</ele><time>2026-04-05T06:49:14.004Z</time></trkpt><trkpt lat="45.56749679033768" lon="9.109275071402742"><ele>169.0</ele><time>2026-04-05T06:49:16.004Z</time></trkpt><trkpt lat="45.56756986842928" lon="9.109278019882359"><ele>169.0</ele><time>2026-04-05T06:49:18.004Z</time></trkpt><trkpt lat="45.56765144107069" lon="9.109291418738422"><ele>169.0</ele><time>2026-04-05T06:49:20.004Z</time></trkpt><trkpt lat="45.567730562822234" lon="9.109301092126204"><ele>169.0</ele><time>2026-04-05T06:49:22.004Z</time></trkpt><trkpt lat="45.567805664214546" lon="9.109312093273743"><ele>169.0</ele><time>2026-04-05T06:49:24.004Z</time></trkpt><trkpt lat="45.56787596060131" lon="9.10932809586272"><ele>169.0</ele><time>2026-04-05T06:49:26.004Z</time></trkpt><trkpt lat="45.56795527153585" lon="9.109337097019944"><ele>169.28571428571428</ele><time>2026-04-05T06:49:28.004Z</time></trkpt><trkpt lat="45.568037321736625" lon="9.109354601555875"><ele>169.57142857142856</ele><time>2026-04-05T06:49:30.004Z</time></trkpt><trkpt lat="45.56810220402513" lon="9.109347739876023"><ele>169.85714285714283</ele><time>2026-04-05T06:49:32.004Z</time></trkpt><trkpt lat="45.56817374126954" lon="9.10935551683321"><ele>170.14285714285714</ele><time>2026-04-05T06:49:34.004Z</time></trkpt><trkpt lat="45.56825384487851" lon="9.109361099024774"><ele>170.42857142857142</ele><time>2026-04-05T06:49:36.004Z</time></trkpt><trkpt lat="45.56832575901985" lon="9.109361145292294"><ele>170.7142857142857</ele><time>2026-04-05T06:49:38.004Z</time></trkpt><trkpt lat="45.56840076145349" lon="9.109343077396849"><ele>171.0</ele><time>2026-04-05T06:49:40.004Z</time></trkpt><trkpt lat="45.56847102703866" lon="9.109313699915925"><ele>170.99999999999997</ele><time>2026-04-05T06:49:42.004Z</time></trkpt><trkpt lat="45.56853346957772" lon="9.109286253390257"><ele>171.0</ele><time>2026-04-05T06:49:44.004Z</time></trkpt><trkpt lat="45.56859844840323" lon="9.109254029760221"><ele>171.0</ele><time>2026-04-05T06:49:46.004Z</time></trkpt><trkpt lat="45.56866832904521" lon="9.10921448115521"><ele>171.0</ele><time>2026-04-05T06:49:48.004Z</time></trkpt><trkpt lat="45.56874051854577" lon="9.10918655352668"><ele>171.0</ele><time>2026-04-05T06:49:50.004Z</time></trkpt><trkpt lat="45.56880681196714" lon="9.109149912412342"><ele>170.99999999999997</ele><time>2026-04-05T06:49:52.004Z</time></trkpt><trkpt lat="45.568876280684144" lon="9.109117456942888"><ele>171.0</ele><time>2026-04-05T06:49:54.004Z</time></trkpt><trkpt lat="45.56893931988025" lon="9.109084008381718"><ele>170.99999999999997</ele><time>2026-04-05T06:49:56.004Z</time></trkpt><trkpt lat="45.56900018747248" lon="9.109051461789974"><ele>171.0</ele><time>2026-04-05T06:49:58.004Z</time></trkpt><trkpt lat="45.56906953653909" lon="9.109016800950707"><ele>171.0</ele><time>2026-04-05T06:50:00.004Z</time></trkpt><trkpt lat="45.56914439361411" lon="9.10898884873736"><ele>171.0</ele><time>2026-04-05T06:50:02.004Z</time></trkpt><trkpt lat="45.56921232137195" lon="9.108956622920143"><ele>171.0</ele><time>2026-04-05T06:50:04.004Z</time></trkpt><trkpt lat="45.569285214730286" lon="9.108925701517482"><ele>170.99999999999997</ele><time>2026-04-05T06:50:06.004Z</time></trkpt><trkpt lat="45.56935561623905" lon="9.108894672358094"><ele>171.0</ele><time>2026-04-05T06:50:08.004Z</time></trkpt><trkpt lat="45.56941864473181" lon="9.108864839645866"><ele>170.99999999999997</ele><time>2026-04-05T06:50:10.004Z</time></trkpt><trkpt lat="45.56948470534874" lon="9.108829355941742"><ele>171.0</ele><time>2026-04-05T06:50:12.004Z</time></trkpt><trkpt lat="45.569552614939475" lon="9.10880439301519"><ele>171.0</ele><time>2026-04-05T06:50:14.004Z</time></trkpt><trkpt lat="45.56961444699966" lon="9.108773401844626"><ele>171.0</ele><time>2026-04-05T06:50:16.004Z</time></trkpt><trkpt lat="45.56967551063728" lon="9.1087361482012"><ele>171.0</ele><time>2026-04-05T06:50:18.004Z</time></trkpt><trkpt lat="45.569739325704376" lon="9.108712981910918"><ele>170.99999999999997</ele><time>2026-04-05T06:50:20.004Z</time></trkpt><trkpt lat="45.56982424829219" lon="9.108669037629847"><ele>171.0</ele><time>2026-04-05T06:50:23.004Z</time></trkpt><trkpt lat="45.569890192859454" lon="9.108628869528886"><ele>170.99999999999997</ele><time>2026-04-05T06:50:25.004Z</time></trkpt><trkpt lat="45.569955017484304" lon="9.108597219834817"><ele>171.0</ele><time>2026-04-05T06:50:27.004Z</time></trkpt><trkpt lat="45.57001372268379" lon="9.108563062358714"><ele>171.0</ele><time>2026-04-05T06:50:29.004Z</time></trkpt><trkpt lat="45.57008004552822" lon="9.108529592932967"><ele>171.0</ele><time>2026-04-05T06:50:31.006Z</time></trkpt><trkpt lat="45.57015311305458" lon="9.108493096512522"><ele>171.0</ele><time>2026-04-05T06:50:33.006Z</time></trkpt><trkpt lat="45.57022511710497" lon="9.108459676540802"><ele>170.99999999999997</ele><time>2026-04-05T06:50:35.006Z</time></trkpt><trkpt lat="45.57029663048066" lon="9.108425602470014"><ele>171.0</ele><time>2026-04-05T06:50:37.006Z</time></trkpt><trkpt lat="45.57036679875814" lon="9.10839592033263"><ele>170.99999999999997</ele><time>2026-04-05T06:50:39.006Z</time></trkpt><trkpt lat="45.5704373960042" lon="9.10837028120367"><ele>171.0</ele><time>2026-04-05T06:50:41.006Z</time></trkpt><trkpt lat="45.570503574572044" lon="9.108338584150712"><ele>171.0</ele><time>2026-04-05T06:50:43.006Z</time></trkpt><trkpt lat="45.57057268031008" lon="9.108308017153135"><ele>171.0</ele><time>2026-04-05T06:50:45.006Z</time></trkpt><trkpt lat="45.570646587440834" lon="9.108289581840054"><ele>171.0</ele><time>2026-04-05T06:50:47.006Z</time></trkpt><trkpt lat="45.570723154613745" lon="9.108281273865133"><ele>170.99999999999997</ele><time>2026-04-05T06:50:49.006Z</time></trkpt><trkpt lat="45.57079550547214" lon="9.108270259840259"><ele>171.0</ele><time>2026-04-05T06:50:51.006Z</time></trkpt><trkpt lat="45.57086658655114" lon="9.108276226860314"><ele>170.99999999999997</ele><time>2026-04-05T06:50:53.006Z</time></trkpt><trkpt lat="45.5709360723883" lon="9.108270200224661"><ele>171.0</ele><time>2026-04-05T06:50:55.006Z</time></trkpt><trkpt lat="45.57101028269392" lon="9.108267407410162"><ele>171.0</ele><time>2026-04-05T06:50:57.006Z</time></trkpt><trkpt lat="45.57107945826062" lon="9.108266370700937"><ele>171.0</ele><time>2026-04-05T06:50:59.006Z</time></trkpt><trkpt lat="45.57115179626511" lon="9.108272838341685"><ele>171.0</ele><time>2026-04-05T06:51:01.006Z</time></trkpt><trkpt lat="45.57122437453454" lon="9.10827501063324"><ele>170.99999999999997</ele><time>2026-04-05T06:51:03.006Z</time></trkpt><trkpt lat="45.57129675592404" lon="9.10826599393491"><ele>171.0</ele><time>2026-04-05T06:51:05.006Z</time></trkpt><trkpt lat="45.571360585321884" lon="9.108285772823807"><ele>171.42857142857142</ele><time>2026-04-05T06:51:07.006Z</time></trkpt><trkpt lat="45.571428758245816" lon="9.108275246542023"><ele>171.85714285714286</ele><time>2026-04-05T06:51:09.006Z</time></trkpt><trkpt lat="45.57149298556566" lon="9.108259063595534"><ele>172.28571428571428</ele><time>2026-04-05T06:51:11.006Z</time></trkpt><trkpt lat="45.57156865416413" lon="9.108260558008912"><ele>172.71428571428572</ele><time>2026-04-05T06:51:13.006Z</time></trkpt><trkpt lat="45.57163776621441" lon="9.10826710667318"><ele>173.14285714285714</ele><time>2026-04-05T06:51:15.006Z</time></trkpt><trkpt lat="45.57171037954932" lon="9.108262481175965"><ele>173.57142857142856</ele><time>2026-04-05T06:51:17.006Z</time></trkpt><trkpt lat="45.571781764754405" lon="9.108256036141986"><ele>174.0</ele><time>2026-04-05T06:51:19.006Z</time></trkpt><trkpt lat="45.57185195563594" lon="9.108251424289998"><ele>174.0</ele><time>2026-04-05T06:51:21.005Z</time></trkpt><trkpt lat="45.57192446056719" lon="9.10824959633262"><ele>174.0</ele><time>2026-04-05T06:51:23.005Z</time></trkpt><trkpt lat="45.57199355007916" lon="9.10825551970072"><ele>174.0</ele><time>2026-04-05T06:51:25.005Z</time></trkpt><trkpt lat="45.57206407256325" lon="9.108257942363723"><ele>174.0</ele><time>2026-04-05T06:51:27.005Z</time></trkpt><trkpt lat="45.57213310878358" lon="9.108259211390385"><ele>174.0</ele><time>2026-04-05T06:51:29.005Z</time></trkpt><trkpt lat="45.57220411528799" lon="9.108265290306605"><ele>174.0</ele><time>2026-04-05T06:51:31.005Z</time></trkpt><trkpt lat="45.572268253885596" lon="9.10827260618789"><ele>174.0</ele><time>2026-04-05T06:51:33.005Z</time></trkpt><trkpt lat="45.572344568758815" lon="9.108265227283752"><ele>174.0</ele><time>2026-04-05T06:51:36.005Z</time></trkpt><trkpt lat="45.572414515459485" lon="9.108182962001209"><ele>174.0</ele><time>2026-04-05T06:51:39.005Z</time></trkpt><trkpt lat="45.57242568355205" lon="9.108054046520976"><ele>174.0</ele><time>2026-04-05T06:51:42.005Z</time></trkpt><trkpt lat="45.57243290215544" lon="9.107958659414704"><ele>174.0</ele><time>2026-04-05T06:51:44.005Z</time></trkpt><trkpt lat="45.57244288880126" lon="9.107852829103024"><ele>174.0</ele><time>2026-04-05T06:51:46.005Z</time></trkpt><trkpt lat="45.57244945399873" lon="9.107747827542703"><ele>174.0</ele><time>2026-04-05T06:51:48.005Z</time></trkpt><trkpt lat="45.57245864428675" lon="9.10764128940355"><ele>174.0</ele><time>2026-04-05T06:51:50.005Z</time></trkpt><trkpt lat="45.57246329606348" lon="9.107541511449876"><ele>174.0</ele><time>2026-04-05T06:51:52.005Z</time></trkpt><trkpt lat="45.572475785837106" lon="9.107427641246689"><ele>174.0</ele><time>2026-04-05T06:51:54.005Z</time></trkpt><trkpt lat="45.57248035386376" lon="9.107325439481045"><ele>174.0</ele><time>2026-04-05T06:51:56.005Z</time></trkpt><trkpt lat="45.57247811372876" lon="9.107224438005534"><ele>174.0</ele><time>2026-04-05T06:51:58.005Z</time></trkpt><trkpt lat="45.572490267087375" lon="9.107132914424731"><ele>174.0</ele><time>2026-04-05T06:52:00.005Z</time></trkpt><trkpt lat="45.57251032427264" lon="9.107023430792884"><ele>174.0</ele><time>2026-04-05T06:52:04.005Z</time></trkpt><trkpt lat="45.57250134117695" lon="9.10691840142088"><ele>174.16666666666666</ele><time>2026-04-05T06:52:09.005Z</time></trkpt><trkpt lat="45.57249877094242" lon="9.10680319986847"><ele>174.33333333333334</ele><time>2026-04-05T06:52:13.005Z</time></trkpt><trkpt lat="45.57258049531776" lon="9.106797875389582"><ele>174.5</ele><time>2026-04-05T06:52:18.005Z</time></trkpt><trkpt lat="45.572645836380076" lon="9.106813413842954"><ele>174.66666666666669</ele><time>2026-04-05T06:52:21.005Z</time></trkpt><trkpt lat="45.572722734764724" lon="9.106865629054727"><ele>174.83333333333334</ele><time>2026-04-05T06:52:25.005Z</time></trkpt><trkpt lat="45.57279717054925" lon="9.106927347677264"><ele>175.0</ele><time>2026-04-05T06:52:29.005Z</time></trkpt><trkpt lat="45.5728595909798" lon="9.106979603984465"><ele>175.33333333333334</ele><time>2026-04-05T06:52:32.005Z</time></trkpt><trkpt lat="45.57292524454782" lon="9.107026079328184"><ele>175.66666666666669</ele><time>2026-04-05T06:52:35.005Z</time></trkpt><trkpt lat="45.57299807977714" lon="9.107076688671917"><ele>176.0</ele><time>2026-04-05T06:52:37.006Z</time></trkpt><trkpt lat="45.57306608741228" lon="9.107120195387727"><ele>176.33333333333334</ele><time>2026-04-05T06:52:39.006Z</time></trkpt><trkpt lat="45.57313138756419" lon="9.107156482641399"><ele>176.66666666666666</ele><time>2026-04-05T06:52:41.006Z</time></trkpt><trkpt lat="45.57321550946407" lon="9.107177306793336"><ele>177.0</ele><time>2026-04-05T06:52:44.007Z</time></trkpt><trkpt lat="45.57328732592566" lon="9.10720583224486"><ele>177.0</ele><time>2026-04-05T06:52:46.007Z</time></trkpt><trkpt lat="45.57335220497395" lon="9.10723307675343"><ele>177.0</ele><time>2026-04-05T06:52:48.006Z</time></trkpt><trkpt lat="45.57343940570601" lon="9.107274413258429"><ele>177.0</ele><time>2026-04-05T06:52:51.006Z</time></trkpt><trkpt lat="45.57350530873485" lon="9.107308305084453"><ele>177.0</ele><time>2026-04-05T06:52:53.006Z</time></trkpt><trkpt lat="45.57359173720064" lon="9.107349186707438"><ele>177.0</ele><time>2026-04-05T06:52:55.006Z</time></trkpt><trkpt lat="45.573656050060144" lon="9.107378279711146"><ele>177.0</ele><time>2026-04-05T06:52:57.006Z</time></trkpt><trkpt lat="45.57374006208318" lon="9.107405210428732"><ele>177.16666666666666</ele><time>2026-04-05T06:52:59.006Z</time></trkpt><trkpt lat="45.57384138559703" lon="9.107350849833114"><ele>177.33333333333334</ele><time>2026-04-05T06:53:04.006Z</time></trkpt><trkpt lat="45.573933008141" lon="9.107345285890167"><ele>177.5</ele><time>2026-04-05T06:53:06.006Z</time></trkpt><trkpt lat="45.57401404386885" lon="9.107331437075254"><ele>177.66666666666669</ele><time>2026-04-05T06:53:08.006Z</time></trkpt><trkpt lat="45.57409420920721" lon="9.10733858522385"><ele>177.83333333333334</ele><time>2026-04-05T06:53:10.006Z</time></trkpt><trkpt lat="45.57417335767887" lon="9.10734781805185"><ele>178.0</ele><time>2026-04-05T06:53:12.006Z</time></trkpt><trkpt lat="45.57424924210709" lon="9.107382838356228"><ele>178.14285714285714</ele><time>2026-04-05T06:53:14.006Z</time></trkpt><trkpt lat="45.57431618492599" lon="9.107430503980076"><ele>178.28571428571428</ele><time>2026-04-05T06:53:16.006Z</time></trkpt><trkpt lat="45.574383492856434" lon="9.107469276276607"><ele>178.42857142857144</ele><time>2026-04-05T06:53:18.006Z</time></trkpt><trkpt lat="45.5744456539959" lon="9.107517858387052"><ele>178.57142857142856</ele><time>2026-04-05T06:53:20.006Z</time></trkpt><trkpt lat="45.57450501718119" lon="9.107563301750872"><ele>178.71428571428572</ele><time>2026-04-05T06:53:22.006Z</time></trkpt><trkpt lat="45.57455729548586" lon="9.107615604177765"><ele>178.85714285714286</ele><time>2026-04-05T06:53:24.006Z</time></trkpt><trkpt lat="45.574609599346374" lon="9.10767407729754"><ele>179.0</ele><time>2026-04-05T06:53:26.006Z</time></trkpt><trkpt lat="45.574660632203766" lon="9.107730539245994"><ele>179.00000000000003</ele><time>2026-04-05T06:53:28.006Z</time></trkpt><trkpt lat="45.57471773512148" lon="9.107792070169287"><ele>179.0</ele><time>2026-04-05T06:53:30.006Z</time></trkpt><trkpt lat="45.57476975230556" lon="9.107860327576908"><ele>179.0</ele><time>2026-04-05T06:53:32.006Z</time></trkpt><trkpt lat="45.57481683159348" lon="9.10793143865588"><ele>179.0</ele><time>2026-04-05T06:53:34.006Z</time></trkpt><trkpt lat="45.574860516249124" lon="9.108004974379762"><ele>179.0</ele><time>2026-04-05T06:53:36.006Z</time></trkpt><trkpt lat="45.57490967562091" lon="9.108093796759695"><ele>179.00000000000003</ele><time>2026-04-05T06:53:39.006Z</time></trkpt><trkpt lat="45.574946882218946" lon="9.108169409603642"><ele>179.0</ele><time>2026-04-05T06:53:43.006Z</time></trkpt><trkpt lat="45.57501005892235" lon="9.108128266120481"><ele>179.00000000000003</ele><time>2026-04-05T06:53:46.006Z</time></trkpt><trkpt lat="45.57507079838016" lon="9.108057893856818"><ele>179.0</ele><time>2026-04-05T06:53:49.006Z</time></trkpt><trkpt lat="45.5751173100319" lon="9.107980879595889"><ele>179.0</ele><time>2026-04-05T06:53:52.006Z</time></trkpt><trkpt lat="45.57519260388511" lon="9.107949694127292"><ele>179.0</ele><time>2026-04-05T06:53:56.006Z</time></trkpt><trkpt lat="45.575228071037586" lon="9.108026715359747"><ele>179.0</ele><time>2026-04-05T06:53:58.006Z</time></trkpt><trkpt lat="45.57526271638037" lon="9.108105660415074"><ele>179.00000000000003</ele><time>2026-04-05T06:54:00.006Z</time></trkpt><trkpt lat="45.57532465508659" lon="9.10819435519486"><ele>179.0</ele><time>2026-04-05T06:54:03.006Z</time></trkpt><trkpt lat="45.57536186592688" lon="9.108267291190078"><ele>178.66666666666666</ele><time>2026-04-05T06:54:05.006Z</time></trkpt><trkpt lat="45.57541011700244" lon="9.108334368707439"><ele>178.33333333333331</ele><time>2026-04-05T06:54:07.006Z</time></trkpt><trkpt lat="45.575465914497535" lon="9.108414534377763"><ele>178.0</ele><time>2026-04-05T06:54:10.006Z</time></trkpt><trkpt lat="45.575526528840676" lon="9.1085268916901"><ele>177.66666666666666</ele><time>2026-04-05T06:54:13.006Z</time></trkpt><trkpt lat="45.575586929753975" lon="9.10860049779726"><ele>177.33333333333334</ele><time>2026-04-05T06:54:15.006Z</time></trkpt><trkpt lat="45.57567044785261" lon="9.108625479287422"><ele>177.0</ele><time>2026-04-05T06:54:17.006Z</time></trkpt><trkpt lat="45.57575549587018" lon="9.108619904152103"><ele>177.0</ele><time>2026-04-05T06:54:20.006Z</time></trkpt><trkpt lat="45.575799210889784" lon="9.10870111345288"><ele>177.0</ele><time>2026-04-05T06:54:22.006Z</time></trkpt><trkpt lat="45.575831212512604" lon="9.108822615556873"><ele>177.0</ele><time>2026-04-05T06:54:24.005Z</time></trkpt><trkpt lat="45.57587755994374" lon="9.108914834717408"><ele>177.0</ele><time>2026-04-05T06:54:26.005Z</time></trkpt><trkpt lat="45.57592831822626" lon="9.108994899610082"><ele>177.0</ele><time>2026-04-05T06:54:28.005Z</time></trkpt><trkpt lat="45.575990872143116" lon="9.109074948788962"><ele>177.0</ele><time>2026-04-05T06:54:30.005Z</time></trkpt><trkpt lat="45.576045693377715" lon="9.10916125011866"><ele>177.16666666666666</ele><time>2026-04-05T06:54:32.005Z</time></trkpt><trkpt lat="45.57610602376282" lon="9.109248370060051"><ele>177.33333333333334</ele><time>2026-04-05T06:54:34.005Z</time></trkpt><trkpt lat="45.57616111219017" lon="9.109334687387204"><ele>177.5</ele><time>2026-04-05T06:54:36.005Z</time></trkpt><trkpt lat="45.576217445581456" lon="9.109424184128077"><ele>177.66666666666669</ele><time>2026-04-05T06:54:38.005Z</time></trkpt><trkpt lat="45.576263108949604" lon="9.109524329404993"><ele>177.83333333333334</ele><time>2026-04-05T06:54:40.005Z</time></trkpt><trkpt lat="45.576313843446506" lon="9.109617772147999"><ele>178.0</ele><time>2026-04-05T06:54:42.007Z</time></trkpt><trkpt lat="45.57637297315092" lon="9.109701277775407"><ele>177.5</ele><time>2026-04-05T06:54:44.006Z</time></trkpt><trkpt lat="45.57643377866924" lon="9.109782247256154"><ele>177.0</ele><time>2026-04-05T06:54:46.007Z</time></trkpt><trkpt lat="45.57649727430448" lon="9.10984522470367"><ele>176.5</ele><time>2026-04-05T06:54:48.007Z</time></trkpt><trkpt lat="45.5765652714507" lon="9.10992329335592"><ele>176.0</ele><time>2026-04-05T06:54:50.006Z</time></trkpt><trkpt lat="45.57661176603535" lon="9.110009515144071"><ele>175.5</ele><time>2026-04-05T06:54:52.007Z</time></trkpt><trkpt lat="45.576680975677775" lon="9.110086208172229"><ele>175.0</ele><time>2026-04-05T06:54:54.006Z</time></trkpt><trkpt lat="45.5767515250277" lon="9.110164714104915"><ele>175.0</ele><time>2026-04-05T06:54:56.007Z</time></trkpt><trkpt lat="45.57682117937237" lon="9.110251591372938"><ele>175.0</ele><time>2026-04-05T06:54:58.007Z</time></trkpt><trkpt lat="45.57688047948163" lon="9.110328978062624"><ele>175.0</ele><time>2026-04-05T06:55:00.007Z</time></trkpt><trkpt lat="45.57693505359069" lon="9.11040140412029"><ele>175.0</ele><time>2026-04-05T06:55:02.007Z</time></trkpt><trkpt lat="45.576990458456606" lon="9.110496907799737"><ele>175.0</ele><time>2026-04-05T06:55:04.007Z</time></trkpt><trkpt lat="45.577040993092105" lon="9.110602907350659"><ele>175.0</ele><time>2026-04-05T06:55:06.007Z</time></trkpt><trkpt lat="45.57709457805224" lon="9.110700745823406"><ele>175.33333333333334</ele><time>2026-04-05T06:55:08.007Z</time></trkpt><trkpt lat="45.57714062400136" lon="9.110800514035505"><ele>175.66666666666669</ele><time>2026-04-05T06:55:10.006Z</time></trkpt><trkpt lat="45.57718628967915" lon="9.11089864519233"><ele>176.0</ele><time>2026-04-05T06:55:12.006Z</time></trkpt><trkpt lat="45.57722566675431" lon="9.110995470538631"><ele>176.33333333333334</ele><time>2026-04-05T06:55:14.006Z</time></trkpt><trkpt lat="45.577257379588715" lon="9.111106484554265"><ele>176.66666666666666</ele><time>2026-04-05T06:55:16.006Z</time></trkpt><trkpt lat="45.57729446615953" lon="9.111225295571302"><ele>177.0</ele><time>2026-04-05T06:55:18.006Z</time></trkpt><trkpt lat="45.57731838275553" lon="9.111348796726112"><ele>177.0</ele><time>2026-04-05T06:55:20.006Z</time></trkpt><trkpt lat="45.57733860465435" lon="9.111468207694232"><ele>177.0</ele><time>2026-04-05T06:55:22.006Z</time></trkpt><trkpt lat="45.57736159485531" lon="9.11158867966284"><ele>177.0</ele><time>2026-04-05T06:55:24.006Z</time></trkpt><trkpt lat="45.57736866365246" lon="9.111711154234188"><ele>177.0</ele><time>2026-04-05T06:55:26.006Z</time></trkpt><trkpt lat="45.57736575306517" lon="9.11181979621767"><ele>177.0</ele><time>2026-04-05T06:55:28.006Z</time></trkpt><trkpt lat="45.57736882804095" lon="9.111929830008288"><ele>177.0</ele><time>2026-04-05T06:55:30.006Z</time></trkpt><trkpt lat="45.577369138437405" lon="9.112037722425947"><ele>177.0</ele><time>2026-04-05T06:55:32.006Z</time></trkpt><trkpt lat="45.577361439218244" lon="9.112135027665722"><ele>177.0</ele><time>2026-04-05T06:55:34.006Z</time></trkpt><trkpt lat="45.5773569476523" lon="9.11224866336776"><ele>177.0</ele><time>2026-04-05T06:55:36.006Z</time></trkpt><trkpt lat="45.57735613507883" lon="9.112364573396189"><ele>177.0</ele><time>2026-04-05T06:55:38.006Z</time></trkpt><trkpt lat="45.577352458105494" lon="9.112483712121012"><ele>177.0</ele><time>2026-04-05T06:55:40.006Z</time></trkpt><trkpt lat="45.57734806204325" lon="9.112604553324656"><ele>177.0</ele><time>2026-04-05T06:55:42.006Z</time></trkpt><trkpt lat="45.577346210782764" lon="9.112729384716584"><ele>177.39999999999998</ele><time>2026-04-05T06:55:44.006Z</time></trkpt><trkpt lat="45.57735048030168" lon="9.112858181763096"><ele>177.79999999999998</ele><time>2026-04-05T06:55:46.006Z</time></trkpt><trkpt lat="45.577364711608375" lon="9.113012916551895"><ele>178.2</ele><time>2026-04-05T06:55:48.006Z</time></trkpt><trkpt lat="45.57737408645096" lon="9.113168141462499"><ele>178.6</ele><time>2026-04-05T06:55:50.006Z</time></trkpt><trkpt lat="45.5773785908172" lon="9.113316675106358"><ele>179.0</ele><time>2026-04-05T06:55:52.006Z</time></trkpt><trkpt lat="45.57739272138525" lon="9.113465323580392"><ele>178.2</ele><time>2026-04-05T06:55:54.006Z</time></trkpt><trkpt lat="45.57741619525362" lon="9.113607018818806"><ele>177.39999999999998</ele><time>2026-04-05T06:55:56.006Z</time></trkpt><trkpt lat="45.57745358613592" lon="9.113732306056951"><ele>176.6</ele><time>2026-04-05T06:55:58.006Z</time></trkpt><trkpt lat="45.57750477014526" lon="9.113839032491995"><ele>175.8</ele><time>2026-04-05T06:56:00.006Z</time></trkpt><trkpt lat="45.57755968087201" lon="9.113938636380983"><ele>175.0</ele><time>2026-04-05T06:56:02.006Z</time></trkpt><trkpt lat="45.57761916965291" lon="9.114038981233456"><ele>175.66666666666669</ele><time>2026-04-05T06:56:04.006Z</time></trkpt><trkpt lat="45.57767269274654" lon="9.114107874028418"><ele>176.33333333333334</ele><time>2026-04-05T06:56:06.006Z</time></trkpt><trkpt lat="45.57774040775567" lon="9.114157029522762"><ele>177.0</ele><time>2026-04-05T06:56:08.006Z</time></trkpt><trkpt lat="45.57781005250979" lon="9.11419622941112"><ele>177.66666666666666</ele><time>2026-04-05T06:56:10.006Z</time></trkpt><trkpt lat="45.57788193813621" lon="9.114232713350686"><ele>178.33333333333331</ele><time>2026-04-05T06:56:12.006Z</time></trkpt><trkpt lat="45.57796240982609" lon="9.114262545678743"><ele>179.0</ele><time>2026-04-05T06:56:14.006Z</time></trkpt><trkpt lat="45.57804252329419" lon="9.114271821426184"><ele>179.0</ele><time>2026-04-05T06:56:16.006Z</time></trkpt><trkpt lat="45.57812816053878" lon="9.114290109831286"><ele>179.0</ele><time>2026-04-05T06:56:18.006Z</time></trkpt><trkpt lat="45.57821045381696" lon="9.114305040710011"><ele>179.0</ele><time>2026-04-05T06:56:20.006Z</time></trkpt><trkpt lat="45.578294750756335" lon="9.114320453207233"><ele>179.0</ele><time>2026-04-05T06:56:22.006Z</time></trkpt><trkpt lat="45.57837616397762" lon="9.114329963653626"><ele>179.0</ele><time>2026-04-05T06:56:24.006Z</time></trkpt><trkpt lat="45.57846008891267" lon="9.114340182127686"><ele>179.0</ele><time>2026-04-05T06:56:26.006Z</time></trkpt><trkpt lat="45.578549579658336" lon="9.114352407998384"><ele>179.0</ele><time>2026-04-05T06:56:28.006Z</time></trkpt><trkpt lat="45.578635562948406" lon="9.114366483061934"><ele>179.0</ele><time>2026-04-05T06:56:30.006Z</time></trkpt><trkpt lat="45.57872450431859" lon="9.114374387037456"><ele>179.0</ele><time>2026-04-05T06:56:32.006Z</time></trkpt><trkpt lat="45.57882041581619" lon="9.114399626453794"><ele>179.0</ele><time>2026-04-05T06:56:34.006Z</time></trkpt><trkpt lat="45.57891842029667" lon="9.114410418120311"><ele>179.0</ele><time>2026-04-05T06:56:36.006Z</time></trkpt><trkpt lat="45.5790121951462" lon="9.114419625624686"><ele>179.0</ele><time>2026-04-05T06:56:38.006Z</time></trkpt><trkpt lat="45.57910538810942" lon="9.1144348124147"><ele>179.0</ele><time>2026-04-05T06:56:40.006Z</time></trkpt><trkpt lat="45.57919453898262" lon="9.11444541934968"><ele>179.0</ele><time>2026-04-05T06:56:42.006Z</time></trkpt><trkpt lat="45.579279068805974" lon="9.114451965411751"><ele>179.0</ele><time>2026-04-05T06:56:44.006Z</time></trkpt><trkpt lat="45.57936751312088" lon="9.114460128621769"><ele>179.0</ele><time>2026-04-05T06:56:46.006Z</time></trkpt><trkpt lat="45.57945815662036" lon="9.114467898563953"><ele>179.0</ele><time>2026-04-05T06:56:48.007Z</time></trkpt><trkpt lat="45.579544919095724" lon="9.114471402726197"><ele>179.33333333333331</ele><time>2026-04-05T06:56:50.007Z</time></trkpt><trkpt lat="45.57962041798855" lon="9.114470520653441"><ele>179.66666666666666</ele><time>2026-04-05T06:56:52.007Z</time></trkpt><trkpt lat="45.57969137329801" lon="9.114470260259152"><ele>180.0</ele><time>2026-04-05T06:56:54.007Z</time></trkpt><trkpt lat="45.57977709879678" lon="9.114493903512727"><ele>180.33333333333334</ele><time>2026-04-05T06:56:56.007Z</time></trkpt><trkpt lat="45.57986945719399" lon="9.114519477626194"><ele>180.66666666666669</ele><time>2026-04-05T06:56:58.007Z</time></trkpt><trkpt lat="45.5799586447859" lon="9.114527298938121"><ele>181.0</ele><time>2026-04-05T06:57:00.007Z</time></trkpt><trkpt lat="45.58003830315899" lon="9.114521522448216"><ele>181.0</ele><time>2026-04-05T06:57:02.007Z</time></trkpt><trkpt lat="45.580117753516504" lon="9.114484020887549"><ele>181.0</ele><time>2026-04-05T06:57:05.007Z</time></trkpt><trkpt lat="45.58019087215233" lon="9.114514418352918"><ele>181.0</ele><time>2026-04-05T06:57:08.007Z</time></trkpt><trkpt lat="45.580274507449666" lon="9.11457211425372"><ele>181.0</ele><time>2026-04-05T06:57:11.007Z</time></trkpt><trkpt lat="45.58034298821087" lon="9.114585577068109"><ele>181.0</ele><time>2026-04-05T06:57:13.007Z</time></trkpt><trkpt lat="45.58041071566433" lon="9.114581168669869"><ele>181.0</ele><time>2026-04-05T06:57:15.007Z</time></trkpt><trkpt lat="45.58049468376394" lon="9.114580535911603"><ele>180.83333333333334</ele><time>2026-04-05T06:57:18.007Z</time></trkpt><trkpt lat="45.580564396978765" lon="9.114579885843872"><ele>180.66666666666669</ele><time>2026-04-05T06:57:20.007Z</time></trkpt><trkpt lat="45.58063836445895" lon="9.11459046919086"><ele>180.5</ele><time>2026-04-05T06:57:22.007Z</time></trkpt><trkpt lat="45.58071507990029" lon="9.114611149580876"><ele>180.33333333333334</ele><time>2026-04-05T06:57:24.007Z</time></trkpt><trkpt lat="45.580803014292364" lon="9.114643696893577"><ele>180.16666666666666</ele><time>2026-04-05T06:57:26.007Z</time></trkpt><trkpt lat="45.58088195377904" lon="9.114684820254196"><ele>180.0</ele><time>2026-04-05T06:57:28.007Z</time></trkpt><trkpt lat="45.58095163517143" lon="9.114734823662543"><ele>180.0</ele><time>2026-04-05T06:57:30.007Z</time></trkpt><trkpt lat="45.58102076895085" lon="9.114793062688026"><ele>180.0</ele><time>2026-04-05T06:57:32.006Z</time></trkpt><trkpt lat="45.58108799076109" lon="9.114853516951278"><ele>180.0</ele><time>2026-04-05T06:57:34.006Z</time></trkpt><trkpt lat="45.5811470327974" lon="9.11492998011078"><ele>180.0</ele><time>2026-04-05T06:57:36.006Z</time></trkpt><trkpt lat="45.58120119186459" lon="9.115012371801882"><ele>180.0</ele><time>2026-04-05T06:57:38.006Z</time></trkpt><trkpt lat="45.581246702745894" lon="9.115082276560269"><ele>180.0</ele><time>2026-04-05T06:57:40.006Z</time></trkpt><trkpt lat="45.58128626008267" lon="9.115159611827439"><ele>179.6</ele><time>2026-04-05T06:57:42.006Z</time></trkpt><trkpt lat="45.58134906105736" lon="9.1152614281388"><ele>179.2</ele><time>2026-04-05T06:57:44.006Z</time></trkpt><trkpt lat="45.58140114876156" lon="9.115370683213136"><ele>178.8</ele><time>2026-04-05T06:57:46.006Z</time></trkpt><trkpt lat="45.581441070104646" lon="9.115475852624668"><ele>178.4</ele><time>2026-04-05T06:57:48.006Z</time></trkpt><trkpt lat="45.581485316547074" lon="9.11560079286678"><ele>178.0</ele><time>2026-04-05T06:57:50.006Z</time></trkpt><trkpt lat="45.581539540077934" lon="9.115739059691586"><ele>178.83333333333334</ele><time>2026-04-05T06:57:52.006Z</time></trkpt><trkpt lat="45.58158578932051" lon="9.115864024500567"><ele>179.66666666666669</ele><time>2026-04-05T06:57:54.006Z</time></trkpt><trkpt lat="45.58161938043663" lon="9.11596917860522"><ele>180.5</ele><time>2026-04-05T06:57:56.006Z</time></trkpt><trkpt lat="45.5816392371865" lon="9.116058126555735"><ele>181.33333333333334</ele><time>2026-04-05T06:57:58.006Z</time></trkpt><trkpt lat="45.5816712509969" lon="9.11619698369348"><ele>182.16666666666666</ele><time>2026-04-05T06:58:01.006Z</time></trkpt><trkpt lat="45.58169114218953" lon="9.116318126514697"><ele>183.0</ele><time>2026-04-05T06:58:03.006Z</time></trkpt><trkpt lat="45.58172184414287" lon="9.116454731068695"><ele>183.16666666666666</ele><time>2026-04-05T06:58:06.006Z</time></trkpt><trkpt lat="45.58174621875912" lon="9.116584229271878"><ele>183.33333333333334</ele><time>2026-04-05T06:58:08.006Z</time></trkpt><trkpt lat="45.58176968938505" lon="9.116694584119761"><ele>183.5</ele><time>2026-04-05T06:58:10.006Z</time></trkpt><trkpt lat="45.58178864921501" lon="9.11679928588875"><ele>183.66666666666669</ele><time>2026-04-05T06:58:12.006Z</time></trkpt><trkpt lat="45.58180718005459" lon="9.116904857460282"><ele>183.83333333333334</ele><time>2026-04-05T06:58:14.006Z</time></trkpt><trkpt lat="45.58183193638607" lon="9.117028252650545"><ele>184.0</ele><time>2026-04-05T06:58:16.006Z</time></trkpt><trkpt lat="45.581858982074145" lon="9.117131669519857"><ele>184.0</ele><time>2026-04-05T06:58:18.006Z</time></trkpt><trkpt lat="45.58187350482738" lon="9.11725153689353"><ele>184.0</ele><time>2026-04-05T06:58:20.006Z</time></trkpt><trkpt lat="45.58189700194557" lon="9.11735892418297"><ele>184.0</ele><time>2026-04-05T06:58:22.006Z</time></trkpt><trkpt lat="45.5819181956233" lon="9.1174657096213"><ele>184.0</ele><time>2026-04-05T06:58:24.006Z</time></trkpt><trkpt lat="45.581943990792816" lon="9.117579847465246"><ele>184.0</ele><time>2026-04-05T06:58:26.006Z</time></trkpt><trkpt lat="45.58197193160182" lon="9.117704369390472"><ele>184.0</ele><time>2026-04-05T06:58:28.006Z</time></trkpt><trkpt lat="45.58200495475339" lon="9.117786469228236"><ele>184.16666666666669</ele><time>2026-04-05T06:58:30.006Z</time></trkpt><trkpt lat="45.582039162041575" lon="9.117885529969202"><ele>184.33333333333334</ele><time>2026-04-05T06:58:32.006Z</time></trkpt><trkpt lat="45.582075373273724" lon="9.117960966561002"><ele>184.5</ele><time>2026-04-05T06:58:34.006Z</time></trkpt><trkpt lat="45.58214780268176" lon="9.118058530180658"><ele>184.66666666666666</ele><time>2026-04-05T06:58:37.006Z</time></trkpt><trkpt lat="45.582225352525136" lon="9.118145814997098"><ele>184.83333333333331</ele><time>2026-04-05T06:58:39.006Z</time></trkpt><trkpt lat="45.58229808459989" lon="9.118191688163627"><ele>185.0</ele><time>2026-04-05T06:58:41.006Z</time></trkpt><trkpt lat="45.58236095626554" lon="9.118240800735341"><ele>184.33333333333331</ele><time>2026-04-05T06:58:44.006Z</time></trkpt><trkpt lat="45.582466507769404" lon="9.118240330960388"><ele>183.66666666666666</ele><time>2026-04-05T06:58:56.007Z</time></trkpt><trkpt lat="45.582459391109815" lon="9.118358647291899"><ele>183.0</ele><time>2026-04-05T06:58:58.008Z</time></trkpt><trkpt lat="45.58244155290167" lon="9.11846807663124"><ele>182.33333333333334</ele><time>2026-04-05T06:59:00.007Z</time></trkpt><trkpt lat="45.58241431944327" lon="9.118556671943491"><ele>181.66666666666669</ele><time>2026-04-05T06:59:02.008Z</time></trkpt><trkpt lat="45.58241075971805" lon="9.118661055374721"><ele>181.0</ele><time>2026-04-05T06:59:05.008Z</time></trkpt><trkpt lat="45.58246707301276" lon="9.118706831811828"><ele>181.0</ele><time>2026-04-05T06:59:07.007Z</time></trkpt><trkpt lat="45.58257110448195" lon="9.118705109711813"><ele>181.0</ele><time>2026-04-05T06:59:09.007Z</time></trkpt><trkpt lat="45.582672105071126" lon="9.11871957962911"><ele>181.0</ele><time>2026-04-05T06:59:11.007Z</time></trkpt><trkpt lat="45.5827726903688" lon="9.118734799710179"><ele>181.0</ele><time>2026-04-05T06:59:13.007Z</time></trkpt><trkpt lat="45.582871783735705" lon="9.118758197941162"><ele>181.0</ele><time>2026-04-05T06:59:15.007Z</time></trkpt><trkpt lat="45.58296098455185" lon="9.118778134398683"><ele>181.20000000000002</ele><time>2026-04-05T06:59:17.007Z</time></trkpt><trkpt lat="45.583051910275564" lon="9.118792332231614"><ele>181.4</ele><time>2026-04-05T06:59:19.007Z</time></trkpt><trkpt lat="45.583143030591295" lon="9.118811520295925"><ele>181.6</ele><time>2026-04-05T06:59:21.007Z</time></trkpt><trkpt lat="45.58323140388741" lon="9.118831984188393"><ele>181.8</ele><time>2026-04-05T06:59:23.007Z</time></trkpt><trkpt lat="45.58332159110624" lon="9.118848026063532"><ele>182.0</ele><time>2026-04-05T06:59:25.007Z</time></trkpt><trkpt lat="45.58341606511152" lon="9.1188623374707"><ele>182.0</ele><time>2026-04-05T06:59:27.007Z</time></trkpt><trkpt lat="45.58351308918723" lon="9.11887082367442"><ele>182.0</ele><time>2026-04-05T06:59:29.007Z</time></trkpt><trkpt lat="45.58360711010957" lon="9.118875552642558"><ele>182.0</ele><time>2026-04-05T06:59:31.007Z</time></trkpt><trkpt lat="45.58368746582464" lon="9.118854355402105"><ele>182.0</ele><time>2026-04-05T06:59:33.007Z</time></trkpt><trkpt lat="45.583774180626264" lon="9.118851845501494"><ele>182.0</ele><time>2026-04-05T06:59:35.007Z</time></trkpt><trkpt lat="45.58384826948174" lon="9.118829674719253"><ele>182.0</ele><time>2026-04-05T06:59:37.007Z</time></trkpt><trkpt lat="45.58393560579422" lon="9.11880736130964"><ele>181.66666666666666</ele><time>2026-04-05T06:59:39.007Z</time></trkpt><trkpt lat="45.58402593763984" lon="9.118783308069215"><ele>181.33333333333331</ele><time>2026-04-05T06:59:41.007Z</time></trkpt><trkpt lat="45.584110623483106" lon="9.118742396662412"><ele>181.0</ele><time>2026-04-05T06:59:43.007Z</time></trkpt><trkpt lat="45.58420407884712" lon="9.118721577827023"><ele>180.66666666666666</ele><time>2026-04-05T06:59:45.007Z</time></trkpt><trkpt lat="45.58428514329202" lon="9.118713419640887"><ele>180.33333333333334</ele><time>2026-04-05T06:59:47.007Z</time></trkpt><trkpt lat="45.58436048866995" lon="9.118681355866864"><ele>180.0</ele><time>2026-04-05T06:59:50.007Z</time></trkpt><trkpt lat="45.58442965301306" lon="9.118659789874062"><ele>180.0</ele><time>2026-04-05T06:59:52.007Z</time></trkpt><trkpt lat="45.58451810146462" lon="9.11863488270864"><ele>180.0</ele><time>2026-04-05T06:59:54.007Z</time></trkpt><trkpt lat="45.58461166706985" lon="9.118630873453954"><ele>180.0</ele><time>2026-04-05T06:59:56.007Z</time></trkpt><trkpt lat="45.58469541659826" lon="9.11861239851439"><ele>180.0</ele><time>2026-04-05T06:59:58.007Z</time></trkpt><trkpt lat="45.584785097497665" lon="9.118604783789644"><ele>180.0</ele><time>2026-04-05T07:00:00.007Z</time></trkpt><trkpt lat="45.584875118003126" lon="9.118590967416786"><ele>180.0</ele><time>2026-04-05T07:00:02.007Z</time></trkpt><trkpt lat="45.584961383378655" lon="9.118571168224312"><ele>180.0</ele><time>2026-04-05T07:00:04.007Z</time></trkpt><trkpt lat="45.5850547465143" lon="9.118567604708065"><ele>180.0</ele><time>2026-04-05T07:00:06.007Z</time></trkpt><trkpt lat="45.58514419919571" lon="9.118561536485291"><ele>180.0</ele><time>2026-04-05T07:00:08.007Z</time></trkpt><trkpt lat="45.585236454328715" lon="9.118552990920264"><ele>180.0</ele><time>2026-04-05T07:00:10.007Z</time></trkpt><trkpt lat="45.58532887757936" lon="9.118547273933155"><ele>180.0</ele><time>2026-04-05T07:00:12.007Z</time></trkpt><trkpt lat="45.58541360784951" lon="9.118559633959402"><ele>180.2</ele><time>2026-04-05T07:00:14.007Z</time></trkpt><trkpt lat="45.585504771365834" lon="9.11857074572681"><ele>180.4</ele><time>2026-04-05T07:00:16.007Z</time></trkpt><trkpt lat="45.585595778413214" lon="9.118581723553069"><ele>180.60000000000002</ele><time>2026-04-05T07:00:18.007Z</time></trkpt><trkpt lat="45.5856840282081" lon="9.11860158037086"><ele>180.8</ele><time>2026-04-05T07:00:20.007Z</time></trkpt><trkpt lat="45.58577096507776" lon="9.118635800171626"><ele>181.0</ele><time>2026-04-05T07:00:22.007Z</time></trkpt><trkpt lat="45.58585708562451" lon="9.118662033864211"><ele>181.0</ele><time>2026-04-05T07:00:24.007Z</time></trkpt><trkpt lat="45.585936063321554" lon="9.11868629561042"><ele>181.0</ele><time>2026-04-05T07:00:26.007Z</time></trkpt><trkpt lat="45.58602088227455" lon="9.118714035621046"><ele>181.0</ele><time>2026-04-05T07:00:28.007Z</time></trkpt><trkpt lat="45.586101754751965" lon="9.118739920923284"><ele>181.0</ele><time>2026-04-05T07:00:30.007Z</time></trkpt><trkpt lat="45.5861910348689" lon="9.1187660387125"><ele>181.0</ele><time>2026-04-05T07:00:32.007Z</time></trkpt><trkpt lat="45.58627016877702" lon="9.118780028919357"><ele>181.0</ele><time>2026-04-05T07:00:34.007Z</time></trkpt><trkpt lat="45.58634704194541" lon="9.118797677151361"><ele>180.8</ele><time>2026-04-05T07:00:36.007Z</time></trkpt><trkpt lat="45.58642937496573" lon="9.118815692170019"><ele>180.60000000000002</ele><time>2026-04-05T07:00:38.006Z</time></trkpt><trkpt lat="45.586513463209236" lon="9.118846051883176"><ele>180.4</ele><time>2026-04-05T07:00:40.006Z</time></trkpt><trkpt lat="45.586601007391735" lon="9.11886455543036"><ele>180.2</ele><time>2026-04-05T07:00:42.006Z</time></trkpt><trkpt lat="45.58668966594159" lon="9.11891412928458"><ele>180.0</ele><time>2026-04-05T07:00:44.006Z</time></trkpt><trkpt lat="45.586785175792954" lon="9.118954613682702"><ele>180.0</ele><time>2026-04-05T07:00:46.006Z</time></trkpt><trkpt lat="45.58687634083842" lon="9.118997921228987"><ele>180.0</ele><time>2026-04-05T07:00:48.006Z</time></trkpt><trkpt lat="45.58696338258482" lon="9.11905188937205"><ele>180.0</ele><time>2026-04-05T07:00:50.006Z</time></trkpt><trkpt lat="45.58704562323671" lon="9.119096775661138"><ele>180.0</ele><time>2026-04-05T07:00:52.006Z</time></trkpt><trkpt lat="45.58712994815535" lon="9.119126735619767"><ele>180.0</ele><time>2026-04-05T07:00:54.006Z</time></trkpt><trkpt lat="45.587205583016456" lon="9.11918683603867"><ele>179.33333333333334</ele><time>2026-04-05T07:00:56.006Z</time></trkpt><trkpt lat="45.58728404770351" lon="9.119240230794043"><ele>178.66666666666666</ele><time>2026-04-05T07:00:58.006Z</time></trkpt><trkpt lat="45.58736752664027" lon="9.119301552630354"><ele>178.0</ele><time>2026-04-05T07:01:00.009Z</time></trkpt><trkpt lat="45.587441904383226" lon="9.119372696335896"><ele>177.33333333333331</ele><time>2026-04-05T07:01:02.009Z</time></trkpt><trkpt lat="45.587514742033505" lon="9.119437617336109"><ele>176.66666666666666</ele><time>2026-04-05T07:01:04.008Z</time></trkpt><trkpt lat="45.58758190480282" lon="9.119508548432318"><ele>176.0</ele><time>2026-04-05T07:01:06.008Z</time></trkpt><trkpt lat="45.587642550178856" lon="9.11957378212357"><ele>176.0</ele><time>2026-04-05T07:01:08.008Z</time></trkpt><trkpt lat="45.58768282494369" lon="9.119675468402171"><ele>176.0</ele><time>2026-04-05T07:01:11.008Z</time></trkpt><trkpt lat="45.58774980219407" lon="9.119666334446203"><ele>176.0</ele><time>2026-04-05T07:01:17.008Z</time></trkpt><trkpt lat="45.58778883351862" lon="9.119555799088932"><ele>176.0</ele><time>2026-04-05T07:01:21.008Z</time></trkpt><trkpt lat="45.58783300259803" lon="9.119482779854179"><ele>176.0</ele><time>2026-04-05T07:01:24.008Z</time></trkpt><trkpt lat="45.58786836720724" lon="9.119377007885507"><ele>176.0</ele><time>2026-04-05T07:01:27.008Z</time></trkpt><trkpt lat="45.587911470573616" lon="9.119290615949847"><ele>175.71428571428572</ele><time>2026-04-05T07:01:31.008Z</time></trkpt><trkpt lat="45.58799018242919" lon="9.119279775778823"><ele>175.42857142857142</ele><time>2026-04-05T07:01:34.008Z</time></trkpt><trkpt lat="45.588048674656335" lon="9.11931317803411"><ele>175.14285714285714</ele><time>2026-04-05T07:01:36.008Z</time></trkpt><trkpt lat="45.58811418796021" lon="9.119403221909323"><ele>174.85714285714286</ele><time>2026-04-05T07:01:39.008Z</time></trkpt><trkpt lat="45.58817385534322" lon="9.119436232505818"><ele>174.57142857142858</ele><time>2026-04-05T07:01:41.008Z</time></trkpt><trkpt lat="45.588251228715" lon="9.1194358344991"><ele>174.28571428571428</ele><time>2026-04-05T07:01:43.008Z</time></trkpt><trkpt lat="45.58832544787875" lon="9.119421419533987"><ele>174.0</ele><time>2026-04-05T07:01:45.008Z</time></trkpt><trkpt lat="45.588402952253155" lon="9.11942535742123"><ele>174.0</ele><time>2026-04-05T07:01:47.008Z</time></trkpt><trkpt lat="45.58849798739855" lon="9.119433975156747"><ele>174.0</ele><time>2026-04-05T07:01:49.008Z</time></trkpt><trkpt lat="45.58859768609167" lon="9.11943507123636"><ele>174.0</ele><time>2026-04-05T07:01:51.008Z</time></trkpt><trkpt lat="45.58869627724701" lon="9.119447465786234"><ele>174.0</ele><time>2026-04-05T07:01:53.008Z</time></trkpt><trkpt lat="45.588791641723475" lon="9.119459415220055"><ele>174.0</ele><time>2026-04-05T07:01:55.008Z</time></trkpt><trkpt lat="45.58887321171583" lon="9.119513987874656"><ele>174.79999999999998</ele><time>2026-04-05T07:01:57.008Z</time></trkpt><trkpt lat="45.588927086414614" lon="9.119633007069172"><ele>175.6</ele><time>2026-04-05T07:01:59.008Z</time></trkpt><trkpt lat="45.58899265600886" lon="9.119736842654868"><ele>176.4</ele><time>2026-04-05T07:02:01.008Z</time></trkpt><trkpt lat="45.58908937861723" lon="9.11976321282212"><ele>177.2</ele><time>2026-04-05T07:02:03.008Z</time></trkpt><trkpt lat="45.589163364622195" lon="9.119685412586373"><ele>178.0</ele><time>2026-04-05T07:02:05.008Z</time></trkpt><trkpt lat="45.5892277799863" lon="9.119599109498788"><ele>178.0</ele><time>2026-04-05T07:02:07.008Z</time></trkpt><trkpt lat="45.589307346998666" lon="9.119554935083565"><ele>178.0</ele><time>2026-04-05T07:02:09.008Z</time></trkpt><trkpt lat="45.58939557079578" lon="9.119556127326014"><ele>178.0</ele><time>2026-04-05T07:02:11.008Z</time></trkpt><trkpt lat="45.58948010006806" lon="9.119567717251249"><ele>178.0</ele><time>2026-04-05T07:02:13.008Z</time></trkpt><trkpt lat="45.58956470046389" lon="9.119580064833368"><ele>178.0</ele><time>2026-04-05T07:02:15.008Z</time></trkpt><trkpt lat="45.589650312952145" lon="9.119592512710467"><ele>178.0</ele><time>2026-04-05T07:02:17.008Z</time></trkpt><trkpt lat="45.58972812661467" lon="9.119600371865312"><ele>177.83333333333334</ele><time>2026-04-05T07:02:19.008Z</time></trkpt><trkpt lat="45.589800047674174" lon="9.119606513748241"><ele>177.66666666666669</ele><time>2026-04-05T07:02:21.008Z</time></trkpt><trkpt lat="45.58988813927289" lon="9.11963695948033"><ele>177.5</ele><time>2026-04-05T07:02:23.008Z</time></trkpt><trkpt lat="45.58997036664977" lon="9.119659675155374"><ele>177.33333333333334</ele><time>2026-04-05T07:02:25.007Z</time></trkpt><trkpt lat="45.59005119531779" lon="9.11966777677129"><ele>177.16666666666666</ele><time>2026-04-05T07:02:27.007Z</time></trkpt><trkpt lat="45.59014523178231" lon="9.119682428917033"><ele>177.0</ele><time>2026-04-05T07:02:29.007Z</time></trkpt><trkpt lat="45.59024033632016" lon="9.119698452317069"><ele>177.0</ele><time>2026-04-05T07:02:31.007Z</time></trkpt><trkpt lat="45.590331102590945" lon="9.119714139759179"><ele>177.0</ele><time>2026-04-05T07:02:33.007Z</time></trkpt><trkpt lat="45.59042628419265" lon="9.119728807004675"><ele>177.0</ele><time>2026-04-05T07:02:35.007Z</time></trkpt><trkpt lat="45.590511556584346" lon="9.11973989352995"><ele>177.0</ele><time>2026-04-05T07:02:37.007Z</time></trkpt><trkpt lat="45.59059573581454" lon="9.119761529993442"><ele>177.0</ele><time>2026-04-05T07:02:39.007Z</time></trkpt><trkpt lat="45.59068014743768" lon="9.119778644388344"><ele>177.0</ele><time>2026-04-05T07:02:41.007Z</time></trkpt><trkpt lat="45.59075305570309" lon="9.119795508405447"><ele>177.16666666666666</ele><time>2026-04-05T07:02:43.007Z</time></trkpt><trkpt lat="45.59083012786755" lon="9.119783863258982"><ele>177.33333333333334</ele><time>2026-04-05T07:02:45.007Z</time></trkpt><trkpt lat="45.59091411272243" lon="9.119785328845705"><ele>177.5</ele><time>2026-04-05T07:02:47.007Z</time></trkpt><trkpt lat="45.59097874699593" lon="9.119732855347301"><ele>177.66666666666669</ele><time>2026-04-05T07:02:49.007Z</time></trkpt><trkpt lat="45.59103774782884" lon="9.119653289668824"><ele>177.83333333333334</ele><time>2026-04-05T07:02:51.007Z</time></trkpt><trkpt lat="45.59107865779494" lon="9.119568572504122"><ele>178.0</ele><time>2026-04-05T07:02:53.007Z</time></trkpt><trkpt lat="45.59109688977124" lon="9.119480833292887"><ele>178.0</ele><time>2026-04-05T07:02:55.007Z</time></trkpt><trkpt lat="45.591063831640525" lon="9.11940420542343"><ele>178.0</ele><time>2026-04-05T07:02:57.007Z</time></trkpt><trkpt lat="45.59106791128298" lon="9.119281462791374"><ele>178.0</ele><time>2026-04-05T07:03:00.007Z</time></trkpt><trkpt lat="45.591054534761106" lon="9.119175562923585"><ele>178.0</ele><time>2026-04-05T07:03:03.007Z</time></trkpt><trkpt lat="45.591041841756116" lon="9.119064243134863"><ele>178.0</ele><time>2026-04-05T07:03:06.009Z</time></trkpt><trkpt lat="45.59102187299979" lon="9.118936002004231"><ele>178.0</ele><time>2026-04-05T07:03:09.009Z</time></trkpt><trkpt lat="45.59100178158085" lon="9.118838560384145"><ele>178.42857142857142</ele><time>2026-04-05T07:03:11.009Z</time></trkpt><trkpt lat="45.59099020326731" lon="9.118733684561432"><ele>178.85714285714286</ele><time>2026-04-05T07:03:14.009Z</time></trkpt><trkpt lat="45.590961323158666" lon="9.118645469317482"><ele>179.28571428571428</ele><time>2026-04-05T07:03:16.009Z</time></trkpt><trkpt lat="45.59094282890065" lon="9.1185542237404"><ele>179.71428571428572</ele><time>2026-04-05T07:03:18.009Z</time></trkpt><trkpt lat="45.59093153659046" lon="9.118452615706847"><ele>180.14285714285714</ele><time>2026-04-05T07:03:20.009Z</time></trkpt><trkpt lat="45.59092132576089" lon="9.118355526555282"><ele>180.57142857142856</ele><time>2026-04-05T07:03:22.009Z</time></trkpt><trkpt lat="45.590916685572566" lon="9.118237476931737"><ele>181.0</ele><time>2026-04-05T07:03:24.009Z</time></trkpt><trkpt lat="45.59091152792832" lon="9.118109756783682"><ele>181.16666666666669</ele><time>2026-04-05T07:03:26.009Z</time></trkpt><trkpt lat="45.59091053516783" lon="9.117976346901163"><ele>181.33333333333334</ele><time>2026-04-05T07:03:28.009Z</time></trkpt><trkpt lat="45.59091077074769" lon="9.117847665893745"><ele>181.5</ele><time>2026-04-05T07:03:30.009Z</time></trkpt><trkpt lat="45.59090366871363" lon="9.117733744719018"><ele>181.66666666666666</ele><time>2026-04-05T07:03:32.009Z</time></trkpt><trkpt lat="45.5908935862309" lon="9.11762707498395"><ele>181.83333333333331</ele><time>2026-04-05T07:03:34.009Z</time></trkpt><trkpt lat="45.59087861887486" lon="9.117510788318306"><ele>182.0</ele><time>2026-04-05T07:03:36.009Z</time></trkpt><trkpt lat="45.59085969153061" lon="9.117412694288037"><ele>182.83333333333331</ele><time>2026-04-05T07:03:38.009Z</time></trkpt><trkpt lat="45.59085709658715" lon="9.117316697665412"><ele>183.66666666666666</ele><time>2026-04-05T07:03:40.009Z</time></trkpt><trkpt lat="45.5908678346964" lon="9.11721737409996"><ele>184.5</ele><time>2026-04-05T07:03:42.009Z</time></trkpt><trkpt lat="45.590911024745274" lon="9.117104628435692"><ele>185.33333333333334</ele><time>2026-04-05T07:03:45.009Z</time></trkpt><trkpt lat="45.59098767044248" lon="9.117041222992682"><ele>186.16666666666669</ele><time>2026-04-05T07:03:48.009Z</time></trkpt><trkpt lat="45.591069093175285" lon="9.117002451575114"><ele>187.0</ele><time>2026-04-05T07:03:51.009Z</time></trkpt><trkpt lat="45.59114710301341" lon="9.116953158915937"><ele>187.33333333333334</ele><time>2026-04-05T07:03:54.009Z</time></trkpt><trkpt lat="45.59122603924819" lon="9.116905207548134"><ele>187.66666666666669</ele><time>2026-04-05T07:03:57.009Z</time></trkpt><trkpt lat="45.591298881968356" lon="9.116869439744704"><ele>188.0</ele><time>2026-04-05T07:04:00.009Z</time></trkpt><trkpt lat="45.59136836372747" lon="9.116834466932513"><ele>188.33333333333334</ele><time>2026-04-05T07:04:03.009Z</time></trkpt><trkpt lat="45.59143822678594" lon="9.11678472716066"><ele>188.66666666666666</ele><time>2026-04-05T07:04:06.009Z</time></trkpt><trkpt lat="45.59150997137955" lon="9.116742851918477"><ele>189.0</ele><time>2026-04-05T07:04:09.009Z</time></trkpt><trkpt lat="45.591579082822854" lon="9.116696126540901"><ele>189.0</ele><time>2026-04-05T07:04:12.009Z</time></trkpt><trkpt lat="45.591650708479584" lon="9.116656278331918"><ele>189.0</ele><time>2026-04-05T07:04:15.009Z</time></trkpt><trkpt lat="45.59173684443515" lon="9.116605471368302"><ele>189.0</ele><time>2026-04-05T07:04:18.009Z</time></trkpt><trkpt lat="45.591820386900764" lon="9.11655599333896"><ele>189.0</ele><time>2026-04-05T07:04:21.009Z</time></trkpt><trkpt lat="45.59190194496432" lon="9.11649569949315"><ele>189.0</ele><time>2026-04-05T07:04:24.009Z</time></trkpt><trkpt lat="45.59198794515276" lon="9.116440515914995"><ele>189.0</ele><time>2026-04-05T07:04:27.009Z</time></trkpt><trkpt lat="45.592071263996026" lon="9.116392997190278"><ele>189.39999999999998</ele><time>2026-04-05T07:04:30.009Z</time></trkpt><trkpt lat="45.59216108453628" lon="9.116365129715057"><ele>189.8</ele><time>2026-04-05T07:04:33.009Z</time></trkpt><trkpt lat="45.592252588002175" lon="9.116385171018564"><ele>190.2</ele><time>2026-04-05T07:04:36.009Z</time></trkpt><trkpt lat="45.592337066022516" lon="9.116439068415216"><ele>190.60000000000002</ele><time>2026-04-05T07:04:39.008Z</time></trkpt><trkpt lat="45.59241292379083" lon="9.116497588998756"><ele>191.0</ele><time>2026-04-05T07:04:42.008Z</time></trkpt><trkpt lat="45.59248657138578" lon="9.11656213354459"><ele>191.0</ele><time>2026-04-05T07:04:45.008Z</time></trkpt><trkpt lat="45.59255586950861" lon="9.116611708211325"><ele>191.0</ele><time>2026-04-05T07:04:48.008Z</time></trkpt><trkpt lat="45.59263271338206" lon="9.116633878732824"><ele>191.0</ele><time>2026-04-05T07:04:51.008Z</time></trkpt><trkpt lat="45.59271439178781" lon="9.116643836736992"><ele>191.0</ele><time>2026-04-05T07:04:54.008Z</time></trkpt><trkpt lat="45.59279971830753" lon="9.116623887315711"><ele>191.0</ele><time>2026-04-05T07:04:57.008Z</time></trkpt><trkpt lat="45.59288128983858" lon="9.116581770847334"><ele>191.0</ele><time>2026-04-05T07:05:00.008Z</time></trkpt><trkpt lat="45.59296719236121" lon="9.116530283556392"><ele>191.0</ele><time>2026-04-05T07:05:03.008Z</time></trkpt><trkpt lat="45.593027160810294" lon="9.116496792539008"><ele>191.0</ele><time>2026-04-05T07:05:05.008Z</time></trkpt><trkpt lat="45.593086132560444" lon="9.11646072142611"><ele>191.0</ele><time>2026-04-05T07:05:07.008Z</time></trkpt><trkpt lat="45.59315306775671" lon="9.116435338494579"><ele>191.0</ele><time>2026-04-05T07:05:09.008Z</time></trkpt><trkpt lat="45.593215451869405" lon="9.116398557725224"><ele>191.0</ele><time>2026-04-05T07:05:11.008Z</time></trkpt><trkpt lat="45.593279086661305" lon="9.116363620794568"><ele>191.0</ele><time>2026-04-05T07:05:13.009Z</time></trkpt><trkpt lat="45.59336790367153" lon="9.11631123538195"><ele>191.0</ele><time>2026-04-05T07:05:16.01Z</time></trkpt><trkpt lat="45.593428959519315" lon="9.116273598425535"><ele>191.0</ele><time>2026-04-05T07:05:18.009Z</time></trkpt><trkpt lat="45.59348804353214" lon="9.116231650971594"><ele>191.0</ele><time>2026-04-05T07:05:20.01Z</time></trkpt><trkpt lat="45.593549839508704" lon="9.11619371467023"><ele>191.0</ele><time>2026-04-05T07:05:22.009Z</time></trkpt><trkpt lat="45.59361014440758" lon="9.116149621114104"><ele>191.0</ele><time>2026-04-05T07:05:24.009Z</time></trkpt><trkpt lat="45.593671525973086" lon="9.116108867880573"><ele>191.0</ele><time>2026-04-05T07:05:26.01Z</time></trkpt><trkpt lat="45.59373714293207" lon="9.116063693892473"><ele>191.0</ele><time>2026-04-05T07:05:28.01Z</time></trkpt><trkpt lat="45.59380223287521" lon="9.116023712537142"><ele>191.0</ele><time>2026-04-05T07:05:30.01Z</time></trkpt><trkpt lat="45.59386711295799" lon="9.115986440099759"><ele>191.33333333333331</ele><time>2026-04-05T07:05:32.01Z</time></trkpt><trkpt lat="45.59393432746339" lon="9.115948728902497"><ele>191.66666666666666</ele><time>2026-04-05T07:05:34.01Z</time></trkpt><trkpt lat="45.594007701614856" lon="9.115912640304272"><ele>192.0</ele><time>2026-04-05T07:05:36.01Z</time></trkpt><trkpt lat="45.59407599143814" lon="9.11587463339171"><ele>192.33333333333331</ele><time>2026-04-05T07:05:38.01Z</time></trkpt><trkpt lat="45.59414659136813" lon="9.115840508544837"><ele>192.66666666666666</ele><time>2026-04-05T07:05:40.01Z</time></trkpt><trkpt lat="45.594219233979736" lon="9.115838949033371"><ele>193.0</ele><time>2026-04-05T07:05:42.01Z</time></trkpt><trkpt lat="45.594298234206526" lon="9.115850644068834"><ele>192.99999999999997</ele><time>2026-04-05T07:05:44.01Z</time></trkpt><trkpt lat="45.59437589844506" lon="9.115866527226366"><ele>193.0</ele><time>2026-04-05T07:05:46.01Z</time></trkpt><trkpt lat="45.59444232689709" lon="9.115877166270552"><ele>193.0</ele><time>2026-04-05T07:05:48.01Z</time></trkpt><trkpt lat="45.59451591958776" lon="9.115890660301783"><ele>193.0</ele><time>2026-04-05T07:05:50.01Z</time></trkpt><trkpt lat="45.59460425932128" lon="9.115899475272181"><ele>192.99999999999997</ele><time>2026-04-05T07:05:53.009Z</time></trkpt><trkpt lat="45.59469212902165" lon="9.115904286072617"><ele>193.0</ele><time>2026-04-05T07:05:56.009Z</time></trkpt><trkpt lat="45.59478294051383" lon="9.115925065213414"><ele>193.00000000000003</ele><time>2026-04-05T07:05:59.009Z</time></trkpt><trkpt lat="45.594850880174114" lon="9.115928632059601"><ele>193.0</ele><time>2026-04-05T07:06:01.009Z</time></trkpt><trkpt lat="45.59491911005675" lon="9.115934944325607"><ele>193.0</ele><time>2026-04-05T07:06:03.009Z</time></trkpt><trkpt lat="45.59498717007175" lon="9.115945775794184"><ele>193.0</ele><time>2026-04-05T07:06:05.009Z</time></trkpt><trkpt lat="45.595051641535505" lon="9.115947772299887"><ele>193.0</ele><time>2026-04-05T07:06:07.009Z</time></trkpt><trkpt lat="45.595121773296704" lon="9.115956122821736"><ele>193.00000000000003</ele><time>2026-04-05T07:06:09.009Z</time></trkpt><trkpt lat="45.595186479843775" lon="9.115954245948751"><ele>193.0</ele><time>2026-04-05T07:06:11.009Z</time></trkpt><trkpt lat="45.59525100724273" lon="9.115958648564696"><ele>193.00000000000003</ele><time>2026-04-05T07:06:13.009Z</time></trkpt><trkpt lat="45.59532463371594" lon="9.115961317277252"><ele>193.0</ele><time>2026-04-05T07:06:15.009Z</time></trkpt><trkpt lat="45.59539422408984" lon="9.115944448151183"><ele>193.0</ele><time>2026-04-05T07:06:17.009Z</time></trkpt><trkpt lat="45.595462468501594" lon="9.115910017849988"><ele>193.0</ele><time>2026-04-05T07:06:19.009Z</time></trkpt><trkpt lat="45.59552953587889" lon="9.11586820948469"><ele>193.0</ele><time>2026-04-05T07:06:21.009Z</time></trkpt><trkpt lat="45.59559388555421" lon="9.115821961549882"><ele>193.00000000000003</ele><time>2026-04-05T07:06:23.009Z</time></trkpt><trkpt lat="45.595655553072525" lon="9.115786760878681"><ele>193.0</ele><time>2026-04-05T07:06:25.009Z</time></trkpt><trkpt lat="45.59574644828794" lon="9.115748353105925"><ele>192.85714285714286</ele><time>2026-04-05T07:06:28.008Z</time></trkpt><trkpt lat="45.59581147004819" lon="9.115715421198244"><ele>192.71428571428572</ele><time>2026-04-05T07:06:30.008Z</time></trkpt><trkpt lat="45.59587534146181" lon="9.115684148591612"><ele>192.57142857142856</ele><time>2026-04-05T07:06:32.008Z</time></trkpt><trkpt lat="45.59594567167062" lon="9.11564891899306"><ele>192.42857142857144</ele><time>2026-04-05T07:06:34.008Z</time></trkpt><trkpt lat="45.59600494779482" lon="9.115611995246482"><ele>192.28571428571428</ele><time>2026-04-05T07:06:36.008Z</time></trkpt><trkpt lat="45.59609032716666" lon="9.115570375351933"><ele>192.14285714285714</ele><time>2026-04-05T07:06:39.008Z</time></trkpt><trkpt lat="45.59615726316137" lon="9.11554310953328"><ele>192.0</ele><time>2026-04-05T07:06:41.008Z</time></trkpt><trkpt lat="45.596222749751966" lon="9.115488776311606"><ele>192.14285714285714</ele><time>2026-04-05T07:06:43.007Z</time></trkpt><trkpt lat="45.59625883746411" lon="9.115402629595792"><ele>192.28571428571428</ele><time>2026-04-05T07:06:45.007Z</time></trkpt><trkpt lat="45.59628182328764" lon="9.115309695283923"><ele>192.42857142857144</ele><time>2026-04-05T07:06:47.007Z</time></trkpt><trkpt lat="45.59630027417215" lon="9.115208499689484"><ele>192.57142857142856</ele><time>2026-04-05T07:06:49.007Z</time></trkpt><trkpt lat="45.5963189881452" lon="9.115105974235593"><ele>192.71428571428572</ele><time>2026-04-05T07:06:51.007Z</time></trkpt><trkpt lat="45.59633296082449" lon="9.115005569601829"><ele>192.85714285714286</ele><time>2026-04-05T07:06:53.007Z</time></trkpt><trkpt lat="45.59634760853342" lon="9.114897832047454"><ele>193.0</ele><time>2026-04-05T07:06:55.007Z</time></trkpt><trkpt lat="45.596364557267115" lon="9.114785601002163"><ele>193.00000000000003</ele><time>2026-04-05T07:06:57.007Z</time></trkpt><trkpt lat="45.5963742591112" lon="9.1146794331934"><ele>193.0</ele><time>2026-04-05T07:06:59.007Z</time></trkpt><trkpt lat="45.59638604160584" lon="9.114577223288967"><ele>193.0</ele><time>2026-04-05T07:07:01.007Z</time></trkpt><trkpt lat="45.59640563456546" lon="9.114474048744997"><ele>193.0</ele><time>2026-04-05T07:07:03.007Z</time></trkpt><trkpt lat="45.5964226769449" lon="9.114364741250537"><ele>193.0</ele><time>2026-04-05T07:07:05.007Z</time></trkpt><trkpt lat="45.596443184687644" lon="9.114260684247782"><ele>193.00000000000003</ele><time>2026-04-05T07:07:07.007Z</time></trkpt><trkpt lat="45.59646451635702" lon="9.114162906509268"><ele>193.0</ele><time>2026-04-05T07:07:09.007Z</time></trkpt><trkpt lat="45.596490174120504" lon="9.11406505331843"><ele>192.83333333333331</ele><time>2026-04-05T07:07:11.007Z</time></trkpt><trkpt lat="45.5965011788384" lon="9.113969098593783"><ele>192.66666666666666</ele><time>2026-04-05T07:07:13.007Z</time></trkpt><trkpt lat="45.59649882662939" lon="9.11386092336676"><ele>192.5</ele><time>2026-04-05T07:07:15.007Z</time></trkpt><trkpt lat="45.596518927502814" lon="9.113741442563528"><ele>192.33333333333331</ele><time>2026-04-05T07:07:17.007Z</time></trkpt><trkpt lat="45.59653934311564" lon="9.113630821705568"><ele>192.16666666666666</ele><time>2026-04-05T07:07:19.008Z</time></trkpt><trkpt lat="45.59655623586126" lon="9.113506928344714"><ele>192.0</ele><time>2026-04-05T07:07:21.008Z</time></trkpt><trkpt lat="45.596566641604156" lon="9.113383278763179"><ele>191.99999999999997</ele><time>2026-04-05T07:07:23.008Z</time></trkpt><trkpt lat="45.596576549717206" lon="9.113289699551569"><ele>192.0</ele><time>2026-04-05T07:07:25.008Z</time></trkpt><trkpt lat="45.59657268948401" lon="9.113181501032694"><ele>192.0</ele><time>2026-04-05T07:07:28.008Z</time></trkpt><trkpt lat="45.59657719698378" lon="9.113068279778906"><ele>192.0</ele><time>2026-04-05T07:07:31.008Z</time></trkpt><trkpt lat="45.596582375761166" lon="9.112958104659889"><ele>192.0</ele><time>2026-04-05T07:07:34.008Z</time></trkpt><trkpt lat="45.59655535021749" lon="9.11284594499123"><ele>191.99999999999997</ele><time>2026-04-05T07:07:37.008Z</time></trkpt><trkpt lat="45.59651886207048" lon="9.112766941119041"><ele>192.0</ele><time>2026-04-05T07:07:39.008Z</time></trkpt><trkpt lat="45.59647559270785" lon="9.112667440504072"><ele>192.42857142857142</ele><time>2026-04-05T07:07:42.008Z</time></trkpt><trkpt lat="45.596441199076516" lon="9.112589373882122"><ele>192.85714285714286</ele><time>2026-04-05T07:07:44.008Z</time></trkpt><trkpt lat="45.596401800231654" lon="9.112501348137835"><ele>193.28571428571428</ele><time>2026-04-05T07:07:46.007Z</time></trkpt><trkpt lat="45.59636377660217" lon="9.112423162725316"><ele>193.71428571428572</ele><time>2026-04-05T07:07:48.007Z</time></trkpt><trkpt lat="45.59630474088172" lon="9.112341729241207"><ele>194.14285714285714</ele><time>2026-04-05T07:07:51.007Z</time></trkpt><trkpt lat="45.5962582689383" lon="9.112271311381317"><ele>194.57142857142856</ele><time>2026-04-05T07:07:53.007Z</time></trkpt><trkpt lat="45.59620016467347" lon="9.112203183316089"><ele>195.0</ele><time>2026-04-05T07:07:55.007Z</time></trkpt><trkpt lat="45.59615638841598" lon="9.11213068717211"><ele>195.0</ele><time>2026-04-05T07:07:57.007Z</time></trkpt><trkpt lat="45.5961032006705" lon="9.112016381981414"><ele>195.0</ele><time>2026-04-05T07:08:00.007Z</time></trkpt><trkpt lat="45.596071956324636" lon="9.111930133649263"><ele>195.0</ele><time>2026-04-05T07:08:02.007Z</time></trkpt><trkpt lat="45.596085564822474" lon="9.111832277885089"><ele>195.0</ele><time>2026-04-05T07:08:04.007Z</time></trkpt><trkpt lat="45.59610321014746" lon="9.111725489034107"><ele>195.0</ele><time>2026-04-05T07:08:06.007Z</time></trkpt><trkpt lat="45.59610734954929" lon="9.111591476756594"><ele>195.0</ele><time>2026-04-05T07:08:09.007Z</time></trkpt><trkpt lat="45.596101142532866" lon="9.111452510494004"><ele>195.16666666666666</ele><time>2026-04-05T07:08:12.007Z</time></trkpt><trkpt lat="45.596099926544724" lon="9.111359832286976"><ele>195.33333333333331</ele><time>2026-04-05T07:08:14.007Z</time></trkpt><trkpt lat="45.59610325879241" lon="9.111266020596245"><ele>195.5</ele><time>2026-04-05T07:08:16.007Z</time></trkpt><trkpt lat="45.59610298591063" lon="9.111148644208692"><ele>195.66666666666666</ele><time>2026-04-05T07:08:18.007Z</time></trkpt><trkpt lat="45.596122255240246" lon="9.111041356103541"><ele>195.83333333333331</ele><time>2026-04-05T07:08:20.007Z</time></trkpt><trkpt lat="45.596133310820036" lon="9.110938949511404"><ele>196.0</ele><time>2026-04-05T07:08:22.007Z</time></trkpt><trkpt lat="45.59614548469604" lon="9.110802961793924"><ele>195.66666666666666</ele><time>2026-04-05T07:08:24.007Z</time></trkpt><trkpt lat="45.59614082439661" lon="9.110710062241774"><ele>195.33333333333331</ele><time>2026-04-05T07:08:25.007Z</time></trkpt><trkpt lat="45.596157923769475" lon="9.110550598157383"><ele>195.0</ele><time>2026-04-05T07:08:27.007Z</time></trkpt><trkpt lat="45.59617904222289" lon="9.110445028666073"><ele>194.66666666666669</ele><time>2026-04-05T07:08:29.007Z</time></trkpt><trkpt lat="45.59619583393537" lon="9.11030793281332"><ele>194.33333333333334</ele><time>2026-04-05T07:08:31.007Z</time></trkpt><trkpt lat="45.596209380527675" lon="9.110180746646932"><ele>194.0</ele><time>2026-04-05T07:08:33.007Z</time></trkpt><trkpt lat="45.59620517958594" lon="9.11009059155105"><ele>194.39999999999998</ele><time>2026-04-05T07:08:34.007Z</time></trkpt><trkpt lat="45.596195703909835" lon="9.109945104382144"><ele>194.8</ele><time>2026-04-05T07:08:36.007Z</time></trkpt><trkpt lat="45.59622656996371" lon="9.109817753386968"><ele>195.2</ele><time>2026-04-05T07:08:38.007Z</time></trkpt><trkpt lat="45.59624481512771" lon="9.10971255055481"><ele>195.60000000000002</ele><time>2026-04-05T07:08:39.007Z</time></trkpt><trkpt lat="45.59625937064126" lon="9.10961490492692"><ele>196.0</ele><time>2026-04-05T07:08:40.007Z</time></trkpt><trkpt lat="45.59628253967291" lon="9.109461761533353"><ele>195.99999999999997</ele><time>2026-04-05T07:08:42.007Z</time></trkpt><trkpt lat="45.5963551692874" lon="9.109345564521579"><ele>196.0</ele><time>2026-04-05T07:08:44.007Z</time></trkpt><trkpt lat="45.59642484503067" lon="9.109242427218087"><ele>196.0</ele><time>2026-04-05T07:08:46.007Z</time></trkpt><trkpt lat="45.59648589232695" lon="9.10915394133533"><ele>196.0</ele><time>2026-04-05T07:08:48.007Z</time></trkpt><trkpt lat="45.5965297644352" lon="9.109068105749067"><ele>195.99999999999997</ele><time>2026-04-05T07:08:50.007Z</time></trkpt><trkpt lat="45.59653315684859" lon="9.108969639789667"><ele>196.0</ele><time>2026-04-05T07:08:53.007Z</time></trkpt><trkpt lat="45.59654219297296" lon="9.108874600851014"><ele>195.83333333333331</ele><time>2026-04-05T07:08:55.007Z</time></trkpt><trkpt lat="45.59653742485506" lon="9.108766801439671"><ele>195.66666666666666</ele><time>2026-04-05T07:08:58.007Z</time></trkpt><trkpt lat="45.596546819459164" lon="9.108677419095143"><ele>195.5</ele><time>2026-04-05T07:09:00.007Z</time></trkpt><trkpt lat="45.596613793461884" lon="9.108593543967649"><ele>195.33333333333331</ele><time>2026-04-05T07:09:03.007Z</time></trkpt><trkpt lat="45.59668564848143" lon="9.108544484845243"><ele>195.16666666666666</ele><time>2026-04-05T07:09:06.007Z</time></trkpt><trkpt lat="45.596739898435985" lon="9.108467248701066"><ele>195.0</ele><time>2026-04-05T07:09:10.007Z</time></trkpt><trkpt lat="45.59678540272775" lon="9.108378034587867"><ele>195.0</ele><time>2026-04-05T07:09:13.007Z</time></trkpt><trkpt lat="45.59680687238539" lon="9.108259750323795"><ele>195.0</ele><time>2026-04-05T07:09:17.006Z</time></trkpt><trkpt lat="45.596827123546284" lon="9.10816976954698"><ele>195.0</ele><time>2026-04-05T07:09:21.006Z</time></trkpt><trkpt lat="45.59685562687858" lon="9.108075468034986"><ele>195.0</ele><time>2026-04-05T07:09:25.009Z</time></trkpt><trkpt lat="45.59688004779586" lon="9.107977918537632"><ele>195.0</ele><time>2026-04-05T07:09:29.008Z</time></trkpt><trkpt lat="45.59690202894449" lon="9.107878131193416"><ele>195.0</ele><time>2026-04-05T07:09:33.009Z</time></trkpt><trkpt lat="45.596907768618365" lon="9.107779525599504"><ele>195.0</ele><time>2026-04-05T07:09:36.008Z</time></trkpt><trkpt lat="45.596922824356476" lon="9.107667763318588"><ele>195.33333333333334</ele><time>2026-04-05T07:09:39.008Z</time></trkpt><trkpt lat="45.596934330147164" lon="9.107557696597345"><ele>195.66666666666669</ele><time>2026-04-05T07:09:42.008Z</time></trkpt><trkpt lat="45.596954179270895" lon="9.107433240936317"><ele>196.0</ele><time>2026-04-05T07:09:45.008Z</time></trkpt><trkpt lat="45.59697568841012" lon="9.107310618070823"><ele>196.33333333333334</ele><time>2026-04-05T07:09:48.008Z</time></trkpt><trkpt lat="45.5969866056169" lon="9.107217748071303"><ele>196.66666666666669</ele><time>2026-04-05T07:09:50.008Z</time></trkpt><trkpt lat="45.59701805824512" lon="9.107092099510131"><ele>197.0</ele><time>2026-04-05T07:09:53.008Z</time></trkpt><trkpt lat="45.597050557918266" lon="9.106978564950044"><ele>197.00000000000003</ele><time>2026-04-05T07:09:56.008Z</time></trkpt><trkpt lat="45.597075894348094" lon="9.106869025192394"><ele>197.0</ele><time>2026-04-05T07:09:59.008Z</time></trkpt><trkpt lat="45.59710167372021" lon="9.106773295679309"><ele>197.0</ele><time>2026-04-05T07:10:01.008Z</time></trkpt><trkpt lat="45.597129011518426" lon="9.106649831050804"><ele>197.0</ele><time>2026-04-05T07:10:04.008Z</time></trkpt><trkpt lat="45.59714814772278" lon="9.106562351831908"><ele>197.00000000000003</ele><time>2026-04-05T07:10:06.008Z</time></trkpt><trkpt lat="45.59717625812941" lon="9.106439345051978"><ele>197.0</ele><time>2026-04-05T07:10:09.008Z</time></trkpt><trkpt lat="45.59719468427831" lon="9.106344600084384"><ele>197.50000000000003</ele><time>2026-04-05T07:10:11.008Z</time></trkpt><trkpt lat="45.59720800131694" lon="9.10622758672191"><ele>198.0</ele><time>2026-04-05T07:10:14.008Z</time></trkpt><trkpt lat="45.5972229573064" lon="9.106137644225347"><ele>198.5</ele><time>2026-04-05T07:10:16.008Z</time></trkpt><trkpt lat="45.59723733180055" lon="9.106021055437221"><ele>199.0</ele><time>2026-04-05T07:10:19.007Z</time></trkpt><trkpt lat="45.59724858544911" lon="9.105903836572606"><ele>199.50000000000003</ele><time>2026-04-05T07:10:22.007Z</time></trkpt><trkpt lat="45.59721219886211" lon="9.105768346433711"><ele>200.0</ele><time>2026-04-05T07:10:25.007Z</time></trkpt><trkpt lat="45.597192082869604" lon="9.105634034089126"><ele>200.00000000000003</ele><time>2026-04-05T07:10:27.007Z</time></trkpt><trkpt lat="45.597210435031315" lon="9.105517297585576"><ele>200.0</ele><time>2026-04-05T07:10:29.007Z</time></trkpt><trkpt lat="45.59724229486255" lon="9.105418193609276"><ele>200.0</ele><time>2026-04-05T07:10:31.007Z</time></trkpt><trkpt lat="45.59725787442005" lon="9.105282312860178"><ele>200.0</ele><time>2026-04-05T07:10:33.007Z</time></trkpt><trkpt lat="45.59726390079844" lon="9.10517527980724"><ele>200.00000000000003</ele><time>2026-04-05T07:10:35.007Z</time></trkpt><trkpt lat="45.59728482179326" lon="9.10504578948707"><ele>200.0</ele><time>2026-04-05T07:10:38.007Z</time></trkpt><trkpt lat="45.59731418590508" lon="9.104942845961677"><ele>200.16666666666669</ele><time>2026-04-05T07:10:40.007Z</time></trkpt><trkpt lat="45.59734499907491" lon="9.104831421147772"><ele>200.33333333333334</ele><time>2026-04-05T07:10:43.007Z</time></trkpt><trkpt lat="45.59736853734102" lon="9.104721656317581"><ele>200.5</ele><time>2026-04-05T07:10:45.007Z</time></trkpt><trkpt lat="45.59737508721853" lon="9.104617067664218"><ele>200.66666666666669</ele><time>2026-04-05T07:10:47.007Z</time></trkpt><trkpt lat="45.59741264030102" lon="9.104522539876381"><ele>200.83333333333334</ele><time>2026-04-05T07:10:49.007Z</time></trkpt><trkpt lat="45.59745084022937" lon="9.104434262928633"><ele>201.0</ele><time>2026-04-05T07:10:51.007Z</time></trkpt><trkpt lat="45.59746011956847" lon="9.104326786512114"><ele>201.0</ele><time>2026-04-05T07:10:53.007Z</time></trkpt><trkpt lat="45.59747701213585" lon="9.104232763278988"><ele>201.0</ele><time>2026-04-05T07:10:55.007Z</time></trkpt><trkpt lat="45.597491169244755" lon="9.104129646770799"><ele>201.0</ele><time>2026-04-05T07:10:58.007Z</time></trkpt><trkpt lat="45.59750509140893" lon="9.104019651820439"><ele>201.0</ele><time>2026-04-05T07:11:00.007Z</time></trkpt><trkpt lat="45.597526417347375" lon="9.103930785173096"><ele>201.0</ele><time>2026-04-05T07:11:02.007Z</time></trkpt><trkpt lat="45.59757182068667" lon="9.103822174155878"><ele>201.0</ele><time>2026-04-05T07:11:05.007Z</time></trkpt><trkpt lat="45.59760304654707" lon="9.103742444098053"><ele>201.0</ele><time>2026-04-05T07:11:07.007Z</time></trkpt><trkpt lat="45.59763093096909" lon="9.103646727470402"><ele>200.66666666666666</ele><time>2026-04-05T07:11:09.007Z</time></trkpt><trkpt lat="45.59765383973845" lon="9.103497607650928"><ele>200.33333333333331</ele><time>2026-04-05T07:11:12.007Z</time></trkpt><trkpt lat="45.597678053852164" lon="9.103403267023094"><ele>200.0</ele><time>2026-04-05T07:11:14.007Z</time></trkpt><trkpt lat="45.59770209889636" lon="9.103306286047593"><ele>199.66666666666666</ele><time>2026-04-05T07:11:16.007Z</time></trkpt><trkpt lat="45.59772684347971" lon="9.10320650401373"><ele>199.33333333333331</ele><time>2026-04-05T07:11:18.007Z</time></trkpt><trkpt lat="45.59776199540982" lon="9.1031154676067"><ele>199.0</ele><time>2026-04-05T07:11:20.007Z</time></trkpt><trkpt lat="45.59778798326861" lon="9.103020868728512"><ele>198.99999999999997</ele><time>2026-04-05T07:11:22.007Z</time></trkpt><trkpt lat="45.597816508087554" lon="9.102936425807203"><ele>199.0</ele><time>2026-04-05T07:11:24.007Z</time></trkpt><trkpt lat="45.59784836402826" lon="9.102848978408817"><ele>199.0</ele><time>2026-04-05T07:11:26.007Z</time></trkpt><trkpt lat="45.59786132350201" lon="9.102756241464025"><ele>199.0</ele><time>2026-04-05T07:11:28.007Z</time></trkpt><trkpt lat="45.597890223212204" lon="9.102641329136658"><ele>199.0</ele><time>2026-04-05T07:11:31.008Z</time></trkpt><trkpt lat="45.59791696588464" lon="9.102522812598112"><ele>198.99999999999997</ele><time>2026-04-05T07:11:34.008Z</time></trkpt><trkpt lat="45.597941254019176" lon="9.102427890918"><ele>199.0</ele><time>2026-04-05T07:11:36.009Z</time></trkpt><trkpt lat="45.5979630018381" lon="9.10233756236105"><ele>199.16666666666666</ele><time>2026-04-05T07:11:38.009Z</time></trkpt><trkpt lat="45.5979826145211" lon="9.10223685913217"><ele>199.33333333333331</ele><time>2026-04-05T07:11:40.008Z</time></trkpt><trkpt lat="45.59799745386317" lon="9.102142034386286"><ele>199.5</ele><time>2026-04-05T07:11:42.009Z</time></trkpt><trkpt lat="45.59799871336184" lon="9.102049393628077"><ele>199.66666666666669</ele><time>2026-04-05T07:11:44.009Z</time></trkpt><trkpt lat="45.59798468314643" lon="9.101924841427005"><ele>199.83333333333334</ele><time>2026-04-05T07:11:47.009Z</time></trkpt><trkpt lat="45.597968281718366" lon="9.10179581411993"><ele>200.0</ele><time>2026-04-05T07:11:50.009Z</time></trkpt><trkpt lat="45.597958530902254" lon="9.10165879678364"><ele>199.85714285714286</ele><time>2026-04-05T07:11:53.009Z</time></trkpt><trkpt lat="45.59795935091339" lon="9.101545004309415"><ele>199.71428571428572</ele><time>2026-04-05T07:11:55.009Z</time></trkpt><trkpt lat="45.59795998599447" lon="9.101438888746124"><ele>199.57142857142856</ele><time>2026-04-05T07:11:57.009Z</time></trkpt><trkpt lat="45.59796274547744" lon="9.101330480247714"><ele>199.42857142857144</ele><time>2026-04-05T07:11:59.009Z</time></trkpt><trkpt lat="45.59796895529381" lon="9.101232543925036"><ele>199.28571428571428</ele><time>2026-04-05T07:12:01.009Z</time></trkpt><trkpt lat="45.597987983477445" lon="9.101129545937301"><ele>199.14285714285714</ele><time>2026-04-05T07:12:03.008Z</time></trkpt><trkpt lat="45.59801101362314" lon="9.101031732195034"><ele>199.0</ele><time>2026-04-05T07:12:05.008Z</time></trkpt><trkpt lat="45.598023795473935" lon="9.100940826412625"><ele>198.99999999999997</ele><time>2026-04-05T07:12:07.008Z</time></trkpt><trkpt lat="45.59804626540211" lon="9.100855015857915"><ele>199.0</ele><time>2026-04-05T07:12:09.008Z</time></trkpt><trkpt lat="45.59806146997874" lon="9.100762786023965"><ele>199.0</ele><time>2026-04-05T07:12:11.008Z</time></trkpt><trkpt lat="45.598081840682944" lon="9.100674169350254"><ele>199.0</ele><time>2026-04-05T07:12:13.008Z</time></trkpt><trkpt lat="45.59811005625465" lon="9.100582448031043"><ele>199.0</ele><time>2026-04-05T07:12:15.008Z</time></trkpt><trkpt lat="45.59813098968371" lon="9.100461949812848"><ele>198.99999999999997</ele><time>2026-04-05T07:12:18.008Z</time></trkpt><trkpt lat="45.59814505905778" lon="9.100333771223246"><ele>199.0</ele><time>2026-04-05T07:12:21.008Z</time></trkpt><trkpt lat="45.598169124509305" lon="9.10023986229367"><ele>198.99999999999997</ele><time>2026-04-05T07:12:23.008Z</time></trkpt><trkpt lat="45.59819087427001" lon="9.100152029864182"><ele>199.0</ele><time>2026-04-05T07:12:25.008Z</time></trkpt><trkpt lat="45.59821313515759" lon="9.100054576268203"><ele>199.0</ele><time>2026-04-05T07:12:27.008Z</time></trkpt><trkpt lat="45.59823852742679" lon="9.099964082230628"><ele>199.0</ele><time>2026-04-05T07:12:29.008Z</time></trkpt><trkpt lat="45.598259747249884" lon="9.099873053299625"><ele>199.0</ele><time>2026-04-05T07:12:31.008Z</time></trkpt><trkpt lat="45.59828447093763" lon="9.09977505394757"><ele>198.99999999999997</ele><time>2026-04-05T07:12:33.008Z</time></trkpt><trkpt lat="45.598299414010654" lon="9.099680967532857"><ele>199.0</ele><time>2026-04-05T07:12:35.008Z</time></trkpt><trkpt lat="45.598327327380176" lon="9.099585930230049"><ele>198.99999999999997</ele><time>2026-04-05T07:12:37.008Z</time></trkpt><trkpt lat="45.598353082352205" lon="9.099455353485661"><ele>199.0</ele><time>2026-04-05T07:12:40.008Z</time></trkpt><trkpt lat="45.598375714606476" lon="9.099361954291625"><ele>199.0</ele><time>2026-04-05T07:12:42.008Z</time></trkpt><trkpt lat="45.59840144088275" lon="9.099264352461725"><ele>199.0</ele><time>2026-04-05T07:12:44.008Z</time></trkpt><trkpt lat="45.59841750403924" lon="9.099169481298903"><ele>198.99999999999997</ele><time>2026-04-05T07:12:46.008Z</time></trkpt><trkpt lat="45.59844645820082" lon="9.09907389519138"><ele>199.0</ele><time>2026-04-05T07:12:48.008Z</time></trkpt><trkpt lat="45.59847201614896" lon="9.098973584655997"><ele>199.14285714285714</ele><time>2026-04-05T07:12:50.008Z</time></trkpt><trkpt lat="45.59849608953533" lon="9.098882804272641"><ele>199.28571428571428</ele><time>2026-04-05T07:12:52.008Z</time></trkpt><trkpt lat="45.598523813889734" lon="9.098791679109087"><ele>199.42857142857144</ele><time>2026-04-05T07:12:54.008Z</time></trkpt><trkpt lat="45.598544368567154" lon="9.098704159186093"><ele>199.57142857142856</ele><time>2026-04-05T07:12:56.008Z</time></trkpt><trkpt lat="45.59858171891398" lon="9.09861584071642"><ele>199.71428571428572</ele><time>2026-04-05T07:12:58.008Z</time></trkpt><trkpt lat="45.59862706455965" lon="9.098524712142012"><ele>199.85714285714286</ele><time>2026-04-05T07:13:00.008Z</time></trkpt><trkpt lat="45.59870464700999" lon="9.098458584624591"><ele>200.0</ele><time>2026-04-05T07:13:03.008Z</time></trkpt><trkpt lat="45.59876599561637" lon="9.098408866413147"><ele>199.66666666666669</ele><time>2026-04-05T07:13:05.008Z</time></trkpt><trkpt lat="45.59881066498932" lon="9.098295696280912"><ele>199.33333333333334</ele><time>2026-04-05T07:13:09.008Z</time></trkpt><trkpt lat="45.59884540454264" lon="9.098198609502884"><ele>199.0</ele><time>2026-04-05T07:13:12.008Z</time></trkpt><trkpt lat="45.598889538430136" lon="9.098125374665198"><ele>198.66666666666669</ele><time>2026-04-05T07:13:16.008Z</time></trkpt><trkpt lat="45.598904308870225" lon="9.098000266883409"><ele>198.33333333333334</ele><time>2026-04-05T07:13:19.008Z</time></trkpt><trkpt lat="45.59890042525158" lon="9.097904331573952"><ele>198.0</ele><time>2026-04-05T07:13:21.008Z</time></trkpt><trkpt lat="45.598895110184394" lon="9.097799964488125"><ele>198.0</ele><time>2026-04-05T07:13:23.008Z</time></trkpt><trkpt lat="45.598896144772915" lon="9.097697050438233"><ele>198.0</ele><time>2026-04-05T07:13:25.008Z</time></trkpt><trkpt lat="45.598911706244365" lon="9.09759473547628"><ele>198.0</ele><time>2026-04-05T07:13:28.008Z</time></trkpt><trkpt lat="45.5989531727959" lon="9.097519981248858"><ele>198.0</ele><time>2026-04-05T07:13:31.008Z</time></trkpt><trkpt lat="45.599026928937775" lon="9.097486838864231"><ele>198.0</ele><time>2026-04-05T07:13:34.007Z</time></trkpt><trkpt lat="45.599108419823075" lon="9.09745572516839"><ele>198.0</ele><time>2026-04-05T07:13:37.009Z</time></trkpt><trkpt lat="45.599179891151735" lon="9.097414196156036"><ele>198.14285714285714</ele><time>2026-04-05T07:13:40.009Z</time></trkpt><trkpt lat="45.5992463685652" lon="9.097383127712122"><ele>198.28571428571428</ele><time>2026-04-05T07:13:43.009Z</time></trkpt><trkpt lat="45.59930454932609" lon="9.097344415025386"><ele>198.42857142857142</ele><time>2026-04-05T07:13:45.009Z</time></trkpt><trkpt lat="45.59936728203144" lon="9.097304420575465"><ele>198.57142857142856</ele><time>2026-04-05T07:13:48.009Z</time></trkpt><trkpt lat="45.59945097197897" lon="9.097264318557148"><ele>198.71428571428572</ele><time>2026-04-05T07:13:51.009Z</time></trkpt><trkpt lat="45.59952332570854" lon="9.097229419438728"><ele>198.85714285714283</ele><time>2026-04-05T07:13:54.009Z</time></trkpt><trkpt lat="45.59959731848019" lon="9.097181383319318"><ele>199.0</ele><time>2026-04-05T07:13:56.009Z</time></trkpt><trkpt lat="45.59968397843631" lon="9.097128890477425"><ele>198.99999999999997</ele><time>2026-04-05T07:13:59.009Z</time></trkpt><trkpt lat="45.5997508726764" lon="9.097098246570452"><ele>199.0</ele><time>2026-04-05T07:14:01.009Z</time></trkpt><trkpt lat="45.599825559332885" lon="9.097046938093536"><ele>199.0</ele><time>2026-04-05T07:14:03.009Z</time></trkpt><trkpt lat="45.599894139384446" lon="9.097025014272676"><ele>199.0</ele><time>2026-04-05T07:14:05.009Z</time></trkpt><trkpt lat="45.59996617920886" lon="9.096990157348289"><ele>198.99999999999997</ele><time>2026-04-05T07:14:07.009Z</time></trkpt><trkpt lat="45.60003691046027" lon="9.096968274992312"><ele>199.0</ele><time>2026-04-05T07:14:09.009Z</time></trkpt><trkpt lat="45.60011885837233" lon="9.096947169741606"><ele>198.99999999999997</ele><time>2026-04-05T07:14:12.009Z</time></trkpt><trkpt lat="45.60018891845762" lon="9.096922445040498"><ele>199.0</ele><time>2026-04-05T07:14:14.009Z</time></trkpt><trkpt lat="45.60027860658333" lon="9.096895705193756"><ele>199.0</ele><time>2026-04-05T07:14:17.009Z</time></trkpt><trkpt lat="45.60035463672994" lon="9.096863732553498"><ele>199.0</ele><time>2026-04-05T07:14:20.009Z</time></trkpt><trkpt lat="45.60044196878656" lon="9.096808391383007"><ele>198.99999999999997</ele><time>2026-04-05T07:14:23.009Z</time></trkpt><trkpt lat="45.60052173137795" lon="9.096793229656807"><ele>199.0</ele><time>2026-04-05T07:14:25.009Z</time></trkpt><trkpt lat="45.60059835611144" lon="9.09676729675379"><ele>199.14285714285714</ele><time>2026-04-05T07:14:27.009Z</time></trkpt><trkpt lat="45.60066804406188" lon="9.096743264177611"><ele>199.28571428571428</ele><time>2026-04-05T07:14:29.009Z</time></trkpt><trkpt lat="45.60074251357747" lon="9.096718374497593"><ele>199.42857142857144</ele><time>2026-04-05T07:14:31.009Z</time></trkpt><trkpt lat="45.60080960534632" lon="9.096668344206927"><ele>199.57142857142856</ele><time>2026-04-05T07:14:33.009Z</time></trkpt><trkpt lat="45.600880110740704" lon="9.096643520501628"><ele>199.71428571428572</ele><time>2026-04-05T07:14:35.009Z</time></trkpt><trkpt lat="45.60094318328829" lon="9.096618647463245"><ele>199.85714285714286</ele><time>2026-04-05T07:14:37.008Z</time></trkpt><trkpt lat="45.60101441097214" lon="9.096595274532755"><ele>200.0</ele><time>2026-04-05T07:14:39.008Z</time></trkpt><trkpt lat="45.60108363459398" lon="9.096567229128405"><ele>200.33333333333334</ele><time>2026-04-05T07:14:41.008Z</time></trkpt><trkpt lat="45.60121086575329" lon="9.096529535465214"><ele>200.66666666666669</ele><time>2026-04-05T07:14:45.008Z</time></trkpt><trkpt lat="45.601270106812336" lon="9.096494320574646"><ele>201.0</ele><time>2026-04-05T07:14:47.008Z</time></trkpt><trkpt lat="45.60133766496422" lon="9.096452457484137"><ele>201.33333333333331</ele><time>2026-04-05T07:14:49.008Z</time></trkpt><trkpt lat="45.60141974189111" lon="9.096428978667255"><ele>201.66666666666666</ele><time>2026-04-05T07:14:52.008Z</time></trkpt><trkpt lat="45.60149682291942" lon="9.096390521047814"><ele>202.0</ele><time>2026-04-05T07:14:55.008Z</time></trkpt><trkpt lat="45.60155474957591" lon="9.096354971986722"><ele>202.0</ele><time>2026-04-05T07:14:57.008Z</time></trkpt><trkpt lat="45.601629708794974" lon="9.096330208646764"><ele>202.0</ele><time>2026-04-05T07:14:59.008Z</time></trkpt><trkpt lat="45.60169325271981" lon="9.096304852269832"><ele>202.0</ele><time>2026-04-05T07:15:01.008Z</time></trkpt><trkpt lat="45.60175984369477" lon="9.096290737222414"><ele>202.0</ele><time>2026-04-05T07:15:03.008Z</time></trkpt><trkpt lat="45.601830028175165" lon="9.096267251713122"><ele>202.0</ele><time>2026-04-05T07:15:05.008Z</time></trkpt><trkpt lat="45.6018978815631" lon="9.09624637112826"><ele>202.0</ele><time>2026-04-05T07:15:07.008Z</time></trkpt><trkpt lat="45.60197672546443" lon="9.096200556744854"><ele>202.0</ele><time>2026-04-05T07:15:09.008Z</time></trkpt><trkpt lat="45.60205626740899" lon="9.096155082795315"><ele>201.99999999999997</ele><time>2026-04-05T07:15:11.008Z</time></trkpt><trkpt lat="45.602142077057835" lon="9.096110346581229"><ele>202.0</ele><time>2026-04-05T07:15:13.008Z</time></trkpt><trkpt lat="45.60221111954037" lon="9.096080427804461"><ele>202.0</ele><time>2026-04-05T07:15:15.008Z</time></trkpt><trkpt lat="45.60230104229603" lon="9.096054394435203"><ele>202.0</ele><time>2026-04-05T07:15:17.008Z</time></trkpt><trkpt lat="45.602372628467045" lon="9.09601571273085"><ele>201.99999999999997</ele><time>2026-04-05T07:15:19.008Z</time></trkpt><trkpt lat="45.60246611402192" lon="9.095990688001816"><ele>202.0</ele><time>2026-04-05T07:15:22.008Z</time></trkpt><trkpt lat="45.60252961602617" lon="9.095971749076089"><ele>201.99999999999997</ele><time>2026-04-05T07:15:24.008Z</time></trkpt><trkpt lat="45.60261805909241" lon="9.095931456078764"><ele>202.0</ele><time>2026-04-05T07:15:27.008Z</time></trkpt><trkpt lat="45.602680236113265" lon="9.09588969913581"><ele>202.0</ele><time>2026-04-05T07:15:29.008Z</time></trkpt><trkpt lat="45.60273900745747" lon="9.09585541617343"><ele>202.0</ele><time>2026-04-05T07:15:31.008Z</time></trkpt><trkpt lat="45.60283991478342" lon="9.095813286911863"><ele>201.99999999999997</ele><time>2026-04-05T07:15:34.008Z</time></trkpt><trkpt lat="45.60292376275037" lon="9.095762037548079"><ele>202.0</ele><time>2026-04-05T07:15:37.008Z</time></trkpt><trkpt lat="45.60300834852097" lon="9.095709443518887"><ele>202.66666666666666</ele><time>2026-04-05T07:15:40.008Z</time></trkpt><trkpt lat="45.60307862498437" lon="9.095662677598309"><ele>203.33333333333331</ele><time>2026-04-05T07:15:42.009Z</time></trkpt><trkpt lat="45.603147775628095" lon="9.095622794104392"><ele>204.0</ele><time>2026-04-05T07:15:44.009Z</time></trkpt><trkpt lat="45.60320634450387" lon="9.095589344164448"><ele>204.66666666666669</ele><time>2026-04-05T07:15:46.009Z</time></trkpt><trkpt lat="45.60328386740385" lon="9.095565701912827"><ele>205.33333333333334</ele><time>2026-04-05T07:15:48.009Z</time></trkpt><trkpt lat="45.60337864290675" lon="9.09551897009046"><ele>206.0</ele><time>2026-04-05T07:15:51.01Z</time></trkpt><trkpt lat="45.60346119035776" lon="9.095510737700792"><ele>206.00000000000003</ele><time>2026-04-05T07:15:53.01Z</time></trkpt><trkpt lat="45.60355224444824" lon="9.09549638416952"><ele>206.0</ele><time>2026-04-05T07:15:56.01Z</time></trkpt><trkpt lat="45.60363611675322" lon="9.095461235453678"><ele>206.0</ele><time>2026-04-05T07:15:59.01Z</time></trkpt><trkpt lat="45.60370287990451" lon="9.095412485103468"><ele>206.0</ele><time>2026-04-05T07:16:01.01Z</time></trkpt><trkpt lat="45.603769911149904" lon="9.09538043626339"><ele>206.00000000000003</ele><time>2026-04-05T07:16:03.01Z</time></trkpt><trkpt lat="45.60386476984637" lon="9.095330668369918"><ele>206.0</ele><time>2026-04-05T07:16:06.01Z</time></trkpt><trkpt lat="45.60393633031455" lon="9.095309159969366"><ele>206.00000000000003</ele><time>2026-04-05T07:16:08.01Z</time></trkpt><trkpt lat="45.603994341256396" lon="9.095273977264398"><ele>206.0</ele><time>2026-04-05T07:16:10.01Z</time></trkpt><trkpt lat="45.60408480304145" lon="9.0952393186393"><ele>206.0</ele><time>2026-04-05T07:16:13.01Z</time></trkpt><trkpt lat="45.6041730171743" lon="9.09520847313317"><ele>206.0</ele><time>2026-04-05T07:16:16.01Z</time></trkpt><trkpt lat="45.60425591769585" lon="9.095170388799815"><ele>206.00000000000003</ele><time>2026-04-05T07:16:19.009Z</time></trkpt><trkpt lat="45.60433131433933" lon="9.095122533251667"><ele>206.0</ele><time>2026-04-05T07:16:21.009Z</time></trkpt><trkpt lat="45.604454927161754" lon="9.095092665531311"><ele>205.66666666666669</ele><time>2026-04-05T07:16:25.009Z</time></trkpt><trkpt lat="45.60452883221419" lon="9.095074696092396"><ele>205.33333333333334</ele><time>2026-04-05T07:16:27.009Z</time></trkpt><trkpt lat="45.60461535672801" lon="9.095053371773497"><ele>205.0</ele><time>2026-04-05T07:16:29.009Z</time></trkpt><trkpt lat="45.604683005516385" lon="9.095014085811242"><ele>204.66666666666669</ele><time>2026-04-05T07:16:31.009Z</time></trkpt><trkpt lat="45.604790450373635" lon="9.094973698461985"><ele>204.33333333333334</ele><time>2026-04-05T07:16:34.009Z</time></trkpt><trkpt lat="45.60485466562571" lon="9.094931821181609"><ele>204.0</ele><time>2026-04-05T07:16:36.009Z</time></trkpt><trkpt lat="45.60494403340655" lon="9.094906621581263"><ele>204.0</ele><time>2026-04-05T07:16:38.009Z</time></trkpt><trkpt lat="45.605026847788864" lon="9.094880308117927"><ele>204.0</ele><time>2026-04-05T07:16:40.009Z</time></trkpt><trkpt lat="45.605094314337784" lon="9.09485936350537"><ele>204.0</ele><time>2026-04-05T07:16:42.009Z</time></trkpt><trkpt lat="45.605171063973465" lon="9.094812034244203"><ele>204.0</ele><time>2026-04-05T07:16:45.009Z</time></trkpt><trkpt lat="45.6052368117341" lon="9.094780245363681"><ele>204.0</ele><time>2026-04-05T07:16:47.009Z</time></trkpt><trkpt lat="45.60530956129997" lon="9.094735693231739"><ele>204.0</ele><time>2026-04-05T07:16:49.009Z</time></trkpt><trkpt lat="45.60536917403493" lon="9.094675925633842"><ele>204.33333333333334</ele><time>2026-04-05T07:16:51.009Z</time></trkpt><trkpt lat="45.6054510153311" lon="9.094658584585686"><ele>204.66666666666669</ele><time>2026-04-05T07:16:53.009Z</time></trkpt><trkpt lat="45.605531160985635" lon="9.094662992995575"><ele>205.0</ele><time>2026-04-05T07:16:55.009Z</time></trkpt><trkpt lat="45.605602497853766" lon="9.094669213585302"><ele>205.33333333333334</ele><time>2026-04-05T07:16:57.009Z</time></trkpt><trkpt lat="45.60567336701677" lon="9.094678109221004"><ele>205.66666666666669</ele><time>2026-04-05T07:16:59.009Z</time></trkpt><trkpt lat="45.60575447148283" lon="9.094712496144139"><ele>206.0</ele><time>2026-04-05T07:17:02.009Z</time></trkpt><trkpt lat="45.60582403847084" lon="9.09473409981816"><ele>206.00000000000003</ele><time>2026-04-05T07:17:05.009Z</time></trkpt><trkpt lat="45.60589540860544" lon="9.094788006141306"><ele>206.0</ele><time>2026-04-05T07:17:08.009Z</time></trkpt><trkpt lat="45.60596790514285" lon="9.094857782854268"><ele>206.0</ele><time>2026-04-05T07:17:11.009Z</time></trkpt><trkpt lat="45.60603980558709" lon="9.094919239796402"><ele>206.0</ele><time>2026-04-05T07:17:14.009Z</time></trkpt><trkpt lat="45.60612158357789" lon="9.094986051416903"><ele>206.00000000000003</ele><time>2026-04-05T07:17:17.009Z</time></trkpt><trkpt lat="45.60620064914304" lon="9.095042024165842"><ele>206.0</ele><time>2026-04-05T07:17:20.009Z</time></trkpt><trkpt lat="45.60628277857256" lon="9.095108871122822"><ele>206.14285714285714</ele><time>2026-04-05T07:17:23.009Z</time></trkpt><trkpt lat="45.60633833661179" lon="9.095153582500442"><ele>206.28571428571428</ele><time>2026-04-05T07:17:25.009Z</time></trkpt><trkpt lat="45.60641700591758" lon="9.095216873904757"><ele>206.42857142857144</ele><time>2026-04-05T07:17:28.009Z</time></trkpt><trkpt lat="45.606473766969806" lon="9.095259350174107"><ele>206.57142857142856</ele><time>2026-04-05T07:17:30.009Z</time></trkpt><trkpt lat="45.60652833990454" lon="9.09530851390921"><ele>206.71428571428572</ele><time>2026-04-05T07:17:32.009Z</time></trkpt><trkpt lat="45.60658482151372" lon="9.095353532819464"><ele>206.85714285714286</ele><time>2026-04-05T07:17:34.009Z</time></trkpt><trkpt lat="45.60664156339011" lon="9.095396145417867"><ele>207.0</ele><time>2026-04-05T07:17:36.009Z</time></trkpt><trkpt lat="45.60671839431902" lon="9.095475971795635"><ele>207.00000000000003</ele><time>2026-04-05T07:17:39.009Z</time></trkpt><trkpt lat="45.60680055482241" lon="9.095532308867568"><ele>207.0</ele><time>2026-04-05T07:17:42.009Z</time></trkpt><trkpt lat="45.60685925896786" lon="9.095583182188205"><ele>207.0</ele><time>2026-04-05T07:17:44.009Z</time></trkpt><trkpt lat="45.60691549688436" lon="9.095630059703229"><ele>207.0</ele><time>2026-04-05T07:17:46.009Z</time></trkpt><trkpt lat="45.60697039659026" lon="9.09568421614099"><ele>207.0</ele><time>2026-04-05T07:17:48.009Z</time></trkpt><trkpt lat="45.60701765621829" lon="9.095744748011523"><ele>207.00000000000003</ele><time>2026-04-05T07:17:50.01Z</time></trkpt><trkpt lat="45.60707158869757" lon="9.095845962228585"><ele>207.0</ele><time>2026-04-05T07:17:53.01Z</time></trkpt><trkpt lat="45.60711074835523" lon="9.095918656554398"><ele>206.85714285714286</ele><time>2026-04-05T07:17:55.01Z</time></trkpt><trkpt lat="45.60715722060817" lon="9.095982563060932"><ele>206.71428571428572</ele><time>2026-04-05T07:17:57.01Z</time></trkpt><trkpt lat="45.607215380512315" lon="9.096030316713728"><ele>206.57142857142856</ele><time>2026-04-05T07:17:59.01Z</time></trkpt><trkpt lat="45.60727904441367" lon="9.096064478265808"><ele>206.42857142857144</ele><time>2026-04-05T07:18:01.01Z</time></trkpt><trkpt lat="45.607344744878354" lon="9.096110832323546"><ele>206.28571428571428</ele><time>2026-04-05T07:18:03.01Z</time></trkpt><trkpt lat="45.60741087533937" lon="9.096159007691936"><ele>206.14285714285714</ele><time>2026-04-05T07:18:05.01Z</time></trkpt><trkpt lat="45.607480447895206" lon="9.096207097199336"><ele>206.0</ele><time>2026-04-05T07:18:07.01Z</time></trkpt><trkpt lat="45.60754214079743" lon="9.096251066656063"><ele>206.00000000000003</ele><time>2026-04-05T07:18:09.01Z</time></trkpt><trkpt lat="45.60759637443992" lon="9.096303371063385"><ele>206.0</ele><time>2026-04-05T07:18:11.01Z</time></trkpt><trkpt lat="45.607676464671016" lon="9.096368005895384"><ele>206.0</ele><time>2026-04-05T07:18:14.01Z</time></trkpt><trkpt lat="45.60775746735798" lon="9.09643021303053"><ele>206.0</ele><time>2026-04-05T07:18:17.01Z</time></trkpt><trkpt lat="45.607832358894655" lon="9.096485586387582"><ele>206.00000000000003</ele><time>2026-04-05T07:18:20.01Z</time></trkpt><trkpt lat="45.60788908111956" lon="9.096539925291234"><ele>206.0</ele><time>2026-04-05T07:18:22.01Z</time></trkpt><trkpt lat="45.60794519264628" lon="9.096585763696657"><ele>206.28571428571428</ele><time>2026-04-05T07:18:24.01Z</time></trkpt><trkpt lat="45.6080238668968" lon="9.096657891103883"><ele>206.57142857142856</ele><time>2026-04-05T07:18:27.01Z</time></trkpt><trkpt lat="45.60807953928995" lon="9.096702261676405"><ele>206.85714285714283</ele><time>2026-04-05T07:18:29.01Z</time></trkpt><trkpt lat="45.60813879527823" lon="9.0967534510585"><ele>207.14285714285714</ele><time>2026-04-05T07:18:31.01Z</time></trkpt><trkpt lat="45.60819431196911" lon="9.096811852960649"><ele>207.42857142857144</ele><time>2026-04-05T07:18:33.01Z</time></trkpt><trkpt lat="45.60825557373149" lon="9.096858998792582"><ele>207.7142857142857</ele><time>2026-04-05T07:18:35.01Z</time></trkpt><trkpt lat="45.60831466682566" lon="9.096903609981831"><ele>208.0</ele><time>2026-04-05T07:18:37.009Z</time></trkpt><trkpt lat="45.608371480639285" lon="9.096960035009081"><ele>207.99999999999997</ele><time>2026-04-05T07:18:39.009Z</time></trkpt><trkpt lat="45.608431150822284" lon="9.097014908602986"><ele>208.0</ele><time>2026-04-05T07:18:41.009Z</time></trkpt><trkpt lat="45.60851066653772" lon="9.097079169490467"><ele>208.0</ele><time>2026-04-05T07:18:44.009Z</time></trkpt><trkpt lat="45.60859118854028" lon="9.097132783904867"><ele>208.0</ele><time>2026-04-05T07:18:47.009Z</time></trkpt><trkpt lat="45.60864653340098" lon="9.097183439019839"><ele>207.99999999999997</ele><time>2026-04-05T07:18:49.009Z</time></trkpt><trkpt lat="45.608723032511236" lon="9.097246342197549"><ele>208.0</ele><time>2026-04-05T07:18:52.009Z</time></trkpt><trkpt lat="45.608803065590656" lon="9.097318784723702"><ele>207.8</ele><time>2026-04-05T07:18:54.009Z</time></trkpt><trkpt lat="45.60887547951622" lon="9.097400929150318"><ele>207.60000000000002</ele><time>2026-04-05T07:18:56.009Z</time></trkpt><trkpt lat="45.608959825565265" lon="9.097472587348525"><ele>207.39999999999998</ele><time>2026-04-05T07:18:58.009Z</time></trkpt><trkpt lat="45.60904448490504" lon="9.097554089832308"><ele>207.2</ele><time>2026-04-05T07:19:00.009Z</time></trkpt><trkpt lat="45.60912933682553" lon="9.097636232766789"><ele>207.0</ele><time>2026-04-05T07:19:02.009Z</time></trkpt><trkpt lat="45.60921592239662" lon="9.097712146455748"><ele>207.0</ele><time>2026-04-05T07:19:04.009Z</time></trkpt><trkpt lat="45.609313189603306" lon="9.097791247716131"><ele>207.0</ele><time>2026-04-05T07:19:06.009Z</time></trkpt><trkpt lat="45.60941428259235" lon="9.09787070337319"><ele>207.0</ele><time>2026-04-05T07:19:08.009Z</time></trkpt><trkpt lat="45.609504419011024" lon="9.097950033171722"><ele>207.0</ele><time>2026-04-05T07:19:10.009Z</time></trkpt><trkpt lat="45.6095954421365" lon="9.098022961287855"><ele>207.0</ele><time>2026-04-05T07:19:12.009Z</time></trkpt><trkpt lat="45.60967959875264" lon="9.098095488064683"><ele>207.0</ele><time>2026-04-05T07:19:14.009Z</time></trkpt><trkpt lat="45.609762045950774" lon="9.09817238652737"><ele>207.0</ele><time>2026-04-05T07:19:16.009Z</time></trkpt><trkpt lat="45.60983594227329" lon="9.098252923939839"><ele>207.0</ele><time>2026-04-05T07:19:18.009Z</time></trkpt><trkpt lat="45.60991641973114" lon="9.09832125572552"><ele>207.0</ele><time>2026-04-05T07:19:20.009Z</time></trkpt><trkpt lat="45.61000027695345" lon="9.098394817140566"><ele>207.0</ele><time>2026-04-05T07:19:22.009Z</time></trkpt><trkpt lat="45.6100768412767" lon="9.098462126258942"><ele>207.16666666666666</ele><time>2026-04-05T07:19:24.009Z</time></trkpt><trkpt lat="45.61015921167804" lon="9.098531087248924"><ele>207.33333333333331</ele><time>2026-04-05T07:19:26.009Z</time></trkpt><trkpt lat="45.61023921058819" lon="9.098606529581014"><ele>207.5</ele><time>2026-04-05T07:19:28.009Z</time></trkpt><trkpt lat="45.61031688628491" lon="9.098658207972782"><ele>207.66666666666666</ele><time>2026-04-05T07:19:30.009Z</time></trkpt><trkpt lat="45.61039927285606" lon="9.098674333030912"><ele>207.83333333333331</ele><time>2026-04-05T07:19:32.009Z</time></trkpt><trkpt lat="45.6104708986662" lon="9.098650548616005"><ele>208.0</ele><time>2026-04-05T07:19:34.009Z</time></trkpt><trkpt lat="45.6105282685798" lon="9.098587367649642"><ele>208.66666666666666</ele><time>2026-04-05T07:19:36.009Z</time></trkpt><trkpt lat="45.61060730552703" lon="9.098510525876579"><ele>209.33333333333331</ele><time>2026-04-05T07:19:39.009Z</time></trkpt><trkpt lat="45.61067902528423" lon="9.09848719971415"><ele>210.0</ele><time>2026-04-05T07:19:41.009Z</time></trkpt><trkpt lat="45.61075364985881" lon="9.09850872215603"><ele>210.66666666666669</ele><time>2026-04-05T07:19:43.009Z</time></trkpt><trkpt lat="45.61082014624239" lon="9.098516116602637"><ele>211.33333333333334</ele><time>2026-04-05T07:19:45.009Z</time></trkpt><trkpt lat="45.610900975590106" lon="9.098511508693033"><ele>212.0</ele><time>2026-04-05T07:19:47.009Z</time></trkpt><trkpt lat="45.610967719579264" lon="9.09852669177704"><ele>212.00000000000003</ele><time>2026-04-05T07:19:49.009Z</time></trkpt><trkpt lat="45.61106373434982" lon="9.098553230920478"><ele>212.0</ele><time>2026-04-05T07:19:52.009Z</time></trkpt><trkpt lat="45.61112442449493" lon="9.09858148890553"><ele>212.0</ele><time>2026-04-05T07:19:54.01Z</time></trkpt><trkpt lat="45.611190272283395" lon="9.098608156641175"><ele>212.0</ele><time>2026-04-05T07:19:57.01Z</time></trkpt><trkpt lat="45.611281713336545" lon="9.098646286510926"><ele>212.00000000000003</ele><time>2026-04-05T07:20:00.01Z</time></trkpt><trkpt lat="45.611343663872276" lon="9.098691294360211"><ele>212.0</ele><time>2026-04-05T07:20:03.011Z</time></trkpt><trkpt lat="45.61141163603124" lon="9.098722414211597"><ele>211.50000000000003</ele><time>2026-04-05T07:20:06.01Z</time></trkpt><trkpt lat="45.61150198712706" lon="9.098703623864758"><ele>211.0</ele><time>2026-04-05T07:20:09.01Z</time></trkpt><trkpt lat="45.611561516506946" lon="9.098668578711713"><ele>210.5</ele><time>2026-04-05T07:20:11.01Z</time></trkpt><trkpt lat="45.611616321344904" lon="9.098586012696154"><ele>210.0</ele><time>2026-04-05T07:20:16.01Z</time></trkpt><trkpt lat="45.61166616695037" lon="9.098516494163514"><ele>209.50000000000003</ele><time>2026-04-05T07:20:21.01Z</time></trkpt><trkpt lat="45.61171835448589" lon="9.098441902582463"><ele>209.0</ele><time>2026-04-05T07:20:24.01Z</time></trkpt><trkpt lat="45.61176910771297" lon="9.09834661372197"><ele>209.00000000000003</ele><time>2026-04-05T07:20:28.01Z</time></trkpt><trkpt lat="45.61182354566113" lon="9.09827714628075"><ele>209.0</ele><time>2026-04-05T07:20:31.01Z</time></trkpt><trkpt lat="45.611883746653966" lon="9.098199006579481"><ele>209.0</ele><time>2026-04-05T07:20:34.01Z</time></trkpt><trkpt lat="45.61194343095634" lon="9.09811918389828"><ele>209.0</ele><time>2026-04-05T07:20:37.01Z</time></trkpt><trkpt lat="45.61200284074634" lon="9.098086934854145"><ele>209.00000000000003</ele><time>2026-04-05T07:20:39.01Z</time></trkpt><trkpt lat="45.61207227197689" lon="9.098063731335655"><ele>209.0</ele><time>2026-04-05T07:20:42.01Z</time></trkpt><trkpt lat="45.612145041785325" lon="9.098019237850538"><ele>209.28571428571428</ele><time>2026-04-05T07:20:44.01Z</time></trkpt><trkpt lat="45.61220231861282" lon="9.097971230544138"><ele>209.57142857142856</ele><time>2026-04-05T07:20:46.01Z</time></trkpt><trkpt lat="45.612269854478406" lon="9.097935235044732"><ele>209.85714285714286</ele><time>2026-04-05T07:20:49.01Z</time></trkpt><trkpt lat="45.61235532072699" lon="9.09792512010489"><ele>210.14285714285714</ele><time>2026-04-05T07:20:54.009Z</time></trkpt><trkpt lat="45.61243083021856" lon="9.09789625130926"><ele>210.42857142857144</ele><time>2026-04-05T07:20:59.009Z</time></trkpt><trkpt lat="45.6124931077242" lon="9.097858732296297"><ele>210.71428571428572</ele><time>2026-04-05T07:21:02.009Z</time></trkpt><trkpt lat="45.61255423628685" lon="9.097827005727792"><ele>211.0</ele><time>2026-04-05T07:21:06.009Z</time></trkpt><trkpt lat="45.612645764843364" lon="9.097758045301074"><ele>210.99999999999997</ele><time>2026-04-05T07:21:09.009Z</time></trkpt><trkpt lat="45.61273280059234" lon="9.097712250785559"><ele>211.0</ele><time>2026-04-05T07:21:12.009Z</time></trkpt><trkpt lat="45.61280081481444" lon="9.097651451154016"><ele>211.0</ele><time>2026-04-05T07:21:14.009Z</time></trkpt><trkpt lat="45.61288043525412" lon="9.097590515965077"><ele>211.0</ele><time>2026-04-05T07:21:16.009Z</time></trkpt><trkpt lat="45.612958620181345" lon="9.097537550615426"><ele>210.99999999999997</ele><time>2026-04-05T07:21:18.009Z</time></trkpt><trkpt lat="45.61304268033029" lon="9.097500614398463"><ele>211.0</ele><time>2026-04-05T07:21:20.009Z</time></trkpt><trkpt lat="45.61312321864019" lon="9.097456759502476"><ele>210.66666666666666</ele><time>2026-04-05T07:21:22.009Z</time></trkpt><trkpt lat="45.61321133763335" lon="9.097412621101169"><ele>210.33333333333331</ele><time>2026-04-05T07:21:24.009Z</time></trkpt><trkpt lat="45.613287262761425" lon="9.097359996354665"><ele>210.0</ele><time>2026-04-05T07:21:26.009Z</time></trkpt><trkpt lat="45.61335076556581" lon="9.09731209647301"><ele>209.66666666666669</ele><time>2026-04-05T07:21:28.009Z</time></trkpt><trkpt lat="45.613429425938804" lon="9.097270952755629"><ele>209.33333333333334</ele><time>2026-04-05T07:21:30.009Z</time></trkpt><trkpt lat="45.61350478675053" lon="9.09721660119971"><ele>209.0</ele><time>2026-04-05T07:21:33.009Z</time></trkpt><trkpt lat="45.61357498312668" lon="9.097154116262123"><ele>209.33333333333334</ele><time>2026-04-05T07:21:36.009Z</time></trkpt><trkpt lat="45.61366268004698" lon="9.09710795302789"><ele>209.66666666666669</ele><time>2026-04-05T07:21:39.009Z</time></trkpt><trkpt lat="45.6137304503476" lon="9.097065349123582"><ele>210.0</ele><time>2026-04-05T07:21:41.009Z</time></trkpt><trkpt lat="45.61378631799189" lon="9.097012128500829"><ele>210.33333333333331</ele><time>2026-04-05T07:21:43.009Z</time></trkpt><trkpt lat="45.61385141455383" lon="9.096956595522135"><ele>210.66666666666666</ele><time>2026-04-05T07:21:45.009Z</time></trkpt><trkpt lat="45.61392413058328" lon="9.096883127231083"><ele>211.0</ele><time>2026-04-05T07:21:47.009Z</time></trkpt><trkpt lat="45.6139845004534" lon="9.096817207914992"><ele>210.99999999999997</ele><time>2026-04-05T07:21:49.009Z</time></trkpt><trkpt lat="45.61406109633931" lon="9.096797379808521"><ele>211.0</ele><time>2026-04-05T07:21:51.009Z</time></trkpt><trkpt lat="45.61414041949065" lon="9.096759280458084"><ele>211.0</ele><time>2026-04-05T07:21:54.009Z</time></trkpt><trkpt lat="45.6142134570501" lon="9.096693793790514"><ele>211.0</ele><time>2026-04-05T07:21:57.009Z</time></trkpt><trkpt lat="45.614273512390405" lon="9.096653638032144"><ele>210.99999999999997</ele><time>2026-04-05T07:21:59.01Z</time></trkpt><trkpt lat="45.614332421291685" lon="9.096602377755875"><ele>211.0</ele><time>2026-04-05T07:22:02.01Z</time></trkpt><trkpt lat="45.61439569959417" lon="9.096550447027614"><ele>210.99999999999997</ele><time>2026-04-05T07:22:04.011Z</time></trkpt><trkpt lat="45.61447807873094" lon="9.096503602341203"><ele>211.0</ele><time>2026-04-05T07:22:06.011Z</time></trkpt><trkpt lat="45.6145416642299" lon="9.096449956622086"><ele>211.0</ele><time>2026-04-05T07:22:08.01Z</time></trkpt><trkpt lat="45.614611633467106" lon="9.096409171555154"><ele>211.0</ele><time>2026-04-05T07:22:10.011Z</time></trkpt><trkpt lat="45.61468763233907" lon="9.096372224537813"><ele>210.99999999999997</ele><time>2026-04-05T07:22:13.011Z</time></trkpt><trkpt lat="45.614758708809966" lon="9.096326113779295"><ele>211.0</ele><time>2026-04-05T07:22:15.011Z</time></trkpt><trkpt lat="45.61482319949475" lon="9.09628784678575"><ele>211.49999999999997</ele><time>2026-04-05T07:22:17.011Z</time></trkpt><trkpt lat="45.614883416662195" lon="9.096245464542587"><ele>212.0</ele><time>2026-04-05T07:22:19.011Z</time></trkpt><trkpt lat="45.61494644597942" lon="9.096193946275184"><ele>212.5</ele><time>2026-04-05T07:22:21.011Z</time></trkpt><trkpt lat="45.6150196101311" lon="9.096140605466044"><ele>213.0</ele><time>2026-04-05T07:22:23.011Z</time></trkpt><trkpt lat="45.615084923610546" lon="9.096094611104208"><ele>213.49999999999997</ele><time>2026-04-05T07:22:25.011Z</time></trkpt><trkpt lat="45.61515682561333" lon="9.0960335852582"><ele>214.0</ele><time>2026-04-05T07:22:28.011Z</time></trkpt><trkpt lat="45.61523844727644" lon="9.095980260978747"><ele>214.00000000000003</ele><time>2026-04-05T07:22:31.01Z</time></trkpt><trkpt lat="45.61531016536938" lon="9.095953716835124"><ele>214.0</ele><time>2026-04-05T07:22:35.01Z</time></trkpt><trkpt lat="45.61535154231017" lon="9.096039558182824"><ele>214.0</ele><time>2026-04-05T07:22:39.01Z</time></trkpt><trkpt lat="45.6153848156885" lon="9.09613089839716"><ele>214.0</ele><time>2026-04-05T07:22:42.01Z</time></trkpt><trkpt lat="45.615408240891576" lon="9.096228876633047"><ele>214.0</ele><time>2026-04-05T07:22:45.01Z</time></trkpt><trkpt lat="45.615443369349244" lon="9.096310615396302"><ele>214.00000000000003</ele><time>2026-04-05T07:22:48.01Z</time></trkpt><trkpt lat="45.615485844781084" lon="9.09642470213918"><ele>214.0</ele><time>2026-04-05T07:22:52.01Z</time></trkpt><trkpt lat="45.61550115396188" lon="9.096545253082885"><ele>214.33333333333331</ele><time>2026-04-05T07:22:55.01Z</time></trkpt><trkpt lat="45.615515911956436" lon="9.096647458313736"><ele>214.66666666666666</ele><time>2026-04-05T07:22:59.01Z</time></trkpt><trkpt lat="45.615529390314805" lon="9.096740799545532"><ele>215.0</ele><time>2026-04-05T07:23:02.01Z</time></trkpt><trkpt lat="45.615550967517784" lon="9.096845041916398"><ele>215.33333333333331</ele><time>2026-04-05T07:23:05.01Z</time></trkpt><trkpt lat="45.61556525934395" lon="9.096941718418364"><ele>215.66666666666666</ele><time>2026-04-05T07:23:08.01Z</time></trkpt><trkpt lat="45.61558154277639" lon="9.097055669434168"><ele>216.0</ele><time>2026-04-05T07:23:11.01Z</time></trkpt><trkpt lat="45.615600316706725" lon="9.097175435336968"><ele>216.0</ele><time>2026-04-05T07:23:14.01Z</time></trkpt><trkpt lat="45.61561454420222" lon="9.097288420093863"><ele>216.0</ele><time>2026-04-05T07:23:17.01Z</time></trkpt><trkpt lat="45.61562505843606" lon="9.097404774972505"><ele>216.0</ele><time>2026-04-05T07:23:21.01Z</time></trkpt><trkpt lat="45.61563308786644" lon="9.097503614103585"><ele>216.0</ele><time>2026-04-05T07:23:30.01Z</time></trkpt><trkpt lat="45.61561286807826" lon="9.097590265006595"><ele>216.0</ele><time>2026-04-05T07:23:46.01Z</time></trkpt><trkpt lat="45.615643620657174" lon="9.097674094043985"><ele>216.0</ele><time>2026-04-05T07:23:56.01Z</time></trkpt><trkpt lat="45.61557803447499" lon="9.097723308536555"><ele>216.0</ele><time>2026-04-05T07:24:23.011Z</time></trkpt><trkpt lat="45.61550680254858" lon="9.097709045189157"><ele>215.71428571428572</ele><time>2026-04-05T07:24:26.011Z</time></trkpt><trkpt lat="45.615436886003295" lon="9.097755226072604"><ele>215.42857142857142</ele><time>2026-04-05T07:24:30.011Z</time></trkpt><trkpt lat="45.6153675229319" lon="9.09775336865352"><ele>215.14285714285717</ele><time>2026-04-05T07:24:33.011Z</time></trkpt><trkpt lat="45.61530709064155" lon="9.097822444337764"><ele>214.85714285714286</ele><time>2026-04-05T07:24:38.011Z</time></trkpt><trkpt lat="45.61524007605077" lon="9.09785459630096"><ele>214.57142857142858</ele><time>2026-04-05T07:24:42.011Z</time></trkpt><trkpt lat="45.615278871568705" lon="9.09777158856501"><ele>214.2857142857143</ele><time>2026-04-05T07:24:56.01Z</time></trkpt><trkpt lat="45.61534438585814" lon="9.097736105750844"><ele>214.0</ele><time>2026-04-05T07:25:01.01Z</time></trkpt><trkpt lat="45.61540832282804" lon="9.097730776093616"><ele>213.99999999999997</ele><time>2026-04-05T07:25:05.01Z</time></trkpt><trkpt lat="45.61548328821846" lon="9.097716418879696"><ele>214.0</ele><time>2026-04-05T07:25:10.01Z</time></trkpt><trkpt lat="45.61556048113702" lon="9.09771475741674"><ele>214.0</ele><time>2026-04-05T07:25:14.01Z</time></trkpt><trkpt lat="45.61558850956424" lon="9.097614789654846"><ele>214.0</ele><time>2026-04-05T07:25:39.01Z</time></trkpt><trkpt lat="45.61560094937487" lon="9.097496488981037"><ele>213.99999999999997</ele><time>2026-04-05T07:26:49.011Z</time></trkpt><trkpt lat="45.61561510465712" lon="9.097585091161957"><ele>214.0</ele><time>2026-04-05T07:27:01.011Z</time></trkpt><trkpt lat="45.61552849324406" lon="9.097731641065751"><ele>214.00000000000003</ele><time>2026-04-05T07:28:14.01Z</time></trkpt><trkpt lat="45.61556742822964" lon="9.09765742134632"><ele>214.0</ele><time>2026-04-05T07:29:40.011Z</time></trkpt><trkpt lat="45.61562926047261" lon="9.097636295547602"><ele>214.0</ele><time>2026-04-05T07:29:55.01Z</time></trkpt><trkpt lat="45.61559783286229" lon="9.09755206491543"><ele>214.0</ele><time>2026-04-05T07:33:38.012Z</time></trkpt><trkpt lat="45.61559006067805" lon="9.097462631697017"><ele>214.0</ele><time>2026-04-05T07:33:42.012Z</time></trkpt><trkpt lat="45.615574167104754" lon="9.097348021531488"><ele>214.00000000000003</ele><time>2026-04-05T07:33:46.012Z</time></trkpt><trkpt lat="45.61556707905914" lon="9.097245747695094"><ele>214.0</ele><time>2026-04-05T07:33:49.012Z</time></trkpt><trkpt lat="45.61554452814128" lon="9.09715045786902"><ele>214.33333333333331</ele><time>2026-04-05T07:33:52.012Z</time></trkpt><trkpt lat="45.61553560141231" lon="9.097058050731182"><ele>214.66666666666666</ele><time>2026-04-05T07:33:55.012Z</time></trkpt><trkpt lat="45.615510560856315" lon="9.096958785815927"><ele>215.0</ele><time>2026-04-05T07:33:59.011Z</time></trkpt><trkpt lat="45.6154815442873" lon="9.09685346039611"><ele>215.33333333333331</ele><time>2026-04-05T07:34:02.011Z</time></trkpt><trkpt lat="45.61547777311411" lon="9.096739920047526"><ele>215.66666666666666</ele><time>2026-04-05T07:34:04.011Z</time></trkpt><trkpt lat="45.61547303894413" lon="9.096631834973788"><ele>216.0</ele><time>2026-04-05T07:34:06.011Z</time></trkpt><trkpt lat="45.61546518472772" lon="9.096514520420918"><ele>216.0</ele><time>2026-04-05T07:34:08.011Z</time></trkpt><trkpt lat="45.61544535524069" lon="9.096394061121325"><ele>216.0</ele><time>2026-04-05T07:34:10.011Z</time></trkpt><trkpt lat="45.61543064122189" lon="9.096268326595956"><ele>216.0</ele><time>2026-04-05T07:34:12.011Z</time></trkpt><trkpt lat="45.615418599517255" lon="9.096139320019608"><ele>216.0</ele><time>2026-04-05T07:34:14.011Z</time></trkpt><trkpt lat="45.61541060088306" lon="9.095995786854866"><ele>216.0</ele><time>2026-04-05T07:34:16.011Z</time></trkpt><trkpt lat="45.61540403324823" lon="9.09588443414298"><ele>216.0</ele><time>2026-04-05T07:34:18.011Z</time></trkpt><trkpt lat="45.615392285642535" lon="9.09577847254854"><ele>215.0</ele><time>2026-04-05T07:34:20.011Z</time></trkpt><trkpt lat="45.61538265859045" lon="9.095671850482871"><ele>214.0</ele><time>2026-04-05T07:34:22.011Z</time></trkpt><trkpt lat="45.61544762829833" lon="9.09559298949025"><ele>213.0</ele><time>2026-04-05T07:34:25.011Z</time></trkpt><trkpt lat="45.61552793280248" lon="9.095549598084498"><ele>212.0</ele><time>2026-04-05T07:34:27.011Z</time></trkpt><trkpt lat="45.61560686723355" lon="9.095512965263742"><ele>211.0</ele><time>2026-04-05T07:34:29.011Z</time></trkpt><trkpt lat="45.615693454080734" lon="9.09548941173074"><ele>210.0</ele><time>2026-04-05T07:34:31.011Z</time></trkpt><trkpt lat="45.61576706591955" lon="9.095450606863212"><ele>210.0</ele><time>2026-04-05T07:34:33.011Z</time></trkpt><trkpt lat="45.61582785150212" lon="9.095396681229497"><ele>210.0</ele><time>2026-04-05T07:34:35.013Z</time></trkpt><trkpt lat="45.61587224373219" lon="9.095319181477743"><ele>210.0</ele><time>2026-04-05T07:34:37.013Z</time></trkpt><trkpt lat="45.61589232223132" lon="9.095225330495092"><ele>210.0</ele><time>2026-04-05T07:34:39.012Z</time></trkpt><trkpt lat="45.61591334815842" lon="9.095121907341937"><ele>210.0</ele><time>2026-04-05T07:34:41.013Z</time></trkpt><trkpt lat="45.61594931079234" lon="9.09501220249004"><ele>210.0</ele><time>2026-04-05T07:34:43.013Z</time></trkpt><trkpt lat="45.61597574609132" lon="9.094921087920245"><ele>210.0</ele><time>2026-04-05T07:34:45.013Z</time></trkpt><trkpt lat="45.61602569475935" lon="9.094832461981579"><ele>209.83333333333334</ele><time>2026-04-05T07:34:47.013Z</time></trkpt><trkpt lat="45.61607312020539" lon="9.09476063803603"><ele>209.66666666666669</ele><time>2026-04-05T07:34:49.013Z</time></trkpt><trkpt lat="45.616118330711146" lon="9.094691740993978"><ele>209.5</ele><time>2026-04-05T07:34:51.013Z</time></trkpt><trkpt lat="45.61615804102297" lon="9.094576174582661"><ele>209.33333333333334</ele><time>2026-04-05T07:34:54.013Z</time></trkpt><trkpt lat="45.616205239292896" lon="9.094504048823817"><ele>209.16666666666669</ele><time>2026-04-05T07:34:57.013Z</time></trkpt><trkpt lat="45.616248974548064" lon="9.094373477526693"><ele>209.0</ele><time>2026-04-05T07:35:00.013Z</time></trkpt><trkpt lat="45.61632174987631" lon="9.094279498490174"><ele>209.50000000000003</ele><time>2026-04-05T07:35:02.013Z</time></trkpt><trkpt lat="45.61638579659618" lon="9.094186327904325"><ele>210.0</ele><time>2026-04-05T07:35:05.013Z</time></trkpt><trkpt lat="45.616442334246806" lon="9.094114005981337"><ele>210.5</ele><time>2026-04-05T07:35:07.013Z</time></trkpt><trkpt lat="45.61650152256348" lon="9.094053413452173"><ele>211.0</ele><time>2026-04-05T07:35:09.013Z</time></trkpt><trkpt lat="45.616548193135614" lon="9.093959653380141"><ele>211.50000000000003</ele><time>2026-04-05T07:35:11.013Z</time></trkpt><trkpt lat="45.61664299899133" lon="9.093880222100351"><ele>212.0</ele><time>2026-04-05T07:35:13.013Z</time></trkpt><trkpt lat="45.61669669304406" lon="9.093828133085106"><ele>212.39999999999998</ele><time>2026-04-05T07:35:14.013Z</time></trkpt><trkpt lat="45.61678218622812" lon="9.093751966818868"><ele>212.79999999999998</ele><time>2026-04-05T07:35:16.013Z</time></trkpt><trkpt lat="45.61688301782705" lon="9.093660379005916"><ele>213.2</ele><time>2026-04-05T07:35:18.013Z</time></trkpt><trkpt lat="45.616982351414535" lon="9.093588263387215"><ele>213.6</ele><time>2026-04-05T07:35:20.013Z</time></trkpt><trkpt lat="45.61704070978347" lon="9.093540861305799"><ele>214.0</ele><time>2026-04-05T07:35:21.013Z</time></trkpt><trkpt lat="45.61710024969935" lon="9.093508604304919"><ele>213.99999999999997</ele><time>2026-04-05T07:35:22.013Z</time></trkpt><trkpt lat="45.61719744928568" lon="9.093451665561277"><ele>214.0</ele><time>2026-04-05T07:35:24.013Z</time></trkpt><trkpt lat="45.617276176240715" lon="9.093399072469058"><ele>214.0</ele><time>2026-04-05T07:35:26.013Z</time></trkpt><trkpt lat="45.617355586522436" lon="9.093339688593606"><ele>214.0</ele><time>2026-04-05T07:35:28.013Z</time></trkpt><trkpt lat="45.61743525667953" lon="9.093308305919406"><ele>213.99999999999997</ele><time>2026-04-05T07:35:30.013Z</time></trkpt><trkpt lat="45.61751032260376" lon="9.093254949894105"><ele>214.0</ele><time>2026-04-05T07:35:32.013Z</time></trkpt><trkpt lat="45.61759379848155" lon="9.093206701454536"><ele>213.99999999999997</ele><time>2026-04-05T07:35:34.013Z</time></trkpt><trkpt lat="45.61768137310524" lon="9.09315052787072"><ele>214.0</ele><time>2026-04-05T07:35:36.013Z</time></trkpt><trkpt lat="45.617762489043955" lon="9.093103336533238"><ele>214.0</ele><time>2026-04-05T07:35:38.012Z</time></trkpt><trkpt lat="45.61784750675913" lon="9.093053647189855"><ele>214.0</ele><time>2026-04-05T07:35:40.012Z</time></trkpt><trkpt lat="45.61792652415796" lon="9.093002114421067"><ele>213.99999999999997</ele><time>2026-04-05T07:35:42.012Z</time></trkpt><trkpt lat="45.61800292694316" lon="9.09296276043252"><ele>214.0</ele><time>2026-04-05T07:35:44.012Z</time></trkpt><trkpt lat="45.61807324038443" lon="9.09292054425605"><ele>213.99999999999997</ele><time>2026-04-05T07:35:46.012Z</time></trkpt><trkpt lat="45.61814281267612" lon="9.092897897421262"><ele>214.0</ele><time>2026-04-05T07:35:48.012Z</time></trkpt><trkpt lat="45.61822934326542" lon="9.09287357746113"><ele>214.0</ele><time>2026-04-05T07:35:50.012Z</time></trkpt><trkpt lat="45.61830427745343" lon="9.092839442156654"><ele>214.0</ele><time>2026-04-05T07:35:52.012Z</time></trkpt><trkpt lat="45.61838774809258" lon="9.092823082958738"><ele>213.99999999999997</ele><time>2026-04-05T07:35:54.012Z</time></trkpt><trkpt lat="45.618491461669194" lon="9.092805712915663"><ele>214.0</ele><time>2026-04-05T07:35:56.012Z</time></trkpt><trkpt lat="45.61872465717466" lon="9.092789266300455"><ele>214.49999999999997</ele><time>2026-04-05T07:36:01.012Z</time></trkpt><trkpt lat="45.61879532292954" lon="9.092777032976597"><ele>215.0</ele><time>2026-04-05T07:36:03.012Z</time></trkpt><trkpt lat="45.61886414648551" lon="9.092731140739499"><ele>215.5</ele><time>2026-04-05T07:36:05.012Z</time></trkpt><trkpt lat="45.618938544458125" lon="9.092680511721756"><ele>216.0</ele><time>2026-04-05T07:36:07.012Z</time></trkpt><trkpt lat="45.6190145469612" lon="9.092626596019214"><ele>216.49999999999997</ele><time>2026-04-05T07:36:09.012Z</time></trkpt><trkpt lat="45.619084055823556" lon="9.092604816801789"><ele>217.0</ele><time>2026-04-05T07:36:12.012Z</time></trkpt><trkpt lat="45.6191521290327" lon="9.092550820518158"><ele>217.0</ele><time>2026-04-05T07:36:15.012Z</time></trkpt><trkpt lat="45.61915239386372" lon="9.092438741032366"><ele>217.0</ele><time>2026-04-05T07:36:19.012Z</time></trkpt><trkpt lat="45.619124806096046" lon="9.092348695342734"><ele>217.0</ele><time>2026-04-05T07:36:21.012Z</time></trkpt><trkpt lat="45.619091334425114" lon="9.092272137595774"><ele>217.0</ele><time>2026-04-05T07:36:23.012Z</time></trkpt><trkpt lat="45.61905094611418" lon="9.092194797837712"><ele>217.0</ele><time>2026-04-05T07:36:25.012Z</time></trkpt><trkpt lat="45.61901435524369" lon="9.092114120340947"><ele>217.0</ele><time>2026-04-05T07:36:27.012Z</time></trkpt><trkpt lat="45.61896792378123" lon="9.09203889553457"><ele>217.0</ele><time>2026-04-05T07:36:29.012Z</time></trkpt><trkpt lat="45.61893287956086" lon="9.09195994871888"><ele>216.16666666666666</ele><time>2026-04-05T07:36:31.012Z</time></trkpt><trkpt lat="45.618901665245794" lon="9.091867506859174"><ele>215.33333333333331</ele><time>2026-04-05T07:36:33.012Z</time></trkpt><trkpt lat="45.61886437450069" lon="9.091784081180947"><ele>214.5</ele><time>2026-04-05T07:36:35.012Z</time></trkpt><trkpt lat="45.618813188273364" lon="9.091665747775185"><ele>213.66666666666669</ele><time>2026-04-05T07:36:38.012Z</time></trkpt><trkpt lat="45.618786230333185" lon="9.091576674380935"><ele>212.83333333333334</ele><time>2026-04-05T07:36:40.012Z</time></trkpt><trkpt lat="45.61873253078119" lon="9.091472395500906"><ele>212.0</ele><time>2026-04-05T07:36:43.013Z</time></trkpt><trkpt lat="45.61869767456416" lon="9.091387185701821"><ele>212.00000000000003</ele><time>2026-04-05T07:36:45.013Z</time></trkpt><trkpt lat="45.61866554874391" lon="9.091303478305415"><ele>212.0</ele><time>2026-04-05T07:36:47.013Z</time></trkpt><trkpt lat="45.618632948531676" lon="9.091185895122043"><ele>212.0</ele><time>2026-04-05T07:36:50.013Z</time></trkpt><trkpt lat="45.61859195373834" lon="9.091098087937958"><ele>212.0</ele><time>2026-04-05T07:36:53.013Z</time></trkpt><trkpt lat="45.61855518105982" lon="9.090988602639133"><ele>212.00000000000003</ele><time>2026-04-05T07:36:56.013Z</time></trkpt><trkpt lat="45.61850665973724" lon="9.090874471930384"><ele>212.0</ele><time>2026-04-05T07:36:59.013Z</time></trkpt><trkpt lat="45.6184873998495" lon="9.090781061522339"><ele>212.00000000000003</ele><time>2026-04-05T07:37:01.013Z</time></trkpt><trkpt lat="45.61844471528601" lon="9.09067268890926"><ele>212.0</ele><time>2026-04-05T07:37:04.013Z</time></trkpt><trkpt lat="45.61841602147357" lon="9.09055489728023"><ele>212.0</ele><time>2026-04-05T07:37:07.013Z</time></trkpt><trkpt lat="45.61839444024565" lon="9.090469642098572"><ele>212.0</ele><time>2026-04-05T07:37:09.013Z</time></trkpt><trkpt lat="45.61837577713207" lon="9.090356269417441"><ele>212.00000000000003</ele><time>2026-04-05T07:37:12.013Z</time></trkpt><trkpt lat="45.61833290382232" lon="9.090190524083468"><ele>212.0</ele><time>2026-04-05T07:37:16.013Z</time></trkpt><trkpt lat="45.6183112172938" lon="9.090105512853286"><ele>212.00000000000003</ele><time>2026-04-05T07:37:18.013Z</time></trkpt><trkpt lat="45.61828657660339" lon="9.090002113128199"><ele>212.0</ele><time>2026-04-05T07:37:20.013Z</time></trkpt><trkpt lat="45.61826731624888" lon="9.08988737729304"><ele>212.0</ele><time>2026-04-05T07:37:22.01Z</time></trkpt><trkpt lat="45.6182538819235" lon="9.089779964264835"><ele>212.0</ele><time>2026-04-05T07:37:24.008Z</time></trkpt><trkpt lat="45.618246183114" lon="9.08966904716533"><ele>212.00000000000003</ele><time>2026-04-05T07:37:26.005Z</time></trkpt><trkpt lat="45.61824084944043" lon="9.089562896508589"><ele>212.0</ele><time>2026-04-05T07:37:28.003Z</time></trkpt><trkpt lat="45.61822153640944" lon="9.089459495046716"><ele>212.33333333333334</ele><time>2026-04-05T07:37:30.001Z</time></trkpt><trkpt lat="45.61821635993009" lon="9.089338684758875"><ele>212.66666666666669</ele><time>2026-04-05T07:37:32Z</time></trkpt><trkpt lat="45.61821248967013" lon="9.089222680397686"><ele>213.0</ele><time>2026-04-05T07:37:33.999Z</time></trkpt><trkpt lat="45.61822134498372" lon="9.089113497024696"><ele>213.33333333333331</ele><time>2026-04-05T07:37:35.997Z</time></trkpt><trkpt lat="45.618224153947125" lon="9.08900118054268"><ele>213.66666666666666</ele><time>2026-04-05T07:37:37.996Z</time></trkpt><trkpt lat="45.6182293201699" lon="9.088901122880333"><ele>214.0</ele><time>2026-04-05T07:37:39.995Z</time></trkpt><trkpt lat="45.618237131344195" lon="9.08880891599558"><ele>214.00000000000003</ele><time>2026-04-05T07:37:41.994Z</time></trkpt><trkpt lat="45.61824936158737" lon="9.088696915598268"><ele>214.0</ele><time>2026-04-05T07:37:44.993Z</time></trkpt><trkpt lat="45.61823060617583" lon="9.088593711718552"><ele>214.0</ele><time>2026-04-05T07:37:49.992Z</time></trkpt><trkpt lat="45.61818202726787" lon="9.088653471473966"><ele>214.0</ele><time>2026-04-05T07:38:11.989Z</time></trkpt><trkpt lat="45.61817651620452" lon="9.088750081933629"><ele>214.0</ele><time>2026-04-05T07:38:13.989Z</time></trkpt><trkpt lat="45.61817504293864" lon="9.088857005412976"><ele>214.00000000000003</ele><time>2026-04-05T07:38:15.989Z</time></trkpt><trkpt lat="45.61817938847376" lon="9.08895784579654"><ele>214.0</ele><time>2026-04-05T07:38:17.989Z</time></trkpt><trkpt lat="45.61817870412444" lon="9.089068736420094"><ele>213.99999999999997</ele><time>2026-04-05T07:38:19.988Z</time></trkpt><trkpt lat="45.61817368179244" lon="9.089183034679676"><ele>214.0</ele><time>2026-04-05T07:38:21.988Z</time></trkpt><trkpt lat="45.61818150048855" lon="9.089291770095043"><ele>214.0</ele><time>2026-04-05T07:38:23.988Z</time></trkpt><trkpt lat="45.61819577410831" lon="9.089403125827639"><ele>214.0</ele><time>2026-04-05T07:38:25.988Z</time></trkpt><trkpt lat="45.61818902760949" lon="9.089524456616198"><ele>213.99999999999997</ele><time>2026-04-05T07:38:27.988Z</time></trkpt><trkpt lat="45.61819276270363" lon="9.089642640928597"><ele>214.0</ele><time>2026-04-05T07:38:29.988Z</time></trkpt><trkpt lat="45.61819976562278" lon="9.089754028195195"><ele>213.99999999999997</ele><time>2026-04-05T07:38:31.988Z</time></trkpt><trkpt lat="45.61822618453647" lon="9.089851285156172"><ele>214.0</ele><time>2026-04-05T07:38:33.988Z</time></trkpt><trkpt lat="45.618237350919095" lon="9.089951368837548"><ele>214.0</ele><time>2026-04-05T07:38:35.988Z</time></trkpt><trkpt lat="45.61825064303835" lon="9.090050737453629"><ele>214.0</ele><time>2026-04-05T07:38:37.988Z</time></trkpt><trkpt lat="45.61826152922214" lon="9.090156881511728"><ele>213.99999999999997</ele><time>2026-04-05T07:38:39.988Z</time></trkpt><trkpt lat="45.61823066958786" lon="9.090256469750143"><ele>214.0</ele><time>2026-04-05T07:38:41.988Z</time></trkpt><trkpt lat="45.61815254840148" lon="9.090311052686415"><ele>213.83333333333331</ele><time>2026-04-05T07:38:43.988Z</time></trkpt><trkpt lat="45.618072572779816" lon="9.090346375794208"><ele>213.66666666666666</ele><time>2026-04-05T07:38:45.988Z</time></trkpt><trkpt lat="45.61799130178115" lon="9.09037557021663"><ele>213.5</ele><time>2026-04-05T07:38:47.989Z</time></trkpt><trkpt lat="45.61791272210376" lon="9.090392956534057"><ele>213.33333333333331</ele><time>2026-04-05T07:38:49.988Z</time></trkpt><trkpt lat="45.617832431910465" lon="9.090413114595675"><ele>213.16666666666666</ele><time>2026-04-05T07:38:51.989Z</time></trkpt><trkpt lat="45.61776500791611" lon="9.090428920023918"><ele>213.0</ele><time>2026-04-05T07:38:53.989Z</time></trkpt><trkpt lat="45.61768384674043" lon="9.090429042816364"><ele>213.0</ele><time>2026-04-05T07:40:08.987Z</time></trkpt><trkpt lat="45.61776001178018" lon="9.090483043782095"><ele>213.0</ele><time>2026-04-05T07:40:15.987Z</time></trkpt><trkpt lat="45.61783692221428" lon="9.090462894736016"><ele>213.0</ele><time>2026-04-05T07:40:17.987Z</time></trkpt><trkpt lat="45.61791571581908" lon="9.09044362321311"><ele>213.0</ele><time>2026-04-05T07:40:19.987Z</time></trkpt><trkpt lat="45.617994183660784" lon="9.09042686849605"><ele>213.0</ele><time>2026-04-05T07:40:21.987Z</time></trkpt><trkpt lat="45.61806602344177" lon="9.090393774489772"><ele>213.0</ele><time>2026-04-05T07:40:23.987Z</time></trkpt><trkpt lat="45.61814907546563" lon="9.090383492301633"><ele>212.83333333333334</ele><time>2026-04-05T07:40:25.987Z</time></trkpt><trkpt lat="45.61821475076088" lon="9.090377806402318"><ele>212.66666666666669</ele><time>2026-04-05T07:40:27.987Z</time></trkpt><trkpt lat="45.618283708488015" lon="9.090324620006177"><ele>212.5</ele><time>2026-04-05T07:40:33.987Z</time></trkpt><trkpt lat="45.61831464381637" lon="9.090214405310546"><ele>212.33333333333334</ele><time>2026-04-05T07:40:35.987Z</time></trkpt><trkpt lat="45.61829968725787" lon="9.090081017086115"><ele>212.16666666666669</ele><time>2026-04-05T07:40:37.987Z</time></trkpt><trkpt lat="45.618272659287946" lon="9.089959372591636"><ele>212.0</ele><time>2026-04-05T07:40:39.987Z</time></trkpt><trkpt lat="45.6182552392547" lon="9.08983881608624"><ele>212.33333333333334</ele><time>2026-04-05T07:40:41.987Z</time></trkpt><trkpt lat="45.618242192409326" lon="9.089715317001902"><ele>212.66666666666669</ele><time>2026-04-05T07:40:43.987Z</time></trkpt><trkpt lat="45.61822963218273" lon="9.089598822275605"><ele>213.0</ele><time>2026-04-05T07:40:45.987Z</time></trkpt><trkpt lat="45.618215620485884" lon="9.08948006325584"><ele>213.33333333333331</ele><time>2026-04-05T07:40:47.987Z</time></trkpt><trkpt lat="45.618209093904234" lon="9.089362545092488"><ele>213.66666666666666</ele><time>2026-04-05T07:40:49.987Z</time></trkpt><trkpt lat="45.618201300383404" lon="9.089245733952362"><ele>214.0</ele><time>2026-04-05T07:40:51.987Z</time></trkpt><trkpt lat="45.61819729257975" lon="9.089126811418744"><ele>213.99999999999997</ele><time>2026-04-05T07:40:53.988Z</time></trkpt><trkpt lat="45.61819143591502" lon="9.088998777976485"><ele>214.0</ele><time>2026-04-05T07:40:55.988Z</time></trkpt><trkpt lat="45.61819157240833" lon="9.088874361245809"><ele>214.0</ele><time>2026-04-05T07:40:57.988Z</time></trkpt><trkpt lat="45.61819549949058" lon="9.088752821971106"><ele>214.0</ele><time>2026-04-05T07:40:59.988Z</time></trkpt><trkpt lat="45.61818631782163" lon="9.088648551720446"><ele>213.99999999999997</ele><time>2026-04-05T07:41:01.988Z</time></trkpt><trkpt lat="45.61824904575519" lon="9.088612833998015"><ele>214.0</ele><time>2026-04-05T07:41:05.988Z</time></trkpt><trkpt lat="45.618251735744806" lon="9.088738702544353"><ele>213.99999999999997</ele><time>2026-04-05T07:41:08.988Z</time></trkpt><trkpt lat="45.6182426838614" lon="9.088836654195514"><ele>214.0</ele><time>2026-04-05T07:41:10.988Z</time></trkpt><trkpt lat="45.618237037174595" lon="9.088952488733396"><ele>214.0</ele><time>2026-04-05T07:41:12.988Z</time></trkpt><trkpt lat="45.61824961348535" lon="9.089089837388535"><ele>214.0</ele><time>2026-04-05T07:41:14.988Z</time></trkpt><trkpt lat="45.61826329157638" lon="9.089229166921541"><ele>213.99999999999997</ele><time>2026-04-05T07:41:16.988Z</time></trkpt><trkpt lat="45.618284078213634" lon="9.089347763720843"><ele>214.0</ele><time>2026-04-05T07:41:18.988Z</time></trkpt><trkpt lat="45.618289584828" lon="9.089447635573798"><ele>213.99999999999997</ele><time>2026-04-05T07:41:20.988Z</time></trkpt><trkpt lat="45.61829771109878" lon="9.089557007173028"><ele>214.0</ele><time>2026-04-05T07:41:22.988Z</time></trkpt><trkpt lat="45.61830974000395" lon="9.089671324148938"><ele>214.0</ele><time>2026-04-05T07:41:24.987Z</time></trkpt><trkpt lat="45.61832359826855" lon="9.08979342093167"><ele>214.0</ele><time>2026-04-05T07:41:26.987Z</time></trkpt><trkpt lat="45.61834326508987" lon="9.089889297364532"><ele>213.99999999999997</ele><time>2026-04-05T07:41:28.987Z</time></trkpt><trkpt lat="45.61835928988783" lon="9.09001266900612"><ele>214.0</ele><time>2026-04-05T07:41:30.987Z</time></trkpt><trkpt lat="45.61838988343014" lon="9.09012711855902"><ele>213.6</ele><time>2026-04-05T07:41:32.987Z</time></trkpt><trkpt lat="45.618416455151255" lon="9.090252625869653"><ele>213.2</ele><time>2026-04-05T07:41:34.987Z</time></trkpt><trkpt lat="45.61844392475596" lon="9.09038349443784"><ele>212.79999999999998</ele><time>2026-04-05T07:41:36.987Z</time></trkpt><trkpt lat="45.6184682675469" lon="9.090501709527839"><ele>212.39999999999998</ele><time>2026-04-05T07:41:38.987Z</time></trkpt><trkpt lat="45.61850698343691" lon="9.090631106281798"><ele>212.0</ele><time>2026-04-05T07:41:40.987Z</time></trkpt><trkpt lat="45.61854595795505" lon="9.090762185629552"><ele>212.0</ele><time>2026-04-05T07:41:42.987Z</time></trkpt><trkpt lat="45.618587730125135" lon="9.090883050236245"><ele>212.0</ele><time>2026-04-05T07:41:44.987Z</time></trkpt><trkpt lat="45.61863577512061" lon="9.090989154199619"><ele>212.0</ele><time>2026-04-05T07:41:46.987Z</time></trkpt><trkpt lat="45.61866570677168" lon="9.091071364545863"><ele>212.0</ele><time>2026-04-05T07:41:47.987Z</time></trkpt><trkpt lat="45.618706102104525" lon="9.09120243856103"><ele>212.0</ele><time>2026-04-05T07:41:49.987Z</time></trkpt><trkpt lat="45.618757287018724" lon="9.091330298318459"><ele>212.00000000000003</ele><time>2026-04-05T07:41:51.987Z</time></trkpt><trkpt lat="45.61880394115304" lon="9.091457387174902"><ele>212.0</ele><time>2026-04-05T07:41:53.987Z</time></trkpt><trkpt lat="45.61883353799248" lon="9.091537382074192"><ele>212.0</ele><time>2026-04-05T07:41:54.987Z</time></trkpt><trkpt lat="45.61887855260248" lon="9.091663983172957"><ele>212.0</ele><time>2026-04-05T07:41:56.987Z</time></trkpt><trkpt lat="45.61892412981687" lon="9.091773152964768"><ele>212.00000000000003</ele><time>2026-04-05T07:41:58.987Z</time></trkpt><trkpt lat="45.61896571296215" lon="9.091874556675991"><ele>212.0</ele><time>2026-04-05T07:42:00.987Z</time></trkpt><trkpt lat="45.61899579974379" lon="9.091966745590963"><ele>212.0</ele><time>2026-04-05T07:42:02.987Z</time></trkpt><trkpt lat="45.61903447713581" lon="9.092056191285225"><ele>212.0</ele><time>2026-04-05T07:42:04.987Z</time></trkpt><trkpt lat="45.61908915670014" lon="9.092167354640248"><ele>212.0</ele><time>2026-04-05T07:42:06.987Z</time></trkpt><trkpt lat="45.61913422907712" lon="9.092321381492217"><ele>212.0</ele><time>2026-04-05T07:42:08.987Z</time></trkpt><trkpt lat="45.61913006539436" lon="9.092440260342801"><ele>212.0</ele><time>2026-04-05T07:42:10.987Z</time></trkpt><trkpt lat="45.61908135487418" lon="9.09253457312585"><ele>212.33333333333334</ele><time>2026-04-05T07:42:13.987Z</time></trkpt><trkpt lat="45.61904132561948" lon="9.092607553930863"><ele>212.66666666666669</ele><time>2026-04-05T07:42:15.987Z</time></trkpt><trkpt lat="45.61895135631705" lon="9.092710044065079"><ele>213.0</ele><time>2026-04-05T07:42:17.986Z</time></trkpt><trkpt lat="45.61887488249816" lon="9.092759398218224"><ele>213.33333333333331</ele><time>2026-04-05T07:42:19.986Z</time></trkpt><trkpt lat="45.61881003264702" lon="9.092772356155834"><ele>213.66666666666666</ele><time>2026-04-05T07:42:21.986Z</time></trkpt><trkpt lat="45.61870645905766" lon="9.092784557766835"><ele>214.0</ele><time>2026-04-05T07:42:23.986Z</time></trkpt><trkpt lat="45.61864322208579" lon="9.09278565206974"><ele>214.0</ele><time>2026-04-05T07:42:24.986Z</time></trkpt><trkpt lat="45.61853426755105" lon="9.092793837585159"><ele>213.99999999999997</ele><time>2026-04-05T07:42:26.986Z</time></trkpt><trkpt lat="45.61842800811074" lon="9.092819885556098"><ele>213.99999999999997</ele><time>2026-04-05T07:42:28.986Z</time></trkpt><trkpt lat="45.6183536667638" lon="9.092855062895259"><ele>214.0</ele><time>2026-04-05T07:42:30.986Z</time></trkpt><trkpt lat="45.618277786492605" lon="9.092908161654277"><ele>214.0</ele><time>2026-04-05T07:42:32.986Z</time></trkpt><trkpt lat="45.61820564252847" lon="9.092943203265484"><ele>214.0</ele><time>2026-04-05T07:42:34.986Z</time></trkpt><trkpt lat="45.61813594645191" lon="9.0930157542051"><ele>213.99999999999997</ele><time>2026-04-05T07:42:36.986Z</time></trkpt><trkpt lat="45.61804737150454" lon="9.093063258885854"><ele>213.99999999999997</ele><time>2026-04-05T07:42:38.986Z</time></trkpt><trkpt lat="45.6179558395904" lon="9.093116669544852"><ele>214.0</ele><time>2026-04-05T07:42:40.986Z</time></trkpt><trkpt lat="45.61786184757183" lon="9.093173080554745"><ele>214.0</ele><time>2026-04-05T07:42:42.986Z</time></trkpt><trkpt lat="45.617776920897434" lon="9.093224214842804"><ele>214.6</ele><time>2026-04-05T07:42:44.986Z</time></trkpt><trkpt lat="45.617700008479375" lon="9.093273739983008"><ele>215.2</ele><time>2026-04-05T07:42:46.986Z</time></trkpt><trkpt lat="45.61760956442644" lon="9.093333344174935"><ele>215.79999999999998</ele><time>2026-04-05T07:42:48.986Z</time></trkpt><trkpt lat="45.61752200281433" lon="9.093380831780767"><ele>216.39999999999998</ele><time>2026-04-05T07:42:50.986Z</time></trkpt><trkpt lat="45.61742079538444" lon="9.093434490657522"><ele>217.0</ele><time>2026-04-05T07:42:52.986Z</time></trkpt><trkpt lat="45.61731921191487" lon="9.093504783133397"><ele>217.0</ele><time>2026-04-05T07:42:54.986Z</time></trkpt><trkpt lat="45.61722503166353" lon="9.093567637088146"><ele>217.0</ele><time>2026-04-05T07:42:56.986Z</time></trkpt><trkpt lat="45.6171238817211" lon="9.093645065601532"><ele>217.0</ele><time>2026-04-05T07:42:58.987Z</time></trkpt><trkpt lat="45.61702512955316" lon="9.093735678221494"><ele>217.0</ele><time>2026-04-05T07:43:00.987Z</time></trkpt><trkpt lat="45.616923352368055" lon="9.093819488033425"><ele>216.49999999999997</ele><time>2026-04-05T07:43:02.986Z</time></trkpt><trkpt lat="45.61686142379555" lon="9.09388175460513"><ele>216.0</ele><time>2026-04-05T07:43:04.987Z</time></trkpt><trkpt lat="45.616775432193634" lon="9.093960095830266"><ele>215.5</ele><time>2026-04-05T07:43:06.986Z</time></trkpt><trkpt lat="45.61669919000437" lon="9.094063319062064"><ele>215.0</ele><time>2026-04-05T07:43:08.987Z</time></trkpt><trkpt lat="45.616637746845605" lon="9.094167140075301"><ele>214.49999999999997</ele><time>2026-04-05T07:43:10.987Z</time></trkpt><trkpt lat="45.61659301247686" lon="9.094230491725112"><ele>214.0</ele><time>2026-04-05T07:43:11.987Z</time></trkpt><trkpt lat="45.616513870251445" lon="9.094342279002623"><ele>213.66666666666666</ele><time>2026-04-05T07:43:13.987Z</time></trkpt><trkpt lat="45.61643482209949" lon="9.094417630034982"><ele>213.33333333333331</ele><time>2026-04-05T07:43:15.987Z</time></trkpt><trkpt lat="45.61635912852887" lon="9.094474012095162"><ele>213.0</ele><time>2026-04-05T07:43:17.987Z</time></trkpt><trkpt lat="45.616330346722684" lon="9.094557393581258"><ele>212.66666666666669</ele><time>2026-04-05T07:43:18.987Z</time></trkpt><trkpt lat="45.61626567469041" lon="9.09469544036023"><ele>212.33333333333334</ele><time>2026-04-05T07:43:20.987Z</time></trkpt><trkpt lat="45.616205798186456" lon="9.094749659779595"><ele>212.0</ele><time>2026-04-05T07:43:21.987Z</time></trkpt><trkpt lat="45.616141387595555" lon="9.094889832251067"><ele>211.6</ele><time>2026-04-05T07:43:23.987Z</time></trkpt><trkpt lat="45.61609506816018" lon="9.095040658373382"><ele>211.2</ele><time>2026-04-05T07:43:25.986Z</time></trkpt><trkpt lat="45.61605304325393" lon="9.09517466001271"><ele>210.8</ele><time>2026-04-05T07:43:27.986Z</time></trkpt><trkpt lat="45.615993334741674" lon="9.095292703361647"><ele>210.4</ele><time>2026-04-05T07:43:29.986Z</time></trkpt><trkpt lat="45.615915002098404" lon="9.095357800460476"><ele>210.0</ele><time>2026-04-05T07:43:31.986Z</time></trkpt><trkpt lat="45.61584207588031" lon="9.095388237647928"><ele>210.0</ele><time>2026-04-05T07:43:33.986Z</time></trkpt><trkpt lat="45.61574800060932" lon="9.095414620750397"><ele>210.0</ele><time>2026-04-05T07:43:35.986Z</time></trkpt><trkpt lat="45.615673135201874" lon="9.095434712037656"><ele>210.0</ele><time>2026-04-05T07:43:37.986Z</time></trkpt><trkpt lat="45.61560640278225" lon="9.095478236445699"><ele>210.0</ele><time>2026-04-05T07:43:40.986Z</time></trkpt><trkpt lat="45.61555549915997" lon="9.09554489640557"><ele>210.0</ele><time>2026-04-05T07:43:42.986Z</time></trkpt><trkpt lat="45.615541195130014" lon="9.095632649351426"><ele>210.0</ele><time>2026-04-05T07:43:45.986Z</time></trkpt><trkpt lat="45.61553396718039" lon="9.095722124502398"><ele>210.0</ele><time>2026-04-05T07:43:47.986Z</time></trkpt><trkpt lat="45.615537215871626" lon="9.09584673402868"><ele>211.0</ele><time>2026-04-05T07:43:49.986Z</time></trkpt><trkpt lat="45.61553019132974" lon="9.095971507156248"><ele>212.0</ele><time>2026-04-05T07:43:52.986Z</time></trkpt><trkpt lat="45.61552172264422" lon="9.09609277067884"><ele>213.0</ele><time>2026-04-05T07:43:55.986Z</time></trkpt><trkpt lat="45.61552535793989" lon="9.096193904494381"><ele>214.0</ele><time>2026-04-05T07:43:58.986Z</time></trkpt><trkpt lat="45.61553726771979" lon="9.096325096477448"><ele>215.0</ele><time>2026-04-05T07:44:02.986Z</time></trkpt><trkpt lat="45.615531680311506" lon="9.096444785041665"><ele>216.0</ele><time>2026-04-05T07:44:05.986Z</time></trkpt><trkpt lat="45.615538083658336" lon="9.096563170250873"><ele>216.0</ele><time>2026-04-05T07:44:08.986Z</time></trkpt><trkpt lat="45.6155488254028" lon="9.096682791461495"><ele>216.0</ele><time>2026-04-05T07:44:11.986Z</time></trkpt><trkpt lat="45.61555480289031" lon="9.096805203541342"><ele>216.0</ele><time>2026-04-05T07:44:14.986Z</time></trkpt><trkpt lat="45.61555857593371" lon="9.096912115526797"><ele>216.0</ele><time>2026-04-05T07:44:17.986Z</time></trkpt><trkpt lat="45.615571129049094" lon="9.097011581951014"><ele>216.0</ele><time>2026-04-05T07:44:19.985Z</time></trkpt><trkpt lat="45.615585589809285" lon="9.097138972869104"><ele>216.0</ele><time>2026-04-05T07:44:22.985Z</time></trkpt><trkpt lat="45.61560108469182" lon="9.097267238565061"><ele>216.0</ele><time>2026-04-05T07:44:25.985Z</time></trkpt><trkpt lat="45.61561324504109" lon="9.097363043130308"><ele>216.0</ele><time>2026-04-05T07:44:28.985Z</time></trkpt><trkpt lat="45.61562092477665" lon="9.097456865520087"><ele>216.0</ele><time>2026-04-05T07:44:36.985Z</time></trkpt><trkpt lat="45.615574166635064" lon="9.097392180704736"><ele>216.0</ele><time>2026-04-05T07:46:46.984Z</time></trkpt><trkpt lat="45.61555868909554" lon="9.097295416248773"><ele>216.0</ele><time>2026-04-05T07:46:49.984Z</time></trkpt><trkpt lat="45.61555090752347" lon="9.097200754808703"><ele>216.0</ele><time>2026-04-05T07:46:51.984Z</time></trkpt><trkpt lat="45.61553771187735" lon="9.097105987699404"><ele>216.0</ele><time>2026-04-05T07:46:54.984Z</time></trkpt><trkpt lat="45.615525425892535" lon="9.096999756655592"><ele>216.0</ele><time>2026-04-05T07:46:57.984Z</time></trkpt><trkpt lat="45.61551037498721" lon="9.096898889522818"><ele>216.0</ele><time>2026-04-05T07:47:00.984Z</time></trkpt><trkpt lat="45.61550368161302" lon="9.096779336317159"><ele>216.0</ele><time>2026-04-05T07:47:03.984Z</time></trkpt><trkpt lat="45.61549754615346" lon="9.096650114734306"><ele>216.0</ele><time>2026-04-05T07:47:06.984Z</time></trkpt><trkpt lat="45.61547256621026" lon="9.096536746478533"><ele>216.0</ele><time>2026-04-05T07:47:08.984Z</time></trkpt><trkpt lat="45.615451008538855" lon="9.096407327048142"><ele>216.0</ele><time>2026-04-05T07:47:10.985Z</time></trkpt><trkpt lat="45.61542405745957" lon="9.09630410429443"><ele>216.0</ele><time>2026-04-05T07:47:12.986Z</time></trkpt><trkpt lat="45.61539666203057" lon="9.096221086599416"><ele>216.0</ele><time>2026-04-05T07:47:14.985Z</time></trkpt><trkpt lat="45.615330558829115" lon="9.096235747451908"><ele>216.0</ele><time>2026-04-05T07:47:17.985Z</time></trkpt><trkpt lat="45.615255088962385" lon="9.096307319362614"><ele>216.0</ele><time>2026-04-05T07:47:21.985Z</time></trkpt><trkpt lat="45.61517724956341" lon="9.09636623873704"><ele>216.0</ele><time>2026-04-05T07:47:24.985Z</time></trkpt><trkpt lat="45.61510882179656" lon="9.096403636129546"><ele>216.0</ele><time>2026-04-05T07:47:26.985Z</time></trkpt><trkpt lat="45.6150448394998" lon="9.096437685546945"><ele>215.66666666666666</ele><time>2026-04-05T07:47:28.985Z</time></trkpt><trkpt lat="45.61497421785842" lon="9.096464398181576"><ele>215.33333333333331</ele><time>2026-04-05T07:47:30.985Z</time></trkpt><trkpt lat="45.6148991346121" lon="9.096488868643533"><ele>215.0</ele><time>2026-04-05T07:47:32.985Z</time></trkpt><trkpt lat="45.614818271008446" lon="9.096542286272008"><ele>214.66666666666666</ele><time>2026-04-05T07:47:34.985Z</time></trkpt><trkpt lat="45.614747153860996" lon="9.096594218423956"><ele>214.33333333333331</ele><time>2026-04-05T07:47:36.985Z</time></trkpt><trkpt lat="45.61466831309194" lon="9.096638699025226"><ele>214.0</ele><time>2026-04-05T07:47:39.985Z</time></trkpt><trkpt lat="45.61460666310252" lon="9.096694415452493"><ele>213.79999999999998</ele><time>2026-04-05T07:47:41.985Z</time></trkpt><trkpt lat="45.61451755206963" lon="9.096759378875538"><ele>213.59999999999997</ele><time>2026-04-05T07:47:43.985Z</time></trkpt><trkpt lat="45.614442653150775" lon="9.096803614289646"><ele>213.4</ele><time>2026-04-05T07:47:45.985Z</time></trkpt><trkpt lat="45.61434330617912" lon="9.096840710180848"><ele>213.2</ele><time>2026-04-05T07:47:47.985Z</time></trkpt><trkpt lat="45.61426050544845" lon="9.096902306770918"><ele>213.0</ele><time>2026-04-05T07:47:49.985Z</time></trkpt><trkpt lat="45.61417377136359" lon="9.096967671284204"><ele>212.66666666666666</ele><time>2026-04-05T07:47:51.985Z</time></trkpt><trkpt lat="45.61410817357558" lon="9.097029649452478"><ele>212.33333333333331</ele><time>2026-04-05T07:47:53.985Z</time></trkpt><trkpt lat="45.61404309123799" lon="9.097085686220971"><ele>212.0</ele><time>2026-04-05T07:47:55.985Z</time></trkpt><trkpt lat="45.61395090711175" lon="9.097147788482575"><ele>211.66666666666666</ele><time>2026-04-05T07:47:57.985Z</time></trkpt><trkpt lat="45.61387436360133" lon="9.097199278466324"><ele>211.33333333333331</ele><time>2026-04-05T07:47:59.985Z</time></trkpt><trkpt lat="45.61381398843536" lon="9.097232204033103"><ele>211.0</ele><time>2026-04-05T07:48:00.985Z</time></trkpt><trkpt lat="45.61375774665769" lon="9.097273763104939"><ele>211.0</ele><time>2026-04-05T07:48:01.985Z</time></trkpt><trkpt lat="45.6136692308631" lon="9.097371839948009"><ele>211.0</ele><time>2026-04-05T07:48:03.985Z</time></trkpt><trkpt lat="45.61354759595581" lon="9.097445402457895"><ele>211.0</ele><time>2026-04-05T07:48:05.985Z</time></trkpt><trkpt lat="45.61347935689098" lon="9.097474943392228"><ele>211.0</ele><time>2026-04-05T07:48:06.985Z</time></trkpt><trkpt lat="45.613414749953435" lon="9.09750906603393"><ele>211.0</ele><time>2026-04-05T07:48:07.985Z</time></trkpt><trkpt lat="45.61335189992045" lon="9.097537541180364"><ele>211.20000000000002</ele><time>2026-04-05T07:48:08.985Z</time></trkpt><trkpt lat="45.613251482014064" lon="9.097606307683293"><ele>211.4</ele><time>2026-04-05T07:48:10.984Z</time></trkpt><trkpt lat="45.613103887427684" lon="9.097662302628605"><ele>211.6</ele><time>2026-04-05T07:48:12.984Z</time></trkpt><trkpt lat="45.613018655543826" lon="9.097703063801092"><ele>211.8</ele><time>2026-04-05T07:48:14.984Z</time></trkpt><trkpt lat="45.61292870155249" lon="9.09774182018818"><ele>212.0</ele><time>2026-04-05T07:48:16.984Z</time></trkpt><trkpt lat="45.61282932117361" lon="9.097805855826682"><ele>211.8</ele><time>2026-04-05T07:48:18.984Z</time></trkpt><trkpt lat="45.61274501267498" lon="9.097837129397229"><ele>211.6</ele><time>2026-04-05T07:48:20.984Z</time></trkpt><trkpt lat="45.61265593231194" lon="9.097881346802788"><ele>211.4</ele><time>2026-04-05T07:48:23.984Z</time></trkpt><trkpt lat="45.61256015274607" lon="9.09796511832421"><ele>211.20000000000002</ele><time>2026-04-05T07:48:25.984Z</time></trkpt><trkpt lat="45.612462937457074" lon="9.09804431895584"><ele>211.0</ele><time>2026-04-05T07:48:27.984Z</time></trkpt><trkpt lat="45.6124034530441" lon="9.098103179738388"><ele>211.0</ele><time>2026-04-05T07:48:29.984Z</time></trkpt><trkpt lat="45.612340900039655" lon="9.09811661996542"><ele>211.0</ele><time>2026-04-05T07:48:31.984Z</time></trkpt><trkpt lat="45.61224462305764" lon="9.098190733805483"><ele>211.0</ele><time>2026-04-05T07:48:33.984Z</time></trkpt><trkpt lat="45.612151263010546" lon="9.098272060402403"><ele>211.0</ele><time>2026-04-05T07:48:35.984Z</time></trkpt><trkpt lat="45.6120783258685" lon="9.098349875943523"><ele>211.0</ele><time>2026-04-05T07:48:37.984Z</time></trkpt><trkpt lat="45.6119858993339" lon="9.098432992590958"><ele>210.66666666666666</ele><time>2026-04-05T07:48:39.984Z</time></trkpt><trkpt lat="45.6119398791839" lon="9.098515501665505"><ele>210.33333333333331</ele><time>2026-04-05T07:48:41.984Z</time></trkpt><trkpt lat="45.611861819197095" lon="9.098598224378362"><ele>210.0</ele><time>2026-04-05T07:48:44.984Z</time></trkpt><trkpt lat="45.61179957827097" lon="9.09865696282466"><ele>209.66666666666669</ele><time>2026-04-05T07:48:46.984Z</time></trkpt><trkpt lat="45.61174520940676" lon="9.098715105274817"><ele>209.33333333333334</ele><time>2026-04-05T07:48:50.984Z</time></trkpt><trkpt lat="45.61167060111913" lon="9.098769620438468"><ele>209.0</ele><time>2026-04-05T07:48:55.984Z</time></trkpt><trkpt lat="45.611606228974615" lon="9.098814885113066"><ele>209.00000000000003</ele><time>2026-04-05T07:48:57.984Z</time></trkpt><trkpt lat="45.611526637724786" lon="9.098810486955577"><ele>209.0</ele><time>2026-04-05T07:48:59.984Z</time></trkpt><trkpt lat="45.611457526211645" lon="9.098738658798622"><ele>209.0</ele><time>2026-04-05T07:49:02.984Z</time></trkpt><trkpt lat="45.61136237847682" lon="9.098695560069313"><ele>209.0</ele><time>2026-04-05T07:49:05.983Z</time></trkpt><trkpt lat="45.61127801883125" lon="9.098688769223154"><ele>209.00000000000003</ele><time>2026-04-05T07:49:07.983Z</time></trkpt><trkpt lat="45.61119279754977" lon="9.098660427692074"><ele>209.0</ele><time>2026-04-05T07:49:09.983Z</time></trkpt><trkpt lat="45.61109921810103" lon="9.09862452986088"><ele>209.50000000000003</ele><time>2026-04-05T07:49:11.983Z</time></trkpt><trkpt lat="45.61101501846716" lon="9.098625692519807"><ele>210.0</ele><time>2026-04-05T07:49:13.983Z</time></trkpt><trkpt lat="45.61094658455821" lon="9.09861381800083"><ele>210.5</ele><time>2026-04-05T07:49:15.984Z</time></trkpt><trkpt lat="45.61088017148987" lon="9.09859492031602"><ele>211.0</ele><time>2026-04-05T07:49:17.984Z</time></trkpt><trkpt lat="45.61080587182712" lon="9.098616286134524"><ele>211.50000000000003</ele><time>2026-04-05T07:49:19.984Z</time></trkpt><trkpt lat="45.61072870729199" lon="9.09867191447133"><ele>212.0</ele><time>2026-04-05T07:49:21.984Z</time></trkpt><trkpt lat="45.61067545008142" lon="9.098737690182542"><ele>212.00000000000003</ele><time>2026-04-05T07:49:23.984Z</time></trkpt><trkpt lat="45.61057081506579" lon="9.098751325914455"><ele>212.0</ele><time>2026-04-05T07:49:25.984Z</time></trkpt><trkpt lat="45.61044827124398" lon="9.098688304766535"><ele>212.0</ele><time>2026-04-05T07:49:27.985Z</time></trkpt><trkpt lat="45.610390204248105" lon="9.098643832154897"><ele>212.0</ele><time>2026-04-05T07:49:28.984Z</time></trkpt><trkpt lat="45.61033413004302" lon="9.098598381340974"><ele>212.00000000000003</ele><time>2026-04-05T07:49:29.984Z</time></trkpt><trkpt lat="45.61027718088275" lon="9.09854724682951"><ele>212.0</ele><time>2026-04-05T07:49:30.984Z</time></trkpt><trkpt lat="45.610174561368176" lon="9.098466553166089"><ele>211.2</ele><time>2026-04-05T07:49:32.984Z</time></trkpt><trkpt lat="45.61006825975402" lon="9.098387998254143"><ele>210.39999999999998</ele><time>2026-04-05T07:49:34.984Z</time></trkpt><trkpt lat="45.60996333850862" lon="9.098301108046199"><ele>209.60000000000002</ele><time>2026-04-05T07:49:36.984Z</time></trkpt><trkpt lat="45.60986999839008" lon="9.098231628184003"><ele>208.8</ele><time>2026-04-05T07:49:38.984Z</time></trkpt><trkpt lat="45.609780120919154" lon="9.098160113207483"><ele>208.0</ele><time>2026-04-05T07:49:40.984Z</time></trkpt><trkpt lat="45.609683746401124" lon="9.098086880427044"><ele>207.8</ele><time>2026-04-05T07:49:42.984Z</time></trkpt><trkpt lat="45.609595307668165" lon="9.09801069927377"><ele>207.60000000000002</ele><time>2026-04-05T07:49:44.984Z</time></trkpt><trkpt lat="45.6095067024293" lon="9.09793467399066"><ele>207.39999999999998</ele><time>2026-04-05T07:49:46.984Z</time></trkpt><trkpt lat="45.60941757121554" lon="9.097867523691873"><ele>207.2</ele><time>2026-04-05T07:49:48.984Z</time></trkpt><trkpt lat="45.60932929482781" lon="9.097790309407102"><ele>207.0</ele><time>2026-04-05T07:49:50.984Z</time></trkpt><trkpt lat="45.60923865175751" lon="9.097717921323595"><ele>207.0</ele><time>2026-04-05T07:49:52.984Z</time></trkpt><trkpt lat="45.609153916495806" lon="9.097649824561406"><ele>207.0</ele><time>2026-04-05T07:49:54.984Z</time></trkpt><trkpt lat="45.6090826794099" lon="9.097584091956216"><ele>207.0</ele><time>2026-04-05T07:49:56.984Z</time></trkpt><trkpt lat="45.60900867540246" lon="9.097513638088605"><ele>207.0</ele><time>2026-04-05T07:49:58.984Z</time></trkpt><trkpt lat="45.60893587252625" lon="9.097446167333842"><ele>207.0</ele><time>2026-04-05T07:50:00.984Z</time></trkpt><trkpt lat="45.60886756673992" lon="9.097382784001546"><ele>207.0</ele><time>2026-04-05T07:50:02.984Z</time></trkpt><trkpt lat="45.608798349350295" lon="9.097326519015619"><ele>207.0</ele><time>2026-04-05T07:50:04.984Z</time></trkpt><trkpt lat="45.60873001829238" lon="9.097269735455761"><ele>207.0</ele><time>2026-04-05T07:50:06.984Z</time></trkpt><trkpt lat="45.6086698504726" lon="9.097213459626497"><ele>207.0</ele><time>2026-04-05T07:50:08.984Z</time></trkpt><trkpt lat="45.60859808689797" lon="9.097157709592475"><ele>207.0</ele><time>2026-04-05T07:50:10.984Z</time></trkpt><trkpt lat="45.60853994387722" lon="9.09710805475028"><ele>207.0</ele><time>2026-04-05T07:50:12.984Z</time></trkpt><trkpt lat="45.608472590615605" lon="9.097057123747275"><ele>207.0</ele><time>2026-04-05T07:50:14.984Z</time></trkpt><trkpt lat="45.60841064709054" lon="9.09700153546407"><ele>207.16666666666666</ele><time>2026-04-05T07:50:16.983Z</time></trkpt><trkpt lat="45.60834237375494" lon="9.096946732114874"><ele>207.33333333333331</ele><time>2026-04-05T07:50:18.983Z</time></trkpt><trkpt lat="45.60827572406912" lon="9.096882972623346"><ele>207.5</ele><time>2026-04-05T07:50:20.983Z</time></trkpt><trkpt lat="45.60819206671858" lon="9.096821024098944"><ele>207.66666666666666</ele><time>2026-04-05T07:50:22.983Z</time></trkpt><trkpt lat="45.608115144205826" lon="9.096758620424165"><ele>207.83333333333331</ele><time>2026-04-05T07:50:24.983Z</time></trkpt><trkpt lat="45.608042381441024" lon="9.096692753505444"><ele>208.0</ele><time>2026-04-05T07:50:26.983Z</time></trkpt><trkpt lat="45.60795971185205" lon="9.096626707666543"><ele>207.8</ele><time>2026-04-05T07:50:28.983Z</time></trkpt><trkpt lat="45.6078839289941" lon="9.096557170041384"><ele>207.60000000000002</ele><time>2026-04-05T07:50:30.983Z</time></trkpt><trkpt lat="45.60780943234977" lon="9.09648708122686"><ele>207.39999999999998</ele><time>2026-04-05T07:50:32.983Z</time></trkpt><trkpt lat="45.60772662890448" lon="9.096413265556151"><ele>207.2</ele><time>2026-04-05T07:50:34.983Z</time></trkpt><trkpt lat="45.607653458211466" lon="9.09634027293747"><ele>207.0</ele><time>2026-04-05T07:50:36.983Z</time></trkpt><trkpt lat="45.60757308890172" lon="9.096277097205089"><ele>206.83333333333334</ele><time>2026-04-05T07:50:38.983Z</time></trkpt><trkpt lat="45.607492491286884" lon="9.09621194770277"><ele>206.66666666666669</ele><time>2026-04-05T07:50:40.983Z</time></trkpt><trkpt lat="45.607416665053954" lon="9.096164097529002"><ele>206.5</ele><time>2026-04-05T07:50:42.983Z</time></trkpt><trkpt lat="45.60732987357777" lon="9.09610955856039"><ele>206.33333333333334</ele><time>2026-04-05T07:50:44.983Z</time></trkpt><trkpt lat="45.60724768017421" lon="9.096052503497662"><ele>206.16666666666669</ele><time>2026-04-05T07:50:46.983Z</time></trkpt><trkpt lat="45.60717994752771" lon="9.095983809855673"><ele>206.0</ele><time>2026-04-05T07:50:48.983Z</time></trkpt><trkpt lat="45.60712982516816" lon="9.09589946851302"><ele>206.0</ele><time>2026-04-05T07:50:50.983Z</time></trkpt><trkpt lat="45.607071756770516" lon="9.095792899379921"><ele>206.0</ele><time>2026-04-05T07:50:52.983Z</time></trkpt><trkpt lat="45.60698885882689" lon="9.095694070510874"><ele>206.0</ele><time>2026-04-05T07:50:54.983Z</time></trkpt><trkpt lat="45.60690695495559" lon="9.095616817765064"><ele>206.0</ele><time>2026-04-05T07:50:56.983Z</time></trkpt><trkpt lat="45.60682190170574" lon="9.095548733901696"><ele>206.0</ele><time>2026-04-05T07:50:58.983Z</time></trkpt><trkpt lat="45.606733154904035" lon="9.095476959937274"><ele>206.20000000000002</ele><time>2026-04-05T07:51:00.983Z</time></trkpt><trkpt lat="45.606645407467546" lon="9.095404472495447"><ele>206.4</ele><time>2026-04-05T07:51:02.983Z</time></trkpt><trkpt lat="45.606569595540634" lon="9.095345102677502"><ele>206.6</ele><time>2026-04-05T07:51:04.983Z</time></trkpt><trkpt lat="45.606489444771604" lon="9.095272295517178"><ele>206.8</ele><time>2026-04-05T07:51:06.983Z</time></trkpt><trkpt lat="45.60640042742807" lon="9.095201670633696"><ele>207.0</ele><time>2026-04-05T07:51:08.983Z</time></trkpt><trkpt lat="45.60631306646415" lon="9.095126169119167"><ele>207.0</ele><time>2026-04-05T07:51:10.982Z</time></trkpt><trkpt lat="45.60622345259193" lon="9.095056377071431"><ele>207.0</ele><time>2026-04-05T07:51:12.982Z</time></trkpt><trkpt lat="45.606138513856" lon="9.094977751425091"><ele>207.0</ele><time>2026-04-05T07:51:14.982Z</time></trkpt><trkpt lat="45.606071365967345" lon="9.094941166361224"><ele>207.0</ele><time>2026-04-05T07:51:16.982Z</time></trkpt><trkpt lat="45.606015062444584" lon="9.094890651311188"><ele>207.0</ele><time>2026-04-05T07:51:18.982Z</time></trkpt><trkpt lat="45.605947234790065" lon="9.094827253016602"><ele>207.0</ele><time>2026-04-05T07:51:21.983Z</time></trkpt><trkpt lat="45.60589378023593" lon="9.094770217684552"><ele>206.83333333333334</ele><time>2026-04-05T07:51:23.984Z</time></trkpt><trkpt lat="45.60581176225643" lon="9.09471202414993"><ele>206.66666666666669</ele><time>2026-04-05T07:51:25.983Z</time></trkpt><trkpt lat="45.6057367644359" lon="9.094668599840796"><ele>206.5</ele><time>2026-04-05T07:51:27.984Z</time></trkpt><trkpt lat="45.60567318593855" lon="9.094669935152696"><ele>206.33333333333334</ele><time>2026-04-05T07:51:29.983Z</time></trkpt><trkpt lat="45.60561180474043" lon="9.094711744150501"><ele>206.16666666666669</ele><time>2026-04-05T07:51:31.983Z</time></trkpt><trkpt lat="45.605537257238524" lon="9.094761261426612"><ele>206.0</ele><time>2026-04-05T07:51:33.984Z</time></trkpt><trkpt lat="45.605483020172976" lon="9.094814272125342"><ele>206.00000000000003</ele><time>2026-04-05T07:51:36.983Z</time></trkpt><trkpt lat="45.60541301757008" lon="9.094903278070381"><ele>206.0</ele><time>2026-04-05T07:51:40.983Z</time></trkpt><trkpt lat="45.6053405102701" lon="9.094904299267228"><ele>206.0</ele><time>2026-04-05T07:51:42.983Z</time></trkpt><trkpt lat="45.60527187496852" lon="9.09493447367765"><ele>206.0</ele><time>2026-04-05T07:51:44.983Z</time></trkpt><trkpt lat="45.60517434334979" lon="9.094987223210387"><ele>206.00000000000003</ele><time>2026-04-05T07:51:47.983Z</time></trkpt><trkpt lat="45.605105070071154" lon="9.095035357770088"><ele>206.0</ele><time>2026-04-05T07:51:49.983Z</time></trkpt><trkpt lat="45.605033242457836" lon="9.095095643834407"><ele>205.4</ele><time>2026-04-05T07:51:51.983Z</time></trkpt><trkpt lat="45.60493457468343" lon="9.095102512681736"><ele>204.8</ele><time>2026-04-05T07:51:53.983Z</time></trkpt><trkpt lat="45.60485560881263" lon="9.095141098823998"><ele>204.20000000000002</ele><time>2026-04-05T07:51:56.983Z</time></trkpt><trkpt lat="45.60477257034839" lon="9.095184304611722"><ele>203.60000000000002</ele><time>2026-04-05T07:51:58.983Z</time></trkpt><trkpt lat="45.604660163295186" lon="9.09524101202095"><ele>203.0</ele><time>2026-04-05T07:52:01.983Z</time></trkpt><trkpt lat="45.604594178159516" lon="9.095268464907678"><ele>203.00000000000003</ele><time>2026-04-05T07:52:03.983Z</time></trkpt><trkpt lat="45.60450922523463" lon="9.09529432667824"><ele>203.0</ele><time>2026-04-05T07:52:05.983Z</time></trkpt><trkpt lat="45.604414582720885" lon="9.095332351357813"><ele>203.0</ele><time>2026-04-05T07:52:07.982Z</time></trkpt><trkpt lat="45.60433744364928" lon="9.095365077791445"><ele>203.0</ele><time>2026-04-05T07:52:09.982Z</time></trkpt><trkpt lat="45.60425555700827" lon="9.095398687670247"><ele>203.00000000000003</ele><time>2026-04-05T07:52:11.982Z</time></trkpt><trkpt lat="45.60417408126417" lon="9.095437661748628"><ele>203.0</ele><time>2026-04-05T07:52:13.982Z</time></trkpt><trkpt lat="45.6041062925164" lon="9.095499041982327"><ele>203.50000000000003</ele><time>2026-04-05T07:52:15.982Z</time></trkpt><trkpt lat="45.60404186649741" lon="9.095568645232177"><ele>204.0</ele><time>2026-04-05T07:52:17.982Z</time></trkpt><trkpt lat="45.60396469295338" lon="9.095602235942772"><ele>204.5</ele><time>2026-04-05T07:52:19.982Z</time></trkpt><trkpt lat="45.60388752019812" lon="9.09562899069739"><ele>205.0</ele><time>2026-04-05T07:52:21.982Z</time></trkpt><trkpt lat="45.60379949005284" lon="9.095670253914127"><ele>205.50000000000003</ele><time>2026-04-05T07:52:23.982Z</time></trkpt><trkpt lat="45.60370496727768" lon="9.09570915827399"><ele>206.0</ele><time>2026-04-05T07:52:25.982Z</time></trkpt><trkpt lat="45.6036186534008" lon="9.09573729977654"><ele>205.50000000000003</ele><time>2026-04-05T07:52:27.982Z</time></trkpt><trkpt lat="45.603526289264266" lon="9.095793901837657"><ele>205.0</ele><time>2026-04-05T07:52:29.982Z</time></trkpt><trkpt lat="45.603440318107836" lon="9.095848710196174"><ele>204.5</ele><time>2026-04-05T07:52:31.982Z</time></trkpt><trkpt lat="45.60338534245067" lon="9.095914953385622"><ele>204.0</ele><time>2026-04-05T07:52:33.982Z</time></trkpt><trkpt lat="45.60331309640676" lon="9.095966025854095"><ele>203.50000000000003</ele><time>2026-04-05T07:52:35.982Z</time></trkpt><trkpt lat="45.603230620617346" lon="9.09598878764094"><ele>203.0</ele><time>2026-04-05T07:52:37.982Z</time></trkpt><trkpt lat="45.603147498928955" lon="9.096038094214336"><ele>203.0</ele><time>2026-04-05T07:52:39.982Z</time></trkpt><trkpt lat="45.60305225557444" lon="9.096071712888959"><ele>203.0</ele><time>2026-04-05T07:52:41.982Z</time></trkpt><trkpt lat="45.60294358056414" lon="9.096120830896076"><ele>203.0</ele><time>2026-04-05T07:52:43.982Z</time></trkpt><trkpt lat="45.60288108290083" lon="9.09615314927487"><ele>203.0</ele><time>2026-04-05T07:52:44.982Z</time></trkpt><trkpt lat="45.602781252040316" lon="9.09619072166098"><ele>203.0</ele><time>2026-04-05T07:52:46.982Z</time></trkpt><trkpt lat="45.60270629590237" lon="9.096237175499828"><ele>202.8</ele><time>2026-04-05T07:52:48.982Z</time></trkpt><trkpt lat="45.60262955054078" lon="9.096255434097056"><ele>202.60000000000002</ele><time>2026-04-05T07:52:50.982Z</time></trkpt><trkpt lat="45.602531374698756" lon="9.096298484405015"><ele>202.39999999999998</ele><time>2026-04-05T07:52:52.982Z</time></trkpt><trkpt lat="45.60244130147893" lon="9.096319905380387"><ele>202.2</ele><time>2026-04-05T07:52:54.982Z</time></trkpt><trkpt lat="45.60236865607198" lon="9.09636241647607"><ele>202.0</ele><time>2026-04-05T07:52:56.982Z</time></trkpt><trkpt lat="45.60227191872011" lon="9.096394878723428"><ele>201.99999999999997</ele><time>2026-04-05T07:52:58.982Z</time></trkpt><trkpt lat="45.60218715721941" lon="9.096423793334663"><ele>202.0</ele><time>2026-04-05T07:53:00.981Z</time></trkpt><trkpt lat="45.602101935489976" lon="9.096447068153575"><ele>202.0</ele><time>2026-04-05T07:53:02.981Z</time></trkpt><trkpt lat="45.602037563944855" lon="9.096495838727188"><ele>202.0</ele><time>2026-04-05T07:53:04.981Z</time></trkpt><trkpt lat="45.60196025740901" lon="9.096538288235326"><ele>201.99999999999997</ele><time>2026-04-05T07:53:06.981Z</time></trkpt><trkpt lat="45.60187258061245" lon="9.09658657179473"><ele>202.0</ele><time>2026-04-05T07:53:08.981Z</time></trkpt><trkpt lat="45.6018011377582" lon="9.096621147585743"><ele>201.66666666666666</ele><time>2026-04-05T07:53:10.981Z</time></trkpt><trkpt lat="45.60171352640477" lon="9.096672837182107"><ele>201.33333333333331</ele><time>2026-04-05T07:53:12.981Z</time></trkpt><trkpt lat="45.6016177882671" lon="9.096690293280757"><ele>201.0</ele><time>2026-04-05T07:53:14.981Z</time></trkpt><trkpt lat="45.60153266813127" lon="9.096726952785511"><ele>200.66666666666669</ele><time>2026-04-05T07:53:16.981Z</time></trkpt><trkpt lat="45.601468891939476" lon="9.096767993642917"><ele>200.33333333333334</ele><time>2026-04-05T07:53:18.981Z</time></trkpt><trkpt lat="45.60139189939346" lon="9.09681171136072"><ele>200.0</ele><time>2026-04-05T07:53:20.981Z</time></trkpt><trkpt lat="45.60132052316988" lon="9.096843633137524"><ele>200.00000000000003</ele><time>2026-04-05T07:53:22.981Z</time></trkpt><trkpt lat="45.60123308202663" lon="9.096862339054557"><ele>200.0</ele><time>2026-04-05T07:53:24.981Z</time></trkpt><trkpt lat="45.601132673945806" lon="9.096886099270705"><ele>200.0</ele><time>2026-04-05T07:53:26.981Z</time></trkpt><trkpt lat="45.60106809820641" lon="9.096910620711087"><ele>200.0</ele><time>2026-04-05T07:53:28.983Z</time></trkpt><trkpt lat="45.60099261126834" lon="9.096948983624292"><ele>200.00000000000003</ele><time>2026-04-05T07:53:30.982Z</time></trkpt><trkpt lat="45.600895826450135" lon="9.096969351235193"><ele>200.0</ele><time>2026-04-05T07:53:32.982Z</time></trkpt><trkpt lat="45.60079225196361" lon="9.097013153214608"><ele>200.0</ele><time>2026-04-05T07:53:34.983Z</time></trkpt><trkpt lat="45.60069625886752" lon="9.097031742857085"><ele>200.0</ele><time>2026-04-05T07:53:36.983Z</time></trkpt><trkpt lat="45.60057959916496" lon="9.09704731918496"><ele>200.0</ele><time>2026-04-05T07:53:38.982Z</time></trkpt><trkpt lat="45.60050736614188" lon="9.097055727851428"><ele>200.0</ele><time>2026-04-05T07:53:39.983Z</time></trkpt><trkpt lat="45.60040971539404" lon="9.097081320012263"><ele>200.0</ele><time>2026-04-05T07:53:41.983Z</time></trkpt><trkpt lat="45.60032703834175" lon="9.09715414171323"><ele>199.83333333333334</ele><time>2026-04-05T07:53:43.983Z</time></trkpt><trkpt lat="45.60025552893297" lon="9.097165675833805"><ele>199.66666666666669</ele><time>2026-04-05T07:53:44.983Z</time></trkpt><trkpt lat="45.600177450859675" lon="9.09719795446889"><ele>199.5</ele><time>2026-04-05T07:53:46.983Z</time></trkpt><trkpt lat="45.60010909548673" lon="9.097227006136185"><ele>199.33333333333331</ele><time>2026-04-05T07:53:48.983Z</time></trkpt><trkpt lat="45.60004248398084" lon="9.097252301675049"><ele>199.16666666666666</ele><time>2026-04-05T07:53:49.982Z</time></trkpt><trkpt lat="45.5999774557185" lon="9.097266050359659"><ele>199.0</ele><time>2026-04-05T07:53:50.982Z</time></trkpt><trkpt lat="45.59987436822079" lon="9.097304538678191"><ele>199.0</ele><time>2026-04-05T07:53:52.982Z</time></trkpt><trkpt lat="45.59978081420566" lon="9.097322047252902"><ele>199.0</ele><time>2026-04-05T07:53:54.982Z</time></trkpt><trkpt lat="45.59967769646105" lon="9.097382157176112"><ele>199.0</ele><time>2026-04-05T07:53:56.982Z</time></trkpt><trkpt lat="45.599596422381175" lon="9.09743117712709"><ele>199.0</ele><time>2026-04-05T07:53:58.982Z</time></trkpt><trkpt lat="45.59951228370236" lon="9.097457615359927"><ele>199.0</ele><time>2026-04-05T07:54:00.982Z</time></trkpt><trkpt lat="45.59944165228055" lon="9.097460492747892"><ele>198.83333333333331</ele><time>2026-04-05T07:54:02.982Z</time></trkpt><trkpt lat="45.59937799392898" lon="9.097455594020529"><ele>198.66666666666666</ele><time>2026-04-05T07:54:03.982Z</time></trkpt><trkpt lat="45.59927567417646" lon="9.097416293281524"><ele>198.5</ele><time>2026-04-05T07:54:05.982Z</time></trkpt><trkpt lat="45.59922248102307" lon="9.097361539593795"><ele>198.33333333333331</ele><time>2026-04-05T07:54:06.982Z</time></trkpt><trkpt lat="45.59912901620081" lon="9.097307142220709"><ele>198.16666666666666</ele><time>2026-04-05T07:54:08.982Z</time></trkpt><trkpt lat="45.599020471396415" lon="9.09730920068891"><ele>198.0</ele><time>2026-04-05T07:54:10.982Z</time></trkpt><trkpt lat="45.59895093918685" lon="9.097332209476374"><ele>198.16666666666666</ele><time>2026-04-05T07:54:12.982Z</time></trkpt><trkpt lat="45.59888543086516" lon="9.097360052222111"><ele>198.33333333333331</ele><time>2026-04-05T07:54:13.982Z</time></trkpt><trkpt lat="45.598791363987566" lon="9.097391896495203"><ele>198.5</ele><time>2026-04-05T07:54:15.982Z</time></trkpt><trkpt lat="45.59870238040511" lon="9.09740207945287"><ele>198.66666666666666</ele><time>2026-04-05T07:54:17.982Z</time></trkpt><trkpt lat="45.598627021931364" lon="9.097424488187395"><ele>198.83333333333331</ele><time>2026-04-05T07:54:19.982Z</time></trkpt><trkpt lat="45.59854366090349" lon="9.097428932900655"><ele>199.0</ele><time>2026-04-05T07:54:21.982Z</time></trkpt><trkpt lat="45.59845886166961" lon="9.097421570948391"><ele>198.83333333333331</ele><time>2026-04-05T07:54:23.982Z</time></trkpt><trkpt lat="45.59838808759917" lon="9.097398526438761"><ele>198.66666666666666</ele><time>2026-04-05T07:54:25.982Z</time></trkpt><trkpt lat="45.5982976589888" lon="9.097392126060235"><ele>198.5</ele><time>2026-04-05T07:54:27.982Z</time></trkpt><trkpt lat="45.59822830368603" lon="9.097376463725807"><ele>198.33333333333331</ele><time>2026-04-05T07:54:29.982Z</time></trkpt><trkpt lat="45.598117654612096" lon="9.097386086572127"><ele>198.16666666666666</ele><time>2026-04-05T07:54:31.982Z</time></trkpt><trkpt lat="45.59802642712713" lon="9.0973953339105"><ele>198.0</ele><time>2026-04-05T07:54:33.982Z</time></trkpt><trkpt lat="45.597917658394245" lon="9.097364040738581"><ele>197.5</ele><time>2026-04-05T07:54:35.982Z</time></trkpt><trkpt lat="45.597812903636544" lon="9.09732323278224"><ele>197.0</ele><time>2026-04-05T07:54:37.982Z</time></trkpt><trkpt lat="45.5977001370152" lon="9.097263707108988"><ele>196.5</ele><time>2026-04-05T07:54:39.982Z</time></trkpt><trkpt lat="45.59758235423877" lon="9.097204873462514"><ele>196.0</ele><time>2026-04-05T07:54:41.982Z</time></trkpt><trkpt lat="45.5974768327986" lon="9.09715407250171"><ele>196.0</ele><time>2026-04-05T07:54:43.981Z</time></trkpt><trkpt lat="45.59737953731649" lon="9.09710254180838"><ele>196.0</ele><time>2026-04-05T07:54:45.981Z</time></trkpt><trkpt lat="45.597285499885054" lon="9.097059406882709"><ele>196.0</ele><time>2026-04-05T07:54:47.981Z</time></trkpt><trkpt lat="45.59720871804839" lon="9.097002632007335"><ele>196.0</ele><time>2026-04-05T07:54:49.981Z</time></trkpt><trkpt lat="45.59710791571368" lon="9.096935967973007"><ele>196.0</ele><time>2026-04-05T07:54:51.981Z</time></trkpt><trkpt lat="45.59702472603786" lon="9.096880797926422"><ele>196.60000000000002</ele><time>2026-04-05T07:54:53.981Z</time></trkpt><trkpt lat="45.59693468811017" lon="9.09681493381914"><ele>197.2</ele><time>2026-04-05T07:54:55.981Z</time></trkpt><trkpt lat="45.59685481720244" lon="9.09677199606037"><ele>197.8</ele><time>2026-04-05T07:54:57.981Z</time></trkpt><trkpt lat="45.596764868827215" lon="9.096703386985215"><ele>198.39999999999998</ele><time>2026-04-05T07:54:59.981Z</time></trkpt><trkpt lat="45.59667943104493" lon="9.096639459151072"><ele>199.0</ele><time>2026-04-05T07:55:01.981Z</time></trkpt><trkpt lat="45.5965983282412" lon="9.096584493544539"><ele>199.16666666666666</ele><time>2026-04-05T07:55:03.981Z</time></trkpt><trkpt lat="45.5965269780378" lon="9.096537128768603"><ele>199.33333333333331</ele><time>2026-04-05T07:55:05.981Z</time></trkpt><trkpt lat="45.59645472372696" lon="9.096490793345348"><ele>199.5</ele><time>2026-04-05T07:55:07.981Z</time></trkpt><trkpt lat="45.59637104036641" lon="9.09643942426257"><ele>199.66666666666669</ele><time>2026-04-05T07:55:09.981Z</time></trkpt><trkpt lat="45.596299929663125" lon="9.096408783657862"><ele>199.83333333333334</ele><time>2026-04-05T07:55:11.981Z</time></trkpt><trkpt lat="45.596204621798904" lon="9.096376455920918"><ele>200.0</ele><time>2026-04-05T07:55:13.981Z</time></trkpt><trkpt lat="45.59611568995834" lon="9.096317951513052"><ele>200.00000000000003</ele><time>2026-04-05T07:55:15.981Z</time></trkpt><trkpt lat="45.596050295047505" lon="9.096280916967979"><ele>200.0</ele><time>2026-04-05T07:55:17.981Z</time></trkpt><trkpt lat="45.59597601262327" lon="9.09620713980585"><ele>200.0</ele><time>2026-04-05T07:55:19.981Z</time></trkpt><trkpt lat="45.59591531475669" lon="9.096159545251735"><ele>200.0</ele><time>2026-04-05T07:55:21.981Z</time></trkpt><trkpt lat="45.59585021918919" lon="9.096102320347153"><ele>200.00000000000003</ele><time>2026-04-05T07:55:23.981Z</time></trkpt><trkpt lat="45.59580724732079" lon="9.096025726595405"><ele>200.0</ele><time>2026-04-05T07:55:25.981Z</time></trkpt><trkpt lat="45.59578870311416" lon="9.095902054617914"><ele>200.00000000000003</ele><time>2026-04-05T07:55:28.981Z</time></trkpt><trkpt lat="45.59577902354262" lon="9.09577879786115"><ele>200.0</ele><time>2026-04-05T07:55:31.981Z</time></trkpt><trkpt lat="45.595754103166186" lon="9.095652624104089"><ele>200.0</ele><time>2026-04-05T07:55:34.981Z</time></trkpt><trkpt lat="45.595767472728056" lon="9.09555602710915"><ele>200.0</ele><time>2026-04-05T07:55:35.981Z</time></trkpt><trkpt lat="45.595772964021826" lon="9.09541862625198"><ele>200.00000000000003</ele><time>2026-04-05T07:55:37.982Z</time></trkpt><trkpt lat="45.595766278443364" lon="9.095296637161773"><ele>200.0</ele><time>2026-04-05T07:55:39.982Z</time></trkpt><trkpt lat="45.5957690483994" lon="9.095165665557"><ele>200.42857142857144</ele><time>2026-04-05T07:55:41.981Z</time></trkpt><trkpt lat="45.59578840847443" lon="9.095055612539051"><ele>200.85714285714286</ele><time>2026-04-05T07:55:43.981Z</time></trkpt><trkpt lat="45.59579338005802" lon="9.094962353270645"><ele>201.28571428571428</ele><time>2026-04-05T07:55:45.982Z</time></trkpt><trkpt lat="45.59579620799232" lon="9.094866029624537"><ele>201.71428571428572</ele><time>2026-04-05T07:55:47.981Z</time></trkpt><trkpt lat="45.59579984871084" lon="9.094721126880337"><ele>202.14285714285714</ele><time>2026-04-05T07:55:50.981Z</time></trkpt><trkpt lat="45.5958076477951" lon="9.09463120130302"><ele>202.57142857142858</ele><time>2026-04-05T07:55:52.981Z</time></trkpt><trkpt lat="45.595825995116286" lon="9.094538407838169"><ele>203.0</ele><time>2026-04-05T07:55:54.981Z</time></trkpt><trkpt lat="45.59584781376371" lon="9.094415073910028"><ele>203.16666666666669</ele><time>2026-04-05T07:55:57.981Z</time></trkpt><trkpt lat="45.59588102976515" lon="9.094304513483207"><ele>203.33333333333334</ele><time>2026-04-05T07:56:00.981Z</time></trkpt><trkpt lat="45.59590202166422" lon="9.094212102073035"><ele>203.5</ele><time>2026-04-05T07:56:02.981Z</time></trkpt><trkpt lat="45.595899706420624" lon="9.094312279753906"><ele>203.66666666666669</ele><time>2026-04-05T07:56:13.981Z</time></trkpt><trkpt lat="45.595888156607295" lon="9.094423755869876"><ele>203.83333333333334</ele><time>2026-04-05T07:56:17.981Z</time></trkpt><trkpt lat="45.595807656435895" lon="9.09443396812592"><ele>204.0</ele><time>2026-04-05T07:56:21.981Z</time></trkpt><trkpt lat="45.59573610977006" lon="9.094450662165976"><ele>204.0</ele><time>2026-04-05T07:56:24.981Z</time></trkpt><trkpt lat="45.59566325995671" lon="9.0944507504658"><ele>204.0</ele><time>2026-04-05T07:56:27.981Z</time></trkpt><trkpt lat="45.59558411457395" lon="9.094473257641862"><ele>204.0</ele><time>2026-04-05T07:56:29.981Z</time></trkpt><trkpt lat="45.595514351955615" lon="9.094508847950605"><ele>204.0</ele><time>2026-04-05T07:56:32.981Z</time></trkpt><trkpt lat="45.595444892865224" lon="9.094496323498147"><ele>204.0</ele><time>2026-04-05T07:56:34.98Z</time></trkpt><trkpt lat="45.59536283012216" lon="9.094484081085993"><ele>204.0</ele><time>2026-04-05T07:56:36.98Z</time></trkpt><trkpt lat="45.595293467652596" lon="9.094486647176648"><ele>204.0</ele><time>2026-04-05T07:56:38.98Z</time></trkpt><trkpt lat="45.59519919020811" lon="9.094493785614624"><ele>204.0</ele><time>2026-04-05T07:56:40.98Z</time></trkpt><trkpt lat="45.59510572027545" lon="9.09447376576105"><ele>204.0</ele><time>2026-04-05T07:56:42.98Z</time></trkpt><trkpt lat="45.594992086293445" lon="9.094444271477629"><ele>204.0</ele><time>2026-04-05T07:56:44.98Z</time></trkpt><trkpt lat="45.59491717759537" lon="9.094425847307928"><ele>204.0</ele><time>2026-04-05T07:56:47.98Z</time></trkpt><trkpt lat="45.59482319015284" lon="9.094399270683148"><ele>204.0</ele><time>2026-04-05T07:56:50.98Z</time></trkpt><trkpt lat="45.594747445481744" lon="9.09439416594991"><ele>204.0</ele><time>2026-04-05T07:56:51.98Z</time></trkpt><trkpt lat="45.59464008669569" lon="9.09437305211789"><ele>204.0</ele><time>2026-04-05T07:56:53.98Z</time></trkpt><trkpt lat="45.594542986745786" lon="9.094336893391093"><ele>204.0</ele><time>2026-04-05T07:56:55.98Z</time></trkpt><trkpt lat="45.59445243393241" lon="9.09430154283645"><ele>204.0</ele><time>2026-04-05T07:56:57.98Z</time></trkpt><trkpt lat="45.59436681365215" lon="9.094251302411978"><ele>204.0</ele><time>2026-04-05T07:56:59.98Z</time></trkpt><trkpt lat="45.59431244119716" lon="9.094189457626944"><ele>204.0</ele><time>2026-04-05T07:57:01.98Z</time></trkpt><trkpt lat="45.59422787603078" lon="9.094096453835256"><ele>204.0</ele><time>2026-04-05T07:57:04.98Z</time></trkpt><trkpt lat="45.59417627969" lon="9.09400881018354"><ele>204.0</ele><time>2026-04-05T07:57:06.98Z</time></trkpt><trkpt lat="45.5941257906063" lon="9.093907850591396"><ele>204.0</ele><time>2026-04-05T07:57:09.98Z</time></trkpt><trkpt lat="45.594067520398" lon="9.09382994540914"><ele>204.0</ele><time>2026-04-05T07:57:11.98Z</time></trkpt><trkpt lat="45.59402418445458" lon="9.093754159825094"><ele>204.0</ele><time>2026-04-05T07:57:13.98Z</time></trkpt><trkpt lat="45.59397394142966" lon="9.093644298601225"><ele>204.0</ele><time>2026-04-05T07:57:16.98Z</time></trkpt><trkpt lat="45.5939091483371" lon="9.093555649150003"><ele>204.0</ele><time>2026-04-05T07:57:19.98Z</time></trkpt><trkpt lat="45.59385908454788" lon="9.093492065191183"><ele>204.0</ele><time>2026-04-05T07:57:21.98Z</time></trkpt><trkpt lat="45.593796866131804" lon="9.093466275774299"><ele>204.0</ele><time>2026-04-05T07:57:24.979Z</time></trkpt><trkpt lat="45.593715181633506" lon="9.093415503965133"><ele>204.0</ele><time>2026-04-05T07:57:27.979Z</time></trkpt><trkpt lat="45.59363791651123" lon="9.09335695098114"><ele>203.16666666666666</ele><time>2026-04-05T07:57:30.979Z</time></trkpt><trkpt lat="45.59360379439989" lon="9.093271337033293"><ele>202.33333333333331</ele><time>2026-04-05T07:57:32.979Z</time></trkpt><trkpt lat="45.59354000907194" lon="9.093164154335826"><ele>201.5</ele><time>2026-04-05T07:57:34.979Z</time></trkpt><trkpt lat="45.59347877421883" lon="9.093082860860578"><ele>200.66666666666666</ele><time>2026-04-05T07:57:36.979Z</time></trkpt><trkpt lat="45.593422949648826" lon="9.093024828291774"><ele>199.83333333333331</ele><time>2026-04-05T07:57:38.979Z</time></trkpt><trkpt lat="45.593359234625915" lon="9.092956015383766"><ele>199.0</ele><time>2026-04-05T07:57:40.981Z</time></trkpt><trkpt lat="45.59331590390387" lon="9.092874133186976"><ele>198.79999999999998</ele><time>2026-04-05T07:57:42.981Z</time></trkpt><trkpt lat="45.59326884382985" lon="9.092802360116204"><ele>198.6</ele><time>2026-04-05T07:57:44.981Z</time></trkpt><trkpt lat="45.59319834409193" lon="9.092708973720015"><ele>198.4</ele><time>2026-04-05T07:57:46.98Z</time></trkpt><trkpt lat="45.59312216019441" lon="9.0926304229329"><ele>198.2</ele><time>2026-04-05T07:57:48.981Z</time></trkpt><trkpt lat="45.59303032686055" lon="9.092561609412945"><ele>198.0</ele><time>2026-04-05T07:57:50.981Z</time></trkpt><trkpt lat="45.59293021368291" lon="9.092476717146486"><ele>197.2</ele><time>2026-04-05T07:57:52.981Z</time></trkpt><trkpt lat="45.59283746650784" lon="9.092400274727945"><ele>196.4</ele><time>2026-04-05T07:57:54.981Z</time></trkpt><trkpt lat="45.59276422164006" lon="9.092352554974989"><ele>195.6</ele><time>2026-04-05T07:57:56.981Z</time></trkpt><trkpt lat="45.59270348261634" lon="9.092326361947551"><ele>194.79999999999998</ele><time>2026-04-05T07:57:58.981Z</time></trkpt><trkpt lat="45.592605726196176" lon="9.092255082308922"><ele>194.0</ele><time>2026-04-05T07:58:00.981Z</time></trkpt><trkpt lat="45.59250978053334" lon="9.092210569805568"><ele>194.00000000000003</ele><time>2026-04-05T07:58:02.981Z</time></trkpt><trkpt lat="45.59243713877944" lon="9.09218062090443"><ele>194.0</ele><time>2026-04-05T07:58:04.981Z</time></trkpt><trkpt lat="45.592350104727764" lon="9.09218692292463"><ele>194.0</ele><time>2026-04-05T07:58:08.981Z</time></trkpt><trkpt lat="45.59227687800744" lon="9.092226445955061"><ele>194.0</ele><time>2026-04-05T07:58:10.981Z</time></trkpt><trkpt lat="45.592196071569454" lon="9.092268247066906"><ele>194.00000000000003</ele><time>2026-04-05T07:58:13.981Z</time></trkpt><trkpt lat="45.59213072139283" lon="9.092289175965083"><ele>194.0</ele><time>2026-04-05T07:58:15.981Z</time></trkpt><trkpt lat="45.59204892632508" lon="9.092262172522938"><ele>194.16666666666669</ele><time>2026-04-05T07:58:17.981Z</time></trkpt><trkpt lat="45.59197714855805" lon="9.092273314615959"><ele>194.33333333333334</ele><time>2026-04-05T07:58:19.981Z</time></trkpt><trkpt lat="45.59188605198976" lon="9.092270869991102"><ele>194.5</ele><time>2026-04-05T07:58:22.981Z</time></trkpt><trkpt lat="45.5918083515791" lon="9.092275732183591"><ele>194.66666666666669</ele><time>2026-04-05T07:58:24.981Z</time></trkpt><trkpt lat="45.591741652568416" lon="9.092269710391008"><ele>194.83333333333334</ele><time>2026-04-05T07:58:26.98Z</time></trkpt><trkpt lat="45.591637883177064" lon="9.0922313585271"><ele>195.0</ele><time>2026-04-05T07:58:28.98Z</time></trkpt><trkpt lat="45.59156651125781" lon="9.092168498821959"><ele>195.0</ele><time>2026-04-05T07:58:30.98Z</time></trkpt><trkpt lat="45.59149645442659" lon="9.092090665587024"><ele>195.0</ele><time>2026-04-05T07:58:32.98Z</time></trkpt><trkpt lat="45.5914323216353" lon="9.092050682199982"><ele>195.0</ele><time>2026-04-05T07:58:34.98Z</time></trkpt><trkpt lat="45.591349293407276" lon="9.09209160024811"><ele>195.0</ele><time>2026-04-05T07:58:37.98Z</time></trkpt><trkpt lat="45.59128005537355" lon="9.092134184222697"><ele>195.0</ele><time>2026-04-05T07:58:39.98Z</time></trkpt><trkpt lat="45.59121494955173" lon="9.092199136801602"><ele>195.0</ele><time>2026-04-05T07:58:41.98Z</time></trkpt><trkpt lat="45.591159554810616" lon="9.092290322625564"><ele>195.16666666666666</ele><time>2026-04-05T07:58:43.98Z</time></trkpt><trkpt lat="45.591122496616116" lon="9.092365764654522"><ele>195.33333333333331</ele><time>2026-04-05T07:58:45.98Z</time></trkpt><trkpt lat="45.591078580602826" lon="9.092438189392423"><ele>195.5</ele><time>2026-04-05T07:58:47.98Z</time></trkpt><trkpt lat="45.591028307264274" lon="9.09252903882961"><ele>195.66666666666666</ele><time>2026-04-05T07:58:49.98Z</time></trkpt><trkpt lat="45.590957015099235" lon="9.092580891748188"><ele>195.83333333333331</ele><time>2026-04-05T07:58:51.98Z</time></trkpt><trkpt lat="45.5908267005603" lon="9.092539984445239"><ele>196.0</ele><time>2026-04-05T07:58:53.98Z</time></trkpt><trkpt lat="45.5907332584156" lon="9.092506992133899"><ele>196.0</ele><time>2026-04-05T07:58:55.98Z</time></trkpt><trkpt lat="45.59064873785878" lon="9.092485367397208"><ele>196.0</ele><time>2026-04-05T07:58:57.98Z</time></trkpt><trkpt lat="45.590550716797615" lon="9.092460588384872"><ele>196.0</ele><time>2026-04-05T07:58:59.98Z</time></trkpt><trkpt lat="45.590466953693216" lon="9.09243757322356"><ele>196.0</ele><time>2026-04-05T07:59:01.98Z</time></trkpt><trkpt lat="45.59036908237377" lon="9.092413267002874"><ele>196.0</ele><time>2026-04-05T07:59:03.98Z</time></trkpt><trkpt lat="45.590276806871664" lon="9.092381907028008"><ele>195.4</ele><time>2026-04-05T07:59:05.98Z</time></trkpt><trkpt lat="45.59015620334448" lon="9.09234791423802"><ele>194.8</ele><time>2026-04-05T07:59:07.98Z</time></trkpt><trkpt lat="45.5900533329287" lon="9.092340328523017"><ele>194.20000000000002</ele><time>2026-04-05T07:59:09.98Z</time></trkpt><trkpt lat="45.58996226812946" lon="9.092326577804105"><ele>193.60000000000002</ele><time>2026-04-05T07:59:11.98Z</time></trkpt><trkpt lat="45.58985010352162" lon="9.092288962454594"><ele>193.0</ele><time>2026-04-05T07:59:13.98Z</time></trkpt><trkpt lat="45.58974632257479" lon="9.092232520527586"><ele>192.99999999999997</ele><time>2026-04-05T07:59:15.98Z</time></trkpt><trkpt lat="45.58965391662926" lon="9.092204822190817"><ele>193.0</ele><time>2026-04-05T07:59:17.98Z</time></trkpt><trkpt lat="45.58956632446824" lon="9.092164767578161"><ele>193.0</ele><time>2026-04-05T07:59:19.979Z</time></trkpt><trkpt lat="45.589487792666645" lon="9.09212732762433"><ele>193.0</ele><time>2026-04-05T07:59:21.979Z</time></trkpt><trkpt lat="45.58940530919757" lon="9.092086723523815"><ele>192.99999999999997</ele><time>2026-04-05T07:59:23.979Z</time></trkpt><trkpt lat="45.589336530181164" lon="9.092045549382064"><ele>193.0</ele><time>2026-04-05T07:59:25.979Z</time></trkpt><trkpt lat="45.58925812114554" lon="9.091988935978819"><ele>192.83333333333331</ele><time>2026-04-05T07:59:27.979Z</time></trkpt><trkpt lat="45.58919231829487" lon="9.091901182778923"><ele>192.66666666666666</ele><time>2026-04-05T07:59:29.979Z</time></trkpt><trkpt lat="45.58912485721384" lon="9.091822300066031"><ele>192.5</ele><time>2026-04-05T07:59:31.979Z</time></trkpt><trkpt lat="45.589056371160844" lon="9.09175937429749"><ele>192.33333333333331</ele><time>2026-04-05T07:59:33.979Z</time></trkpt><trkpt lat="45.58898717296148" lon="9.09167759190622"><ele>192.16666666666666</ele><time>2026-04-05T07:59:36.979Z</time></trkpt><trkpt lat="45.58893160671849" lon="9.091612431284306"><ele>192.0</ele><time>2026-04-05T07:59:39.979Z</time></trkpt><trkpt lat="45.58885442996979" lon="9.09154858478468"><ele>191.99999999999997</ele><time>2026-04-05T07:59:42.979Z</time></trkpt><trkpt lat="45.58880878644314" lon="9.091474721728973"><ele>192.0</ele><time>2026-04-05T07:59:44.979Z</time></trkpt><trkpt lat="45.58877310846169" lon="9.091385407470595"><ele>192.0</ele><time>2026-04-05T07:59:46.98Z</time></trkpt><trkpt lat="45.58872021887989" lon="9.091300753597611"><ele>192.0</ele><time>2026-04-05T07:59:49.98Z</time></trkpt><trkpt lat="45.58866517851001" lon="9.09123631022202"><ele>192.0</ele><time>2026-04-05T07:59:52.98Z</time></trkpt><trkpt lat="45.5885979497827" lon="9.09119922171118"><ele>191.99999999999997</ele><time>2026-04-05T07:59:55.98Z</time></trkpt><trkpt lat="45.588537708243344" lon="9.091156361507155"><ele>192.0</ele><time>2026-04-05T07:59:57.98Z</time></trkpt><trkpt lat="45.588467282068585" lon="9.091094038695816"><ele>191.8</ele><time>2026-04-05T07:59:59.98Z</time></trkpt><trkpt lat="45.58839535300031" lon="9.091034380559831"><ele>191.6</ele><time>2026-04-05T08:00:01.98Z</time></trkpt><trkpt lat="45.58831388193457" lon="9.090977464834435"><ele>191.4</ele><time>2026-04-05T08:00:03.98Z</time></trkpt><trkpt lat="45.58823470836952" lon="9.090918647043567"><ele>191.20000000000002</ele><time>2026-04-05T08:00:05.98Z</time></trkpt><trkpt lat="45.588145504736474" lon="9.090851924686454"><ele>191.0</ele><time>2026-04-05T08:00:07.98Z</time></trkpt><trkpt lat="45.5880632879674" lon="9.090796711378328"><ele>191.16666666666666</ele><time>2026-04-05T08:00:09.98Z</time></trkpt><trkpt lat="45.58797838447945" lon="9.090734129292416"><ele>191.33333333333331</ele><time>2026-04-05T08:00:11.98Z</time></trkpt><trkpt lat="45.58790831837431" lon="9.090670147839452"><ele>191.5</ele><time>2026-04-05T08:00:13.98Z</time></trkpt><trkpt lat="45.58783936988551" lon="9.090607955904062"><ele>191.66666666666666</ele><time>2026-04-05T08:00:15.979Z</time></trkpt><trkpt lat="45.58777837249793" lon="9.090542331418439"><ele>191.83333333333334</ele><time>2026-04-05T08:00:17.979Z</time></trkpt><trkpt lat="45.58769485793831" lon="9.090498499417535"><ele>192.0</ele><time>2026-04-05T08:00:19.979Z</time></trkpt><trkpt lat="45.58763181439333" lon="9.090473794476582"><ele>191.33333333333334</ele><time>2026-04-05T08:00:21.979Z</time></trkpt><trkpt lat="45.587552237290886" lon="9.090434279849823"><ele>190.66666666666666</ele><time>2026-04-05T08:00:23.979Z</time></trkpt><trkpt lat="45.587487865118746" lon="9.090384744412537"><ele>190.0</ele><time>2026-04-05T08:00:25.979Z</time></trkpt><trkpt lat="45.58740702196831" lon="9.090331617005406"><ele>189.33333333333331</ele><time>2026-04-05T08:00:27.979Z</time></trkpt><trkpt lat="45.58732534305885" lon="9.090279377120696"><ele>188.66666666666666</ele><time>2026-04-05T08:00:29.979Z</time></trkpt><trkpt lat="45.58725219384947" lon="9.090258352913484"><ele>188.0</ele><time>2026-04-05T08:00:31.979Z</time></trkpt><trkpt lat="45.58718640801204" lon="9.090230525983298"><ele>188.0</ele><time>2026-04-05T08:00:33.979Z</time></trkpt><trkpt lat="45.587096049947824" lon="9.090217456560918"><ele>188.0</ele><time>2026-04-05T08:00:36.979Z</time></trkpt><trkpt lat="45.58701202592809" lon="9.090218871482039"><ele>188.0</ele><time>2026-04-05T08:00:39.979Z</time></trkpt><trkpt lat="45.58694462476831" lon="9.090243739767477"><ele>188.0</ele><time>2026-04-05T08:00:41.979Z</time></trkpt><trkpt lat="45.586846724438416" lon="9.090278712624022"><ele>188.0</ele><time>2026-04-05T08:00:44.979Z</time></trkpt><trkpt lat="45.58676307475789" lon="9.090279620147694"><ele>188.0</ele><time>2026-04-05T08:00:46.979Z</time></trkpt><trkpt lat="45.5866924701286" lon="9.09033628839013"><ele>187.83333333333331</ele><time>2026-04-05T08:00:49.979Z</time></trkpt><trkpt lat="45.586632467499285" lon="9.090302137643764"><ele>187.66666666666666</ele><time>2026-04-05T08:00:50.979Z</time></trkpt><trkpt lat="45.586545683981115" lon="9.0902756694441"><ele>187.5</ele><time>2026-04-05T08:00:52.979Z</time></trkpt><trkpt lat="45.58646944225283" lon="9.090300645605542"><ele>187.33333333333334</ele><time>2026-04-05T08:00:54.979Z</time></trkpt><trkpt lat="45.586401522933755" lon="9.090325087763633"><ele>187.16666666666669</ele><time>2026-04-05T08:00:56.979Z</time></trkpt><trkpt lat="45.58630568862843" lon="9.090344593192983"><ele>187.0</ele><time>2026-04-05T08:00:58.979Z</time></trkpt><trkpt lat="45.586207175490834" lon="9.090365837753986"><ele>187.0</ele><time>2026-04-05T08:01:00.979Z</time></trkpt><trkpt lat="45.58613302906014" lon="9.090380041392342"><ele>187.0</ele><time>2026-04-05T08:01:02.979Z</time></trkpt><trkpt lat="45.586043508858715" lon="9.090402936158299"><ele>187.0</ele><time>2026-04-05T08:01:04.979Z</time></trkpt><trkpt lat="45.58598030425888" lon="9.090419272760263"><ele>187.0</ele><time>2026-04-05T08:01:06.979Z</time></trkpt><trkpt lat="45.58590591339108" lon="9.090445942988477"><ele>187.0</ele><time>2026-04-05T08:01:08.978Z</time></trkpt><trkpt lat="45.585812878774846" lon="9.090455753921386"><ele>187.0</ele><time>2026-04-05T08:01:10.978Z</time></trkpt><trkpt lat="45.585719713309736" lon="9.09048594231339"><ele>187.0</ele><time>2026-04-05T08:01:12.978Z</time></trkpt><trkpt lat="45.58562770431215" lon="9.090505533023702"><ele>187.0</ele><time>2026-04-05T08:01:14.978Z</time></trkpt><trkpt lat="45.585544058809525" lon="9.0905192647261"><ele>187.0</ele><time>2026-04-05T08:01:16.978Z</time></trkpt><trkpt lat="45.585475892342764" lon="9.090551238322448"><ele>187.0</ele><time>2026-04-05T08:01:18.978Z</time></trkpt><trkpt lat="45.58542046356385" lon="9.090658600668247"><ele>187.0</ele><time>2026-04-05T08:01:21.978Z</time></trkpt><trkpt lat="45.585367359487535" lon="9.090764754185768"><ele>187.0</ele><time>2026-04-05T08:01:23.978Z</time></trkpt><trkpt lat="45.58531188436925" lon="9.090847096538859"><ele>187.16666666666669</ele><time>2026-04-05T08:01:25.978Z</time></trkpt><trkpt lat="45.58526019203674" lon="9.090934388052435"><ele>187.33333333333334</ele><time>2026-04-05T08:01:27.978Z</time></trkpt><trkpt lat="45.58522177002531" lon="9.091018130210378"><ele>187.5</ele><time>2026-04-05T08:01:29.978Z</time></trkpt><trkpt lat="45.58520651372756" lon="9.091107539367046"><ele>187.66666666666666</ele><time>2026-04-05T08:01:31.978Z</time></trkpt><trkpt lat="45.58516646163468" lon="9.091210228650862"><ele>187.83333333333331</ele><time>2026-04-05T08:01:33.978Z</time></trkpt><trkpt lat="45.58513314258489" lon="9.091293635536895"><ele>188.0</ele><time>2026-04-05T08:01:35.978Z</time></trkpt><trkpt lat="45.585083871023315" lon="9.09140943434564"><ele>188.0</ele><time>2026-04-05T08:01:37.978Z</time></trkpt><trkpt lat="45.58503954081981" lon="9.091542799176803"><ele>188.0</ele><time>2026-04-05T08:01:39.978Z</time></trkpt><trkpt lat="45.58498346850843" lon="9.091678523497173"><ele>188.0</ele><time>2026-04-05T08:01:41.978Z</time></trkpt><trkpt lat="45.58492973968813" lon="9.091804071121938"><ele>188.0</ele><time>2026-04-05T08:01:43.978Z</time></trkpt><trkpt lat="45.58487726259731" lon="9.091907847890436"><ele>188.0</ele><time>2026-04-05T08:01:45.978Z</time></trkpt><trkpt lat="45.5848262741767" lon="9.092011278469151"><ele>188.16666666666666</ele><time>2026-04-05T08:01:47.978Z</time></trkpt><trkpt lat="45.58479188449434" lon="9.09214885059914"><ele>188.33333333333331</ele><time>2026-04-05T08:01:49.978Z</time></trkpt><trkpt lat="45.58473469480503" lon="9.092237357698899"><ele>188.5</ele><time>2026-04-05T08:01:51.979Z</time></trkpt><trkpt lat="45.58466479063593" lon="9.092299244455376"><ele>188.66666666666666</ele><time>2026-04-05T08:01:53.979Z</time></trkpt><trkpt lat="45.58460186805306" lon="9.092333834676596"><ele>188.83333333333334</ele><time>2026-04-05T08:01:55.979Z</time></trkpt><trkpt lat="45.58454226838566" lon="9.092378688059274"><ele>189.0</ele><time>2026-04-05T08:01:57.979Z</time></trkpt><trkpt lat="45.58446622893278" lon="9.09239883005305"><ele>189.16666666666666</ele><time>2026-04-05T08:01:59.979Z</time></trkpt><trkpt lat="45.58436665080747" lon="9.092388301257147"><ele>189.33333333333334</ele><time>2026-04-05T08:02:01.979Z</time></trkpt><trkpt lat="45.58428226561985" lon="9.092321411530698"><ele>189.5</ele><time>2026-04-05T08:02:04.979Z</time></trkpt><trkpt lat="45.58419769539149" lon="9.09232481590938"><ele>189.66666666666669</ele><time>2026-04-05T08:02:06.979Z</time></trkpt><trkpt lat="45.58412343558709" lon="9.09234788060776"><ele>189.83333333333334</ele><time>2026-04-05T08:02:08.979Z</time></trkpt><trkpt lat="45.58406556128616" lon="9.092393143237711"><ele>190.0</ele><time>2026-04-05T08:02:10.979Z</time></trkpt><trkpt lat="45.58399231472879" lon="9.09246041681099"><ele>190.0</ele><time>2026-04-05T08:02:12.979Z</time></trkpt><trkpt lat="45.583920783530594" lon="9.092493029301897"><ele>190.0</ele><time>2026-04-05T08:02:14.978Z</time></trkpt><trkpt lat="45.58384951750824" lon="9.092495863077607"><ele>190.0</ele><time>2026-04-05T08:02:16.978Z</time></trkpt><trkpt lat="45.583781202883706" lon="9.092458039820274"><ele>190.0</ele><time>2026-04-05T08:02:20.978Z</time></trkpt><trkpt lat="45.583717369900576" lon="9.092412137970252"><ele>190.0</ele><time>2026-04-05T08:02:22.978Z</time></trkpt><trkpt lat="45.58361362799079" lon="9.09233367523527"><ele>190.0</ele><time>2026-04-05T08:02:24.978Z</time></trkpt><trkpt lat="45.583541627883896" lon="9.092292747715739"><ele>190.0</ele><time>2026-04-05T08:02:26.978Z</time></trkpt><trkpt lat="45.583474365612965" lon="9.09226846845119"><ele>190.0</ele><time>2026-04-05T08:02:28.978Z</time></trkpt><trkpt lat="45.58339923254015" lon="9.092234331669001"><ele>190.0</ele><time>2026-04-05T08:02:30.978Z</time></trkpt><trkpt lat="45.58332805656286" lon="9.092236868296398"><ele>190.0</ele><time>2026-04-05T08:02:32.978Z</time></trkpt><trkpt lat="45.58324186079312" lon="9.092219908927907"><ele>190.0</ele><time>2026-04-05T08:02:34.978Z</time></trkpt><trkpt lat="45.58316578699905" lon="9.092192140524642"><ele>190.0</ele><time>2026-04-05T08:02:36.978Z</time></trkpt><trkpt lat="45.583074701100195" lon="9.092115448091635"><ele>190.0</ele><time>2026-04-05T08:02:38.978Z</time></trkpt><trkpt lat="45.583001036116" lon="9.092006576613464"><ele>190.0</ele><time>2026-04-05T08:02:40.978Z</time></trkpt><trkpt lat="45.58296286980899" lon="9.09192770166738"><ele>190.0</ele><time>2026-04-05T08:02:42.978Z</time></trkpt><trkpt lat="45.582923788308065" lon="9.091844959411416"><ele>190.0</ele><time>2026-04-05T08:02:44.978Z</time></trkpt><trkpt lat="45.58288200974889" lon="9.09176397404683"><ele>190.0</ele><time>2026-04-05T08:02:46.978Z</time></trkpt><trkpt lat="45.58283141919909" lon="9.091685756963008"><ele>190.0</ele><time>2026-04-05T08:02:48.978Z</time></trkpt><trkpt lat="45.58279082386723" lon="9.091588279653218"><ele>189.14285714285714</ele><time>2026-04-05T08:02:50.978Z</time></trkpt><trkpt lat="45.582749034258946" lon="9.091503878357145"><ele>188.28571428571428</ele><time>2026-04-05T08:02:52.978Z</time></trkpt><trkpt lat="45.582707603566156" lon="9.091424839822055"><ele>187.42857142857144</ele><time>2026-04-05T08:02:54.978Z</time></trkpt><trkpt lat="45.58266225063778" lon="9.091361286761916"><ele>186.57142857142856</ele><time>2026-04-05T08:02:56.978Z</time></trkpt><trkpt lat="45.58260691038265" lon="9.09131019675421"><ele>185.7142857142857</ele><time>2026-04-05T08:02:58.978Z</time></trkpt><trkpt lat="45.582530473689424" lon="9.091275138837226"><ele>184.85714285714286</ele><time>2026-04-05T08:03:01.978Z</time></trkpt><trkpt lat="45.582454411564" lon="9.091249809445321"><ele>184.0</ele><time>2026-04-05T08:03:04.978Z</time></trkpt><trkpt lat="45.58236587050358" lon="9.09125649391606"><ele>184.0</ele><time>2026-04-05T08:03:07.977Z</time></trkpt><trkpt lat="45.58230179570045" lon="9.09126180940096"><ele>184.0</ele><time>2026-04-05T08:03:09.977Z</time></trkpt><trkpt lat="45.582232483058895" lon="9.09127168418412"><ele>184.0</ele><time>2026-04-05T08:03:11.977Z</time></trkpt><trkpt lat="45.5821352914588" lon="9.091278171529552"><ele>184.0</ele><time>2026-04-05T08:03:13.977Z</time></trkpt><trkpt lat="45.58204706706421" lon="9.09129115366206"><ele>184.0</ele><time>2026-04-05T08:03:15.977Z</time></trkpt><trkpt lat="45.58195976410129" lon="9.091316033882867"><ele>184.0</ele><time>2026-04-05T08:03:17.977Z</time></trkpt><trkpt lat="45.5818971290813" lon="9.091345288379136"><ele>184.33333333333334</ele><time>2026-04-05T08:03:19.977Z</time></trkpt><trkpt lat="45.58182822318182" lon="9.09140232628003"><ele>184.66666666666669</ele><time>2026-04-05T08:03:21.977Z</time></trkpt><trkpt lat="45.58175650200456" lon="9.091466786373617"><ele>185.0</ele><time>2026-04-05T08:03:23.977Z</time></trkpt><trkpt lat="45.581716517240174" lon="9.091544990568824"><ele>185.33333333333334</ele><time>2026-04-05T08:03:26.977Z</time></trkpt><trkpt lat="45.58168418777518" lon="9.091642689762322"><ele>185.66666666666666</ele><time>2026-04-05T08:03:29.977Z</time></trkpt><trkpt lat="45.581662123354526" lon="9.091733495905787"><ele>186.0</ele><time>2026-04-05T08:03:32.977Z</time></trkpt><trkpt lat="45.581614658815184" lon="9.091825210462702"><ele>186.66666666666666</ele><time>2026-04-05T08:03:35.977Z</time></trkpt><trkpt lat="45.58152444844274" lon="9.091829765859517"><ele>187.33333333333334</ele><time>2026-04-05T08:03:38.977Z</time></trkpt><trkpt lat="45.58143654921748" lon="9.09184548049478"><ele>188.0</ele><time>2026-04-05T08:03:41.977Z</time></trkpt><trkpt lat="45.581351237901885" lon="9.091863836159698"><ele>188.66666666666669</ele><time>2026-04-05T08:03:44.977Z</time></trkpt><trkpt lat="45.581260529448166" lon="9.091870111028422"><ele>189.33333333333334</ele><time>2026-04-05T08:03:47.977Z</time></trkpt><trkpt lat="45.58118245130606" lon="9.091854328425999"><ele>190.0</ele><time>2026-04-05T08:03:49.977Z</time></trkpt><trkpt lat="45.5811062382808" lon="9.091851199800196"><ele>190.0</ele><time>2026-04-05T08:03:51.977Z</time></trkpt><trkpt lat="45.58103344258325" lon="9.091795044207784"><ele>190.0</ele><time>2026-04-05T08:03:54.977Z</time></trkpt><trkpt lat="45.580967594646744" lon="9.091760558173746"><ele>190.0</ele><time>2026-04-05T08:03:57.978Z</time></trkpt><trkpt lat="45.58090381005398" lon="9.09174781432294"><ele>190.0</ele><time>2026-04-05T08:04:00.978Z</time></trkpt><trkpt lat="45.58083067535125" lon="9.091757320003467"><ele>190.0</ele><time>2026-04-05T08:04:03.979Z</time></trkpt><trkpt lat="45.5807445228537" lon="9.091784269088368"><ele>190.0</ele><time>2026-04-05T08:04:06.979Z</time></trkpt><trkpt lat="45.580676515962686" lon="9.09184093230281"><ele>190.0</ele><time>2026-04-05T08:04:09.978Z</time></trkpt><trkpt lat="45.580617134322196" lon="9.091896833589985"><ele>190.0</ele><time>2026-04-05T08:04:11.979Z</time></trkpt><trkpt lat="45.58055959276813" lon="9.091957397922462"><ele>190.0</ele><time>2026-04-05T08:04:13.979Z</time></trkpt><trkpt lat="45.580495181940876" lon="9.092012221204236"><ele>190.0</ele><time>2026-04-05T08:04:15.979Z</time></trkpt><trkpt lat="45.580417803969425" lon="9.092071955620755"><ele>190.0</ele><time>2026-04-05T08:04:18.978Z</time></trkpt><trkpt lat="45.58034004774546" lon="9.092105972206094"><ele>190.0</ele><time>2026-04-05T08:04:20.978Z</time></trkpt><trkpt lat="45.58027293448326" lon="9.09214556025362"><ele>190.16666666666669</ele><time>2026-04-05T08:04:22.978Z</time></trkpt><trkpt lat="45.58019703937704" lon="9.092157484021286"><ele>190.33333333333334</ele><time>2026-04-05T08:04:24.978Z</time></trkpt><trkpt lat="45.580107473916144" lon="9.092173272552289"><ele>190.5</ele><time>2026-04-05T08:04:27.978Z</time></trkpt><trkpt lat="45.58003589927824" lon="9.092173134049425"><ele>190.66666666666666</ele><time>2026-04-05T08:04:29.978Z</time></trkpt><trkpt lat="45.5799562454893" lon="9.092181823381972"><ele>190.83333333333331</ele><time>2026-04-05T08:04:31.978Z</time></trkpt><trkpt lat="45.579868296752736" lon="9.09218684335781"><ele>191.0</ele><time>2026-04-05T08:04:33.978Z</time></trkpt><trkpt lat="45.57980612181239" lon="9.092157723768402"><ele>191.0</ele><time>2026-04-05T08:04:34.978Z</time></trkpt><trkpt lat="45.57970124464789" lon="9.092142069049952"><ele>191.0</ele><time>2026-04-05T08:04:37.978Z</time></trkpt><trkpt lat="45.5796325144594" lon="9.092158779458444"><ele>191.0</ele><time>2026-04-05T08:04:39.978Z</time></trkpt><trkpt lat="45.57954862608085" lon="9.092185027100388"><ele>191.0</ele><time>2026-04-05T08:04:41.978Z</time></trkpt><trkpt lat="45.57947040993035" lon="9.092204907550894"><ele>191.0</ele><time>2026-04-05T08:04:43.978Z</time></trkpt><trkpt lat="45.5793933404049" lon="9.092231585247982"><ele>191.0</ele><time>2026-04-05T08:04:46.978Z</time></trkpt><trkpt lat="45.57928962423189" lon="9.092256916830713"><ele>191.20000000000002</ele><time>2026-04-05T08:04:48.978Z</time></trkpt><trkpt lat="45.57919393797765" lon="9.092260532490121"><ele>191.4</ele><time>2026-04-05T08:04:50.978Z</time></trkpt><trkpt lat="45.57909686109869" lon="9.09228703130623"><ele>191.6</ele><time>2026-04-05T08:04:52.978Z</time></trkpt><trkpt lat="45.579028109038894" lon="9.092344772191254"><ele>191.8</ele><time>2026-04-05T08:04:54.978Z</time></trkpt><trkpt lat="45.57894724393521" lon="9.09241228568717"><ele>192.0</ele><time>2026-04-05T08:04:56.978Z</time></trkpt><trkpt lat="45.578880056313686" lon="9.092483824374085"><ele>192.0</ele><time>2026-04-05T08:04:58.978Z</time></trkpt><trkpt lat="45.57882699528365" lon="9.092574288352635"><ele>192.0</ele><time>2026-04-05T08:05:00.978Z</time></trkpt><trkpt lat="45.57877337788777" lon="9.092681035247066"><ele>192.0</ele><time>2026-04-05T08:05:03.978Z</time></trkpt><trkpt lat="45.57872588492936" lon="9.092788078962416"><ele>192.0</ele><time>2026-04-05T08:05:05.978Z</time></trkpt><trkpt lat="45.57868532286638" lon="9.092899817284586"><ele>192.0</ele><time>2026-04-05T08:05:08.978Z</time></trkpt><trkpt lat="45.5786582039798" lon="9.092992099814493"><ele>192.0</ele><time>2026-04-05T08:05:10.977Z</time></trkpt><trkpt lat="45.578592887194866" lon="9.093099263785495"><ele>190.5</ele><time>2026-04-05T08:05:13.977Z</time></trkpt><trkpt lat="45.57854904707169" lon="9.093184201079934"><ele>189.0</ele><time>2026-04-05T08:05:15.977Z</time></trkpt><trkpt lat="45.57849279473664" lon="9.09327005649657"><ele>187.5</ele><time>2026-04-05T08:05:18.977Z</time></trkpt><trkpt lat="45.57842133910151" lon="9.093303521237674"><ele>186.0</ele><time>2026-04-05T08:05:20.977Z</time></trkpt><trkpt lat="45.57833719278218" lon="9.09336281310818"><ele>184.5</ele><time>2026-04-05T08:05:22.977Z</time></trkpt><trkpt lat="45.57831387175236" lon="9.093481998944554"><ele>183.0</ele><time>2026-04-05T08:05:24.977Z</time></trkpt><trkpt lat="45.578313693433635" lon="9.093595555801105"><ele>183.0</ele><time>2026-04-05T08:05:26.977Z</time></trkpt><trkpt lat="45.57831225555998" lon="9.093704048364128"><ele>183.0</ele><time>2026-04-05T08:05:28.977Z</time></trkpt><trkpt lat="45.57830574881462" lon="9.093828347664644"><ele>183.0</ele><time>2026-04-05T08:05:30.977Z</time></trkpt><trkpt lat="45.57830358765025" lon="9.093941222920147"><ele>183.0</ele><time>2026-04-05T08:05:32.977Z</time></trkpt><trkpt lat="45.5782812072461" lon="9.09404725780936"><ele>183.0</ele><time>2026-04-05T08:05:34.977Z</time></trkpt><trkpt lat="45.57826429970015" lon="9.09415633027855"><ele>183.0</ele><time>2026-04-05T08:05:37.977Z</time></trkpt><trkpt lat="45.57824200833767" lon="9.094258317340731"><ele>183.5</ele><time>2026-04-05T08:05:40.977Z</time></trkpt><trkpt lat="45.57825150753669" lon="9.09436028545518"><ele>184.0</ele><time>2026-04-05T08:05:43.977Z</time></trkpt><trkpt lat="45.57820763999089" lon="9.094443343492749"><ele>184.5</ele><time>2026-04-05T08:05:48.977Z</time></trkpt><trkpt lat="45.57811571702791" lon="9.094387975458405"><ele>185.0</ele><time>2026-04-05T08:05:51.977Z</time></trkpt><trkpt lat="45.57806463399511" lon="9.094302319870478"><ele>185.5</ele><time>2026-04-05T08:05:53.977Z</time></trkpt><trkpt lat="45.57799835521099" lon="9.094219355860007"><ele>186.0</ele><time>2026-04-05T08:05:55.977Z</time></trkpt><trkpt lat="45.577944382827226" lon="9.094104483910067"><ele>185.5</ele><time>2026-04-05T08:05:57.977Z</time></trkpt><trkpt lat="45.57791256686155" lon="9.09397636761336"><ele>185.0</ele><time>2026-04-05T08:05:59.977Z</time></trkpt><trkpt lat="45.5778922638046" lon="9.093887161041435"><ele>184.5</ele><time>2026-04-05T08:06:01.977Z</time></trkpt><trkpt lat="45.577885769806834" lon="9.093793431532081"><ele>184.0</ele><time>2026-04-05T08:06:03.977Z</time></trkpt><trkpt lat="45.57787773892572" lon="9.093677294253883"><ele>183.5</ele><time>2026-04-05T08:06:05.977Z</time></trkpt><trkpt lat="45.5778770591347" lon="9.093562116319555"><ele>183.0</ele><time>2026-04-05T08:06:07.977Z</time></trkpt><trkpt lat="45.57785778284293" lon="9.093453924122995"><ele>183.0</ele><time>2026-04-05T08:06:10.977Z</time></trkpt><trkpt lat="45.577857502712384" lon="9.093362281990453"><ele>183.0</ele><time>2026-04-05T08:06:12.978Z</time></trkpt><trkpt lat="45.577855923927395" lon="9.093233578707904"><ele>183.0</ele><time>2026-04-05T08:06:14.977Z</time></trkpt><trkpt lat="45.57785610600434" lon="9.09313023471743"><ele>183.0</ele><time>2026-04-05T08:06:16.978Z</time></trkpt><trkpt lat="45.5778457495644" lon="9.093040046107498"><ele>183.0</ele><time>2026-04-05T08:06:18.978Z</time></trkpt><trkpt lat="45.57785938031357" lon="9.092941162194457"><ele>183.0</ele><time>2026-04-05T08:06:20.978Z</time></trkpt><trkpt lat="45.577885447138655" lon="9.092822484060642"><ele>183.0</ele><time>2026-04-05T08:06:24.978Z</time></trkpt><trkpt lat="45.5778072921629" lon="9.092706860013168"><ele>182.66666666666666</ele><time>2026-04-05T08:06:25.978Z</time></trkpt><trkpt lat="45.57773275538781" lon="9.092627748812342"><ele>182.33333333333334</ele><time>2026-04-05T08:06:29.977Z</time></trkpt><trkpt lat="45.57766910828808" lon="9.092662603073444"><ele>182.0</ele><time>2026-04-05T08:06:32.977Z</time></trkpt><trkpt lat="45.57761852145795" lon="9.092730514074649"><ele>181.66666666666669</ele><time>2026-04-05T08:06:34.977Z</time></trkpt><trkpt lat="45.57754047871205" lon="9.09282284719731"><ele>181.33333333333334</ele><time>2026-04-05T08:06:37.977Z</time></trkpt><trkpt lat="45.5774814439628" lon="9.092896524458311"><ele>181.0</ele><time>2026-04-05T08:06:39.977Z</time></trkpt><trkpt lat="45.57743160315766" lon="9.092970921202147"><ele>181.0</ele><time>2026-04-05T08:06:41.977Z</time></trkpt><trkpt lat="45.57737969373943" lon="9.093061920951717"><ele>181.0</ele><time>2026-04-05T08:06:43.977Z</time></trkpt><trkpt lat="45.577310401664974" lon="9.093147271965504"><ele>181.0</ele><time>2026-04-05T08:06:45.977Z</time></trkpt><trkpt lat="45.57725746955816" lon="9.093229052852038"><ele>181.0</ele><time>2026-04-05T08:06:47.977Z</time></trkpt><trkpt lat="45.577200718961066" lon="9.09331351017527"><ele>181.0</ele><time>2026-04-05T08:06:49.977Z</time></trkpt><trkpt lat="45.577122882882456" lon="9.093428910925947"><ele>181.0</ele><time>2026-04-05T08:06:52.977Z</time></trkpt><trkpt lat="45.57702035998396" lon="9.093504723643477"><ele>180.8</ele><time>2026-04-05T08:06:54.977Z</time></trkpt><trkpt lat="45.576915700757226" lon="9.093549022296886"><ele>180.60000000000002</ele><time>2026-04-05T08:06:56.977Z</time></trkpt><trkpt lat="45.57681126309907" lon="9.093583961062306"><ele>180.4</ele><time>2026-04-05T08:06:58.977Z</time></trkpt><trkpt lat="45.576704002500584" lon="9.093618684766803"><ele>180.2</ele><time>2026-04-05T08:07:00.977Z</time></trkpt><trkpt lat="45.57661398635947" lon="9.093666358575414"><ele>180.0</ele><time>2026-04-05T08:07:02.977Z</time></trkpt><trkpt lat="45.57651831389008" lon="9.093717959352672"><ele>180.0</ele><time>2026-04-05T08:07:04.977Z</time></trkpt><trkpt lat="45.57641804005659" lon="9.093781425252605"><ele>180.0</ele><time>2026-04-05T08:07:06.977Z</time></trkpt><trkpt lat="45.57633107666902" lon="9.09383347079417"><ele>180.0</ele><time>2026-04-05T08:07:08.977Z</time></trkpt><trkpt lat="45.57623485825869" lon="9.093864695535444"><ele>180.0</ele><time>2026-04-05T08:07:10.977Z</time></trkpt><trkpt lat="45.57617029812757" lon="9.093857038392262"><ele>180.0</ele><time>2026-04-05T08:07:11.977Z</time></trkpt><trkpt lat="45.57606191051879" lon="9.09385638890378"><ele>179.8</ele><time>2026-04-05T08:07:13.977Z</time></trkpt><trkpt lat="45.575959514489185" lon="9.093830957189189"><ele>179.6</ele><time>2026-04-05T08:07:15.977Z</time></trkpt><trkpt lat="45.5758522825336" lon="9.093790481058226"><ele>179.39999999999998</ele><time>2026-04-05T08:07:17.977Z</time></trkpt><trkpt lat="45.57576366648654" lon="9.093774241055367"><ele>179.2</ele><time>2026-04-05T08:07:19.976Z</time></trkpt><trkpt lat="45.57568187309281" lon="9.093762778248385"><ele>179.0</ele><time>2026-04-05T08:07:21.976Z</time></trkpt><trkpt lat="45.57559350590759" lon="9.093763451293777"><ele>179.0</ele><time>2026-04-05T08:07:24.976Z</time></trkpt><trkpt lat="45.57551817130101" lon="9.093784883882314"><ele>179.0</ele><time>2026-04-05T08:07:27.976Z</time></trkpt><trkpt lat="45.57544037692658" lon="9.093799309358259"><ele>179.0</ele><time>2026-04-05T08:07:32.976Z</time></trkpt><trkpt lat="45.57535005510485" lon="9.093790250254445"><ele>179.0</ele><time>2026-04-05T08:07:35.976Z</time></trkpt><trkpt lat="45.57529075238188" lon="9.093835420364101"><ele>179.0</ele><time>2026-04-05T08:07:38.976Z</time></trkpt><trkpt lat="45.57526325440559" lon="9.09392978102443"><ele>179.0</ele><time>2026-04-05T08:07:41.976Z</time></trkpt><trkpt lat="45.57519639112138" lon="9.094029072771791"><ele>178.83333333333331</ele><time>2026-04-05T08:07:44.976Z</time></trkpt><trkpt lat="45.57512383150129" lon="9.094093071092475"><ele>178.66666666666666</ele><time>2026-04-05T08:07:46.976Z</time></trkpt><trkpt lat="45.57505645517659" lon="9.0941349038345"><ele>178.5</ele><time>2026-04-05T08:07:48.976Z</time></trkpt><trkpt lat="45.574976396676774" lon="9.094149390334223"><ele>178.33333333333334</ele><time>2026-04-05T08:07:50.976Z</time></trkpt><trkpt lat="45.57489943969768" lon="9.094175849769401"><ele>178.16666666666669</ele><time>2026-04-05T08:07:52.976Z</time></trkpt><trkpt lat="45.574806215405324" lon="9.094193564239573"><ele>178.0</ele><time>2026-04-05T08:07:54.976Z</time></trkpt><trkpt lat="45.57471376889775" lon="9.094189743221145"><ele>178.0</ele><time>2026-04-05T08:07:56.976Z</time></trkpt><trkpt lat="45.57462101545428" lon="9.094152434169738"><ele>178.0</ele><time>2026-04-05T08:07:58.976Z</time></trkpt><trkpt lat="45.57453325563003" lon="9.094125761764117"><ele>178.0</ele><time>2026-04-05T08:08:00.976Z</time></trkpt><trkpt lat="45.5744353330476" lon="9.094162463044857"><ele>178.0</ele><time>2026-04-05T08:08:03.976Z</time></trkpt><trkpt lat="45.57436416900987" lon="9.094179710310001"><ele>178.0</ele><time>2026-04-05T08:08:05.976Z</time></trkpt><trkpt lat="45.57427870870571" lon="9.094180976367246"><ele>178.0</ele><time>2026-04-05T08:08:07.976Z</time></trkpt><trkpt lat="45.57420514211748" lon="9.094197223953959"><ele>178.0</ele><time>2026-04-05T08:08:09.976Z</time></trkpt><trkpt lat="45.57410499686188" lon="9.094205127179967"><ele>178.0</ele><time>2026-04-05T08:08:11.977Z</time></trkpt><trkpt lat="45.57401067548277" lon="9.094221272395732"><ele>178.0</ele><time>2026-04-05T08:08:13.976Z</time></trkpt><trkpt lat="45.573918735360465" lon="9.094248575981212"><ele>178.0</ele><time>2026-04-05T08:08:15.976Z</time></trkpt><trkpt lat="45.57385246005537" lon="9.094241169622068"><ele>178.0</ele><time>2026-04-05T08:08:16.977Z</time></trkpt><trkpt lat="45.57378180823383" lon="9.094234009811029"><ele>178.0</ele><time>2026-04-05T08:08:17.977Z</time></trkpt><trkpt lat="45.57367804362169" lon="9.09421352699911"><ele>177.2</ele><time>2026-04-05T08:08:19.977Z</time></trkpt><trkpt lat="45.57357302773118" lon="9.094218183075014"><ele>176.4</ele><time>2026-04-05T08:08:21.976Z</time></trkpt><trkpt lat="45.57346925874307" lon="9.094246555346826"><ele>175.6</ele><time>2026-04-05T08:08:24.976Z</time></trkpt><trkpt lat="45.573386933728386" lon="9.094272808983385"><ele>174.79999999999998</ele><time>2026-04-05T08:08:26.976Z</time></trkpt><trkpt lat="45.57327055401692" lon="9.09426480329295"><ele>174.0</ele><time>2026-04-05T08:08:29.976Z</time></trkpt><trkpt lat="45.5731614836859" lon="9.09425035292841"><ele>174.0</ele><time>2026-04-05T08:08:31.976Z</time></trkpt><trkpt lat="45.57305114569314" lon="9.094221507572305"><ele>174.0</ele><time>2026-04-05T08:08:33.976Z</time></trkpt><trkpt lat="45.57295113894475" lon="9.094177882434902"><ele>174.0</ele><time>2026-04-05T08:08:35.976Z</time></trkpt><trkpt lat="45.57284157524891" lon="9.094134947094606"><ele>174.0</ele><time>2026-04-05T08:08:37.976Z</time></trkpt><trkpt lat="45.57273558961836" lon="9.094064736463437"><ele>174.0</ele><time>2026-04-05T08:08:39.976Z</time></trkpt><trkpt lat="45.572641088366645" lon="9.093987281051572"><ele>174.0</ele><time>2026-04-05T08:08:41.976Z</time></trkpt><trkpt lat="45.57255355930892" lon="9.093904197558652"><ele>174.0</ele><time>2026-04-05T08:08:43.976Z</time></trkpt><trkpt lat="45.572479799179845" lon="9.093803426569522"><ele>174.0</ele><time>2026-04-05T08:08:45.976Z</time></trkpt><trkpt lat="45.572415917188465" lon="9.093698368668777"><ele>174.0</ele><time>2026-04-05T08:08:47.976Z</time></trkpt><trkpt lat="45.572359669527486" lon="9.093601959259907"><ele>174.0</ele><time>2026-04-05T08:08:49.976Z</time></trkpt><trkpt lat="45.572295582333844" lon="9.093505286560678"><ele>174.0</ele><time>2026-04-05T08:08:51.976Z</time></trkpt><trkpt lat="45.572241055812874" lon="9.093410829678497"><ele>174.0</ele><time>2026-04-05T08:08:53.976Z</time></trkpt><trkpt lat="45.57217913556925" lon="9.093297971776938"><ele>174.0</ele><time>2026-04-05T08:08:55.976Z</time></trkpt><trkpt lat="45.57212430295969" lon="9.093189412728123"><ele>174.0</ele><time>2026-04-05T08:08:57.976Z</time></trkpt><trkpt lat="45.57206520235541" lon="9.093095800196224"><ele>174.0</ele><time>2026-04-05T08:08:59.976Z</time></trkpt><trkpt lat="45.57200474501133" lon="9.09301128623542"><ele>174.5</ele><time>2026-04-05T08:09:01.975Z</time></trkpt><trkpt lat="45.57194958059821" lon="9.092906485181132"><ele>175.0</ele><time>2026-04-05T08:09:03.975Z</time></trkpt><trkpt lat="45.57190127792291" lon="9.092813675705534"><ele>175.5</ele><time>2026-04-05T08:09:05.975Z</time></trkpt><trkpt lat="45.57184193229482" lon="9.092715720678742"><ele>176.0</ele><time>2026-04-05T08:09:07.975Z</time></trkpt><trkpt lat="45.571801758040806" lon="9.092628736813415"><ele>176.5</ele><time>2026-04-05T08:09:09.975Z</time></trkpt><trkpt lat="45.57176082071225" lon="9.092557643916647"><ele>177.0</ele><time>2026-04-05T08:09:11.975Z</time></trkpt><trkpt lat="45.57171757825168" lon="9.09247037526385"><ele>176.8</ele><time>2026-04-05T08:09:13.975Z</time></trkpt><trkpt lat="45.571679544582" lon="9.092368667525818"><ele>176.6</ele><time>2026-04-05T08:09:15.975Z</time></trkpt><trkpt lat="45.571601636389474" lon="9.09226463822085"><ele>176.4</ele><time>2026-04-05T08:09:17.975Z</time></trkpt><trkpt lat="45.57153663896851" lon="9.092163820815083"><ele>176.20000000000002</ele><time>2026-04-05T08:09:19.975Z</time></trkpt><trkpt lat="45.571470654158006" lon="9.092067785474276"><ele>176.0</ele><time>2026-04-05T08:09:21.975Z</time></trkpt><trkpt lat="45.571415422721564" lon="9.091979664341324"><ele>176.0</ele><time>2026-04-05T08:09:23.975Z</time></trkpt><trkpt lat="45.57135658560835" lon="9.09189218560566"><ele>176.0</ele><time>2026-04-05T08:09:26.975Z</time></trkpt><trkpt lat="45.57130586755017" lon="9.091835268115565"><ele>176.0</ele><time>2026-04-05T08:09:28.975Z</time></trkpt><trkpt lat="45.57123072792534" lon="9.091756370737691"><ele>176.0</ele><time>2026-04-05T08:09:31.975Z</time></trkpt><trkpt lat="45.57115917830434" lon="9.091709769258674"><ele>176.0</ele><time>2026-04-05T08:09:36.975Z</time></trkpt><trkpt lat="45.57107142335001" lon="9.091740987814536"><ele>176.0</ele><time>2026-04-05T08:09:42.975Z</time></trkpt><trkpt lat="45.5710102298597" lon="9.09184399912135"><ele>176.16666666666666</ele><time>2026-04-05T08:09:45.975Z</time></trkpt><trkpt lat="45.57095846730406" lon="9.091917792848871"><ele>176.33333333333331</ele><time>2026-04-05T08:09:48.975Z</time></trkpt><trkpt lat="45.57089798814255" lon="9.091990466500123"><ele>176.5</ele><time>2026-04-05T08:09:50.975Z</time></trkpt><trkpt lat="45.57083706397657" lon="9.092045147270737"><ele>176.66666666666666</ele><time>2026-04-05T08:09:52.975Z</time></trkpt><trkpt lat="45.57074889332" lon="9.092103100705609"><ele>176.83333333333334</ele><time>2026-04-05T08:09:54.974Z</time></trkpt><trkpt lat="45.570705526171174" lon="9.09219235551018"><ele>177.0</ele><time>2026-04-05T08:09:56.974Z</time></trkpt><trkpt lat="45.57065742849843" lon="9.092291400875313"><ele>177.0</ele><time>2026-04-05T08:09:58.974Z</time></trkpt><trkpt lat="45.570579260154226" lon="9.092377670993704"><ele>177.0</ele><time>2026-04-05T08:10:00.974Z</time></trkpt><trkpt lat="45.57051542300694" lon="9.092459304926589"><ele>177.0</ele><time>2026-04-05T08:10:02.974Z</time></trkpt><trkpt lat="45.57045902689941" lon="9.092508092865401"><ele>177.0</ele><time>2026-04-05T08:10:03.974Z</time></trkpt><trkpt lat="45.570364247366264" lon="9.092607969957292"><ele>177.0</ele><time>2026-04-05T08:10:05.974Z</time></trkpt><trkpt lat="45.57027602286901" lon="9.09269790529254"><ele>176.6</ele><time>2026-04-05T08:10:07.974Z</time></trkpt><trkpt lat="45.57019591062906" lon="9.092781375495743"><ele>176.2</ele><time>2026-04-05T08:10:09.974Z</time></trkpt><trkpt lat="45.570122962423945" lon="9.092861966214532"><ele>175.8</ele><time>2026-04-05T08:10:11.974Z</time></trkpt><trkpt lat="45.57005572141542" lon="9.09295593190087"><ele>175.4</ele><time>2026-04-05T08:10:13.974Z</time></trkpt><trkpt lat="45.56998408374503" lon="9.093034387396894"><ele>175.0</ele><time>2026-04-05T08:10:15.975Z</time></trkpt><trkpt lat="45.56990683547926" lon="9.09313688853394"><ele>175.0</ele><time>2026-04-05T08:10:17.976Z</time></trkpt><trkpt lat="45.569832331770364" lon="9.09322665527199"><ele>175.0</ele><time>2026-04-05T08:10:19.976Z</time></trkpt><trkpt lat="45.56975862210838" lon="9.093313376379601"><ele>175.0</ele><time>2026-04-05T08:10:21.976Z</time></trkpt><trkpt lat="45.56966833295001" lon="9.093401278533454"><ele>175.0</ele><time>2026-04-05T08:10:23.976Z</time></trkpt><trkpt lat="45.569599535320734" lon="9.093498791927967"><ele>175.0</ele><time>2026-04-05T08:10:25.976Z</time></trkpt><trkpt lat="45.56950006315541" lon="9.093591124791086"><ele>174.8</ele><time>2026-04-05T08:10:27.975Z</time></trkpt><trkpt lat="45.56941154468157" lon="9.093682987718077"><ele>174.6</ele><time>2026-04-05T08:10:29.976Z</time></trkpt><trkpt lat="45.56933531808096" lon="9.093769602324647"><ele>174.39999999999998</ele><time>2026-04-05T08:10:31.976Z</time></trkpt><trkpt lat="45.569251203842256" lon="9.093864694691494"><ele>174.2</ele><time>2026-04-05T08:10:33.976Z</time></trkpt><trkpt lat="45.569172998226165" lon="9.09396037118195"><ele>174.0</ele><time>2026-04-05T08:10:35.976Z</time></trkpt><trkpt lat="45.56909242140577" lon="9.094054062124194"><ele>174.0</ele><time>2026-04-05T08:10:37.976Z</time></trkpt><trkpt lat="45.569009108828816" lon="9.094142339997198"><ele>174.0</ele><time>2026-04-05T08:10:39.976Z</time></trkpt><trkpt lat="45.5689413320077" lon="9.094227193622565"><ele>174.0</ele><time>2026-04-05T08:10:41.976Z</time></trkpt><trkpt lat="45.56886739084911" lon="9.094316306501266"><ele>174.0</ele><time>2026-04-05T08:10:43.976Z</time></trkpt><trkpt lat="45.568792108969795" lon="9.094400955336026"><ele>174.0</ele><time>2026-04-05T08:10:45.976Z</time></trkpt><trkpt lat="45.56871877207911" lon="9.094470950978323"><ele>174.0</ele><time>2026-04-05T08:10:47.976Z</time></trkpt><trkpt lat="45.56866651491277" lon="9.094550781341937"><ele>174.0</ele><time>2026-04-05T08:10:49.976Z</time></trkpt><trkpt lat="45.56860228659208" lon="9.094620457160284"><ele>174.0</ele><time>2026-04-05T08:10:51.976Z</time></trkpt><trkpt lat="45.56854858601832" lon="9.094686491532576"><ele>174.0</ele><time>2026-04-05T08:10:53.976Z</time></trkpt><trkpt lat="45.56849871722968" lon="9.094749348390579"><ele>174.0</ele><time>2026-04-05T08:10:55.975Z</time></trkpt><trkpt lat="45.568411856094045" lon="9.094841193156375"><ele>174.0</ele><time>2026-04-05T08:10:57.975Z</time></trkpt><trkpt lat="45.56831684920718" lon="9.094924174594253"><ele>174.0</ele><time>2026-04-05T08:10:59.975Z</time></trkpt><trkpt lat="45.56823487127785" lon="9.095009305886643"><ele>174.0</ele><time>2026-04-05T08:11:01.975Z</time></trkpt><trkpt lat="45.568148512873" lon="9.095098356788966"><ele>174.0</ele><time>2026-04-05T08:11:03.975Z</time></trkpt><trkpt lat="45.56806896830042" lon="9.095179244994297"><ele>174.0</ele><time>2026-04-05T08:11:05.975Z</time></trkpt><trkpt lat="45.56799252927974" lon="9.09527301316619"><ele>174.0</ele><time>2026-04-05T08:11:07.975Z</time></trkpt><trkpt lat="45.56791091914209" lon="9.095354038158089"><ele>173.79999999999998</ele><time>2026-04-05T08:11:09.975Z</time></trkpt><trkpt lat="45.56783444619232" lon="9.095429456556747"><ele>173.6</ele><time>2026-04-05T08:11:11.975Z</time></trkpt><trkpt lat="45.56775422576364" lon="9.095512835215677"><ele>173.4</ele><time>2026-04-05T08:11:13.975Z</time></trkpt><trkpt lat="45.56768010063607" lon="9.095586429277882"><ele>173.2</ele><time>2026-04-05T08:11:15.975Z</time></trkpt><trkpt lat="45.56760853727701" lon="9.095681311468221"><ele>173.0</ele><time>2026-04-05T08:11:17.975Z</time></trkpt><trkpt lat="45.56753352390642" lon="9.095766212176581"><ele>172.8</ele><time>2026-04-05T08:11:19.975Z</time></trkpt><trkpt lat="45.56745050238782" lon="9.095846272146874"><ele>172.60000000000002</ele><time>2026-04-05T08:11:21.975Z</time></trkpt><trkpt lat="45.56737034284302" lon="9.095924785864732"><ele>172.39999999999998</ele><time>2026-04-05T08:11:23.975Z</time></trkpt><trkpt lat="45.56730717083471" lon="9.096003318499843"><ele>172.2</ele><time>2026-04-05T08:11:25.975Z</time></trkpt><trkpt lat="45.567227453103335" lon="9.096084760949557"><ele>172.0</ele><time>2026-04-05T08:11:27.975Z</time></trkpt><trkpt lat="45.5671589249127" lon="9.096174010170513"><ele>172.0</ele><time>2026-04-05T08:11:29.975Z</time></trkpt><trkpt lat="45.56707684321346" lon="9.09625289184853"><ele>172.0</ele><time>2026-04-05T08:11:31.975Z</time></trkpt><trkpt lat="45.566994340706366" lon="9.096337993203337"><ele>172.0</ele><time>2026-04-05T08:11:33.975Z</time></trkpt><trkpt lat="45.566922646122265" lon="9.096426711329315"><ele>172.0</ele><time>2026-04-05T08:11:35.975Z</time></trkpt><trkpt lat="45.56683978277105" lon="9.096514344691021"><ele>172.0</ele><time>2026-04-05T08:11:37.975Z</time></trkpt><trkpt lat="45.56678000659461" lon="9.096587166878988"><ele>172.0</ele><time>2026-04-05T08:11:39.975Z</time></trkpt><trkpt lat="45.566727317303204" lon="9.096649502675929"><ele>172.0</ele><time>2026-04-05T08:11:41.975Z</time></trkpt><trkpt lat="45.5666789522982" lon="9.09675937661056"><ele>172.0</ele><time>2026-04-05T08:11:44.975Z</time></trkpt><trkpt lat="45.56664848521746" lon="9.096840009559228"><ele>172.0</ele><time>2026-04-05T08:11:45.975Z</time></trkpt><trkpt lat="45.56658973449151" lon="9.096988397394082"><ele>172.0</ele><time>2026-04-05T08:11:47.974Z</time></trkpt><trkpt lat="45.566525706894616" lon="9.0971178146347"><ele>172.0</ele><time>2026-04-05T08:11:49.974Z</time></trkpt><trkpt lat="45.56646839761937" lon="9.097234298962416"><ele>172.0</ele><time>2026-04-05T08:11:51.974Z</time></trkpt><trkpt lat="45.566416749873916" lon="9.097333537001207"><ele>172.0</ele><time>2026-04-05T08:11:53.974Z</time></trkpt><trkpt lat="45.566371563095" lon="9.097460863537496"><ele>172.0</ele><time>2026-04-05T08:11:55.974Z</time></trkpt><trkpt lat="45.566316442734916" lon="9.09756608164619"><ele>172.0</ele><time>2026-04-05T08:11:57.974Z</time></trkpt><trkpt lat="45.56626094196498" lon="9.09766996300549"><ele>172.0</ele><time>2026-04-05T08:11:59.974Z</time></trkpt><trkpt lat="45.56623417084701" lon="9.097759103665355"><ele>172.0</ele><time>2026-04-05T08:12:01.974Z</time></trkpt><trkpt lat="45.56616908576001" lon="9.097853813813751"><ele>172.0</ele><time>2026-04-05T08:12:03.974Z</time></trkpt><trkpt lat="45.5661265064946" lon="9.097966875573839"><ele>172.0</ele><time>2026-04-05T08:12:05.836Z</time></trkpt><trkpt lat="45.56608931248508" lon="9.098081864749892"><ele>172.0</ele><time>2026-04-05T08:12:07.836Z</time></trkpt><trkpt lat="45.5660480965897" lon="9.098202387625799"><ele>172.0</ele><time>2026-04-05T08:12:09.836Z</time></trkpt><trkpt lat="45.566009964810284" lon="9.098309888182776"><ele>172.0</ele><time>2026-04-05T08:12:11.836Z</time></trkpt><trkpt lat="45.56595686661529" lon="9.09840780776415"><ele>172.0</ele><time>2026-04-05T08:12:13.836Z</time></trkpt><trkpt lat="45.56588041245152" lon="9.098492624109692"><ele>172.0</ele><time>2026-04-05T08:12:15.837Z</time></trkpt><trkpt lat="45.56579157679541" lon="9.098566853681286"><ele>172.0</ele><time>2026-04-05T08:12:17.837Z</time></trkpt><trkpt lat="45.565717321566716" lon="9.09864580188255"><ele>172.0</ele><time>2026-04-05T08:12:19.837Z</time></trkpt><trkpt lat="45.56563893073228" lon="9.098709827728927"><ele>172.0</ele><time>2026-04-05T08:12:21.838Z</time></trkpt><trkpt lat="45.56555394867846" lon="9.098751343270662"><ele>172.0</ele><time>2026-04-05T08:12:23.837Z</time></trkpt><trkpt lat="45.565441525997386" lon="9.098790026396046"><ele>172.0</ele><time>2026-04-05T08:12:25.837Z</time></trkpt><trkpt lat="45.565357038051125" lon="9.098855122185801"><ele>172.0</ele><time>2026-04-05T08:12:27.837Z</time></trkpt><trkpt lat="45.56532756103149" lon="9.098951852976192"><ele>172.0</ele><time>2026-04-05T08:12:30.838Z</time></trkpt><trkpt lat="45.56531079342413" lon="9.09906398871495"><ele>172.0</ele><time>2026-04-05T08:12:32.838Z</time></trkpt><trkpt lat="45.56528119650141" lon="9.09915940803539"><ele>172.0</ele><time>2026-04-05T08:12:34.837Z</time></trkpt><trkpt lat="45.565214616871515" lon="9.099235599839975"><ele>172.0</ele><time>2026-04-05T08:12:36.837Z</time></trkpt><trkpt lat="45.565145601479465" lon="9.099297526981157"><ele>172.0</ele><time>2026-04-05T08:12:38.837Z</time></trkpt><trkpt lat="45.56506117852638" lon="9.09935354310163"><ele>172.0</ele><time>2026-04-05T08:12:40.837Z</time></trkpt><trkpt lat="45.565004543718565" lon="9.099418902732364"><ele>172.0</ele><time>2026-04-05T08:12:42.837Z</time></trkpt><trkpt lat="45.56495052983543" lon="9.099473978457564"><ele>172.0</ele><time>2026-04-05T08:12:44.837Z</time></trkpt><trkpt lat="45.56486586807234" lon="9.099535380977803"><ele>172.0</ele><time>2026-04-05T08:12:47.837Z</time></trkpt><trkpt lat="45.56479109048783" lon="9.099588299136713"><ele>172.0</ele><time>2026-04-05T08:12:49.837Z</time></trkpt><trkpt lat="45.564726474702226" lon="9.099637855114166"><ele>172.0</ele><time>2026-04-05T08:12:51.837Z</time></trkpt><trkpt lat="45.564641968521876" lon="9.099733608931075"><ele>172.0</ele><time>2026-04-05T08:12:53.837Z</time></trkpt><trkpt lat="45.564541136619894" lon="9.0997986621032"><ele>171.6</ele><time>2026-04-05T08:12:55.837Z</time></trkpt><trkpt lat="45.56445013915079" lon="9.099849628960444"><ele>171.2</ele><time>2026-04-05T08:12:57.836Z</time></trkpt><trkpt lat="45.5643740212801" lon="9.099911505563576"><ele>170.8</ele><time>2026-04-05T08:12:59.836Z</time></trkpt><trkpt lat="45.564288451923865" lon="9.099985945349069"><ele>170.4</ele><time>2026-04-05T08:13:02.836Z</time></trkpt><trkpt lat="45.56419910115825" lon="9.10004898520014"><ele>170.0</ele><time>2026-04-05T08:13:04.836Z</time></trkpt><trkpt lat="45.564137646009854" lon="9.10010464031897"><ele>170.0</ele><time>2026-04-05T08:13:06.836Z</time></trkpt><trkpt lat="45.564093535914274" lon="9.100204812965105"><ele>170.0</ele><time>2026-04-05T08:13:08.836Z</time></trkpt><trkpt lat="45.564046662710176" lon="9.100295062988504"><ele>170.0</ele><time>2026-04-05T08:13:10.836Z</time></trkpt><trkpt lat="45.563994611617574" lon="9.100384289669105"><ele>170.0</ele><time>2026-04-05T08:13:12.836Z</time></trkpt><trkpt lat="45.563946350426605" lon="9.100494926768471"><ele>170.0</ele><time>2026-04-05T08:13:14.836Z</time></trkpt><trkpt lat="45.56388969405919" lon="9.10059070053441"><ele>170.0</ele><time>2026-04-05T08:13:16.836Z</time></trkpt><trkpt lat="45.56382072186758" lon="9.100637432151835"><ele>170.0</ele><time>2026-04-05T08:13:18.835Z</time></trkpt><trkpt lat="45.56373869505926" lon="9.100663920840312"><ele>170.0</ele><time>2026-04-05T08:13:20.835Z</time></trkpt><trkpt lat="45.56367102181224" lon="9.100708767533165"><ele>170.0</ele><time>2026-04-05T08:13:22.835Z</time></trkpt><trkpt lat="45.563598542199585" lon="9.100772447051616"><ele>170.0</ele><time>2026-04-05T08:13:24.835Z</time></trkpt><trkpt lat="45.56355300169519" lon="9.100867077371225"><ele>170.0</ele><time>2026-04-05T08:13:26.835Z</time></trkpt><trkpt lat="45.56351931722618" lon="9.100971435033896"><ele>170.0</ele><time>2026-04-05T08:13:28.835Z</time></trkpt><trkpt lat="45.563488207724234" lon="9.101073834561772"><ele>169.66666666666666</ele><time>2026-04-05T08:13:30.835Z</time></trkpt><trkpt lat="45.563462928218875" lon="9.101181117802788"><ele>169.33333333333331</ele><time>2026-04-05T08:13:32.835Z</time></trkpt><trkpt lat="45.56344284089808" lon="9.101287664819582"><ele>169.0</ele><time>2026-04-05T08:13:34.835Z</time></trkpt><trkpt lat="45.563412427593185" lon="9.101390924450287"><ele>168.66666666666666</ele><time>2026-04-05T08:13:36.835Z</time></trkpt><trkpt lat="45.563383107471964" lon="9.101493471050842"><ele>168.33333333333334</ele><time>2026-04-05T08:13:38.834Z</time></trkpt><trkpt lat="45.56335580746736" lon="9.101593135584093"><ele>168.0</ele><time>2026-04-05T08:13:40.834Z</time></trkpt><trkpt lat="45.56330698482319" lon="9.101707271770517"><ele>168.0</ele><time>2026-04-05T08:13:42.834Z</time></trkpt><trkpt lat="45.56328559513549" lon="9.101819465739437"><ele>168.0</ele><time>2026-04-05T08:13:44.834Z</time></trkpt><trkpt lat="45.563263370028096" lon="9.101920394146289"><ele>168.0</ele><time>2026-04-05T08:13:46.834Z</time></trkpt><trkpt lat="45.56322338539686" lon="9.10203193551285"><ele>168.0</ele><time>2026-04-05T08:13:48.834Z</time></trkpt><trkpt lat="45.563202705980956" lon="9.102130810404876"><ele>168.0</ele><time>2026-04-05T08:13:50.834Z</time></trkpt><trkpt lat="45.56316708359487" lon="9.102229086825544"><ele>168.0</ele><time>2026-04-05T08:13:52.834Z</time></trkpt><trkpt lat="45.563128563867096" lon="9.102313061652541"><ele>168.0</ele><time>2026-04-05T08:13:55.834Z</time></trkpt><trkpt lat="45.563062054432535" lon="9.102256874981276"><ele>168.0</ele><time>2026-04-05T08:13:58.833Z</time></trkpt><trkpt lat="45.56303985566662" lon="9.102164450677177"><ele>168.0</ele><time>2026-04-05T08:14:00.833Z</time></trkpt><trkpt lat="45.56305930187039" lon="9.10203551912925"><ele>168.0</ele><time>2026-04-05T08:14:03.833Z</time></trkpt><trkpt lat="45.563071892852776" lon="9.101930378641228"><ele>168.0</ele><time>2026-04-05T08:14:05.833Z</time></trkpt><trkpt lat="45.56309374890972" lon="9.101806884744791"><ele>168.0</ele><time>2026-04-05T08:14:08.833Z</time></trkpt><trkpt lat="45.563107188448384" lon="9.101693145259036"><ele>168.0</ele><time>2026-04-05T08:14:10.833Z</time></trkpt><trkpt lat="45.5631228605149" lon="9.101571237356072"><ele>168.0</ele><time>2026-04-05T08:14:12.833Z</time></trkpt><trkpt lat="45.563115856736054" lon="9.101420802158199"><ele>168.0</ele><time>2026-04-05T08:14:14.833Z</time></trkpt><trkpt lat="45.56309981146132" lon="9.101273993195498"><ele>168.0</ele><time>2026-04-05T08:14:16.833Z</time></trkpt><trkpt lat="45.563047563054106" lon="9.101115800967893"><ele>168.0</ele><time>2026-04-05T08:14:18.832Z</time></trkpt><trkpt lat="45.56301027676493" lon="9.10099847583226"><ele>168.0</ele><time>2026-04-05T08:14:20.832Z</time></trkpt><trkpt lat="45.56299425629275" lon="9.100878066458524"><ele>168.0</ele><time>2026-04-05T08:14:23.832Z</time></trkpt><trkpt lat="45.56295864300836" lon="9.100753732802639"><ele>168.0</ele><time>2026-04-05T08:14:25.832Z</time></trkpt><trkpt lat="45.56287462773005" lon="9.100621783251954"><ele>168.0</ele><time>2026-04-05T08:14:27.834Z</time></trkpt><trkpt lat="45.56278643925895" lon="9.100513961288355"><ele>168.0</ele><time>2026-04-05T08:14:29.834Z</time></trkpt><trkpt lat="45.562713582254815" lon="9.100421736668618"><ele>167.5</ele><time>2026-04-05T08:14:31.834Z</time></trkpt><trkpt lat="45.562649075763055" lon="9.10036246197851"><ele>167.0</ele><time>2026-04-05T08:14:33.834Z</time></trkpt><trkpt lat="45.56256403812347" lon="9.100271531529694"><ele>166.5</ele><time>2026-04-05T08:14:35.834Z</time></trkpt><trkpt lat="45.56251230350756" lon="9.100190011941303"><ele>166.0</ele><time>2026-04-05T08:14:37.833Z</time></trkpt><trkpt lat="45.56247015309418" lon="9.100120565683044"><ele>165.5</ele><time>2026-04-05T08:14:39.834Z</time></trkpt><trkpt lat="45.56242158380904" lon="9.10004131397064"><ele>165.0</ele><time>2026-04-05T08:14:41.833Z</time></trkpt><trkpt lat="45.56235937849613" lon="9.099975819421317"><ele>164.83333333333334</ele><time>2026-04-05T08:14:43.833Z</time></trkpt><trkpt lat="45.56231381519614" lon="9.099906354392026"><ele>164.66666666666666</ele><time>2026-04-05T08:14:45.833Z</time></trkpt><trkpt lat="45.562253911683534" lon="9.099814877793504"><ele>164.5</ele><time>2026-04-05T08:14:48.833Z</time></trkpt><trkpt lat="45.56219556063541" lon="9.099769415228938"><ele>164.33333333333331</ele><time>2026-04-05T08:14:50.833Z</time></trkpt><trkpt lat="45.562118236023714" lon="9.099698607018254"><ele>164.16666666666666</ele><time>2026-04-05T08:14:53.833Z</time></trkpt><trkpt lat="45.562057560655155" lon="9.099665130858924"><ele>164.0</ele><time>2026-04-05T08:14:55.832Z</time></trkpt><trkpt lat="45.56196994041362" lon="9.099595884064376"><ele>165.0</ele><time>2026-04-05T08:14:57.832Z</time></trkpt><trkpt lat="45.56187678299519" lon="9.099527787039271"><ele>166.0</ele><time>2026-04-05T08:14:59.832Z</time></trkpt><trkpt lat="45.56178263794061" lon="9.09945369990702"><ele>167.0</ele><time>2026-04-05T08:15:01.832Z</time></trkpt><trkpt lat="45.56169767103818" lon="9.099388434681456"><ele>168.0</ele><time>2026-04-05T08:15:03.832Z</time></trkpt><trkpt lat="45.56162476758975" lon="9.099322012921808"><ele>169.0</ele><time>2026-04-05T08:15:05.832Z</time></trkpt><trkpt lat="45.56156882916836" lon="9.099268105700425"><ele>169.0</ele><time>2026-04-05T08:15:07.832Z</time></trkpt><trkpt lat="45.56150054720225" lon="9.099213443702698"><ele>169.0</ele><time>2026-04-05T08:15:09.832Z</time></trkpt><trkpt lat="45.561416639205014" lon="9.099164919331932"><ele>169.0</ele><time>2026-04-05T08:15:11.832Z</time></trkpt><trkpt lat="45.56132543596744" lon="9.099090882898718"><ele>169.0</ele><time>2026-04-05T08:15:13.832Z</time></trkpt><trkpt lat="45.561236821518825" lon="9.099013585304016"><ele>169.0</ele><time>2026-04-05T08:15:15.831Z</time></trkpt><trkpt lat="45.56114650517233" lon="9.09894534870369"><ele>169.2</ele><time>2026-04-05T08:15:17.831Z</time></trkpt><trkpt lat="45.5610564314195" lon="9.098882274037319"><ele>169.39999999999998</ele><time>2026-04-05T08:15:19.831Z</time></trkpt><trkpt lat="45.56096921759847" lon="9.098822033984794"><ele>169.6</ele><time>2026-04-05T08:15:21.831Z</time></trkpt><trkpt lat="45.56088336344912" lon="9.098766891871128"><ele>169.8</ele><time>2026-04-05T08:15:23.831Z</time></trkpt><trkpt lat="45.56079970972489" lon="9.098730684568718"><ele>170.0</ele><time>2026-04-05T08:15:25.831Z</time></trkpt><trkpt lat="45.560725827163665" lon="9.098673736995728"><ele>170.0</ele><time>2026-04-05T08:15:27.831Z</time></trkpt><trkpt lat="45.56065914424191" lon="9.0986045552175"><ele>170.0</ele><time>2026-04-05T08:15:29.831Z</time></trkpt><trkpt lat="45.56059657856643" lon="9.0985463074902"><ele>170.0</ele><time>2026-04-05T08:15:31.831Z</time></trkpt><trkpt lat="45.56052920891053" lon="9.098495953812147"><ele>170.0</ele><time>2026-04-05T08:15:33.831Z</time></trkpt><trkpt lat="45.56043937554268" lon="9.098429905366713"><ele>170.0</ele><time>2026-04-05T08:15:36.83Z</time></trkpt><trkpt lat="45.56036221688555" lon="9.09837147824662"><ele>170.0</ele><time>2026-04-05T08:15:38.83Z</time></trkpt><trkpt lat="45.56029421631246" lon="9.098332151930178"><ele>169.66666666666666</ele><time>2026-04-05T08:15:40.83Z</time></trkpt><trkpt lat="45.56022855104891" lon="9.0982972378896"><ele>169.33333333333331</ele><time>2026-04-05T08:15:42.83Z</time></trkpt><trkpt lat="45.560151878184804" lon="9.098225594959706"><ele>169.0</ele><time>2026-04-05T08:15:45.83Z</time></trkpt><trkpt lat="45.56008011420105" lon="9.09817869162724"><ele>168.66666666666666</ele><time>2026-04-05T08:15:49.83Z</time></trkpt><trkpt lat="45.56001941601807" lon="9.098124664516735"><ele>168.33333333333334</ele><time>2026-04-05T08:15:52.83Z</time></trkpt><trkpt lat="45.55994869066208" lon="9.098075161992154"><ele>168.0</ele><time>2026-04-05T08:15:56.829Z</time></trkpt><trkpt lat="45.55988493812524" lon="9.098080684413828"><ele>168.0</ele><time>2026-04-05T08:16:01.829Z</time></trkpt><trkpt lat="45.55981726182347" lon="9.098108726803899"><ele>168.0</ele><time>2026-04-05T08:16:06.829Z</time></trkpt><trkpt lat="45.559718001027775" lon="9.098149849740404"><ele>168.0</ele><time>2026-04-05T08:16:35.828Z</time></trkpt><trkpt lat="45.55977409214208" lon="9.09808710979014"><ele>168.0</ele><time>2026-04-05T08:19:46.821Z</time></trkpt><trkpt lat="45.559835695074156" lon="9.098055995846423"><ele>168.0</ele><time>2026-04-05T08:19:49.821Z</time></trkpt><trkpt lat="45.55990462880898" lon="9.098039558835849"><ele>168.0</ele><time>2026-04-05T08:19:53.821Z</time></trkpt><trkpt lat="45.55997167446781" lon="9.098097808193062"><ele>168.0</ele><time>2026-04-05T08:19:59.82Z</time></trkpt><trkpt lat="45.559951456119656" lon="9.098210827782319"><ele>168.0</ele><time>2026-04-05T08:20:02.82Z</time></trkpt><trkpt lat="45.55989601482216" lon="9.098301194546233"><ele>168.0</ele><time>2026-04-05T08:20:05.82Z</time></trkpt><trkpt lat="45.55988156650687" lon="9.098400677156482"><ele>168.0</ele><time>2026-04-05T08:20:08.82Z</time></trkpt><trkpt lat="45.559839590837804" lon="9.098502182889463"><ele>168.0</ele><time>2026-04-05T08:20:11.82Z</time></trkpt><trkpt lat="45.55979685725147" lon="9.098587898050955"><ele>168.0</ele><time>2026-04-05T08:20:14.82Z</time></trkpt><trkpt lat="45.559750390673976" lon="9.09867015719367"><ele>168.0</ele><time>2026-04-05T08:20:17.819Z</time></trkpt><trkpt lat="45.559701601173444" lon="9.098741852854085"><ele>168.0</ele><time>2026-04-05T08:20:20.819Z</time></trkpt><trkpt lat="45.559650841299636" lon="9.09880746397201"><ele>168.0</ele><time>2026-04-05T08:20:24.819Z</time></trkpt><trkpt lat="45.559595347794044" lon="9.098871171493649"><ele>168.0</ele><time>2026-04-05T08:20:27.819Z</time></trkpt><trkpt lat="45.55954377274319" lon="9.09894668535637"><ele>168.0</ele><time>2026-04-05T08:20:30.819Z</time></trkpt><trkpt lat="45.55949589960429" lon="9.099008865119666"><ele>168.0</ele><time>2026-04-05T08:20:32.819Z</time></trkpt><trkpt lat="45.55943757484903" lon="9.099083601648184"><ele>168.0</ele><time>2026-04-05T08:20:35.818Z</time></trkpt><trkpt lat="45.55939614985679" lon="9.099153063560191"><ele>167.83333333333334</ele><time>2026-04-05T08:20:37.818Z</time></trkpt><trkpt lat="45.55934268918332" lon="9.099205741207287"><ele>167.66666666666666</ele><time>2026-04-05T08:20:39.818Z</time></trkpt><trkpt lat="45.55928500974406" lon="9.099281196775301"><ele>167.5</ele><time>2026-04-05T08:20:41.818Z</time></trkpt><trkpt lat="45.55923857910871" lon="9.09935469774924"><ele>167.33333333333331</ele><time>2026-04-05T08:20:43.818Z</time></trkpt><trkpt lat="45.55918030703664" lon="9.099412529691907"><ele>167.16666666666666</ele><time>2026-04-05T08:20:45.82Z</time></trkpt><trkpt lat="45.55913437638431" lon="9.099483850080626"><ele>167.0</ele><time>2026-04-05T08:20:47.819Z</time></trkpt><trkpt lat="45.55905991400053" lon="9.099575544221015"><ele>167.0</ele><time>2026-04-05T08:20:50.82Z</time></trkpt><trkpt lat="45.558976702828545" lon="9.099634040024409"><ele>167.0</ele><time>2026-04-05T08:20:52.819Z</time></trkpt><trkpt lat="45.558910674470845" lon="9.0996666806109"><ele>167.0</ele><time>2026-04-05T08:20:54.819Z</time></trkpt><trkpt lat="45.55883830626361" lon="9.099698859646972"><ele>167.0</ele><time>2026-04-05T08:20:56.819Z</time></trkpt><trkpt lat="45.55876820053864" lon="9.099745082661299"><ele>167.0</ele><time>2026-04-05T08:20:58.819Z</time></trkpt><trkpt lat="45.558689039482516" lon="9.09979427874534"><ele>167.0</ele><time>2026-04-05T08:21:00.819Z</time></trkpt><trkpt lat="45.558606006871784" lon="9.099829944553608"><ele>167.16666666666666</ele><time>2026-04-05T08:21:02.819Z</time></trkpt><trkpt lat="45.558522270131284" lon="9.099863051319891"><ele>167.33333333333331</ele><time>2026-04-05T08:21:04.818Z</time></trkpt><trkpt lat="45.55841991671383" lon="9.09989677841137"><ele>167.5</ele><time>2026-04-05T08:21:06.818Z</time></trkpt><trkpt lat="45.55834439987809" lon="9.099932137090084"><ele>167.66666666666666</ele><time>2026-04-05T08:21:08.818Z</time></trkpt><trkpt lat="45.55828198307627" lon="9.099950703845597"><ele>167.83333333333334</ele><time>2026-04-05T08:21:10.818Z</time></trkpt><trkpt lat="45.558202896506366" lon="9.09999953282861"><ele>168.0</ele><time>2026-04-05T08:21:12.818Z</time></trkpt><trkpt lat="45.5581224505003" lon="9.100035356218697"><ele>167.83333333333334</ele><time>2026-04-05T08:21:14.818Z</time></trkpt><trkpt lat="45.5580452440157" lon="9.100063774482047"><ele>167.66666666666666</ele><time>2026-04-05T08:21:16.818Z</time></trkpt><trkpt lat="45.557977978011955" lon="9.100099779429335"><ele>167.5</ele><time>2026-04-05T08:21:18.818Z</time></trkpt><trkpt lat="45.55791045182636" lon="9.100125156722958"><ele>167.33333333333331</ele><time>2026-04-05T08:21:20.818Z</time></trkpt><trkpt lat="45.55784070724088" lon="9.100164561359692"><ele>167.16666666666666</ele><time>2026-04-05T08:21:22.818Z</time></trkpt><trkpt lat="45.557768059754345" lon="9.100200715777174"><ele>167.0</ele><time>2026-04-05T08:21:24.817Z</time></trkpt><trkpt lat="45.55768713888888" lon="9.10023128321865"><ele>167.0</ele><time>2026-04-05T08:21:26.817Z</time></trkpt><trkpt lat="45.55759487636785" lon="9.100260756558116"><ele>167.0</ele><time>2026-04-05T08:21:28.817Z</time></trkpt><trkpt lat="45.557512593518425" lon="9.100273383973471"><ele>167.0</ele><time>2026-04-05T08:21:30.817Z</time></trkpt><trkpt lat="45.557446720799774" lon="9.100307861672956"><ele>167.0</ele><time>2026-04-05T08:21:32.817Z</time></trkpt><trkpt lat="45.55737624736117" lon="9.10033269550987"><ele>167.0</ele><time>2026-04-05T08:21:34.817Z</time></trkpt><trkpt lat="45.55729414103648" lon="9.100361659872595"><ele>167.0</ele><time>2026-04-05T08:21:36.817Z</time></trkpt><trkpt lat="45.557225888489796" lon="9.100391951959164"><ele>167.0</ele><time>2026-04-05T08:21:38.817Z</time></trkpt><trkpt lat="45.557152856701904" lon="9.100411968432287"><ele>167.0</ele><time>2026-04-05T08:21:40.817Z</time></trkpt><trkpt lat="45.557090842684985" lon="9.100427902442501"><ele>167.0</ele><time>2026-04-05T08:21:42.817Z</time></trkpt><trkpt lat="45.557012794965324" lon="9.100458792276862"><ele>167.0</ele><time>2026-04-05T08:21:45.816Z</time></trkpt><trkpt lat="45.55694818772974" lon="9.100467580171227"><ele>167.0</ele><time>2026-04-05T08:21:51.816Z</time></trkpt><trkpt lat="45.556879998198184" lon="9.1004867747458"><ele>167.0</ele><time>2026-04-05T08:22:00.816Z</time></trkpt><trkpt lat="45.55680665641462" lon="9.100475331302349"><ele>167.0</ele><time>2026-04-05T08:22:06.815Z</time></trkpt><trkpt lat="45.5567436909663" lon="9.10044509668315"><ele>167.16666666666666</ele><time>2026-04-05T08:22:15.815Z</time></trkpt><trkpt lat="45.55666884509417" lon="9.100472183061973"><ele>167.33333333333331</ele><time>2026-04-05T08:22:28.814Z</time></trkpt><trkpt lat="45.55660018719707" lon="9.100483794352698"><ele>167.5</ele><time>2026-04-05T08:22:34.814Z</time></trkpt><trkpt lat="45.55653245317013" lon="9.100488275941713"><ele>167.66666666666666</ele><time>2026-04-05T08:22:45.813Z</time></trkpt><trkpt lat="45.55646527263876" lon="9.100555450511878"><ele>167.83333333333334</ele><time>2026-04-05T08:22:50.813Z</time></trkpt><trkpt lat="45.55637426735846" lon="9.10059126304505"><ele>168.0</ele><time>2026-04-05T08:22:53.815Z</time></trkpt><trkpt lat="45.556311272987095" lon="9.100611485213177"><ele>168.0</ele><time>2026-04-05T08:22:55.814Z</time></trkpt><trkpt lat="45.556222147076525" lon="9.100646366314436"><ele>168.0</ele><time>2026-04-05T08:22:58.815Z</time></trkpt><trkpt lat="45.55616330162219" lon="9.100681384187142"><ele>168.0</ele><time>2026-04-05T08:23:00.815Z</time></trkpt><trkpt lat="45.556080452934054" lon="9.100720976674053"><ele>168.0</ele><time>2026-04-05T08:23:03.815Z</time></trkpt><trkpt lat="45.556016172571" lon="9.100731944482993"><ele>168.0</ele><time>2026-04-05T08:23:05.814Z</time></trkpt><trkpt lat="45.555936263503646" lon="9.10075477300096"><ele>168.0</ele><time>2026-04-05T08:23:07.814Z</time></trkpt><trkpt lat="45.55585302258528" lon="9.100787475417157"><ele>167.83333333333334</ele><time>2026-04-05T08:23:10.814Z</time></trkpt><trkpt lat="45.55579078603676" lon="9.100823257524151"><ele>167.66666666666666</ele><time>2026-04-05T08:23:12.814Z</time></trkpt><trkpt lat="45.55572815790691" lon="9.100854995627875"><ele>167.5</ele><time>2026-04-05T08:23:14.813Z</time></trkpt><trkpt lat="45.55566451181622" lon="9.100884657500016"><ele>167.33333333333331</ele><time>2026-04-05T08:23:16.813Z</time></trkpt><trkpt lat="45.55558900098783" lon="9.100911993138272"><ele>167.16666666666666</ele><time>2026-04-05T08:23:19.813Z</time></trkpt><trkpt lat="45.55548061255995" lon="9.100947399137503"><ele>167.0</ele><time>2026-04-05T08:23:22.813Z</time></trkpt><trkpt lat="45.55541276503313" lon="9.100977820507762"><ele>166.83333333333331</ele><time>2026-04-05T08:23:24.813Z</time></trkpt><trkpt lat="45.55535392692887" lon="9.10101309625685"><ele>166.66666666666666</ele><time>2026-04-05T08:23:26.813Z</time></trkpt><trkpt lat="45.555270145875234" lon="9.101029498734498"><ele>166.5</ele><time>2026-04-05T08:23:28.813Z</time></trkpt><trkpt lat="45.555170644867886" lon="9.101063834445855"><ele>166.33333333333334</ele><time>2026-04-05T08:23:30.813Z</time></trkpt><trkpt lat="45.555100439050854" lon="9.101097026032999"><ele>166.16666666666669</ele><time>2026-04-05T08:23:32.813Z</time></trkpt><trkpt lat="45.55502603024525" lon="9.10112112854336"><ele>166.0</ele><time>2026-04-05T08:23:34.812Z</time></trkpt><trkpt lat="45.554934281528816" lon="9.101167073309949"><ele>166.0</ele><time>2026-04-05T08:23:36.812Z</time></trkpt><trkpt lat="45.554856923591984" lon="9.101190829902784"><ele>166.0</ele><time>2026-04-05T08:23:38.812Z</time></trkpt><trkpt lat="45.55477792256732" lon="9.101226576471888"><ele>166.0</ele><time>2026-04-05T08:23:40.812Z</time></trkpt><trkpt lat="45.554695041517284" lon="9.101269722102206"><ele>166.0</ele><time>2026-04-05T08:23:42.812Z</time></trkpt><trkpt lat="45.554607116465256" lon="9.101294996768912"><ele>166.0</ele><time>2026-04-05T08:23:44.812Z</time></trkpt><trkpt lat="45.55453920528406" lon="9.101321728640821"><ele>166.0</ele><time>2026-04-05T08:23:46.812Z</time></trkpt><trkpt lat="45.55447347164877" lon="9.10133992529894"><ele>165.83333333333334</ele><time>2026-04-05T08:23:48.812Z</time></trkpt><trkpt lat="45.554410285102904" lon="9.101376928471463"><ele>165.66666666666669</ele><time>2026-04-05T08:23:50.812Z</time></trkpt><trkpt lat="45.55432382426867" lon="9.101413029508683"><ele>165.5</ele><time>2026-04-05T08:23:53.811Z</time></trkpt><trkpt lat="45.55425572056026" lon="9.101420066523696"><ele>165.33333333333334</ele><time>2026-04-05T08:23:56.811Z</time></trkpt><trkpt lat="45.554194655151974" lon="9.101465027844126"><ele>165.16666666666666</ele><time>2026-04-05T08:24:00.811Z</time></trkpt><trkpt lat="45.55413262876466" lon="9.101508760264455"><ele>165.0</ele><time>2026-04-05T08:24:04.811Z</time></trkpt><trkpt lat="45.55404195173321" lon="9.101543589251548"><ele>165.00000000000003</ele><time>2026-04-05T08:24:07.811Z</time></trkpt><trkpt lat="45.553954232191685" lon="9.101570079752083"><ele>165.0</ele><time>2026-04-05T08:24:11.811Z</time></trkpt><trkpt lat="45.553892161480746" lon="9.101591949593184"><ele>165.0</ele><time>2026-04-05T08:24:18.81Z</time></trkpt><trkpt lat="45.55382588200955" lon="9.101598275436983"><ele>165.0</ele><time>2026-04-05T08:24:31.81Z</time></trkpt><trkpt lat="45.553764975147224" lon="9.101626021849786"><ele>165.0</ele><time>2026-04-05T08:24:41.809Z</time></trkpt><trkpt lat="45.553703232781274" lon="9.10164689212656"><ele>165.00000000000003</ele><time>2026-04-05T08:24:48.809Z</time></trkpt><trkpt lat="45.553635213353125" lon="9.101669055613657"><ele>165.0</ele><time>2026-04-05T08:24:55.808Z</time></trkpt><trkpt lat="45.55356388143039" lon="9.101688030506283"><ele>164.66666666666666</ele><time>2026-04-05T08:25:07.81Z</time></trkpt><trkpt lat="45.5534869822307" lon="9.10171695119357"><ele>164.33333333333334</ele><time>2026-04-05T08:25:11.809Z</time></trkpt><trkpt lat="45.55341864288958" lon="9.10175204925547"><ele>164.0</ele><time>2026-04-05T08:25:14.809Z</time></trkpt><trkpt lat="45.55334630063632" lon="9.101788688470636"><ele>163.66666666666669</ele><time>2026-04-05T08:25:17.809Z</time></trkpt><trkpt lat="45.55325917879141" lon="9.10181850768777"><ele>163.33333333333334</ele><time>2026-04-05T08:25:20.809Z</time></trkpt><trkpt lat="45.55318551934222" lon="9.101848498198766"><ele>163.0</ele><time>2026-04-05T08:25:23.808Z</time></trkpt><trkpt lat="45.553110217264745" lon="9.10190069719839"><ele>163.0</ele><time>2026-04-05T08:25:27.808Z</time></trkpt><trkpt lat="45.553034487613935" lon="9.101943649009625"><ele>163.0</ele><time>2026-04-05T08:25:31.808Z</time></trkpt><trkpt lat="45.55296802557677" lon="9.101977825309216"><ele>163.0</ele><time>2026-04-05T08:25:34.808Z</time></trkpt><trkpt lat="45.55290419149002" lon="9.102001049316005"><ele>163.0</ele><time>2026-04-05T08:25:37.808Z</time></trkpt><trkpt lat="45.55282380469866" lon="9.102014367928346"><ele>163.0</ele><time>2026-04-05T08:25:40.808Z</time></trkpt><trkpt lat="45.552752740489" lon="9.102058403621005"><ele>163.0</ele><time>2026-04-05T08:25:42.807Z</time></trkpt><trkpt lat="45.552686052290156" lon="9.102081450513257"><ele>163.0</ele><time>2026-04-05T08:25:44.807Z</time></trkpt><trkpt lat="45.55261117543818" lon="9.102100496974941"><ele>162.57142857142858</ele><time>2026-04-05T08:25:50.807Z</time></trkpt><trkpt lat="45.55254871371992" lon="9.10211640954717"><ele>162.14285714285714</ele><time>2026-04-05T08:25:56.807Z</time></trkpt><trkpt lat="45.55248307281037" lon="9.102102956686183"><ele>161.71428571428572</ele><time>2026-04-05T08:26:03.806Z</time></trkpt><trkpt lat="45.55254706842866" lon="9.10208790477526"><ele>161.28571428571428</ele><time>2026-04-05T08:26:12.806Z</time></trkpt><trkpt lat="45.552524453385885" lon="9.102172222653072"><ele>160.85714285714286</ele><time>2026-04-05T08:26:23.805Z</time></trkpt><trkpt lat="45.55246033034629" lon="9.102174453349894"><ele>160.42857142857142</ele><time>2026-04-05T08:26:26.805Z</time></trkpt><trkpt lat="45.55240004672817" lon="9.10214446668309"><ele>160.0</ele><time>2026-04-05T08:26:38.805Z</time></trkpt><trkpt lat="45.55233262218713" lon="9.102164850223312"><ele>160.0</ele><time>2026-04-05T08:26:45.804Z</time></trkpt><trkpt lat="45.552262941305266" lon="9.102199290095777"><ele>160.0</ele><time>2026-04-05T08:26:48.804Z</time></trkpt><trkpt lat="45.55219519880038" lon="9.102198706600424"><ele>160.0</ele><time>2026-04-05T08:27:03.805Z</time></trkpt><trkpt lat="45.55213184425592" lon="9.10219013755602"><ele>160.0</ele><time>2026-04-05T08:27:06.805Z</time></trkpt><trkpt lat="45.55206295292217" lon="9.102132418277991"><ele>160.0</ele><time>2026-04-05T08:27:09.805Z</time></trkpt><trkpt lat="45.551987726471346" lon="9.102034448637921"><ele>160.0</ele><time>2026-04-05T08:27:12.804Z</time></trkpt><trkpt lat="45.55194440837147" lon="9.101948616921161"><ele>160.0</ele><time>2026-04-05T08:27:14.805Z</time></trkpt><trkpt lat="45.55190714252525" lon="9.101869609583906"><ele>160.0</ele><time>2026-04-05T08:27:16.805Z</time></trkpt><trkpt lat="45.55186776488013" lon="9.101757941232142"><ele>160.0</ele><time>2026-04-05T08:27:19.805Z</time></trkpt><trkpt lat="45.55183158768628" lon="9.101675560225221"><ele>160.0</ele><time>2026-04-05T08:27:21.805Z</time></trkpt><trkpt lat="45.55179561908282" lon="9.101585582595119"><ele>160.0</ele><time>2026-04-05T08:27:23.805Z</time></trkpt><trkpt lat="45.55177465731672" lon="9.101493969940234"><ele>160.0</ele><time>2026-04-05T08:27:25.804Z</time></trkpt><trkpt lat="45.551745961632356" lon="9.101399634078588"><ele>160.0</ele><time>2026-04-05T08:27:27.804Z</time></trkpt><trkpt lat="45.55171188982718" lon="9.101309583758027"><ele>160.0</ele><time>2026-04-05T08:27:29.804Z</time></trkpt><trkpt lat="45.551682865796614" lon="9.10121502950216"><ele>160.0</ele><time>2026-04-05T08:27:31.804Z</time></trkpt><trkpt lat="45.551654396022926" lon="9.10112430175062"><ele>160.0</ele><time>2026-04-05T08:27:33.804Z</time></trkpt><trkpt lat="45.55162187251803" lon="9.101041454334478"><ele>160.0</ele><time>2026-04-05T08:27:35.804Z</time></trkpt><trkpt lat="45.55159168956041" lon="9.100944448177845"><ele>160.0</ele><time>2026-04-05T08:27:37.804Z</time></trkpt><trkpt lat="45.55157825896748" lon="9.100851481905444"><ele>160.0</ele><time>2026-04-05T08:27:43.804Z</time></trkpt><trkpt lat="45.551541307846065" lon="9.100748662187662"><ele>160.0</ele><time>2026-04-05T08:27:50.803Z</time></trkpt><trkpt lat="45.55151499316101" lon="9.100645870394798"><ele>160.0</ele><time>2026-04-05T08:27:53.803Z</time></trkpt><trkpt lat="45.55148730867891" lon="9.100560453516852"><ele>160.0</ele><time>2026-04-05T08:27:55.803Z</time></trkpt><trkpt lat="45.55146042049952" lon="9.10047682715837"><ele>160.0</ele><time>2026-04-05T08:27:57.803Z</time></trkpt><trkpt lat="45.55142965084238" lon="9.100381782727343"><ele>160.0</ele><time>2026-04-05T08:28:00.803Z</time></trkpt><trkpt lat="45.551364538907876" lon="9.100315307859603"><ele>160.0</ele><time>2026-04-05T08:28:05.802Z</time></trkpt><trkpt lat="45.551280127482784" lon="9.100276423874663"><ele>160.0</ele><time>2026-04-05T08:28:08.802Z</time></trkpt><trkpt lat="45.55120243702085" lon="9.100289615177735"><ele>160.0</ele><time>2026-04-05T08:28:11.802Z</time></trkpt><trkpt lat="45.5511396137887" lon="9.100298314597286"><ele>160.0</ele><time>2026-04-05T08:28:13.802Z</time></trkpt><trkpt lat="45.55106073752318" lon="9.100304443976214"><ele>160.0</ele><time>2026-04-05T08:28:15.802Z</time></trkpt><trkpt lat="45.55099607340208" lon="9.100311652421478"><ele>160.0</ele><time>2026-04-05T08:28:17.802Z</time></trkpt><trkpt lat="45.55091586521105" lon="9.100312082646177"><ele>160.0</ele><time>2026-04-05T08:28:19.802Z</time></trkpt><trkpt lat="45.5508360398302" lon="9.10032431348155"><ele>160.0</ele><time>2026-04-05T08:28:21.802Z</time></trkpt><trkpt lat="45.55076590559361" lon="9.100318264255778"><ele>160.0</ele><time>2026-04-05T08:28:23.802Z</time></trkpt><trkpt lat="45.55068617332003" lon="9.100324311423932"><ele>160.0</ele><time>2026-04-05T08:28:26.801Z</time></trkpt><trkpt lat="45.550621366432615" lon="9.10025889949436"><ele>160.0</ele><time>2026-04-05T08:28:29.801Z</time></trkpt><trkpt lat="45.55057067916791" lon="9.10015761087297"><ele>160.0</ele><time>2026-04-05T08:28:32.801Z</time></trkpt><trkpt lat="45.55053921332807" lon="9.100078601392148"><ele>160.0</ele><time>2026-04-05T08:28:35.801Z</time></trkpt><trkpt lat="45.55052094191494" lon="9.099990522722337"><ele>160.0</ele><time>2026-04-05T08:28:38.801Z</time></trkpt><trkpt lat="45.55051121481703" lon="9.099853048652278"><ele>160.0</ele><time>2026-04-05T08:28:41.801Z</time></trkpt><trkpt lat="45.55048845712119" lon="9.09975431670817"><ele>160.14285714285714</ele><time>2026-04-05T08:28:43.801Z</time></trkpt><trkpt lat="45.55048003536041" lon="9.099656903560431"><ele>160.28571428571428</ele><time>2026-04-05T08:28:45.8Z</time></trkpt><trkpt lat="45.550472041441424" lon="9.099555241110304"><ele>160.42857142857144</ele><time>2026-04-05T08:28:48.8Z</time></trkpt><trkpt lat="45.55045295090773" lon="9.099438644849384"><ele>160.57142857142856</ele><time>2026-04-05T08:28:51.8Z</time></trkpt><trkpt lat="45.5504455969294" lon="9.099336899464383"><ele>160.71428571428572</ele><time>2026-04-05T08:28:53.8Z</time></trkpt><trkpt lat="45.55042768646158" lon="9.099248720443603"><ele>160.85714285714286</ele><time>2026-04-05T08:28:55.8Z</time></trkpt><trkpt lat="45.550422275111295" lon="9.099128363086985"><ele>161.0</ele><time>2026-04-05T08:28:57.8Z</time></trkpt><trkpt lat="45.55039081716523" lon="9.098994894167241"><ele>161.0</ele><time>2026-04-05T08:29:00.8Z</time></trkpt><trkpt lat="45.55035675569664" lon="9.09886435410155"><ele>161.0</ele><time>2026-04-05T08:29:02.8Z</time></trkpt><trkpt lat="45.550348195677955" lon="9.098758809829164"><ele>161.0</ele><time>2026-04-05T08:29:04.799Z</time></trkpt><trkpt lat="45.550352312202925" lon="9.098633582007796"><ele>161.0</ele><time>2026-04-05T08:29:06.799Z</time></trkpt><trkpt lat="45.550332076569006" lon="9.098522409419285"><ele>161.0</ele><time>2026-04-05T08:29:08.799Z</time></trkpt><trkpt lat="45.55033003244802" lon="9.098401352941464"><ele>161.0</ele><time>2026-04-05T08:29:10.8Z</time></trkpt><trkpt lat="45.55033736327594" lon="9.098266312635602"><ele>160.83333333333331</ele><time>2026-04-05T08:29:12.8Z</time></trkpt><trkpt lat="45.55033027239076" lon="9.098130309401212"><ele>160.66666666666666</ele><time>2026-04-05T08:29:14.804Z</time></trkpt><trkpt lat="45.55031841843713" lon="9.098009054947266"><ele>160.5</ele><time>2026-04-05T08:29:16.808Z</time></trkpt><trkpt lat="45.55029201375137" lon="9.097896448041578"><ele>160.33333333333334</ele><time>2026-04-05T08:29:18.812Z</time></trkpt><trkpt lat="45.550281572009865" lon="9.097778303039542"><ele>160.16666666666669</ele><time>2026-04-05T08:29:20.816Z</time></trkpt><trkpt lat="45.55031582395099" lon="9.097666197498267"><ele>160.0</ele><time>2026-04-05T08:29:22.82Z</time></trkpt><trkpt lat="45.55036106378476" lon="9.097550248741939"><ele>160.25</ele><time>2026-04-05T08:29:25.824Z</time></trkpt><trkpt lat="45.55041176696103" lon="9.097472971583707"><ele>160.5</ele><time>2026-04-05T08:29:28.827Z</time></trkpt><trkpt lat="45.55061721089554" lon="9.097493850595892"><ele>160.75</ele><time>2026-04-05T08:29:39.835Z</time></trkpt><trkpt lat="45.550731057253316" lon="9.09748065842223"><ele>161.0</ele><time>2026-04-05T08:29:42.836Z</time></trkpt><trkpt lat="45.55080235947905" lon="9.097472065691212"><ele>161.0</ele><time>2026-04-05T08:29:44.837Z</time></trkpt><trkpt lat="45.55087535517271" lon="9.09744806258428"><ele>161.0</ele><time>2026-04-05T08:29:46.838Z</time></trkpt><trkpt lat="45.55095979760757" lon="9.09741829522168"><ele>161.0</ele><time>2026-04-05T08:29:49.838Z</time></trkpt><trkpt lat="45.55104714872988" lon="9.097391845436132"><ele>161.0</ele><time>2026-04-05T08:29:52.839Z</time></trkpt><trkpt lat="45.55111920247313" lon="9.097409901274505"><ele>161.0</ele><time>2026-04-05T08:29:55.839Z</time></trkpt><trkpt lat="45.55118557195838" lon="9.097440881099082"><ele>161.0</ele><time>2026-04-05T08:29:57.84Z</time></trkpt><trkpt lat="45.55128117294184" lon="9.097422146300625"><ele>161.5</ele><time>2026-04-05T08:29:59.84Z</time></trkpt><trkpt lat="45.55135432525796" lon="9.097370787018704"><ele>162.0</ele><time>2026-04-05T08:30:01.84Z</time></trkpt><trkpt lat="45.55143872902967" lon="9.097323873054474"><ele>162.5</ele><time>2026-04-05T08:30:04.84Z</time></trkpt><trkpt lat="45.55150198319587" lon="9.097255482670318"><ele>163.0</ele><time>2026-04-05T08:30:07.84Z</time></trkpt><trkpt lat="45.551590616702896" lon="9.097208385169155"><ele>163.5</ele><time>2026-04-05T08:30:10.841Z</time></trkpt><trkpt lat="45.551663335680715" lon="9.097173004634742"><ele>164.0</ele><time>2026-04-05T08:30:13.841Z</time></trkpt><trkpt lat="45.5517351040566" lon="9.097152406640644"><ele>164.0</ele><time>2026-04-05T08:30:15.841Z</time></trkpt><trkpt lat="45.55181600685387" lon="9.097124639439793"><ele>164.0</ele><time>2026-04-05T08:30:18.841Z</time></trkpt><trkpt lat="45.551882934943734" lon="9.09709306351149"><ele>164.0</ele><time>2026-04-05T08:30:20.841Z</time></trkpt><trkpt lat="45.55204733065493" lon="9.097071980957162"><ele>164.0</ele><time>2026-04-05T08:30:25.841Z</time></trkpt><trkpt lat="45.55210988450182" lon="9.097046793287355"><ele>164.0</ele><time>2026-04-05T08:30:27.841Z</time></trkpt><trkpt lat="45.55221852114257" lon="9.09702212725539"><ele>164.5</ele><time>2026-04-05T08:30:30.84Z</time></trkpt><trkpt lat="45.552283345968966" lon="9.096968829629393"><ele>165.0</ele><time>2026-04-05T08:30:33.84Z</time></trkpt><trkpt lat="45.55233069822086" lon="9.096870046889748"><ele>165.5</ele><time>2026-04-05T08:30:37.84Z</time></trkpt><trkpt lat="45.552342481383555" lon="9.096757266148815"><ele>166.0</ele><time>2026-04-05T08:30:40.84Z</time></trkpt><trkpt lat="45.55237469699603" lon="9.096640334139192"><ele>166.5</ele><time>2026-04-05T08:30:43.84Z</time></trkpt><trkpt lat="45.55239089826842" lon="9.096535446952895"><ele>167.0</ele><time>2026-04-05T08:30:47.84Z</time></trkpt><trkpt lat="45.55238790745556" lon="9.09642668888254"><ele>167.0</ele><time>2026-04-05T08:30:50.84Z</time></trkpt><trkpt lat="45.55238653144945" lon="9.096319436839744"><ele>167.0</ele><time>2026-04-05T08:30:53.84Z</time></trkpt><trkpt lat="45.552374207123265" lon="9.096226507303154"><ele>167.0</ele><time>2026-04-05T08:30:55.84Z</time></trkpt><trkpt lat="45.552370839174756" lon="9.096129032023452"><ele>167.0</ele><time>2026-04-05T08:30:57.84Z</time></trkpt><trkpt lat="45.55236201783919" lon="9.096036573671638"><ele>167.0</ele><time>2026-04-05T08:31:00.84Z</time></trkpt><trkpt lat="45.5523653044365" lon="9.095927750016749"><ele>167.0</ele><time>2026-04-05T08:31:03.839Z</time></trkpt><trkpt lat="45.552359213094576" lon="9.095821823644938"><ele>167.0</ele><time>2026-04-05T08:31:06.839Z</time></trkpt><trkpt lat="45.55234804603226" lon="9.095722654014804"><ele>166.0</ele><time>2026-04-05T08:31:08.839Z</time></trkpt><trkpt lat="45.552333233953966" lon="9.095609859416829"><ele>165.0</ele><time>2026-04-05T08:31:11.839Z</time></trkpt><trkpt lat="45.55232086306642" lon="9.095515798562266"><ele>164.0</ele><time>2026-04-05T08:31:15.84Z</time></trkpt><trkpt lat="45.55234222568016" lon="9.095427721786674"><ele>163.0</ele><time>2026-04-05T08:31:32.839Z</time></trkpt><trkpt lat="45.552361766892" lon="9.09531048139774"><ele>162.0</ele><time>2026-04-05T08:31:40.839Z</time></trkpt><trkpt lat="45.55236620873438" lon="9.095169807948258"><ele>161.0</ele><time>2026-04-05T08:31:43.839Z</time></trkpt><trkpt lat="45.552360319972166" lon="9.095063877752509"><ele>161.0</ele><time>2026-04-05T08:31:45.839Z</time></trkpt><trkpt lat="45.552355037217325" lon="9.094959834806453"><ele>161.0</ele><time>2026-04-05T08:31:47.839Z</time></trkpt><trkpt lat="45.552347673305526" lon="9.094854715287344"><ele>161.0</ele><time>2026-04-05T08:31:49.839Z</time></trkpt><trkpt lat="45.55233711234058" lon="9.094749073219491"><ele>161.0</ele><time>2026-04-05T08:31:51.839Z</time></trkpt><trkpt lat="45.55233004978896" lon="9.09465014976543"><ele>161.0</ele><time>2026-04-05T08:31:53.839Z</time></trkpt><trkpt lat="45.552326775453146" lon="9.094539882378545"><ele>161.0</ele><time>2026-04-05T08:31:55.838Z</time></trkpt><trkpt lat="45.55232259162191" lon="9.0944357572516"><ele>161.0</ele><time>2026-04-05T08:31:57.838Z</time></trkpt><trkpt lat="45.552316912862615" lon="9.094320885549969"><ele>160.83333333333331</ele><time>2026-04-05T08:31:59.838Z</time></trkpt><trkpt lat="45.552303423688414" lon="9.094215567581013"><ele>160.66666666666666</ele><time>2026-04-05T08:32:01.838Z</time></trkpt><trkpt lat="45.55229584946737" lon="9.094106769184107"><ele>160.5</ele><time>2026-04-05T08:32:03.838Z</time></trkpt><trkpt lat="45.55228911520406" lon="9.093994033183279"><ele>160.33333333333334</ele><time>2026-04-05T08:32:05.838Z</time></trkpt><trkpt lat="45.55228309788895" lon="9.093884487536638"><ele>160.16666666666669</ele><time>2026-04-05T08:32:07.838Z</time></trkpt><trkpt lat="45.552271287214694" lon="9.093768770332598"><ele>160.0</ele><time>2026-04-05T08:32:09.838Z</time></trkpt><trkpt lat="45.55226305309391" lon="9.093660571281262"><ele>159.5</ele><time>2026-04-05T08:32:11.838Z</time></trkpt><trkpt lat="45.552253881997416" lon="9.093552842006908"><ele>159.0</ele><time>2026-04-05T08:32:13.838Z</time></trkpt><trkpt lat="45.552247135239845" lon="9.093439979534184"><ele>158.5</ele><time>2026-04-05T08:32:15.838Z</time></trkpt><trkpt lat="45.552236831508665" lon="9.093331849046692"><ele>158.0</ele><time>2026-04-05T08:32:17.838Z</time></trkpt><trkpt lat="45.55222713614099" lon="9.093219346785208"><ele>157.5</ele><time>2026-04-05T08:32:19.837Z</time></trkpt><trkpt lat="45.552213825013155" lon="9.093111873472537"><ele>157.0</ele><time>2026-04-05T08:32:21.837Z</time></trkpt><trkpt lat="45.55220697991541" lon="9.093000101971713"><ele>156.99999999999997</ele><time>2026-04-05T08:32:23.837Z</time></trkpt><trkpt lat="45.552201057558264" lon="9.092892569636087"><ele>157.0</ele><time>2026-04-05T08:32:25.837Z</time></trkpt><trkpt lat="45.5521915672859" lon="9.092787018255478"><ele>157.0</ele><time>2026-04-05T08:32:27.837Z</time></trkpt><trkpt lat="45.552181824155475" lon="9.092681423734748"><ele>157.0</ele><time>2026-04-05T08:32:29.837Z</time></trkpt><trkpt lat="45.55216889683753" lon="9.09257986228117"><ele>157.0</ele><time>2026-04-05T08:32:31.837Z</time></trkpt><trkpt lat="45.5521615230133" lon="9.092473318514154"><ele>156.99999999999997</ele><time>2026-04-05T08:32:33.837Z</time></trkpt><trkpt lat="45.55215355672728" lon="9.092367863756818"><ele>157.0</ele><time>2026-04-05T08:32:35.837Z</time></trkpt><trkpt lat="45.552141557587845" lon="9.092262389680048"><ele>157.42857142857142</ele><time>2026-04-05T08:32:37.837Z</time></trkpt><trkpt lat="45.55213352236259" lon="9.092153786221944"><ele>157.85714285714286</ele><time>2026-04-05T08:32:39.837Z</time></trkpt><trkpt lat="45.552125384389626" lon="9.092051432180803"><ele>158.28571428571428</ele><time>2026-04-05T08:32:41.837Z</time></trkpt><trkpt lat="45.55211620714342" lon="9.091946207403332"><ele>158.71428571428572</ele><time>2026-04-05T08:32:43.836Z</time></trkpt><trkpt lat="45.55210503541309" lon="9.091846376755447"><ele>159.14285714285714</ele><time>2026-04-05T08:32:45.836Z</time></trkpt><trkpt lat="45.55209124972629" lon="9.091754109201048"><ele>159.57142857142856</ele><time>2026-04-05T08:32:47.836Z</time></trkpt><trkpt lat="45.552084762645514" lon="9.09164919204604"><ele>160.0</ele><time>2026-04-05T08:32:49.836Z</time></trkpt><trkpt lat="45.55207806821928" lon="9.091547224814308"><ele>160.0</ele><time>2026-04-05T08:32:51.836Z</time></trkpt><trkpt lat="45.552069046219025" lon="9.091445678446622"><ele>160.0</ele><time>2026-04-05T08:32:53.836Z</time></trkpt><trkpt lat="45.552061262002454" lon="9.091346020733047"><ele>160.0</ele><time>2026-04-05T08:32:55.836Z</time></trkpt><trkpt lat="45.552057018534256" lon="9.09124701111598"><ele>160.0</ele><time>2026-04-05T08:32:57.836Z</time></trkpt><trkpt lat="45.55205016552666" lon="9.091148415251984"><ele>160.0</ele><time>2026-04-05T08:32:59.836Z</time></trkpt><trkpt lat="45.5520428239796" lon="9.091050442535401"><ele>160.0</ele><time>2026-04-05T08:33:01.836Z</time></trkpt><trkpt lat="45.55203592421946" lon="9.090955058417228"><ele>160.0</ele><time>2026-04-05T08:33:03.836Z</time></trkpt><trkpt lat="45.552023539907054" lon="9.090824689393056"><ele>160.16666666666669</ele><time>2026-04-05T08:33:06.836Z</time></trkpt><trkpt lat="45.552003890454884" lon="9.090702536069804"><ele>160.33333333333334</ele><time>2026-04-05T08:33:09.835Z</time></trkpt><trkpt lat="45.5519661509708" lon="9.090614356243968"><ele>160.5</ele><time>2026-04-05T08:33:12.835Z</time></trkpt><trkpt lat="45.55192197922142" lon="9.090532282374364"><ele>160.66666666666666</ele><time>2026-04-05T08:33:28.836Z</time></trkpt><trkpt lat="45.551900751305084" lon="9.090435818257204"><ele>160.83333333333331</ele><time>2026-04-05T08:33:31.836Z</time></trkpt><trkpt lat="45.551894303226675" lon="9.09032167400612"><ele>161.0</ele><time>2026-04-05T08:33:34.836Z</time></trkpt><trkpt lat="45.55187897456899" lon="9.090208619478561"><ele>161.0</ele><time>2026-04-05T08:33:37.835Z</time></trkpt><trkpt lat="45.55187020847732" lon="9.090079059885111"><ele>161.0</ele><time>2026-04-05T08:33:40.835Z</time></trkpt><trkpt lat="45.551862449782945" lon="9.089981455767784"><ele>161.0</ele><time>2026-04-05T08:33:42.835Z</time></trkpt><trkpt lat="45.55185094243138" lon="9.089879972216131"><ele>161.0</ele><time>2026-04-05T08:33:44.835Z</time></trkpt><trkpt lat="45.55184314191365" lon="9.089773644917672"><ele>161.0</ele><time>2026-04-05T08:33:46.835Z</time></trkpt><trkpt lat="45.55182387589124" lon="9.089664024721941"><ele>161.0</ele><time>2026-04-05T08:33:48.835Z</time></trkpt><trkpt lat="45.551820267346024" lon="9.089548636737568"><ele>161.16666666666666</ele><time>2026-04-05T08:33:50.835Z</time></trkpt><trkpt lat="45.551810844310104" lon="9.089426454802526"><ele>161.33333333333331</ele><time>2026-04-05T08:33:52.835Z</time></trkpt><trkpt lat="45.55180625788146" lon="9.089308818592555"><ele>161.5</ele><time>2026-04-05T08:33:54.835Z</time></trkpt><trkpt lat="45.551799908951075" lon="9.089190284015233"><ele>161.66666666666666</ele><time>2026-04-05T08:33:56.835Z</time></trkpt><trkpt lat="45.55179175065061" lon="9.089072596242039"><ele>161.83333333333334</ele><time>2026-04-05T08:33:58.835Z</time></trkpt><trkpt lat="45.55177598778132" lon="9.088973347908519"><ele>162.0</ele><time>2026-04-05T08:34:00.835Z</time></trkpt><trkpt lat="45.55177823502718" lon="9.08887050986064"><ele>162.16666666666666</ele><time>2026-04-05T08:34:02.834Z</time></trkpt><trkpt lat="45.551774371780716" lon="9.08877135688572"><ele>162.33333333333334</ele><time>2026-04-05T08:34:04.834Z</time></trkpt><trkpt lat="45.55177071792548" lon="9.088666367115646"><ele>162.5</ele><time>2026-04-05T08:34:06.834Z</time></trkpt><trkpt lat="45.551762689945825" lon="9.088556076440208"><ele>162.66666666666669</ele><time>2026-04-05T08:34:08.834Z</time></trkpt><trkpt lat="45.55176945022602" lon="9.088431974431959"><ele>162.83333333333334</ele><time>2026-04-05T08:34:10.834Z</time></trkpt><trkpt lat="45.55174909936763" lon="9.088312482350135"><ele>163.0</ele><time>2026-04-05T08:34:12.834Z</time></trkpt><trkpt lat="45.551731799842116" lon="9.088192237280017"><ele>163.0</ele><time>2026-04-05T08:34:14.834Z</time></trkpt><trkpt lat="45.55172411456602" lon="9.08807004142806"><ele>163.0</ele><time>2026-04-05T08:34:16.834Z</time></trkpt><trkpt lat="45.551710772013834" lon="9.087950430372418"><ele>163.0</ele><time>2026-04-05T08:34:18.834Z</time></trkpt><trkpt lat="45.551697397988065" lon="9.087830420077209"><ele>163.0</ele><time>2026-04-05T08:34:20.834Z</time></trkpt><trkpt lat="45.5516809840751" lon="9.087710309635701"><ele>163.0</ele><time>2026-04-05T08:34:22.834Z</time></trkpt><trkpt lat="45.55166632532422" lon="9.087595056747471"><ele>163.0</ele><time>2026-04-05T08:34:24.834Z</time></trkpt><trkpt lat="45.551646579134214" lon="9.087495223027553"><ele>162.85714285714286</ele><time>2026-04-05T08:34:26.833Z</time></trkpt><trkpt lat="45.55164165915137" lon="9.087403939414244"><ele>162.7142857142857</ele><time>2026-04-05T08:34:28.833Z</time></trkpt><trkpt lat="45.551639021652285" lon="9.087311980905001"><ele>162.57142857142856</ele><time>2026-04-05T08:34:30.833Z</time></trkpt><trkpt lat="45.55161603514639" lon="9.087192392106598"><ele>162.42857142857144</ele><time>2026-04-05T08:34:33.833Z</time></trkpt><trkpt lat="45.55161203905647" lon="9.087099249740998"><ele>162.28571428571428</ele><time>2026-04-05T08:34:35.833Z</time></trkpt><trkpt lat="45.55159258451544" lon="9.08699949378515"><ele>162.14285714285714</ele><time>2026-04-05T08:34:37.833Z</time></trkpt><trkpt lat="45.551577680271215" lon="9.08690637866302"><ele>162.0</ele><time>2026-04-05T08:34:39.833Z</time></trkpt><trkpt lat="45.5515722106672" lon="9.086799602186568"><ele>162.0</ele><time>2026-04-05T08:34:41.833Z</time></trkpt><trkpt lat="45.551563789884426" lon="9.086705080952948"><ele>162.0</ele><time>2026-04-05T08:34:43.833Z</time></trkpt><trkpt lat="45.5515492650633" lon="9.086591024159135"><ele>162.0</ele><time>2026-04-05T08:34:45.833Z</time></trkpt><trkpt lat="45.551538108888145" lon="9.086480925929374"><ele>162.0</ele><time>2026-04-05T08:34:47.833Z</time></trkpt><trkpt lat="45.551526976926546" lon="9.08638316738295"><ele>162.0</ele><time>2026-04-05T08:34:49.833Z</time></trkpt><trkpt lat="45.55151396327827" lon="9.086288837219502"><ele>162.0</ele><time>2026-04-05T08:34:51.832Z</time></trkpt><trkpt lat="45.55150209819559" lon="9.086194557877423"><ele>162.0</ele><time>2026-04-05T08:34:53.832Z</time></trkpt><trkpt lat="45.551489997271894" lon="9.086095235795351"><ele>162.28571428571428</ele><time>2026-04-05T08:34:55.832Z</time></trkpt><trkpt lat="45.55147697800266" lon="9.085997158249237"><ele>162.57142857142856</ele><time>2026-04-05T08:34:57.832Z</time></trkpt><trkpt lat="45.55146924264285" lon="9.085907599269547"><ele>162.85714285714283</ele><time>2026-04-05T08:34:59.832Z</time></trkpt><trkpt lat="45.55145388599143" lon="9.085810828138403"><ele>163.14285714285714</ele><time>2026-04-05T08:35:01.832Z</time></trkpt><trkpt lat="45.55143688730006" lon="9.085688718817048"><ele>163.42857142857142</ele><time>2026-04-05T08:35:04.832Z</time></trkpt><trkpt lat="45.55141303035156" lon="9.085595112258527"><ele>163.7142857142857</ele><time>2026-04-05T08:35:08.832Z</time></trkpt><trkpt lat="45.551395767619" lon="9.085507024493625"><ele>164.0</ele><time>2026-04-05T08:35:11.832Z</time></trkpt><trkpt lat="45.55140316784782" lon="9.085412526246214"><ele>164.0</ele><time>2026-04-05T08:35:15.831Z</time></trkpt><trkpt lat="45.55139864874454" lon="9.085305086207796"><ele>164.0</ele><time>2026-04-05T08:35:20.831Z</time></trkpt><trkpt lat="45.55139085973016" lon="9.085203848913194"><ele>164.0</ele><time>2026-04-05T08:35:42.832Z</time></trkpt><trkpt lat="45.55146461161914" lon="9.085116116227749"><ele>164.0</ele><time>2026-04-05T08:35:45.831Z</time></trkpt><trkpt lat="45.551536758284705" lon="9.08509266937495"><ele>164.0</ele><time>2026-04-05T08:35:47.831Z</time></trkpt><trkpt lat="45.55160282830357" lon="9.085064132776065"><ele>164.0</ele><time>2026-04-05T08:35:49.831Z</time></trkpt><trkpt lat="45.551675076383006" lon="9.085044681945753"><ele>163.99999999999997</ele><time>2026-04-05T08:35:51.831Z</time></trkpt><trkpt lat="45.551752501678926" lon="9.085019000189567"><ele>164.0</ele><time>2026-04-05T08:35:53.831Z</time></trkpt><trkpt lat="45.55181669499837" lon="9.08498433858589"><ele>164.0</ele><time>2026-04-05T08:35:55.831Z</time></trkpt><trkpt lat="45.55189904130783" lon="9.084941911987666"><ele>164.0</ele><time>2026-04-05T08:35:58.831Z</time></trkpt><trkpt lat="45.55196195233744" lon="9.084907624608887"><ele>164.0</ele><time>2026-04-05T08:36:00.831Z</time></trkpt><trkpt lat="45.55200158162963" lon="9.08483519617623"><ele>163.99999999999997</ele><time>2026-04-05T08:36:03.831Z</time></trkpt><trkpt lat="45.552062083610224" lon="9.084759500418134"><ele>164.0</ele><time>2026-04-05T08:36:07.83Z</time></trkpt><trkpt lat="45.55214436947181" lon="9.08472410316365"><ele>164.66666666666666</ele><time>2026-04-05T08:36:09.83Z</time></trkpt><trkpt lat="45.55221532254884" lon="9.084705922933912"><ele>165.33333333333331</ele><time>2026-04-05T08:36:11.83Z</time></trkpt><trkpt lat="45.552296948127164" lon="9.084665586848708"><ele>166.0</ele><time>2026-04-05T08:36:13.83Z</time></trkpt><trkpt lat="45.552418670097346" lon="9.084613242367421"><ele>166.66666666666666</ele><time>2026-04-05T08:36:17.83Z</time></trkpt><trkpt lat="45.55248553998532" lon="9.084604800831515"><ele>167.33333333333334</ele><time>2026-04-05T08:36:19.83Z</time></trkpt><trkpt lat="45.552556061455384" lon="9.084577461141986"><ele>168.0</ele><time>2026-04-05T08:36:22.83Z</time></trkpt><trkpt lat="45.55262539984776" lon="9.084535249158861"><ele>168.0</ele><time>2026-04-05T08:36:24.83Z</time></trkpt><trkpt lat="45.552707295618006" lon="9.084517487699332"><ele>168.0</ele><time>2026-04-05T08:36:26.83Z</time></trkpt><trkpt lat="45.552773233066084" lon="9.084497011664876"><ele>168.0</ele><time>2026-04-05T08:36:28.83Z</time></trkpt><trkpt lat="45.552843434352134" lon="9.084470844709983"><ele>168.0</ele><time>2026-04-05T08:36:30.83Z</time></trkpt><trkpt lat="45.55291272270262" lon="9.084435711807393"><ele>168.0</ele><time>2026-04-05T08:36:32.829Z</time></trkpt><trkpt lat="45.552978144521354" lon="9.084375667327066"><ele>168.0</ele><time>2026-04-05T08:36:35.829Z</time></trkpt><trkpt lat="45.5530728849722" lon="9.084331267532827"><ele>167.60000000000002</ele><time>2026-04-05T08:36:38.829Z</time></trkpt><trkpt lat="45.55317141694077" lon="9.084317755217889"><ele>167.20000000000002</ele><time>2026-04-05T08:36:40.829Z</time></trkpt><trkpt lat="45.5533024363892" lon="9.084297605039948"><ele>166.8</ele><time>2026-04-05T08:36:43.829Z</time></trkpt><trkpt lat="45.55334069456745" lon="9.084208560729286"><ele>166.4</ele><time>2026-04-05T08:36:46.829Z</time></trkpt><trkpt lat="45.55331440880428" lon="9.084080195175193"><ele>166.0</ele><time>2026-04-05T08:36:48.829Z</time></trkpt><trkpt lat="45.553307122273985" lon="9.083974063945913"><ele>165.83333333333334</ele><time>2026-04-05T08:36:51.829Z</time></trkpt><trkpt lat="45.55327880939453" lon="9.083840325426761"><ele>165.66666666666669</ele><time>2026-04-05T08:36:54.829Z</time></trkpt><trkpt lat="45.55327328245716" lon="9.083730975203274"><ele>165.5</ele><time>2026-04-05T08:36:56.829Z</time></trkpt><trkpt lat="45.55325045992401" lon="9.083612211743826"><ele>165.33333333333334</ele><time>2026-04-05T08:36:59.828Z</time></trkpt><trkpt lat="45.55322740506485" lon="9.083490569930083"><ele>165.16666666666666</ele><time>2026-04-05T08:37:02.828Z</time></trkpt><trkpt lat="45.553219234839446" lon="9.083363386191838"><ele>165.0</ele><time>2026-04-05T08:37:05.828Z</time></trkpt><trkpt lat="45.55320065628881" lon="9.083238625161954"><ele>164.83333333333334</ele><time>2026-04-05T08:37:08.828Z</time></trkpt><trkpt lat="45.553145716459994" lon="9.083162351510657"><ele>164.66666666666666</ele><time>2026-04-05T08:37:10.828Z</time></trkpt><trkpt lat="45.55311297883634" lon="9.083048181642859"><ele>164.5</ele><time>2026-04-05T08:37:14.828Z</time></trkpt><trkpt lat="45.553100018854366" lon="9.082957936731837"><ele>164.33333333333331</ele><time>2026-04-05T08:37:16.828Z</time></trkpt><trkpt lat="45.553097811990185" lon="9.082859210685058"><ele>164.16666666666666</ele><time>2026-04-05T08:37:18.828Z</time></trkpt><trkpt lat="45.553041364354314" lon="9.082773526977425"><ele>164.0</ele><time>2026-04-05T08:37:20.828Z</time></trkpt><trkpt lat="45.55303242805115" lon="9.082672136533835"><ele>164.0</ele><time>2026-04-05T08:37:22.827Z</time></trkpt><trkpt lat="45.55298271878699" lon="9.082565565485584"><ele>164.0</ele><time>2026-04-05T08:37:24.827Z</time></trkpt><trkpt lat="45.55291973509777" lon="9.082499126037467"><ele>164.0</ele><time>2026-04-05T08:37:26.827Z</time></trkpt><trkpt lat="45.552863744972214" lon="9.082402506187925"><ele>164.0</ele><time>2026-04-05T08:37:29.827Z</time></trkpt><trkpt lat="45.55281901989562" lon="9.082307985703892"><ele>164.0</ele><time>2026-04-05T08:37:33.828Z</time></trkpt><trkpt lat="45.552732947342655" lon="9.082208985007927"><ele>164.0</ele><time>2026-04-05T08:37:36.828Z</time></trkpt><trkpt lat="45.55268549545089" lon="9.082119523521094"><ele>163.83333333333331</ele><time>2026-04-05T08:37:38.828Z</time></trkpt><trkpt lat="45.55262832526783" lon="9.081994255413296"><ele>163.66666666666666</ele><time>2026-04-05T08:37:41.828Z</time></trkpt><trkpt lat="45.55259661853051" lon="9.081896930652235"><ele>163.5</ele><time>2026-04-05T08:37:43.828Z</time></trkpt><trkpt lat="45.55257568274612" lon="9.081799875822073"><ele>163.33333333333334</ele><time>2026-04-05T08:37:45.828Z</time></trkpt><trkpt lat="45.55254075901383" lon="9.081665171915937"><ele>163.16666666666669</ele><time>2026-04-05T08:37:48.828Z</time></trkpt><trkpt lat="45.55253458354955" lon="9.081546478398291"><ele>163.0</ele><time>2026-04-05T08:37:50.828Z</time></trkpt><trkpt lat="45.552553585685246" lon="9.081453003765002"><ele>163.5</ele><time>2026-04-05T08:37:52.827Z</time></trkpt><trkpt lat="45.55259371065264" lon="9.08137661691136"><ele>164.0</ele><time>2026-04-05T08:37:54.827Z</time></trkpt><trkpt lat="45.55262363921867" lon="9.081292534071542"><ele>164.5</ele><time>2026-04-05T08:37:56.827Z</time></trkpt><trkpt lat="45.55262315023918" lon="9.081190869505463"><ele>165.0</ele><time>2026-04-05T08:37:58.827Z</time></trkpt><trkpt lat="45.5526397177348" lon="9.081064140685895"><ele>165.5</ele><time>2026-04-05T08:38:01.827Z</time></trkpt><trkpt lat="45.55262943004048" lon="9.080946785651848"><ele>166.0</ele><time>2026-04-05T08:38:04.827Z</time></trkpt><trkpt lat="45.552597315904066" lon="9.08080335791013"><ele>165.83333333333334</ele><time>2026-04-05T08:38:07.827Z</time></trkpt><trkpt lat="45.55258136083649" lon="9.080712405163776"><ele>165.66666666666669</ele><time>2026-04-05T08:38:09.827Z</time></trkpt><trkpt lat="45.552535386185745" lon="9.080577896564039"><ele>165.5</ele><time>2026-04-05T08:38:12.827Z</time></trkpt><trkpt lat="45.55251370602371" lon="9.080455981568498"><ele>165.33333333333334</ele><time>2026-04-05T08:38:14.827Z</time></trkpt><trkpt lat="45.552494940956564" lon="9.0803227315148"><ele>165.16666666666666</ele><time>2026-04-05T08:38:17.826Z</time></trkpt><trkpt lat="45.55248911206267" lon="9.080222110877566"><ele>165.0</ele><time>2026-04-05T08:38:19.826Z</time></trkpt><trkpt lat="45.552465166239216" lon="9.0801313765487"><ele>165.0</ele><time>2026-04-05T08:38:21.826Z</time></trkpt><trkpt lat="45.552432138320725" lon="9.080009380773692"><ele>165.0</ele><time>2026-04-05T08:38:24.826Z</time></trkpt><trkpt lat="45.55240643954135" lon="9.079912384985922"><ele>165.0</ele><time>2026-04-05T08:38:26.826Z</time></trkpt><trkpt lat="45.55237334961198" lon="9.079788223108912"><ele>165.0</ele><time>2026-04-05T08:38:29.826Z</time></trkpt><trkpt lat="45.55234183017298" lon="9.07970339319783"><ele>165.0</ele><time>2026-04-05T08:38:31.826Z</time></trkpt><trkpt lat="45.5523235843827" lon="9.079609603749917"><ele>165.0</ele><time>2026-04-05T08:38:33.826Z</time></trkpt><trkpt lat="45.55231224334192" lon="9.079509230976623"><ele>165.0</ele><time>2026-04-05T08:38:35.826Z</time></trkpt><trkpt lat="45.55229034266735" lon="9.079420794108458"><ele>165.0</ele><time>2026-04-05T08:38:37.826Z</time></trkpt><trkpt lat="45.55226638706045" lon="9.079322734045459"><ele>165.0</ele><time>2026-04-05T08:38:39.826Z</time></trkpt><trkpt lat="45.552241851551095" lon="9.07922322802479"><ele>165.0</ele><time>2026-04-05T08:38:41.825Z</time></trkpt><trkpt lat="45.55222879311167" lon="9.079108609665592"><ele>165.0</ele><time>2026-04-05T08:38:43.825Z</time></trkpt><trkpt lat="45.55220733011347" lon="9.079013904937648"><ele>165.0</ele><time>2026-04-05T08:38:45.825Z</time></trkpt><trkpt lat="45.55218976855281" lon="9.078889128628871"><ele>165.5</ele><time>2026-04-05T08:38:47.825Z</time></trkpt><trkpt lat="45.552175718424266" lon="9.078778043619742"><ele>166.0</ele><time>2026-04-05T08:38:49.825Z</time></trkpt><trkpt lat="45.55215403884111" lon="9.078671649158991"><ele>166.5</ele><time>2026-04-05T08:38:51.825Z</time></trkpt><trkpt lat="45.55214130070505" lon="9.078548388904013"><ele>167.0</ele><time>2026-04-05T08:38:53.825Z</time></trkpt><trkpt lat="45.55213308881478" lon="9.078448034093705"><ele>167.5</ele><time>2026-04-05T08:38:55.825Z</time></trkpt><trkpt lat="45.5521289738143" lon="9.078322695864678"><ele>168.0</ele><time>2026-04-05T08:38:57.825Z</time></trkpt><trkpt lat="45.552126954334625" lon="9.07823203998254"><ele>168.0</ele><time>2026-04-05T08:38:59.825Z</time></trkpt><trkpt lat="45.5521068317244" lon="9.078140211005287"><ele>168.0</ele><time>2026-04-05T08:39:02.825Z</time></trkpt><trkpt lat="45.55210011292451" lon="9.078043840929052"><ele>168.0</ele><time>2026-04-05T08:39:04.825Z</time></trkpt><trkpt lat="45.55209161466197" lon="9.07795272292167"><ele>168.0</ele><time>2026-04-05T08:39:06.824Z</time></trkpt><trkpt lat="45.552017343513874" lon="9.077864348332266"><ele>168.0</ele><time>2026-04-05T08:39:09.824Z</time></trkpt><trkpt lat="45.5519742833022" lon="9.077785846863495"><ele>168.0</ele><time>2026-04-05T08:39:11.824Z</time></trkpt><trkpt lat="45.5519247506525" lon="9.077722958235714"><ele>168.0</ele><time>2026-04-05T08:39:13.824Z</time></trkpt><trkpt lat="45.55187922040117" lon="9.0776154022278"><ele>168.0</ele><time>2026-04-05T08:39:16.824Z</time></trkpt><trkpt lat="45.55192464894347" lon="9.07755180508116"><ele>168.0</ele><time>2026-04-05T08:39:19.824Z</time></trkpt><trkpt lat="45.55196709980512" lon="9.077451393931135"><ele>168.0</ele><time>2026-04-05T08:39:22.824Z</time></trkpt><trkpt lat="45.55197405816981" lon="9.077327539797786"><ele>168.0</ele><time>2026-04-05T08:39:25.824Z</time></trkpt><trkpt lat="45.55197660735951" lon="9.07720667118576"><ele>168.0</ele><time>2026-04-05T08:39:28.824Z</time></trkpt><trkpt lat="45.55196596827921" lon="9.077051983456391"><ele>168.0</ele><time>2026-04-05T08:39:31.823Z</time></trkpt><trkpt lat="45.55194180389643" lon="9.076967230996038"><ele>167.66666666666666</ele><time>2026-04-05T08:39:33.823Z</time></trkpt><trkpt lat="45.551939120833296" lon="9.076841285135947"><ele>167.33333333333334</ele><time>2026-04-05T08:39:35.823Z</time></trkpt><trkpt lat="45.55193723216313" lon="9.07671212269261"><ele>167.0</ele><time>2026-04-05T08:39:37.823Z</time></trkpt><trkpt lat="45.55193740931727" lon="9.076593839583158"><ele>166.66666666666669</ele><time>2026-04-05T08:39:39.824Z</time></trkpt><trkpt lat="45.55192414873299" lon="9.076478641735877"><ele>166.33333333333334</ele><time>2026-04-05T08:39:41.825Z</time></trkpt><trkpt lat="45.551916386799114" lon="9.076352150535149"><ele>166.0</ele><time>2026-04-05T08:39:43.824Z</time></trkpt><trkpt lat="45.5519294621528" lon="9.076219655734697"><ele>165.85714285714286</ele><time>2026-04-05T08:39:45.824Z</time></trkpt><trkpt lat="45.55193026389242" lon="9.076122335307666"><ele>165.71428571428572</ele><time>2026-04-05T08:39:47.824Z</time></trkpt><trkpt lat="45.55191688020699" lon="9.076017916609832"><ele>165.57142857142858</ele><time>2026-04-05T08:39:49.824Z</time></trkpt><trkpt lat="45.55190556052535" lon="9.075923934006196"><ele>165.42857142857144</ele><time>2026-04-05T08:39:51.824Z</time></trkpt><trkpt lat="45.551902521648245" lon="9.07581392486311"><ele>165.28571428571428</ele><time>2026-04-05T08:39:53.824Z</time></trkpt><trkpt lat="45.55188909459449" lon="9.075696771468255"><ele>165.14285714285717</ele><time>2026-04-05T08:39:56.824Z</time></trkpt><trkpt lat="45.55187165479588" lon="9.075596556195196"><ele>165.0</ele><time>2026-04-05T08:39:59.824Z</time></trkpt><trkpt lat="45.551854949775496" lon="9.075492390169792"><ele>165.0</ele><time>2026-04-05T08:40:02.824Z</time></trkpt><trkpt lat="45.551844013342105" lon="9.075382559485952"><ele>165.0</ele><time>2026-04-05T08:40:04.824Z</time></trkpt><trkpt lat="45.551833277960675" lon="9.075260879676177"><ele>165.0</ele><time>2026-04-05T08:40:06.824Z</time></trkpt><trkpt lat="45.55182324228424" lon="9.075152518516415"><ele>165.0</ele><time>2026-04-05T08:40:08.824Z</time></trkpt><trkpt lat="45.551822675545154" lon="9.075030777818723"><ele>165.0</ele><time>2026-04-05T08:40:10.823Z</time></trkpt><trkpt lat="45.55182047784131" lon="9.074934446679048"><ele>165.0</ele><time>2026-04-05T08:40:12.823Z</time></trkpt><trkpt lat="45.55180410635145" lon="9.074824100118535"><ele>165.0</ele><time>2026-04-05T08:40:15.823Z</time></trkpt><trkpt lat="45.55179937482876" lon="9.074676235643539"><ele>165.0</ele><time>2026-04-05T08:40:18.823Z</time></trkpt><trkpt lat="45.55180748418209" lon="9.074580481780613"><ele>165.0</ele><time>2026-04-05T08:40:20.823Z</time></trkpt><trkpt lat="45.551787751692956" lon="9.074478806217305"><ele>165.0</ele><time>2026-04-05T08:40:22.823Z</time></trkpt><trkpt lat="45.55176241831004" lon="9.07428598709891"><ele>165.0</ele><time>2026-04-05T08:40:26.823Z</time></trkpt><trkpt lat="45.551747753647405" lon="9.074152739938425"><ele>164.83333333333334</ele><time>2026-04-05T08:40:29.823Z</time></trkpt><trkpt lat="45.55173959670311" lon="9.074057835863652"><ele>164.66666666666666</ele><time>2026-04-05T08:40:31.823Z</time></trkpt><trkpt lat="45.55172179320721" lon="9.073967015553558"><ele>164.5</ele><time>2026-04-05T08:40:33.823Z</time></trkpt><trkpt lat="45.55171271139891" lon="9.073827193025837"><ele>164.33333333333331</ele><time>2026-04-05T08:40:35.822Z</time></trkpt><trkpt lat="45.55170133635986" lon="9.073721573867177"><ele>164.16666666666666</ele><time>2026-04-05T08:40:37.822Z</time></trkpt><trkpt lat="45.55169647937325" lon="9.073605607897601"><ele>164.0</ele><time>2026-04-05T08:40:39.822Z</time></trkpt><trkpt lat="45.551670076996466" lon="9.073519978857798"><ele>164.0</ele><time>2026-04-05T08:40:41.822Z</time></trkpt><trkpt lat="45.551661999749136" lon="9.073418697701479"><ele>164.0</ele><time>2026-04-05T08:40:43.822Z</time></trkpt><trkpt lat="45.55165871138229" lon="9.07328600208667"><ele>164.0</ele><time>2026-04-05T08:40:45.822Z</time></trkpt><trkpt lat="45.55165557034744" lon="9.07316492788076"><ele>164.0</ele><time>2026-04-05T08:40:47.822Z</time></trkpt><trkpt lat="45.55164154457714" lon="9.073030780963643"><ele>164.0</ele><time>2026-04-05T08:40:49.822Z</time></trkpt><trkpt lat="45.551618383190636" lon="9.072946207671945"><ele>164.0</ele><time>2026-04-05T08:40:51.822Z</time></trkpt><trkpt lat="45.55161793763717" lon="9.072802663014121"><ele>163.66666666666666</ele><time>2026-04-05T08:40:53.822Z</time></trkpt><trkpt lat="45.55160636927353" lon="9.072680501274679"><ele>163.33333333333331</ele><time>2026-04-05T08:40:55.822Z</time></trkpt><trkpt lat="45.55160045785137" lon="9.072574898159484"><ele>163.0</ele><time>2026-04-05T08:40:57.822Z</time></trkpt><trkpt lat="45.5515912107469" lon="9.072423193596615"><ele>162.66666666666666</ele><time>2026-04-05T08:41:00.821Z</time></trkpt><trkpt lat="45.55158324226197" lon="9.072274779835777"><ele>162.33333333333334</ele><time>2026-04-05T08:41:02.821Z</time></trkpt><trkpt lat="45.55156865941926" lon="9.072171733846988"><ele>162.0</ele><time>2026-04-05T08:41:04.821Z</time></trkpt><trkpt lat="45.55154336146018" lon="9.072064489369366"><ele>162.0</ele><time>2026-04-05T08:41:06.821Z</time></trkpt><trkpt lat="45.551528846953964" lon="9.07193442043806"><ele>162.0</ele><time>2026-04-05T08:41:08.821Z</time></trkpt><trkpt lat="45.55151913898687" lon="9.071802073597398"><ele>162.0</ele><time>2026-04-05T08:41:11.821Z</time></trkpt><trkpt lat="45.551501401494875" lon="9.071693783925564"><ele>162.0</ele><time>2026-04-05T08:41:14.821Z</time></trkpt><trkpt lat="45.55147505635074" lon="9.07158731738799"><ele>162.0</ele><time>2026-04-05T08:41:17.821Z</time></trkpt><trkpt lat="45.551428358121214" lon="9.071486713052682"><ele>162.0</ele><time>2026-04-05T08:41:20.821Z</time></trkpt><trkpt lat="45.55138089056481" lon="9.071418469779177"><ele>161.83333333333334</ele><time>2026-04-05T08:41:22.821Z</time></trkpt><trkpt lat="45.551310001674864" lon="9.07134659045277"><ele>161.66666666666666</ele><time>2026-04-05T08:41:25.82Z</time></trkpt><trkpt lat="45.55124833746862" lon="9.071287556242899"><ele>161.5</ele><time>2026-04-05T08:41:28.82Z</time></trkpt><trkpt lat="45.55121675712108" lon="9.07117682093442"><ele>161.33333333333331</ele><time>2026-04-05T08:41:32.82Z</time></trkpt><trkpt lat="45.55121050881617" lon="9.071057723606163"><ele>161.16666666666666</ele><time>2026-04-05T08:41:35.82Z</time></trkpt><trkpt lat="45.55122327535722" lon="9.070964343283318"><ele>161.0</ele><time>2026-04-05T08:41:38.82Z</time></trkpt><trkpt lat="45.55129435578093" lon="9.07086464964675"><ele>161.0</ele><time>2026-04-05T08:41:41.82Z</time></trkpt><trkpt lat="45.551344649535174" lon="9.070794276556335"><ele>161.0</ele><time>2026-04-05T08:41:43.82Z</time></trkpt><trkpt lat="45.551417059763956" lon="9.07074156315949"><ele>161.0</ele><time>2026-04-05T08:41:46.821Z</time></trkpt><trkpt lat="45.5514569082593" lon="9.070638470564642"><ele>161.0</ele><time>2026-04-05T08:41:49.82Z</time></trkpt><trkpt lat="45.55146553792561" lon="9.070493175106654"><ele>161.0</ele><time>2026-04-05T08:41:52.82Z</time></trkpt><trkpt lat="45.55146844621346" lon="9.070395073952708"><ele>161.0</ele><time>2026-04-05T08:41:54.82Z</time></trkpt><trkpt lat="45.551466604152836" lon="9.070273105606958"><ele>160.83333333333331</ele><time>2026-04-05T08:41:57.82Z</time></trkpt><trkpt lat="45.551454464777095" lon="9.070137767411941"><ele>160.66666666666666</ele><time>2026-04-05T08:42:00.82Z</time></trkpt><trkpt lat="45.5514334155196" lon="9.0700359322411"><ele>160.5</ele><time>2026-04-05T08:42:03.82Z</time></trkpt><trkpt lat="45.5514025592984" lon="9.069915738624594"><ele>160.33333333333334</ele><time>2026-04-05T08:42:06.82Z</time></trkpt><trkpt lat="45.55137932666026" lon="9.069806769333317"><ele>160.16666666666669</ele><time>2026-04-05T08:42:11.82Z</time></trkpt><trkpt lat="45.55137068395865" lon="9.069698434887304"><ele>160.0</ele><time>2026-04-05T08:42:15.82Z</time></trkpt><trkpt lat="45.551369608098526" lon="9.069591803928542"><ele>160.83333333333334</ele><time>2026-04-05T08:42:19.82Z</time></trkpt><trkpt lat="45.551373735538235" lon="9.069486010676822"><ele>161.66666666666669</ele><time>2026-04-05T08:42:24.819Z</time></trkpt><trkpt lat="45.551377841508256" lon="9.069379464088927"><ele>162.5</ele><time>2026-04-05T08:42:28.819Z</time></trkpt><trkpt lat="45.55137424010289" lon="9.06927494106104"><ele>163.33333333333334</ele><time>2026-04-05T08:42:32.819Z</time></trkpt><trkpt lat="45.55136266538949" lon="9.06917305936127"><ele>164.16666666666666</ele><time>2026-04-05T08:42:35.819Z</time></trkpt><trkpt lat="45.55134210079567" lon="9.069068598870862"><ele>165.0</ele><time>2026-04-05T08:42:38.819Z</time></trkpt><trkpt lat="45.551331062434976" lon="9.068955909158664"><ele>165.0</ele><time>2026-04-05T08:42:41.819Z</time></trkpt><trkpt lat="45.55131736862977" lon="9.068849492342759"><ele>165.0</ele><time>2026-04-05T08:42:44.819Z</time></trkpt><trkpt lat="45.55128916027911" lon="9.068734059700011"><ele>165.0</ele><time>2026-04-05T08:42:47.818Z</time></trkpt><trkpt lat="45.55127500467365" lon="9.06862307453952"><ele>165.0</ele><time>2026-04-05T08:42:50.818Z</time></trkpt><trkpt lat="45.55126225790054" lon="9.068513982576263"><ele>165.0</ele><time>2026-04-05T08:42:53.818Z</time></trkpt><trkpt lat="45.55129635546794" lon="9.068404391585934"><ele>165.0</ele><time>2026-04-05T08:42:57.818Z</time></trkpt><trkpt lat="45.55135588602525" lon="9.068335934085427"><ele>165.0</ele><time>2026-04-05T08:43:00.818Z</time></trkpt><trkpt lat="45.55142223374282" lon="9.068296808562005"><ele>165.0</ele><time>2026-04-05T08:43:03.818Z</time></trkpt><trkpt lat="45.5514861086742" lon="9.068254684556921"><ele>165.0</ele><time>2026-04-05T08:43:07.818Z</time></trkpt><trkpt lat="45.551510934468475" lon="9.06816796240939"><ele>165.0</ele><time>2026-04-05T08:43:10.818Z</time></trkpt><trkpt lat="45.55156847830935" lon="9.068088262195744"><ele>165.0</ele><time>2026-04-05T08:43:13.817Z</time></trkpt><trkpt lat="45.5516331781774" lon="9.068004441846194"><ele>165.0</ele><time>2026-04-05T08:43:16.817Z</time></trkpt><trkpt lat="45.551710529516484" lon="9.067925413498903"><ele>164.85714285714286</ele><time>2026-04-05T08:43:19.817Z</time></trkpt><trkpt lat="45.551759537456284" lon="9.067862338842119"><ele>164.71428571428572</ele><time>2026-04-05T08:43:21.817Z</time></trkpt><trkpt lat="45.55181741587571" lon="9.067791423319456"><ele>164.57142857142856</ele><time>2026-04-05T08:43:23.817Z</time></trkpt><trkpt lat="45.55188115687838" lon="9.067744626182403"><ele>164.42857142857144</ele><time>2026-04-05T08:43:25.817Z</time></trkpt><trkpt lat="45.55194627525594" lon="9.067688149161754"><ele>164.28571428571428</ele><time>2026-04-05T08:43:27.817Z</time></trkpt><trkpt lat="45.55200096892893" lon="9.067636714525621"><ele>164.14285714285714</ele><time>2026-04-05T08:43:29.817Z</time></trkpt><trkpt lat="45.55206306235415" lon="9.067589508541408"><ele>164.0</ele><time>2026-04-05T08:43:31.817Z</time></trkpt><trkpt lat="45.55215631765441" lon="9.067569128443507"><ele>164.0</ele><time>2026-04-05T08:43:34.817Z</time></trkpt><trkpt lat="45.552218648763926" lon="9.067536134649227"><ele>164.0</ele><time>2026-04-05T08:43:36.816Z</time></trkpt><trkpt lat="45.552303111902155" lon="9.06750251368242"><ele>164.0</ele><time>2026-04-05T08:43:39.816Z</time></trkpt><trkpt lat="45.55239261541041" lon="9.067456292650329"><ele>164.0</ele><time>2026-04-05T08:43:42.816Z</time></trkpt><trkpt lat="45.552456628228164" lon="9.067429789585772"><ele>164.0</ele><time>2026-04-05T08:43:44.816Z</time></trkpt><trkpt lat="45.55253920019871" lon="9.067406945861139"><ele>164.0</ele><time>2026-04-05T08:43:46.816Z</time></trkpt><trkpt lat="45.55261458452566" lon="9.067365612755856"><ele>163.99999999999997</ele><time>2026-04-05T08:43:48.816Z</time></trkpt><trkpt lat="45.55268342868597" lon="9.067335395498004"><ele>164.0</ele><time>2026-04-05T08:43:50.816Z</time></trkpt><trkpt lat="45.55274482761459" lon="9.067305548500622"><ele>164.0</ele><time>2026-04-05T08:43:52.816Z</time></trkpt><trkpt lat="45.55280658456095" lon="9.067269674202914"><ele>164.0</ele><time>2026-04-05T08:43:54.816Z</time></trkpt><trkpt lat="45.55288185990328" lon="9.067243948687079"><ele>164.0</ele><time>2026-04-05T08:43:56.816Z</time></trkpt><trkpt lat="45.55294866788453" lon="9.067211684525738"><ele>163.99999999999997</ele><time>2026-04-05T08:43:58.816Z</time></trkpt><trkpt lat="45.55303508401209" lon="9.067159722623163"><ele>164.0</ele><time>2026-04-05T08:44:01.816Z</time></trkpt><trkpt lat="45.55310469044854" lon="9.067130961638629"><ele>163.99999999999997</ele><time>2026-04-05T08:44:03.816Z</time></trkpt><trkpt lat="45.553181331882854" lon="9.067100909464713"><ele>164.0</ele><time>2026-04-05T08:44:05.816Z</time></trkpt><trkpt lat="45.55324534906449" lon="9.067060544461537"><ele>164.0</ele><time>2026-04-05T08:44:07.816Z</time></trkpt><trkpt lat="45.55331247364498" lon="9.0670284477895"><ele>164.0</ele><time>2026-04-05T08:44:09.816Z</time></trkpt><trkpt lat="45.55337526663949" lon="9.067005959353969"><ele>164.0</ele><time>2026-04-05T08:44:11.815Z</time></trkpt><trkpt lat="45.55344216015297" lon="9.06696819001933"><ele>163.99999999999997</ele><time>2026-04-05T08:44:13.815Z</time></trkpt><trkpt lat="45.553514222505925" lon="9.06694503447454"><ele>164.0</ele><time>2026-04-05T08:44:15.815Z</time></trkpt><trkpt lat="45.55360617312666" lon="9.066912973022669"><ele>164.0</ele><time>2026-04-05T08:44:17.815Z</time></trkpt><trkpt lat="45.55369445442414" lon="9.066887905319325"><ele>164.0</ele><time>2026-04-05T08:44:19.815Z</time></trkpt><trkpt lat="45.553779782357495" lon="9.066874009546705"><ele>164.0</ele><time>2026-04-05T08:44:21.815Z</time></trkpt><trkpt lat="45.55384471270742" lon="9.066842909725652"><ele>164.0</ele><time>2026-04-05T08:44:23.815Z</time></trkpt><trkpt lat="45.55394300129782" lon="9.066822422970136"><ele>164.0</ele><time>2026-04-05T08:44:26.815Z</time></trkpt><trkpt lat="45.55401529218878" lon="9.066794980547025"><ele>164.0</ele><time>2026-04-05T08:44:28.815Z</time></trkpt><trkpt lat="45.554082117233115" lon="9.06677484763697"><ele>164.0</ele><time>2026-04-05T08:44:30.815Z</time></trkpt><trkpt lat="45.554140514742066" lon="9.066740419023258"><ele>164.0</ele><time>2026-04-05T08:44:32.815Z</time></trkpt><trkpt lat="45.55420608529709" lon="9.066735434534245"><ele>164.0</ele><time>2026-04-05T08:44:35.814Z</time></trkpt><trkpt lat="45.554279427827446" lon="9.066694489942963"><ele>164.0</ele><time>2026-04-05T08:44:37.814Z</time></trkpt><trkpt lat="45.55437682260276" lon="9.06665594467244"><ele>164.0</ele><time>2026-04-05T08:44:40.814Z</time></trkpt><trkpt lat="45.55444536722125" lon="9.066626620860953"><ele>164.0</ele><time>2026-04-05T08:44:42.814Z</time></trkpt><trkpt lat="45.5545100111159" lon="9.066587996864646"><ele>164.0</ele><time>2026-04-05T08:44:44.814Z</time></trkpt><trkpt lat="45.55457173922317" lon="9.066561151553877"><ele>164.0</ele><time>2026-04-05T08:44:46.814Z</time></trkpt><trkpt lat="45.55465384715162" lon="9.066537933876104"><ele>164.0</ele><time>2026-04-05T08:44:48.814Z</time></trkpt><trkpt lat="45.55474274298527" lon="9.066489379750724"><ele>164.0</ele><time>2026-04-05T08:44:51.814Z</time></trkpt><trkpt lat="45.55483090900986" lon="9.066488728463174"><ele>164.0</ele><time>2026-04-05T08:44:54.814Z</time></trkpt><trkpt lat="45.554907591436596" lon="9.066508340237881"><ele>164.0</ele><time>2026-04-05T08:44:56.814Z</time></trkpt><trkpt lat="45.55498867416216" lon="9.066494778145211"><ele>164.0</ele><time>2026-04-05T08:44:58.814Z</time></trkpt><trkpt lat="45.55506546635021" lon="9.066451393316996"><ele>164.0</ele><time>2026-04-05T08:45:00.813Z</time></trkpt><trkpt lat="45.555147352432556" lon="9.066413916376709"><ele>164.0</ele><time>2026-04-05T08:45:02.813Z</time></trkpt><trkpt lat="45.5552191162869" lon="9.066387535863047"><ele>164.0</ele><time>2026-04-05T08:45:04.813Z</time></trkpt><trkpt lat="45.555287946397016" lon="9.066374225507346"><ele>164.0</ele><time>2026-04-05T08:45:06.813Z</time></trkpt><trkpt lat="45.55534912265188" lon="9.06634901971244"><ele>164.0</ele><time>2026-04-05T08:45:08.813Z</time></trkpt><trkpt lat="45.555426943501935" lon="9.066333146910141"><ele>164.14285714285714</ele><time>2026-04-05T08:45:10.813Z</time></trkpt><trkpt lat="45.55549125181461" lon="9.066314495374177"><ele>164.28571428571428</ele><time>2026-04-05T08:45:12.813Z</time></trkpt><trkpt lat="45.555557949687355" lon="9.066291551922715"><ele>164.42857142857144</ele><time>2026-04-05T08:45:14.813Z</time></trkpt><trkpt lat="45.55563675679122" lon="9.066268407101072"><ele>164.57142857142856</ele><time>2026-04-05T08:45:16.813Z</time></trkpt><trkpt lat="45.55571098849022" lon="9.066255695378459"><ele>164.71428571428572</ele><time>2026-04-05T08:45:18.813Z</time></trkpt><trkpt lat="45.555785201935244" lon="9.066240541547774"><ele>164.85714285714286</ele><time>2026-04-05T08:45:20.813Z</time></trkpt><trkpt lat="45.555847908687305" lon="9.066211539245273"><ele>165.0</ele><time>2026-04-05T08:45:22.813Z</time></trkpt><trkpt lat="45.555922468491914" lon="9.066206440854096"><ele>165.0</ele><time>2026-04-05T08:45:24.812Z</time></trkpt><trkpt lat="45.555989679903" lon="9.066182947191349"><ele>165.0</ele><time>2026-04-05T08:45:26.812Z</time></trkpt><trkpt lat="45.55605886369383" lon="9.066174099912612"><ele>165.0</ele><time>2026-04-05T08:45:28.812Z</time></trkpt><trkpt lat="45.55612643903559" lon="9.066179739171039"><ele>165.0</ele><time>2026-04-05T08:45:30.812Z</time></trkpt><trkpt lat="45.55618861241297" lon="9.066214320553447"><ele>165.0</ele><time>2026-04-05T08:45:32.812Z</time></trkpt><trkpt lat="45.556255529680364" lon="9.066308798661277"><ele>165.0</ele><time>2026-04-05T08:45:35.812Z</time></trkpt><trkpt lat="45.55634719301492" lon="9.066285790805193"><ele>165.2857142857143</ele><time>2026-04-05T08:45:38.812Z</time></trkpt><trkpt lat="45.55634160315167" lon="9.066196203424454"><ele>165.57142857142858</ele><time>2026-04-05T08:45:40.812Z</time></trkpt><trkpt lat="45.55634697746688" lon="9.066074290913146"><ele>165.85714285714286</ele><time>2026-04-05T08:45:43.812Z</time></trkpt><trkpt lat="45.556414502375546" lon="9.065997343714452"><ele>166.14285714285717</ele><time>2026-04-05T08:45:46.812Z</time></trkpt><trkpt lat="45.55646336471859" lon="9.065932751793646"><ele>166.42857142857144</ele><time>2026-04-05T08:45:49.811Z</time></trkpt><trkpt lat="45.55651746509117" lon="9.065883226746664"><ele>166.71428571428572</ele><time>2026-04-05T08:45:51.811Z</time></trkpt><trkpt lat="45.55657731138387" lon="9.065816905941464"><ele>167.0</ele><time>2026-04-05T08:45:53.811Z</time></trkpt><trkpt lat="45.55663140882512" lon="9.065751387366268"><ele>167.0</ele><time>2026-04-05T08:45:55.811Z</time></trkpt><trkpt lat="45.5566797435314" lon="9.065685859218238"><ele>167.0</ele><time>2026-04-05T08:45:57.813Z</time></trkpt><trkpt lat="45.556732919321284" lon="9.065635169639007"><ele>167.0</ele><time>2026-04-05T08:45:59.812Z</time></trkpt><trkpt lat="45.55680038038512" lon="9.065544677354511"><ele>167.0</ele><time>2026-04-05T08:46:02.812Z</time></trkpt><trkpt lat="45.55686760985323" lon="9.065487956147546"><ele>167.0</ele><time>2026-04-05T08:46:05.812Z</time></trkpt><trkpt lat="45.556910942357305" lon="9.065416561330156"><ele>167.0</ele><time>2026-04-05T08:46:08.812Z</time></trkpt><trkpt lat="45.55689699668753" lon="9.065326107058748"><ele>167.0</ele><time>2026-04-05T08:46:12.811Z</time></trkpt><trkpt lat="45.55686627495418" lon="9.065206874737388"><ele>167.0</ele><time>2026-04-05T08:46:16.811Z</time></trkpt><trkpt lat="45.55691356997721" lon="9.065123183873014"><ele>167.0</ele><time>2026-04-05T08:46:19.811Z</time></trkpt><trkpt lat="45.55697297902256" lon="9.065047657548183"><ele>167.0</ele><time>2026-04-05T08:46:22.811Z</time></trkpt><trkpt lat="45.55703127928429" lon="9.064979276158729"><ele>167.0</ele><time>2026-04-05T08:46:25.811Z</time></trkpt><trkpt lat="45.55708746698479" lon="9.064904201727478"><ele>167.0</ele><time>2026-04-05T08:46:27.811Z</time></trkpt><trkpt lat="45.557146386892455" lon="9.064830298241397"><ele>167.0</ele><time>2026-04-05T08:46:29.811Z</time></trkpt><trkpt lat="45.557214202440484" lon="9.064756482648326"><ele>167.5</ele><time>2026-04-05T08:46:32.811Z</time></trkpt><trkpt lat="45.55730394608592" lon="9.064691618788634"><ele>168.0</ele><time>2026-04-05T08:46:35.81Z</time></trkpt><trkpt lat="45.55736283017087" lon="9.064643974180786"><ele>168.5</ele><time>2026-04-05T08:46:37.81Z</time></trkpt><trkpt lat="45.55742629469471" lon="9.064598154972312"><ele>169.0</ele><time>2026-04-05T08:46:39.81Z</time></trkpt><trkpt lat="45.55748747826024" lon="9.064548568020033"><ele>169.5</ele><time>2026-04-05T08:46:41.81Z</time></trkpt><trkpt lat="45.55755067178434" lon="9.064517091480331"><ele>170.0</ele><time>2026-04-05T08:46:43.81Z</time></trkpt><trkpt lat="45.55762653814426" lon="9.064451425194392"><ele>170.0</ele><time>2026-04-05T08:46:46.879Z</time></trkpt><trkpt lat="45.55769012106885" lon="9.064430972226782"><ele>170.0</ele><time>2026-04-05T08:46:48.879Z</time></trkpt><trkpt lat="45.55777751284431" lon="9.064403070402527"><ele>170.0</ele><time>2026-04-05T08:46:51.879Z</time></trkpt><trkpt lat="45.557869063152715" lon="9.064374514586948"><ele>170.0</ele><time>2026-04-05T08:46:54.879Z</time></trkpt><trkpt lat="45.55795994071678" lon="9.064358261804257"><ele>170.0</ele><time>2026-04-05T08:46:57.879Z</time></trkpt><trkpt lat="45.55804872562388" lon="9.064319254588108"><ele>170.0</ele><time>2026-04-05T08:47:00.879Z</time></trkpt><trkpt lat="45.55812495248464" lon="9.064315850030676"><ele>170.5</ele><time>2026-04-05T08:47:02.879Z</time></trkpt><trkpt lat="45.55821831796187" lon="9.064277495811309"><ele>171.0</ele><time>2026-04-05T08:47:05.879Z</time></trkpt><trkpt lat="45.558443361744885" lon="9.064251391494565"><ele>171.5</ele><time>2026-04-05T08:47:13.879Z</time></trkpt><trkpt lat="45.55851581098205" lon="9.064245242596416"><ele>172.0</ele><time>2026-04-05T08:47:16.879Z</time></trkpt><trkpt lat="45.55866832846098" lon="9.064242078319518"><ele>171.42857142857144</ele><time>2026-04-05T08:47:21.879Z</time></trkpt><trkpt lat="45.55873272212386" lon="9.06423686668303"><ele>170.85714285714286</ele><time>2026-04-05T08:47:23.879Z</time></trkpt><trkpt lat="45.55880289646946" lon="9.064228664151061"><ele>170.28571428571428</ele><time>2026-04-05T08:47:25.879Z</time></trkpt><trkpt lat="45.558881403820706" lon="9.064269471020816"><ele>169.71428571428572</ele><time>2026-04-05T08:47:28.879Z</time></trkpt><trkpt lat="45.558939193953655" lon="9.064349448455978"><ele>169.14285714285714</ele><time>2026-04-05T08:47:31.879Z</time></trkpt><trkpt lat="45.55901026263014" lon="9.064343626540182"><ele>168.57142857142858</ele><time>2026-04-05T08:47:33.879Z</time></trkpt><trkpt lat="45.559071206810394" lon="9.064295433568967"><ele>168.0</ele><time>2026-04-05T08:47:35.879Z</time></trkpt><trkpt lat="45.55914027009998" lon="9.064274900387835"><ele>168.0</ele><time>2026-04-05T08:47:37.879Z</time></trkpt><trkpt lat="45.55921379042014" lon="9.064250967181874"><ele>168.0</ele><time>2026-04-05T08:47:39.879Z</time></trkpt><trkpt lat="45.55928312037274" lon="9.064223717355889"><ele>168.0</ele><time>2026-04-05T08:47:41.879Z</time></trkpt><trkpt lat="45.55934943946371" lon="9.06420761265087"><ele>168.0</ele><time>2026-04-05T08:47:43.879Z</time></trkpt><trkpt lat="45.55943152534446" lon="9.064185893928157"><ele>168.0</ele><time>2026-04-05T08:47:46.878Z</time></trkpt><trkpt lat="45.559497916053566" lon="9.064175070752421"><ele>168.0</ele><time>2026-04-05T08:47:48.878Z</time></trkpt><trkpt lat="45.55956866716416" lon="9.06415001326897"><ele>168.0</ele><time>2026-04-05T08:47:50.878Z</time></trkpt><trkpt lat="45.559635425916994" lon="9.06412682186031"><ele>168.0</ele><time>2026-04-05T08:47:52.878Z</time></trkpt><trkpt lat="45.559700432767166" lon="9.064116300205335"><ele>168.0</ele><time>2026-04-05T08:47:54.878Z</time></trkpt><trkpt lat="45.55978130172132" lon="9.064091655849806"><ele>168.0</ele><time>2026-04-05T08:47:57.878Z</time></trkpt><trkpt lat="45.55984688835115" lon="9.064080190335241"><ele>168.0</ele><time>2026-04-05T08:47:59.878Z</time></trkpt><trkpt lat="45.559919899059004" lon="9.064066320730834"><ele>168.0</ele><time>2026-04-05T08:48:01.878Z</time></trkpt><trkpt lat="45.56003206994251" lon="9.064032689115152"><ele>168.0</ele><time>2026-04-05T08:48:04.88Z</time></trkpt><trkpt lat="45.560111325308505" lon="9.064016126136883"><ele>168.0</ele><time>2026-04-05T08:48:06.879Z</time></trkpt><trkpt lat="45.56017310773349" lon="9.063994268053804"><ele>168.0</ele><time>2026-04-05T08:48:08.88Z</time></trkpt><trkpt lat="45.56026194558125" lon="9.063965691556477"><ele>168.0</ele><time>2026-04-05T08:48:11.879Z</time></trkpt><trkpt lat="45.560332579752306" lon="9.06395413304846"><ele>168.0</ele><time>2026-04-05T08:48:13.879Z</time></trkpt><trkpt lat="45.56040930340396" lon="9.063949712484709"><ele>168.0</ele><time>2026-04-05T08:48:15.879Z</time></trkpt><trkpt lat="45.56048904698952" lon="9.063938786352727"><ele>168.0</ele><time>2026-04-05T08:48:17.879Z</time></trkpt><trkpt lat="45.56056406587752" lon="9.063924371967335"><ele>167.66666666666666</ele><time>2026-04-05T08:48:19.879Z</time></trkpt><trkpt lat="45.560640222902244" lon="9.063920265516906"><ele>167.33333333333334</ele><time>2026-04-05T08:48:21.879Z</time></trkpt><trkpt lat="45.56072021624723" lon="9.06391783209081"><ele>167.0</ele><time>2026-04-05T08:48:23.879Z</time></trkpt><trkpt lat="45.56080207585584" lon="9.063906685499328"><ele>166.66666666666669</ele><time>2026-04-05T08:48:25.879Z</time></trkpt><trkpt lat="45.560888254250294" lon="9.063907282710884"><ele>166.33333333333334</ele><time>2026-04-05T08:48:27.879Z</time></trkpt><trkpt lat="45.56098255612622" lon="9.063913372550704"><ele>166.0</ele><time>2026-04-05T08:48:29.879Z</time></trkpt><trkpt lat="45.561071555175296" lon="9.06392774495709"><ele>166.0</ele><time>2026-04-05T08:48:31.879Z</time></trkpt><trkpt lat="45.56115301266851" lon="9.063942685669842"><ele>166.0</ele><time>2026-04-05T08:48:33.879Z</time></trkpt><trkpt lat="45.56124029524016" lon="9.063956647248206"><ele>166.0</ele><time>2026-04-05T08:48:35.879Z</time></trkpt><trkpt lat="45.56131925480279" lon="9.063970344945668"><ele>166.0</ele><time>2026-04-05T08:48:37.878Z</time></trkpt><trkpt lat="45.561397527111914" lon="9.063991055846701"><ele>166.0</ele><time>2026-04-05T08:48:39.878Z</time></trkpt><trkpt lat="45.56146857198521" lon="9.064008594490508"><ele>166.0</ele><time>2026-04-05T08:48:41.878Z</time></trkpt><trkpt lat="45.561547395917856" lon="9.064026756479375"><ele>166.85714285714286</ele><time>2026-04-05T08:48:43.878Z</time></trkpt><trkpt lat="45.56162405322719" lon="9.064041335801244"><ele>167.71428571428572</ele><time>2026-04-05T08:48:45.878Z</time></trkpt><trkpt lat="45.56169765221633" lon="9.064060874701502"><ele>168.57142857142858</ele><time>2026-04-05T08:48:47.878Z</time></trkpt><trkpt lat="45.5617696191782" lon="9.064076068828852"><ele>169.42857142857144</ele><time>2026-04-05T08:48:49.878Z</time></trkpt><trkpt lat="45.56184581150247" lon="9.064093823424772"><ele>170.28571428571428</ele><time>2026-04-05T08:48:51.878Z</time></trkpt><trkpt lat="45.561913386034966" lon="9.064112440634586"><ele>171.14285714285717</ele><time>2026-04-05T08:48:53.878Z</time></trkpt><trkpt lat="45.56198824885493" lon="9.064119463844026"><ele>172.0</ele><time>2026-04-05T08:48:56.878Z</time></trkpt><trkpt lat="45.56202684541364" lon="9.063986733628587"><ele>172.0</ele><time>2026-04-05T08:48:59.878Z</time></trkpt><trkpt lat="45.562031967320415" lon="9.063855132405374"><ele>172.0</ele><time>2026-04-05T08:49:01.878Z</time></trkpt><trkpt lat="45.562051573651175" lon="9.06374145962518"><ele>172.0</ele><time>2026-04-05T08:49:03.878Z</time></trkpt><trkpt lat="45.56206535077454" lon="9.06361766478469"><ele>172.0</ele><time>2026-04-05T08:49:05.878Z</time></trkpt><trkpt lat="45.56207038523255" lon="9.063489145351502"><ele>172.0</ele><time>2026-04-05T08:49:07.878Z</time></trkpt><trkpt lat="45.5620685660441" lon="9.063360754791482"><ele>172.0</ele><time>2026-04-05T08:49:09.878Z</time></trkpt><trkpt lat="45.56205842566067" lon="9.06323461719151"><ele>172.0</ele><time>2026-04-05T08:49:11.878Z</time></trkpt><trkpt lat="45.562042028610044" lon="9.063095660808823"><ele>172.0</ele><time>2026-04-05T08:49:13.878Z</time></trkpt><trkpt lat="45.56202476305455" lon="9.062926591784793"><ele>172.0</ele><time>2026-04-05T08:49:15.878Z</time></trkpt><trkpt lat="45.562014074265164" lon="9.062832900914374"><ele>172.0</ele><time>2026-04-05T08:49:16.877Z</time></trkpt><trkpt lat="45.56200563577241" lon="9.062741954012136"><ele>172.0</ele><time>2026-04-05T08:49:17.877Z</time></trkpt><trkpt lat="45.56199127853167" lon="9.062573308967194"><ele>172.0</ele><time>2026-04-05T08:49:19.877Z</time></trkpt><trkpt lat="45.56198567426324" lon="9.0624306476006"><ele>172.0</ele><time>2026-04-05T08:49:21.877Z</time></trkpt><trkpt lat="45.56197979606409" lon="9.062315475073074"><ele>172.0</ele><time>2026-04-05T08:49:23.877Z</time></trkpt><trkpt lat="45.56197819386712" lon="9.062194310161816"><ele>172.0</ele><time>2026-04-05T08:49:25.877Z</time></trkpt><trkpt lat="45.56197088022345" lon="9.062092373441034"><ele>172.0</ele><time>2026-04-05T08:49:27.877Z</time></trkpt><trkpt lat="45.56197752329297" lon="9.061977167478835"><ele>172.0</ele><time>2026-04-05T08:49:29.877Z</time></trkpt><trkpt lat="45.561996055768766" lon="9.061840958216198"><ele>172.0</ele><time>2026-04-05T08:49:31.877Z</time></trkpt><trkpt lat="45.56198450088407" lon="9.061741313384035"><ele>172.0</ele><time>2026-04-05T08:49:33.877Z</time></trkpt><trkpt lat="45.56195357263465" lon="9.061615976522791"><ele>172.0</ele><time>2026-04-05T08:49:35.877Z</time></trkpt><trkpt lat="45.56191563855928" lon="9.06142712270743"><ele>172.0</ele><time>2026-04-05T08:49:37.877Z</time></trkpt><trkpt lat="45.56190909909873" lon="9.061320489273326"><ele>172.0</ele><time>2026-04-05T08:49:38.877Z</time></trkpt><trkpt lat="45.5618479400847" lon="9.061164303687248"><ele>172.16666666666669</ele><time>2026-04-05T08:49:40.877Z</time></trkpt><trkpt lat="45.56182937178434" lon="9.061058924802305"><ele>172.33333333333334</ele><time>2026-04-05T08:49:41.877Z</time></trkpt><trkpt lat="45.56180245154974" lon="9.060977392371116"><ele>172.5</ele><time>2026-04-05T08:49:42.877Z</time></trkpt><trkpt lat="45.5617434902653" lon="9.060845831380545"><ele>172.66666666666666</ele><time>2026-04-05T08:49:44.877Z</time></trkpt><trkpt lat="45.561700750441204" lon="9.060722277113493"><ele>172.83333333333331</ele><time>2026-04-05T08:49:46.877Z</time></trkpt><trkpt lat="45.56166742491057" lon="9.060628989657697"><ele>173.0</ele><time>2026-04-05T08:49:48.877Z</time></trkpt><trkpt lat="45.561638432900835" lon="9.0605380576727"><ele>173.5</ele><time>2026-04-05T08:49:50.877Z</time></trkpt><trkpt lat="45.56160050495474" lon="9.060396415417673"><ele>174.0</ele><time>2026-04-05T08:49:53.877Z</time></trkpt><trkpt lat="45.56155055286401" lon="9.060299861855984"><ele>174.5</ele><time>2026-04-05T08:49:56.876Z</time></trkpt><trkpt lat="45.56152426844379" lon="9.060214656672173"><ele>175.0</ele><time>2026-04-05T08:49:58.876Z</time></trkpt><trkpt lat="45.56149376325365" lon="9.060077867576307"><ele>175.5</ele><time>2026-04-05T08:50:01.876Z</time></trkpt><trkpt lat="45.561474014187596" lon="9.059954488111092"><ele>176.0</ele><time>2026-04-05T08:50:03.876Z</time></trkpt><trkpt lat="45.56145020706569" lon="9.059810769810905"><ele>176.4</ele><time>2026-04-05T08:50:05.876Z</time></trkpt><trkpt lat="45.5614311201002" lon="9.059674790527492"><ele>176.8</ele><time>2026-04-05T08:50:07.876Z</time></trkpt><trkpt lat="45.561419218725604" lon="9.059536345748233"><ele>177.20000000000002</ele><time>2026-04-05T08:50:09.877Z</time></trkpt><trkpt lat="45.56140961816545" lon="9.059384588022825"><ele>177.60000000000002</ele><time>2026-04-05T08:50:11.878Z</time></trkpt><trkpt lat="45.56139550910187" lon="9.059225954713295"><ele>178.0</ele><time>2026-04-05T08:50:13.877Z</time></trkpt><trkpt lat="45.56137837707141" lon="9.059082902604882"><ele>178.0</ele><time>2026-04-05T08:50:15.877Z</time></trkpt><trkpt lat="45.56136077477684" lon="9.05892839314787"><ele>178.0</ele><time>2026-04-05T08:50:17.877Z</time></trkpt><trkpt lat="45.56134915247208" lon="9.058764375185245"><ele>178.0</ele><time>2026-04-05T08:50:19.877Z</time></trkpt><trkpt lat="45.561331297003974" lon="9.058610570788096"><ele>178.0</ele><time>2026-04-05T08:50:21.878Z</time></trkpt><trkpt lat="45.561307622620944" lon="9.05846890393397"><ele>178.0</ele><time>2026-04-05T08:50:23.877Z</time></trkpt><trkpt lat="45.561290970436836" lon="9.058313967405939"><ele>177.60000000000002</ele><time>2026-04-05T08:50:25.877Z</time></trkpt><trkpt lat="45.561272740086515" lon="9.058160786385288"><ele>177.20000000000002</ele><time>2026-04-05T08:50:27.877Z</time></trkpt><trkpt lat="45.56126977039172" lon="9.05806962609149"><ele>176.8</ele><time>2026-04-05T08:50:28.877Z</time></trkpt><trkpt lat="45.56125642313025" lon="9.057899969776914"><ele>176.4</ele><time>2026-04-05T08:50:30.877Z</time></trkpt><trkpt lat="45.56123594585313" lon="9.057736979515015"><ele>176.0</ele><time>2026-04-05T08:50:32.877Z</time></trkpt><trkpt lat="45.561225981154124" lon="9.05757563958953"><ele>175.0</ele><time>2026-04-05T08:50:34.877Z</time></trkpt><trkpt lat="45.56121591230395" lon="9.057423141775802"><ele>174.0</ele><time>2026-04-05T08:50:36.877Z</time></trkpt><trkpt lat="45.56120743096676" lon="9.057288920474189"><ele>173.0</ele><time>2026-04-05T08:50:38.877Z</time></trkpt><trkpt lat="45.56120512063075" lon="9.057165413411447"><ele>172.0</ele><time>2026-04-05T08:50:40.877Z</time></trkpt><trkpt lat="45.56120032450725" lon="9.05706975660958"><ele>171.0</ele><time>2026-04-05T08:50:42.877Z</time></trkpt><trkpt lat="45.56119614944335" lon="9.056947611239746"><ele>170.0</ele><time>2026-04-05T08:50:45.877Z</time></trkpt><trkpt lat="45.561188648316566" lon="9.056845626104163"><ele>170.0</ele><time>2026-04-05T08:50:48.877Z</time></trkpt><trkpt lat="45.561196798746735" lon="9.056756107684457"><ele>170.0</ele><time>2026-04-05T08:50:53.877Z</time></trkpt><trkpt lat="45.56119980539591" lon="9.05664816730628"><ele>170.0</ele><time>2026-04-05T08:52:56.875Z</time></trkpt><trkpt lat="45.56118270806572" lon="9.056532635037632"><ele>170.0</ele><time>2026-04-05T08:52:59.875Z</time></trkpt><trkpt lat="45.56115327362005" lon="9.056403621265957"><ele>170.0</ele><time>2026-04-05T08:53:02.875Z</time></trkpt><trkpt lat="45.56112822987726" lon="9.056301311196297"><ele>170.0</ele><time>2026-04-05T08:53:04.874Z</time></trkpt><trkpt lat="45.56110820427161" lon="9.056215101743376"><ele>170.0</ele><time>2026-04-05T08:53:06.874Z</time></trkpt><trkpt lat="45.56109909094527" lon="9.056106738828433"><ele>170.0</ele><time>2026-04-05T08:53:08.874Z</time></trkpt><trkpt lat="45.56108424612776" lon="9.055988763354643"><ele>170.0</ele><time>2026-04-05T08:53:10.874Z</time></trkpt><trkpt lat="45.56106330539771" lon="9.055857387678927"><ele>170.0</ele><time>2026-04-05T08:53:12.874Z</time></trkpt><trkpt lat="45.56103642718383" lon="9.055728642602919"><ele>170.0</ele><time>2026-04-05T08:53:14.874Z</time></trkpt><trkpt lat="45.561033830711935" lon="9.055611698171447"><ele>170.0</ele><time>2026-04-05T08:53:16.874Z</time></trkpt><trkpt lat="45.56102009655559" lon="9.055509789983242"><ele>170.0</ele><time>2026-04-05T08:53:18.874Z</time></trkpt><trkpt lat="45.56100105795266" lon="9.055412977192155"><ele>170.0</ele><time>2026-04-05T08:53:20.874Z</time></trkpt><trkpt lat="45.560989113531" lon="9.055286340196504"><ele>170.0</ele><time>2026-04-05T08:53:22.874Z</time></trkpt><trkpt lat="45.560971424304476" lon="9.055172820398424"><ele>170.0</ele><time>2026-04-05T08:53:24.874Z</time></trkpt><trkpt lat="45.56095296909315" lon="9.055047061878854"><ele>170.0</ele><time>2026-04-05T08:53:26.874Z</time></trkpt><trkpt lat="45.56094149563508" lon="9.054936253377933"><ele>170.0</ele><time>2026-04-05T08:53:28.874Z</time></trkpt><trkpt lat="45.56092388917656" lon="9.054830039802933"><ele>170.0</ele><time>2026-04-05T08:53:31.874Z</time></trkpt><trkpt lat="45.56090767514807" lon="9.054742574287047"><ele>170.0</ele><time>2026-04-05T08:53:33.874Z</time></trkpt><trkpt lat="45.56088993732099" lon="9.054652534848918"><ele>170.0</ele><time>2026-04-05T08:53:35.874Z</time></trkpt><trkpt lat="45.5608745030449" lon="9.054552542473807"><ele>170.0</ele><time>2026-04-05T08:53:37.874Z</time></trkpt><trkpt lat="45.560858927258586" lon="9.054438933079632"><ele>170.0</ele><time>2026-04-05T08:53:39.874Z</time></trkpt><trkpt lat="45.5608465396192" lon="9.054290544236705"><ele>170.0</ele><time>2026-04-05T08:53:41.874Z</time></trkpt><trkpt lat="45.56083233782102" lon="9.054142892986386"><ele>169.83333333333331</ele><time>2026-04-05T08:53:43.873Z</time></trkpt><trkpt lat="45.560819961711" lon="9.054002867069357"><ele>169.66666666666666</ele><time>2026-04-05T08:53:45.873Z</time></trkpt><trkpt lat="45.560806208342754" lon="9.053861312124681"><ele>169.5</ele><time>2026-04-05T08:53:47.873Z</time></trkpt><trkpt lat="45.56078279639721" lon="9.053744141233123"><ele>169.33333333333334</ele><time>2026-04-05T08:53:49.873Z</time></trkpt><trkpt lat="45.56073526012931" lon="9.053642823088182"><ele>169.16666666666669</ele><time>2026-04-05T08:53:51.873Z</time></trkpt><trkpt lat="45.560660867057365" lon="9.05360999309854"><ele>169.0</ele><time>2026-04-05T08:53:53.873Z</time></trkpt><trkpt lat="45.56058633391039" lon="9.053540427935447"><ele>169.0</ele><time>2026-04-05T08:53:55.873Z</time></trkpt><trkpt lat="45.56055851287085" lon="9.053446039222294"><ele>169.0</ele><time>2026-04-05T08:53:57.873Z</time></trkpt><trkpt lat="45.560623868237535" lon="9.053408029730354"><ele>169.0</ele><time>2026-04-05T08:53:59.873Z</time></trkpt><trkpt lat="45.5607118956984" lon="9.053409330793661"><ele>169.0</ele><time>2026-04-05T08:54:01.873Z</time></trkpt><trkpt lat="45.560797924119605" lon="9.053357856302554"><ele>169.0</ele><time>2026-04-05T08:54:03.873Z</time></trkpt><trkpt lat="45.560876138487096" lon="9.053292126002923"><ele>169.0</ele><time>2026-04-05T08:54:05.873Z</time></trkpt><trkpt lat="45.56094344983116" lon="9.05327835897094"><ele>169.0</ele><time>2026-04-05T08:54:07.873Z</time></trkpt><trkpt lat="45.56100103873636" lon="9.05331656138481"><ele>169.0</ele><time>2026-04-05T08:54:09.873Z</time></trkpt><trkpt lat="45.561084525110836" lon="9.053384080273771"><ele>169.0</ele><time>2026-04-05T08:54:11.873Z</time></trkpt><trkpt lat="45.5611656437469" lon="9.053363058953545"><ele>169.0</ele><time>2026-04-05T08:54:13.873Z</time></trkpt><trkpt lat="45.56123292540681" lon="9.053248446851367"><ele>169.0</ele><time>2026-04-05T08:54:15.873Z</time></trkpt><trkpt lat="45.56128442446959" lon="9.053161559265577"><ele>169.0</ele><time>2026-04-05T08:54:18.873Z</time></trkpt><trkpt lat="45.561307976640315" lon="9.053054379897839"><ele>168.6</ele><time>2026-04-05T08:54:21.873Z</time></trkpt><trkpt lat="45.56127689647795" lon="9.052911692375403"><ele>168.2</ele><time>2026-04-05T08:54:23.873Z</time></trkpt><trkpt lat="45.561224679713284" lon="9.05279840038078"><ele>167.79999999999998</ele><time>2026-04-05T08:54:25.873Z</time></trkpt><trkpt lat="45.56114685446485" lon="9.052774584838781"><ele>167.39999999999998</ele><time>2026-04-05T08:54:27.873Z</time></trkpt><trkpt lat="45.56109014078864" lon="9.052880481098393"><ele>167.0</ele><time>2026-04-05T08:54:29.873Z</time></trkpt><trkpt lat="45.56102552713125" lon="9.052940627815426"><ele>167.0</ele><time>2026-04-05T08:54:31.873Z</time></trkpt><trkpt lat="45.56096427323126" lon="9.05283477050288"><ele>167.0</ele><time>2026-04-05T08:54:33.873Z</time></trkpt><trkpt lat="45.560935978163045" lon="9.052701328623728"><ele>167.0</ele><time>2026-04-05T08:54:35.873Z</time></trkpt><trkpt lat="45.560893479224404" lon="9.05260143028428"><ele>167.0</ele><time>2026-04-05T08:54:37.873Z</time></trkpt><trkpt lat="45.560845719241286" lon="9.052523549187578"><ele>167.0</ele><time>2026-04-05T08:54:40.873Z</time></trkpt><trkpt lat="45.56080520368846" lon="9.052435123603287"><ele>167.0</ele><time>2026-04-05T08:54:45.873Z</time></trkpt><trkpt lat="45.56074537059623" lon="9.052386053949341"><ele>167.0</ele><time>2026-04-05T08:54:50.872Z</time></trkpt><trkpt lat="45.56066510784056" lon="9.052395067451702"><ele>167.0</ele><time>2026-04-05T08:54:53.872Z</time></trkpt><trkpt lat="45.56059465284562" lon="9.05245489172064"><ele>167.0</ele><time>2026-04-05T08:54:56.872Z</time></trkpt><trkpt lat="45.560530865474846" lon="9.052436592035942"><ele>167.0</ele><time>2026-04-05T08:54:58.872Z</time></trkpt><trkpt lat="45.560481620861815" lon="9.05237564344795"><ele>167.0</ele><time>2026-04-05T08:55:00.872Z</time></trkpt><trkpt lat="45.56040818221142" lon="9.052356589138634"><ele>167.0</ele><time>2026-04-05T08:56:02.871Z</time></trkpt><trkpt lat="45.5604088396485" lon="9.05245340668514"><ele>167.0</ele><time>2026-04-05T08:56:06.871Z</time></trkpt><trkpt lat="45.560481996384446" lon="9.052497280106405"><ele>167.0</ele><time>2026-04-05T08:56:11.87Z</time></trkpt><trkpt lat="45.56050506022496" lon="9.052585405596835"><ele>167.0</ele><time>2026-04-05T08:56:13.87Z</time></trkpt><trkpt lat="45.56045771456987" lon="9.052682433646734"><ele>167.0</ele><time>2026-04-05T08:56:16.87Z</time></trkpt><trkpt lat="45.5603911367856" lon="9.052706485456657"><ele>167.0</ele><time>2026-04-05T08:56:21.87Z</time></trkpt><trkpt lat="45.560440610227324" lon="9.05282559663123"><ele>167.0</ele><time>2026-04-05T08:56:24.87Z</time></trkpt><trkpt lat="45.560452098263944" lon="9.052963982410363"><ele>167.0</ele><time>2026-04-05T08:56:26.87Z</time></trkpt><trkpt lat="45.56044853133331" lon="9.053054130769846"><ele>167.0</ele><time>2026-04-05T08:56:28.871Z</time></trkpt><trkpt lat="45.56045175060388" lon="9.053165136676412"><ele>167.0</ele><time>2026-04-05T08:56:32.871Z</time></trkpt><trkpt lat="45.56043524718853" lon="9.053253710223098"><ele>167.0</ele><time>2026-04-05T08:56:36.871Z</time></trkpt><trkpt lat="45.56035805367646" lon="9.05326784674638"><ele>167.0</ele><time>2026-04-05T08:56:39.871Z</time></trkpt><trkpt lat="45.56027587052491" lon="9.053286506161722"><ele>167.0</ele><time>2026-04-05T08:56:42.87Z</time></trkpt><trkpt lat="45.56019500033451" lon="9.053273153507034"><ele>167.0</ele><time>2026-04-05T08:56:45.87Z</time></trkpt><trkpt lat="45.56012397294433" lon="9.05327271623213"><ele>167.0</ele><time>2026-04-05T08:56:49.87Z</time></trkpt><trkpt lat="45.56005178750193" lon="9.053272810371421"><ele>167.0</ele><time>2026-04-05T08:56:52.87Z</time></trkpt><trkpt lat="45.559960394011334" lon="9.053307695849698"><ele>167.0</ele><time>2026-04-05T08:56:55.87Z</time></trkpt><trkpt lat="45.559861371357826" lon="9.053322538495228"><ele>167.0</ele><time>2026-04-05T08:56:58.87Z</time></trkpt><trkpt lat="45.559772902047484" lon="9.053356127125163"><ele>167.0</ele><time>2026-04-05T08:57:00.87Z</time></trkpt><trkpt lat="45.55967945121279" lon="9.053385220485005"><ele>167.0</ele><time>2026-04-05T08:57:02.87Z</time></trkpt><trkpt lat="45.55960515657703" lon="9.05342395081615"><ele>167.0</ele><time>2026-04-05T08:57:04.87Z</time></trkpt><trkpt lat="45.55951553833314" lon="9.053462823140897"><ele>167.0</ele><time>2026-04-05T08:57:07.87Z</time></trkpt><trkpt lat="45.55945267477913" lon="9.053479601374827"><ele>167.0</ele><time>2026-04-05T08:57:09.87Z</time></trkpt><trkpt lat="45.55938222889466" lon="9.053503639348726"><ele>167.0</ele><time>2026-04-05T08:57:11.869Z</time></trkpt><trkpt lat="45.559306868019796" lon="9.053536527071392"><ele>167.0</ele><time>2026-04-05T08:57:13.869Z</time></trkpt><trkpt lat="45.559234576211374" lon="9.053583930586095"><ele>167.0</ele><time>2026-04-05T08:57:15.869Z</time></trkpt><trkpt lat="45.55915596655139" lon="9.053641478635079"><ele>167.0</ele><time>2026-04-05T08:57:17.869Z</time></trkpt><trkpt lat="45.55908381264086" lon="9.05369087638124"><ele>167.0</ele><time>2026-04-05T08:57:19.869Z</time></trkpt><trkpt lat="45.558986129156786" lon="9.053658407934895"><ele>167.0</ele><time>2026-04-05T08:57:21.869Z</time></trkpt><trkpt lat="45.55892888838288" lon="9.053534242495973"><ele>167.0</ele><time>2026-04-05T08:57:23.869Z</time></trkpt><trkpt lat="45.55891501587981" lon="9.053412587272527"><ele>167.0</ele><time>2026-04-05T08:57:25.869Z</time></trkpt><trkpt lat="45.558910872843605" lon="9.053316469033856"><ele>167.0</ele><time>2026-04-05T08:57:27.869Z</time></trkpt><trkpt lat="45.55888074581646" lon="9.053235465197258"><ele>167.0</ele><time>2026-04-05T08:57:30.869Z</time></trkpt><trkpt lat="45.55886717037143" lon="9.053130452423568"><ele>167.0</ele><time>2026-04-05T08:57:34.869Z</time></trkpt><trkpt lat="45.55884987260258" lon="9.05321950613981"><ele>167.0</ele><time>2026-04-05T08:57:40.869Z</time></trkpt><trkpt lat="45.55893501528777" lon="9.053224497889643"><ele>167.0</ele><time>2026-04-05T08:57:46.869Z</time></trkpt><trkpt lat="45.559005883490954" lon="9.053195002634371"><ele>167.0</ele><time>2026-04-05T08:57:48.869Z</time></trkpt><trkpt lat="45.55907948034628" lon="9.053161376092573"><ele>167.0</ele><time>2026-04-05T08:57:50.869Z</time></trkpt><trkpt lat="45.55915094057315" lon="9.053106678725172"><ele>167.0</ele><time>2026-04-05T08:57:53.868Z</time></trkpt><trkpt lat="45.559195585920754" lon="9.053012476714088"><ele>167.0</ele><time>2026-04-05T08:57:57.868Z</time></trkpt><trkpt lat="45.559272884060086" lon="9.05306283640855"><ele>167.0</ele><time>2026-04-05T08:58:01.868Z</time></trkpt><trkpt lat="45.55932042906896" lon="9.053137134927907"><ele>167.0</ele><time>2026-04-05T08:58:04.868Z</time></trkpt><trkpt lat="45.5593953477699" lon="9.053117437919987"><ele>167.0</ele><time>2026-04-05T08:58:06.868Z</time></trkpt><trkpt lat="45.55946788662911" lon="9.05308572786129"><ele>167.0</ele><time>2026-04-05T08:58:08.868Z</time></trkpt><trkpt lat="45.55954573315985" lon="9.053068817228253"><ele>167.0</ele><time>2026-04-05T08:58:10.868Z</time></trkpt><trkpt lat="45.55962042922839" lon="9.053119618434053"><ele>167.0</ele><time>2026-04-05T08:58:13.868Z</time></trkpt><trkpt lat="45.55967116157408" lon="9.053189270725198"><ele>167.0</ele><time>2026-04-05T08:58:15.868Z</time></trkpt><trkpt lat="45.559744060494886" lon="9.053246968529805"><ele>167.0</ele><time>2026-04-05T08:58:17.868Z</time></trkpt><trkpt lat="45.5598291660515" lon="9.053231285513741"><ele>167.0</ele><time>2026-04-05T08:58:19.868Z</time></trkpt><trkpt lat="45.5599066238316" lon="9.053226430606648"><ele>167.0</ele><time>2026-04-05T08:58:21.868Z</time></trkpt><trkpt lat="45.55999756274318" lon="9.053212373044088"><ele>167.0</ele><time>2026-04-05T08:58:23.868Z</time></trkpt><trkpt lat="45.56006532377001" lon="9.053233553142846"><ele>167.0</ele><time>2026-04-05T08:58:25.868Z</time></trkpt><trkpt lat="45.56014750489616" lon="9.053253323362568"><ele>167.0</ele><time>2026-04-05T08:58:27.868Z</time></trkpt><trkpt lat="45.56025382763993" lon="9.053275024639259"><ele>167.0</ele><time>2026-04-05T08:58:29.868Z</time></trkpt><trkpt lat="45.560363386626285" lon="9.053315106911421"><ele>167.33333333333331</ele><time>2026-04-05T08:58:31.867Z</time></trkpt><trkpt lat="45.56044374177118" lon="9.053354265458589"><ele>167.66666666666666</ele><time>2026-04-05T08:58:33.869Z</time></trkpt><trkpt lat="45.560511639898984" lon="9.053406447244079"><ele>168.0</ele><time>2026-04-05T08:58:35.869Z</time></trkpt><trkpt lat="45.560563439016256" lon="9.053497559324233"><ele>168.33333333333334</ele><time>2026-04-05T08:58:38.869Z</time></trkpt><trkpt lat="45.560621562425986" lon="9.05354647365106"><ele>168.66666666666669</ele><time>2026-04-05T08:58:41.868Z</time></trkpt><trkpt lat="45.56070310970578" lon="9.053545610018462"><ele>169.0</ele><time>2026-04-05T08:58:43.869Z</time></trkpt><trkpt lat="45.56076162662906" lon="9.053597272535699"><ele>169.0</ele><time>2026-04-05T08:58:45.869Z</time></trkpt><trkpt lat="45.56077944312305" lon="9.053705683887392"><ele>169.0</ele><time>2026-04-05T08:58:47.868Z</time></trkpt><trkpt lat="45.560791368825214" lon="9.053801936174226"><ele>169.0</ele><time>2026-04-05T08:58:49.868Z</time></trkpt><trkpt lat="45.560807287472954" lon="9.05391125421756"><ele>169.0</ele><time>2026-04-05T08:58:51.868Z</time></trkpt><trkpt lat="45.560825503609" lon="9.054012712053915"><ele>169.0</ele><time>2026-04-05T08:58:53.868Z</time></trkpt><trkpt lat="45.560843469835774" lon="9.054135363326383"><ele>169.0</ele><time>2026-04-05T08:58:56.868Z</time></trkpt><trkpt lat="45.560859697010486" lon="9.054268807240467"><ele>169.2</ele><time>2026-04-05T08:58:58.868Z</time></trkpt><trkpt lat="45.56088514481501" lon="9.054402254981037"><ele>169.39999999999998</ele><time>2026-04-05T08:59:00.868Z</time></trkpt><trkpt lat="45.56091335307796" lon="9.054537306097203"><ele>169.6</ele><time>2026-04-05T08:59:02.868Z</time></trkpt><trkpt lat="45.56091999335307" lon="9.054672920096671"><ele>169.8</ele><time>2026-04-05T08:59:04.868Z</time></trkpt><trkpt lat="45.56093210623989" lon="9.054814226001206"><ele>170.0</ele><time>2026-04-05T08:59:06.868Z</time></trkpt><trkpt lat="45.560944136043226" lon="9.054940056669526"><ele>170.16666666666666</ele><time>2026-04-05T08:59:08.868Z</time></trkpt><trkpt lat="45.56096100278905" lon="9.055057424900719"><ele>170.33333333333331</ele><time>2026-04-05T08:59:10.868Z</time></trkpt><trkpt lat="45.560976390687955" lon="9.055182537519562"><ele>170.5</ele><time>2026-04-05T08:59:12.868Z</time></trkpt><trkpt lat="45.560995767883554" lon="9.055299754654266"><ele>170.66666666666666</ele><time>2026-04-05T08:59:14.868Z</time></trkpt><trkpt lat="45.56100601435459" lon="9.055421837659868"><ele>170.83333333333334</ele><time>2026-04-05T08:59:16.868Z</time></trkpt><trkpt lat="45.561022729828984" lon="9.055546435205505"><ele>171.0</ele><time>2026-04-05T08:59:18.868Z</time></trkpt><trkpt lat="45.56104254963142" lon="9.055688534235564"><ele>170.83333333333334</ele><time>2026-04-05T08:59:20.868Z</time></trkpt><trkpt lat="45.56106273826503" lon="9.055812863194117"><ele>170.66666666666666</ele><time>2026-04-05T08:59:22.868Z</time></trkpt><trkpt lat="45.561084748364365" lon="9.055929577223631"><ele>170.5</ele><time>2026-04-05T08:59:24.868Z</time></trkpt><trkpt lat="45.56110278252172" lon="9.056030821917618"><ele>170.33333333333331</ele><time>2026-04-05T08:59:26.867Z</time></trkpt><trkpt lat="45.561114155264896" lon="9.056142359688844"><ele>170.16666666666666</ele><time>2026-04-05T08:59:28.867Z</time></trkpt><trkpt lat="45.56113050445083" lon="9.056244123803248"><ele>170.0</ele><time>2026-04-05T08:59:30.867Z</time></trkpt><trkpt lat="45.56114552657578" lon="9.05633629542286"><ele>170.0</ele><time>2026-04-05T08:59:32.867Z</time></trkpt><trkpt lat="45.56114920684575" lon="9.056436416003535"><ele>170.0</ele><time>2026-04-05T08:59:34.867Z</time></trkpt><trkpt lat="45.56116184675095" lon="9.056534172899966"><ele>170.0</ele><time>2026-04-05T08:59:36.867Z</time></trkpt><trkpt lat="45.56118323793054" lon="9.056640419412087"><ele>170.0</ele><time>2026-04-05T08:59:39.867Z</time></trkpt><trkpt lat="45.5611899914262" lon="9.056738114785166"><ele>170.0</ele><time>2026-04-05T08:59:43.867Z</time></trkpt><trkpt lat="45.561197904813355" lon="9.05685228067296"><ele>170.0</ele><time>2026-04-05T08:59:46.867Z</time></trkpt><trkpt lat="45.56120915973736" lon="9.056965382959726"><ele>170.0</ele><time>2026-04-05T08:59:48.867Z</time></trkpt><trkpt lat="45.561219519138255" lon="9.057080207020844"><ele>170.0</ele><time>2026-04-05T08:59:50.867Z</time></trkpt><trkpt lat="45.56122136913652" lon="9.057216081459611"><ele>170.0</ele><time>2026-04-05T08:59:52.867Z</time></trkpt><trkpt lat="45.56122834119412" lon="9.057359532826531"><ele>170.0</ele><time>2026-04-05T08:59:54.867Z</time></trkpt><trkpt lat="45.561234504679966" lon="9.057506947292406"><ele>170.0</ele><time>2026-04-05T08:59:56.867Z</time></trkpt><trkpt lat="45.56124860415467" lon="9.057670003852442"><ele>170.0</ele><time>2026-04-05T08:59:58.867Z</time></trkpt><trkpt lat="45.561268595272104" lon="9.057813087735298"><ele>171.2</ele><time>2026-04-05T09:00:00.867Z</time></trkpt><trkpt lat="45.561279129378576" lon="9.057949912804254"><ele>172.4</ele><time>2026-04-05T09:00:02.867Z</time></trkpt><trkpt lat="45.561294744382025" lon="9.058073066910586"><ele>173.60000000000002</ele><time>2026-04-05T09:00:04.867Z</time></trkpt><trkpt lat="45.561314208059684" lon="9.058205561813008"><ele>174.8</ele><time>2026-04-05T09:00:06.866Z</time></trkpt><trkpt lat="45.56132660539811" lon="9.058343592855474"><ele>176.0</ele><time>2026-04-05T09:00:08.866Z</time></trkpt><trkpt lat="45.56133511246337" lon="9.058474020458215"><ele>176.33333333333331</ele><time>2026-04-05T09:00:10.866Z</time></trkpt><trkpt lat="45.56135828622183" lon="9.058597539588732"><ele>176.66666666666666</ele><time>2026-04-05T09:00:12.866Z</time></trkpt><trkpt lat="45.56136123159994" lon="9.058702490541384"><ele>177.0</ele><time>2026-04-05T09:00:14.866Z</time></trkpt><trkpt lat="45.56137633302635" lon="9.058804877569875"><ele>177.33333333333334</ele><time>2026-04-05T09:00:16.866Z</time></trkpt><trkpt lat="45.56138672855907" lon="9.05890619486628"><ele>177.66666666666669</ele><time>2026-04-05T09:00:18.866Z</time></trkpt><trkpt lat="45.56139822399959" lon="9.059016888097828"><ele>178.0</ele><time>2026-04-05T09:00:20.866Z</time></trkpt><trkpt lat="45.56140911143274" lon="9.059135776305903"><ele>178.0</ele><time>2026-04-05T09:00:22.866Z</time></trkpt><trkpt lat="45.56142417166472" lon="9.059257626336688"><ele>178.0</ele><time>2026-04-05T09:00:24.866Z</time></trkpt><trkpt lat="45.56144390544911" lon="9.059380121185956"><ele>178.0</ele><time>2026-04-05T09:00:26.866Z</time></trkpt><trkpt lat="45.561447730465694" lon="9.059512669743619"><ele>178.0</ele><time>2026-04-05T09:00:28.866Z</time></trkpt><trkpt lat="45.56146995791801" lon="9.05963273598902"><ele>178.0</ele><time>2026-04-05T09:00:30.866Z</time></trkpt><trkpt lat="45.561478482414785" lon="9.059754072295116"><ele>178.0</ele><time>2026-04-05T09:00:32.866Z</time></trkpt><trkpt lat="45.561494204940914" lon="9.059868261847528"><ele>177.7142857142857</ele><time>2026-04-05T09:00:34.866Z</time></trkpt><trkpt lat="45.561504405252855" lon="9.05995759641008"><ele>177.42857142857142</ele><time>2026-04-05T09:00:36.866Z</time></trkpt><trkpt lat="45.561513913350794" lon="9.06008001431445"><ele>177.14285714285714</ele><time>2026-04-05T09:00:39.867Z</time></trkpt><trkpt lat="45.5615040170172" lon="9.060194745766283"><ele>176.85714285714283</ele><time>2026-04-05T09:00:42.867Z</time></trkpt><trkpt lat="45.56144491557066" lon="9.060271524026607"><ele>176.57142857142856</ele><time>2026-04-05T09:00:44.867Z</time></trkpt><trkpt lat="45.56141716503978" lon="9.06035407358241"><ele>176.28571428571428</ele><time>2026-04-05T09:00:46.867Z</time></trkpt><trkpt lat="45.5613646289089" lon="9.060404688738696"><ele>176.0</ele><time>2026-04-05T09:00:49.867Z</time></trkpt><trkpt lat="45.56127789093189" lon="9.060463325894522"><ele>175.33333333333331</ele><time>2026-04-05T09:00:52.866Z</time></trkpt><trkpt lat="45.56118844226106" lon="9.060496538751499"><ele>174.66666666666666</ele><time>2026-04-05T09:00:55.866Z</time></trkpt><trkpt lat="45.56112229509749" lon="9.060532569505831"><ele>174.0</ele><time>2026-04-05T09:00:57.866Z</time></trkpt><trkpt lat="45.561050041132646" lon="9.060546311881"><ele>173.33333333333334</ele><time>2026-04-05T09:00:59.866Z</time></trkpt><trkpt lat="45.56096690728204" lon="9.060578974539036"><ele>172.66666666666669</ele><time>2026-04-05T09:01:01.866Z</time></trkpt><trkpt lat="45.56090352739743" lon="9.060620951797056"><ele>172.0</ele><time>2026-04-05T09:01:03.866Z</time></trkpt><trkpt lat="45.560824831832115" lon="9.060637468941662"><ele>172.0</ele><time>2026-04-05T09:01:05.866Z</time></trkpt><trkpt lat="45.56073158227037" lon="9.060654733692079"><ele>172.0</ele><time>2026-04-05T09:01:07.866Z</time></trkpt><trkpt lat="45.56064440973598" lon="9.06068053648579"><ele>172.0</ele><time>2026-04-05T09:01:09.866Z</time></trkpt><trkpt lat="45.560557468801164" lon="9.060712886273572"><ele>172.0</ele><time>2026-04-05T09:01:11.866Z</time></trkpt><trkpt lat="45.56047759680107" lon="9.060736992992831"><ele>172.0</ele><time>2026-04-05T09:01:13.866Z</time></trkpt><trkpt lat="45.56039403559443" lon="9.060736212513488"><ele>172.0</ele><time>2026-04-05T09:01:15.866Z</time></trkpt><trkpt lat="45.560316332054754" lon="9.060759948460069"><ele>172.0</ele><time>2026-04-05T09:01:17.866Z</time></trkpt><trkpt lat="45.56024187615886" lon="9.060775710860684"><ele>172.0</ele><time>2026-04-05T09:01:19.866Z</time></trkpt><trkpt lat="45.560171546365844" lon="9.060781888607536"><ele>172.0</ele><time>2026-04-05T09:01:21.866Z</time></trkpt><trkpt lat="45.56010198023863" lon="9.06080386109477"><ele>172.0</ele><time>2026-04-05T09:01:23.866Z</time></trkpt><trkpt lat="45.560012349880495" lon="9.060822842646768"><ele>172.0</ele><time>2026-04-05T09:01:25.866Z</time></trkpt><trkpt lat="45.55990480111421" lon="9.060849356032506"><ele>172.0</ele><time>2026-04-05T09:01:28.865Z</time></trkpt><trkpt lat="45.55980875232991" lon="9.060906868332175"><ele>172.16666666666669</ele><time>2026-04-05T09:01:31.865Z</time></trkpt><trkpt lat="45.559741507677195" lon="9.060925419226118"><ele>172.33333333333334</ele><time>2026-04-05T09:01:33.865Z</time></trkpt><trkpt lat="45.55965334903081" lon="9.060949462319467"><ele>172.5</ele><time>2026-04-05T09:01:35.865Z</time></trkpt><trkpt lat="45.55957461360287" lon="9.0609782275783"><ele>172.66666666666666</ele><time>2026-04-05T09:01:37.865Z</time></trkpt><trkpt lat="45.55951322408786" lon="9.061001862418973"><ele>172.83333333333331</ele><time>2026-04-05T09:01:39.865Z</time></trkpt><trkpt lat="45.5594302203754" lon="9.061022791930823"><ele>173.0</ele><time>2026-04-05T09:01:41.865Z</time></trkpt><trkpt lat="45.55935124745606" lon="9.061058058062386"><ele>172.66666666666666</ele><time>2026-04-05T09:01:43.865Z</time></trkpt><trkpt lat="45.55926348114499" lon="9.061062508453901"><ele>172.33333333333331</ele><time>2026-04-05T09:01:46.865Z</time></trkpt><trkpt lat="45.55916490004369" lon="9.061082515948147"><ele>172.0</ele><time>2026-04-05T09:01:48.865Z</time></trkpt><trkpt lat="45.55909492657442" lon="9.061087974603998"><ele>171.66666666666666</ele><time>2026-04-05T09:01:50.865Z</time></trkpt><trkpt lat="45.5590103599055" lon="9.061116877460131"><ele>171.33333333333334</ele><time>2026-04-05T09:01:53.865Z</time></trkpt><trkpt lat="45.55893781428486" lon="9.061154321394772"><ele>171.0</ele><time>2026-04-05T09:01:57.865Z</time></trkpt><trkpt lat="45.55887060543098" lon="9.061174568648147"><ele>171.0</ele><time>2026-04-05T09:01:59.865Z</time></trkpt><trkpt lat="45.55881343276535" lon="9.061224696936478"><ele>171.0</ele><time>2026-04-05T09:02:02.865Z</time></trkpt><trkpt lat="45.558734216886435" lon="9.061250923690324"><ele>171.0</ele><time>2026-04-05T09:02:05.865Z</time></trkpt><trkpt lat="45.55865312888421" lon="9.06127391757976"><ele>171.0</ele><time>2026-04-05T09:02:07.864Z</time></trkpt><trkpt lat="45.558562237024105" lon="9.061284674177408"><ele>171.0</ele><time>2026-04-05T09:02:09.864Z</time></trkpt><trkpt lat="45.55848978435312" lon="9.061305068816875"><ele>171.0</ele><time>2026-04-05T09:02:11.864Z</time></trkpt><trkpt lat="45.55841076488197" lon="9.061319997777241"><ele>170.83333333333334</ele><time>2026-04-05T09:02:13.864Z</time></trkpt><trkpt lat="45.55832148956722" lon="9.061319123226061"><ele>170.66666666666666</ele><time>2026-04-05T09:02:15.864Z</time></trkpt><trkpt lat="45.558239531095616" lon="9.061332766813827"><ele>170.5</ele><time>2026-04-05T09:02:18.864Z</time></trkpt><trkpt lat="45.558164071654005" lon="9.061339304890314"><ele>170.33333333333331</ele><time>2026-04-05T09:02:20.864Z</time></trkpt><trkpt lat="45.558062631678204" lon="9.061352263802126"><ele>170.16666666666666</ele><time>2026-04-05T09:02:22.864Z</time></trkpt><trkpt lat="45.557972410199866" lon="9.061374686511426"><ele>170.0</ele><time>2026-04-05T09:02:24.864Z</time></trkpt><trkpt lat="45.557912507826536" lon="9.061406262228697"><ele>170.0</ele><time>2026-04-05T09:02:26.864Z</time></trkpt><trkpt lat="45.557826627736084" lon="9.061414616157714"><ele>170.0</ele><time>2026-04-05T09:02:28.864Z</time></trkpt><trkpt lat="45.55775051081213" lon="9.061461478012873"><ele>170.0</ele><time>2026-04-05T09:02:30.864Z</time></trkpt><trkpt lat="45.5576499849372" lon="9.061463633906707"><ele>170.0</ele><time>2026-04-05T09:02:32.864Z</time></trkpt><trkpt lat="45.55755934289162" lon="9.061480350553186"><ele>170.0</ele><time>2026-04-05T09:02:34.864Z</time></trkpt><trkpt lat="45.557478468798585" lon="9.061492065356985"><ele>170.0</ele><time>2026-04-05T09:02:36.864Z</time></trkpt><trkpt lat="45.55738022591067" lon="9.061515202070964"><ele>170.0</ele><time>2026-04-05T09:02:38.864Z</time></trkpt><trkpt lat="45.5572844684397" lon="9.061532324468734"><ele>170.0</ele><time>2026-04-05T09:02:40.864Z</time></trkpt><trkpt lat="45.55718852307283" lon="9.061554847134785"><ele>170.0</ele><time>2026-04-05T09:02:42.864Z</time></trkpt><trkpt lat="45.557090880768236" lon="9.061562740209645"><ele>170.0</ele><time>2026-04-05T09:02:44.864Z</time></trkpt><trkpt lat="45.557009151637075" lon="9.061585312445434"><ele>170.0</ele><time>2026-04-05T09:02:46.864Z</time></trkpt><trkpt lat="45.55691664066194" lon="9.061597500544812"><ele>170.0</ele><time>2026-04-05T09:02:48.864Z</time></trkpt><trkpt lat="45.556816179066544" lon="9.061615581504206"><ele>170.0</ele><time>2026-04-05T09:02:50.864Z</time></trkpt><trkpt lat="45.55672631183818" lon="9.061632412304002"><ele>170.0</ele><time>2026-04-05T09:02:52.864Z</time></trkpt><trkpt lat="45.55665662893828" lon="9.061668736053907"><ele>170.0</ele><time>2026-04-05T09:02:54.865Z</time></trkpt><trkpt lat="45.55657510822263" lon="9.061683236468916"><ele>170.0</ele><time>2026-04-05T09:02:56.865Z</time></trkpt><trkpt lat="45.55650145223891" lon="9.061715698485107"><ele>170.0</ele><time>2026-04-05T09:02:58.864Z</time></trkpt><trkpt lat="45.55641028300334" lon="9.06174354546399"><ele>170.0</ele><time>2026-04-05T09:03:00.864Z</time></trkpt><trkpt lat="45.5563468678698" lon="9.061764463501387"><ele>170.0</ele><time>2026-04-05T09:03:02.864Z</time></trkpt><trkpt lat="45.55626522641331" lon="9.061765584588262"><ele>170.0</ele><time>2026-04-05T09:03:04.864Z</time></trkpt><trkpt lat="45.556187233063135" lon="9.061755335281193"><ele>170.0</ele><time>2026-04-05T09:03:06.864Z</time></trkpt><trkpt lat="45.556105479264524" lon="9.061768619160912"><ele>170.0</ele><time>2026-04-05T09:03:08.864Z</time></trkpt><trkpt lat="45.55604088646437" lon="9.061848245606306"><ele>170.0</ele><time>2026-04-05T09:03:10.864Z</time></trkpt><trkpt lat="45.55601863364097" lon="9.061949912261957"><ele>169.16666666666666</ele><time>2026-04-05T09:03:12.864Z</time></trkpt><trkpt lat="45.55595346426913" lon="9.061958322745093"><ele>168.33333333333331</ele><time>2026-04-05T09:03:14.864Z</time></trkpt><trkpt lat="45.55587678597049" lon="9.061929412285537"><ele>167.5</ele><time>2026-04-05T09:03:16.864Z</time></trkpt><trkpt lat="45.55586577134414" lon="9.06203259670639"><ele>166.66666666666666</ele><time>2026-04-05T09:03:18.864Z</time></trkpt><trkpt lat="45.55593969749886" lon="9.062111798001178"><ele>165.83333333333334</ele><time>2026-04-05T09:03:21.863Z</time></trkpt><trkpt lat="45.5559953402508" lon="9.06219155064739"><ele>165.0</ele><time>2026-04-05T09:03:23.863Z</time></trkpt><trkpt lat="45.55599603268385" lon="9.062294248642683"><ele>165.0</ele><time>2026-04-05T09:03:25.863Z</time></trkpt><trkpt lat="45.55597491663815" lon="9.062382852129012"><ele>165.0</ele><time>2026-04-05T09:03:27.863Z</time></trkpt><trkpt lat="45.555976469401514" lon="9.0624942179593"><ele>165.0</ele><time>2026-04-05T09:03:29.863Z</time></trkpt><trkpt lat="45.55598213305005" lon="9.062611909970714"><ele>165.0</ele><time>2026-04-05T09:03:31.863Z</time></trkpt><trkpt lat="45.555983285800906" lon="9.062724189636594"><ele>165.0</ele><time>2026-04-05T09:03:33.863Z</time></trkpt><trkpt lat="45.55599157763688" lon="9.062842684429802"><ele>165.0</ele><time>2026-04-05T09:03:35.863Z</time></trkpt><trkpt lat="45.555999074263894" lon="9.062963648784365"><ele>164.83333333333334</ele><time>2026-04-05T09:03:37.863Z</time></trkpt><trkpt lat="45.556034974551686" lon="9.063072994297281"><ele>164.66666666666666</ele><time>2026-04-05T09:03:39.863Z</time></trkpt><trkpt lat="45.55606770550206" lon="9.063177288530232"><ele>164.5</ele><time>2026-04-05T09:03:41.863Z</time></trkpt><trkpt lat="45.5560667429622" lon="9.063291986715692"><ele>164.33333333333331</ele><time>2026-04-05T09:03:43.863Z</time></trkpt><trkpt lat="45.55604523749545" lon="9.063422472496553"><ele>164.16666666666666</ele><time>2026-04-05T09:03:45.863Z</time></trkpt><trkpt lat="45.5560096056146" lon="9.063544736562314"><ele>164.0</ele><time>2026-04-05T09:03:47.863Z</time></trkpt><trkpt lat="45.55598509244637" lon="9.063650064280841"><ele>164.0</ele><time>2026-04-05T09:03:49.863Z</time></trkpt><trkpt lat="45.555973528772704" lon="9.063792563165238"><ele>164.0</ele><time>2026-04-05T09:03:52.863Z</time></trkpt><trkpt lat="45.55599334910196" lon="9.063927069400012"><ele>164.0</ele><time>2026-04-05T09:03:54.863Z</time></trkpt><trkpt lat="45.556019432784524" lon="9.064066032069658"><ele>164.0</ele><time>2026-04-05T09:03:56.863Z</time></trkpt><trkpt lat="45.556048461378666" lon="9.064179166174387"><ele>164.0</ele><time>2026-04-05T09:03:58.863Z</time></trkpt><trkpt lat="45.55606159512871" lon="9.064282319156558"><ele>164.0</ele><time>2026-04-05T09:04:00.862Z</time></trkpt><trkpt lat="45.556018130589145" lon="9.064355627175448"><ele>164.0</ele><time>2026-04-05T09:04:02.862Z</time></trkpt><trkpt lat="45.555951949565724" lon="9.064360941765736"><ele>164.0</ele><time>2026-04-05T09:04:04.862Z</time></trkpt><trkpt lat="45.555860570194554" lon="9.064389446554967"><ele>164.0</ele><time>2026-04-05T09:04:07.862Z</time></trkpt><trkpt lat="45.55580623309896" lon="9.064445680463376"><ele>164.0</ele><time>2026-04-05T09:04:10.862Z</time></trkpt><trkpt lat="45.55584554167469" lon="9.06455782670522"><ele>164.0</ele><time>2026-04-05T09:04:13.862Z</time></trkpt><trkpt lat="45.55588903820191" lon="9.064638548091724"><ele>164.0</ele><time>2026-04-05T09:04:16.862Z</time></trkpt><trkpt lat="45.55591569127811" lon="9.064756097507738"><ele>164.0</ele><time>2026-04-05T09:04:18.862Z</time></trkpt><trkpt lat="45.55592066660181" lon="9.064876065589699"><ele>164.0</ele><time>2026-04-05T09:04:20.862Z</time></trkpt><trkpt lat="45.55590288302363" lon="9.065018878686141"><ele>164.0</ele><time>2026-04-05T09:04:22.862Z</time></trkpt><trkpt lat="45.555902972140245" lon="9.065147454329487"><ele>164.0</ele><time>2026-04-05T09:04:24.862Z</time></trkpt><trkpt lat="45.555900412483794" lon="9.065250480903696"><ele>164.0</ele><time>2026-04-05T09:04:26.862Z</time></trkpt><trkpt lat="45.55592804185916" lon="9.065342498888565"><ele>164.16666666666666</ele><time>2026-04-05T09:04:30.862Z</time></trkpt><trkpt lat="45.555911178892956" lon="9.065442157689702"><ele>164.33333333333331</ele><time>2026-04-05T09:04:32.862Z</time></trkpt><trkpt lat="45.55590911033089" lon="9.065555192488802"><ele>164.5</ele><time>2026-04-05T09:04:34.862Z</time></trkpt><trkpt lat="45.55592086641757" lon="9.065678280389733"><ele>164.66666666666666</ele><time>2026-04-05T09:04:36.862Z</time></trkpt><trkpt lat="45.55593188816529" lon="9.065814839576376"><ele>164.83333333333334</ele><time>2026-04-05T09:04:39.861Z</time></trkpt><trkpt lat="45.5558923114433" lon="9.06589673244692"><ele>165.0</ele><time>2026-04-05T09:04:41.861Z</time></trkpt><trkpt lat="45.55583505119761" lon="9.065939735841466"><ele>165.0</ele><time>2026-04-05T09:04:43.861Z</time></trkpt><trkpt lat="45.555761248737355" lon="9.065990679553929"><ele>165.0</ele><time>2026-04-05T09:04:45.861Z</time></trkpt><trkpt lat="45.555688739774816" lon="9.06602832642562"><ele>165.0</ele><time>2026-04-05T09:04:47.861Z</time></trkpt><trkpt lat="45.555624784111515" lon="9.06606158262233"><ele>165.0</ele><time>2026-04-05T09:04:49.861Z</time></trkpt><trkpt lat="45.55553028900694" lon="9.066134676486124"><ele>165.0</ele><time>2026-04-05T09:04:52.862Z</time></trkpt><trkpt lat="45.55547297141783" lon="9.066192354418835"><ele>165.0</ele><time>2026-04-05T09:04:54.862Z</time></trkpt><trkpt lat="45.55539930184445" lon="9.06626514463647"><ele>165.0</ele><time>2026-04-05T09:04:56.862Z</time></trkpt><trkpt lat="45.55547902572267" lon="9.066285454694087"><ele>165.0</ele><time>2026-04-05T09:05:01.863Z</time></trkpt><trkpt lat="45.55555411242626" lon="9.066260838954749"><ele>165.0</ele><time>2026-04-05T09:05:03.862Z</time></trkpt><trkpt lat="45.55563316295703" lon="9.0662440963423"><ele>165.0</ele><time>2026-04-05T09:05:05.862Z</time></trkpt><trkpt lat="45.555711567367275" lon="9.066218423455357"><ele>165.0</ele><time>2026-04-05T09:05:07.862Z</time></trkpt><trkpt lat="45.55577770285622" lon="9.066233975719697"><ele>165.0</ele><time>2026-04-05T09:05:09.862Z</time></trkpt><trkpt lat="45.555891053719506" lon="9.066251098643976"><ele>165.0</ele><time>2026-04-05T09:05:13.862Z</time></trkpt><trkpt lat="45.55606674152804" lon="9.066255717710725"><ele>165.0</ele><time>2026-04-05T09:05:18.862Z</time></trkpt><trkpt lat="45.55610439751927" lon="9.066345549546796"><ele>165.0</ele><time>2026-04-05T09:05:20.868Z</time></trkpt><trkpt lat="45.55612843299933" lon="9.066463830180462"><ele>165.0</ele><time>2026-04-05T09:05:23.875Z</time></trkpt><trkpt lat="45.556145627932146" lon="9.066571348682645"><ele>165.0</ele><time>2026-04-05T09:05:25.879Z</time></trkpt><trkpt lat="45.55615450425584" lon="9.066701597222638"><ele>165.0</ele><time>2026-04-05T09:05:27.882Z</time></trkpt><trkpt lat="45.55616745831659" lon="9.066812741551022"><ele>165.0</ele><time>2026-04-05T09:05:29.885Z</time></trkpt><trkpt lat="45.556163993724844" lon="9.066908544164693"><ele>165.0</ele><time>2026-04-05T09:05:31.888Z</time></trkpt><trkpt lat="45.55614575395291" lon="9.067029182226824"><ele>165.0</ele><time>2026-04-05T09:05:35.892Z</time></trkpt><trkpt lat="45.55613242558527" lon="9.067131882311006"><ele>165.0</ele><time>2026-04-05T09:05:37.894Z</time></trkpt><trkpt lat="45.55611699602804" lon="9.067227344970028"><ele>165.0</ele><time>2026-04-05T09:05:39.896Z</time></trkpt><trkpt lat="45.55608817156615" lon="9.067342701475525"><ele>165.0</ele><time>2026-04-05T09:05:41.897Z</time></trkpt><trkpt lat="45.55606689587809" lon="9.067451019625878"><ele>165.0</ele><time>2026-04-05T09:05:43.898Z</time></trkpt><trkpt lat="45.55604775305892" lon="9.067562148040738"><ele>165.0</ele><time>2026-04-05T09:05:46.9Z</time></trkpt><trkpt lat="45.556052356730035" lon="9.067666170832563"><ele>165.0</ele><time>2026-04-05T09:05:48.901Z</time></trkpt><trkpt lat="45.55606662482514" lon="9.0677544754252"><ele>165.0</ele><time>2026-04-05T09:05:50.902Z</time></trkpt><trkpt lat="45.55609704633886" lon="9.067870776614498"><ele>165.0</ele><time>2026-04-05T09:05:54.903Z</time></trkpt><trkpt lat="45.556135713825064" lon="9.068028193201117"><ele>165.0</ele><time>2026-04-05T09:05:56.903Z</time></trkpt><trkpt lat="45.55617199447728" lon="9.06817544137361"><ele>165.0</ele><time>2026-04-05T09:05:58.904Z</time></trkpt><trkpt lat="45.55619365721064" lon="9.068323898783161"><ele>165.0</ele><time>2026-04-05T09:06:00.904Z</time></trkpt><trkpt lat="45.55621637449068" lon="9.06845357370547"><ele>165.0</ele><time>2026-04-05T09:06:02.904Z</time></trkpt><trkpt lat="45.55623955521135" lon="9.068573088013723"><ele>165.0</ele><time>2026-04-05T09:06:04.905Z</time></trkpt><trkpt lat="45.55626681035359" lon="9.068699142444222"><ele>164.83333333333334</ele><time>2026-04-05T09:06:07.905Z</time></trkpt><trkpt lat="45.55629659143208" lon="9.068795151285306"><ele>164.66666666666666</ele><time>2026-04-05T09:06:09.905Z</time></trkpt><trkpt lat="45.55633491772711" lon="9.068934116548624"><ele>164.5</ele><time>2026-04-05T09:06:11.906Z</time></trkpt><trkpt lat="45.55638375962563" lon="9.069052909395403"><ele>164.33333333333331</ele><time>2026-04-05T09:06:13.906Z</time></trkpt><trkpt lat="45.55642622333101" lon="9.06914975988163"><ele>164.16666666666666</ele><time>2026-04-05T09:06:15.906Z</time></trkpt><trkpt lat="45.556468106083514" lon="9.06924081703329"><ele>164.0</ele><time>2026-04-05T09:06:17.906Z</time></trkpt><trkpt lat="45.55653215391592" lon="9.069315875600095"><ele>164.79999999999998</ele><time>2026-04-05T09:06:20.906Z</time></trkpt><trkpt lat="45.5566022369308" lon="9.069387777599673"><ele>165.6</ele><time>2026-04-05T09:06:24.906Z</time></trkpt><trkpt lat="45.55667580998594" lon="9.069466628931846"><ele>166.4</ele><time>2026-04-05T09:06:26.906Z</time></trkpt><trkpt lat="45.556719431859236" lon="9.069636988311323"><ele>167.2</ele><time>2026-04-05T09:06:28.906Z</time></trkpt><trkpt lat="45.556739111076894" lon="9.069798895418783"><ele>168.0</ele><time>2026-04-05T09:06:30.906Z</time></trkpt><trkpt lat="45.55675504389494" lon="9.069927852692594"><ele>168.2</ele><time>2026-04-05T09:06:32.906Z</time></trkpt><trkpt lat="45.556760848778204" lon="9.070060103408846"><ele>168.4</ele><time>2026-04-05T09:06:34.906Z</time></trkpt><trkpt lat="45.55676593015422" lon="9.070201473476713"><ele>168.6</ele><time>2026-04-05T09:06:36.906Z</time></trkpt><trkpt lat="45.556770684714834" lon="9.070353408533432"><ele>168.79999999999998</ele><time>2026-04-05T09:06:38.906Z</time></trkpt><trkpt lat="45.55677179158082" lon="9.07050870031983"><ele>169.0</ele><time>2026-04-05T09:06:40.906Z</time></trkpt><trkpt lat="45.5567839847352" lon="9.070659627945309"><ele>169.0</ele><time>2026-04-05T09:06:42.906Z</time></trkpt><trkpt lat="45.556799012486024" lon="9.07078635639847"><ele>169.0</ele><time>2026-04-05T09:06:44.906Z</time></trkpt><trkpt lat="45.55682652620349" lon="9.070905491504629"><ele>169.0</ele><time>2026-04-05T09:06:46.906Z</time></trkpt><trkpt lat="45.556860814694694" lon="9.07099251602204"><ele>169.0</ele><time>2026-04-05T09:06:48.906Z</time></trkpt><trkpt lat="45.55688937852563" lon="9.07112232206476"><ele>169.0</ele><time>2026-04-05T09:06:51.906Z</time></trkpt><trkpt lat="45.55691012456427" lon="9.071218298251939"><ele>169.0</ele><time>2026-04-05T09:06:53.906Z</time></trkpt><trkpt lat="45.55693668388998" lon="9.071350969086554"><ele>169.0</ele><time>2026-04-05T09:06:55.906Z</time></trkpt><trkpt lat="45.55695013374739" lon="9.071470801454543"><ele>169.0</ele><time>2026-04-05T09:06:57.907Z</time></trkpt><trkpt lat="45.556926419762505" lon="9.071603326051239"><ele>169.0</ele><time>2026-04-05T09:06:59.907Z</time></trkpt><trkpt lat="45.55683714337049" lon="9.071621943429566"><ele>169.0</ele><time>2026-04-05T09:07:01.908Z</time></trkpt><trkpt lat="45.55675938701829" lon="9.071645174852758"><ele>169.0</ele><time>2026-04-05T09:07:03.907Z</time></trkpt><trkpt lat="45.55669285138777" lon="9.071663344147131"><ele>169.0</ele><time>2026-04-05T09:07:05.907Z</time></trkpt><trkpt lat="45.55661838210607" lon="9.071693471249812"><ele>169.0</ele><time>2026-04-05T09:07:07.908Z</time></trkpt><trkpt lat="45.55655117841572" lon="9.071712991094408"><ele>169.0</ele><time>2026-04-05T09:07:09.907Z</time></trkpt><trkpt lat="45.556486041937596" lon="9.071739973358802"><ele>169.0</ele><time>2026-04-05T09:07:11.907Z</time></trkpt><trkpt lat="45.55639815786583" lon="9.071758305677223"><ele>169.0</ele><time>2026-04-05T09:07:13.907Z</time></trkpt><trkpt lat="45.556288343297645" lon="9.071752296847434"><ele>169.0</ele><time>2026-04-05T09:07:15.907Z</time></trkpt><trkpt lat="45.55619352524484" lon="9.071840430792864"><ele>169.0</ele><time>2026-04-05T09:07:17.907Z</time></trkpt><trkpt lat="45.55609873372966" lon="9.071855619994796"><ele>169.2</ele><time>2026-04-05T09:07:19.907Z</time></trkpt><trkpt lat="45.556014193204454" lon="9.071875351429297"><ele>169.39999999999998</ele><time>2026-04-05T09:07:21.907Z</time></trkpt><trkpt lat="45.555935642758136" lon="9.071879138653664"><ele>169.6</ele><time>2026-04-05T09:07:23.907Z</time></trkpt><trkpt lat="45.55584003019337" lon="9.071906778772364"><ele>169.8</ele><time>2026-04-05T09:07:26.907Z</time></trkpt><trkpt lat="45.55573788173855" lon="9.071937959769398"><ele>170.0</ele><time>2026-04-05T09:07:28.907Z</time></trkpt><trkpt lat="45.555653302153885" lon="9.071976033788333"><ele>170.0</ele><time>2026-04-05T09:07:30.907Z</time></trkpt><trkpt lat="45.5555782364848" lon="9.072000307329379"><ele>170.0</ele><time>2026-04-05T09:07:32.907Z</time></trkpt><trkpt lat="45.55549245963938" lon="9.07203086480929"><ele>170.0</ele><time>2026-04-05T09:07:35.907Z</time></trkpt><trkpt lat="45.55542115248651" lon="9.072062998177634"><ele>170.0</ele><time>2026-04-05T09:07:37.907Z</time></trkpt><trkpt lat="45.555329563895924" lon="9.072090900727053"><ele>170.0</ele><time>2026-04-05T09:07:39.907Z</time></trkpt><trkpt lat="45.55525975555668" lon="9.072133317128092"><ele>170.0</ele><time>2026-04-05T09:07:41.907Z</time></trkpt><trkpt lat="45.555208283638486" lon="9.072186237899121"><ele>169.33333333333331</ele><time>2026-04-05T09:07:43.907Z</time></trkpt><trkpt lat="45.55521628648444" lon="9.072289307684175"><ele>168.66666666666666</ele><time>2026-04-05T09:07:45.907Z</time></trkpt><trkpt lat="45.55520864839032" lon="9.072398299618568"><ele>168.0</ele><time>2026-04-05T09:07:49.907Z</time></trkpt><trkpt lat="45.5552297615992" lon="9.07251310324493"><ele>167.33333333333334</ele><time>2026-04-05T09:07:51.907Z</time></trkpt><trkpt lat="45.55524998602058" lon="9.072657918138194"><ele>166.66666666666669</ele><time>2026-04-05T09:07:53.907Z</time></trkpt><trkpt lat="45.55522119361309" lon="9.072773382490965"><ele>166.0</ele><time>2026-04-05T09:07:56.907Z</time></trkpt><trkpt lat="45.555235277832125" lon="9.072869512070456"><ele>165.83333333333334</ele><time>2026-04-05T09:07:58.907Z</time></trkpt><trkpt lat="45.555216473201114" lon="9.072986497922784"><ele>165.66666666666669</ele><time>2026-04-05T09:08:01.907Z</time></trkpt><trkpt lat="45.55523115154981" lon="9.073102983351976"><ele>165.5</ele><time>2026-04-05T09:08:04.907Z</time></trkpt><trkpt lat="45.55523265023695" lon="9.073197919187091"><ele>165.33333333333334</ele><time>2026-04-05T09:08:06.907Z</time></trkpt><trkpt lat="45.55526268929947" lon="9.073327123221995"><ele>165.16666666666666</ele><time>2026-04-05T09:08:08.907Z</time></trkpt><trkpt lat="45.5552658910684" lon="9.073424992674799"><ele>165.0</ele><time>2026-04-05T09:08:10.907Z</time></trkpt><trkpt lat="45.555254285983445" lon="9.073515949700719"><ele>165.0</ele><time>2026-04-05T09:08:12.907Z</time></trkpt><trkpt lat="45.55525383188183" lon="9.07364617684845"><ele>165.0</ele><time>2026-04-05T09:08:14.906Z</time></trkpt><trkpt lat="45.55525248254519" lon="9.07379210771794"><ele>165.0</ele><time>2026-04-05T09:08:16.906Z</time></trkpt><trkpt lat="45.55525881175513" lon="9.073928181804028"><ele>165.0</ele><time>2026-04-05T09:08:18.906Z</time></trkpt><trkpt lat="45.555262387180015" lon="9.074061095642767"><ele>165.0</ele><time>2026-04-05T09:08:20.906Z</time></trkpt><trkpt lat="45.555286631275195" lon="9.074204698819974"><ele>165.16666666666666</ele><time>2026-04-05T09:08:22.906Z</time></trkpt><trkpt lat="45.55530948948611" lon="9.074311192769802"><ele>165.33333333333334</ele><time>2026-04-05T09:08:24.906Z</time></trkpt><trkpt lat="45.55533890036171" lon="9.074405097008569"><ele>165.5</ele><time>2026-04-05T09:08:26.906Z</time></trkpt><trkpt lat="45.55533263419659" lon="9.074554067211382"><ele>165.66666666666669</ele><time>2026-04-05T09:08:29.906Z</time></trkpt><trkpt lat="45.555345738670404" lon="9.074688264972744"><ele>165.83333333333334</ele><time>2026-04-05T09:08:31.906Z</time></trkpt><trkpt lat="45.55537107761887" lon="9.074824803646573"><ele>166.0</ele><time>2026-04-05T09:08:33.906Z</time></trkpt><trkpt lat="45.55538435047466" lon="9.074952952553355"><ele>166.60000000000002</ele><time>2026-04-05T09:08:35.906Z</time></trkpt><trkpt lat="45.55540210072118" lon="9.075072892222053"><ele>167.2</ele><time>2026-04-05T09:08:37.906Z</time></trkpt><trkpt lat="45.555417491353325" lon="9.075180327741581"><ele>167.8</ele><time>2026-04-05T09:08:39.906Z</time></trkpt><trkpt lat="45.55542642291112" lon="9.075304628692892"><ele>168.39999999999998</ele><time>2026-04-05T09:08:41.906Z</time></trkpt><trkpt lat="45.555446873413345" lon="9.07546628713572"><ele>169.0</ele><time>2026-04-05T09:08:43.906Z</time></trkpt><trkpt lat="45.55546698888001" lon="9.075630762630219"><ele>169.0</ele><time>2026-04-05T09:08:45.906Z</time></trkpt><trkpt lat="45.55548758107839" lon="9.075751901432087"><ele>169.0</ele><time>2026-04-05T09:08:47.906Z</time></trkpt><trkpt lat="45.55550724590062" lon="9.075877102353259"><ele>169.0</ele><time>2026-04-05T09:08:49.906Z</time></trkpt><trkpt lat="45.555529155168244" lon="9.075963300631814"><ele>169.0</ele><time>2026-04-05T09:08:50.906Z</time></trkpt><trkpt lat="45.55555064890969" lon="9.0761184785673"><ele>169.0</ele><time>2026-04-05T09:08:52.906Z</time></trkpt><trkpt lat="45.55557089798074" lon="9.076255605115607"><ele>169.0</ele><time>2026-04-05T09:08:54.906Z</time></trkpt><trkpt lat="45.55558498519845" lon="9.076379112469263"><ele>169.0</ele><time>2026-04-05T09:08:56.906Z</time></trkpt><trkpt lat="45.555600697393" lon="9.076506503811899"><ele>169.0</ele><time>2026-04-05T09:08:58.906Z</time></trkpt><trkpt lat="45.55562226535051" lon="9.076621638076494"><ele>169.0</ele><time>2026-04-05T09:09:01.906Z</time></trkpt><trkpt lat="45.55563858217191" lon="9.076735015236222"><ele>169.0</ele><time>2026-04-05T09:09:03.907Z</time></trkpt><trkpt lat="45.555664846467025" lon="9.076826779646382"><ele>169.0</ele><time>2026-04-05T09:09:05.906Z</time></trkpt><trkpt lat="45.55567560004066" lon="9.076938516280446"><ele>168.66666666666669</ele><time>2026-04-05T09:09:08.907Z</time></trkpt><trkpt lat="45.55560184251178" lon="9.077016985822143"><ele>168.33333333333334</ele><time>2026-04-05T09:09:12.906Z</time></trkpt><trkpt lat="45.555546956613796" lon="9.0771052109743"><ele>168.0</ele><time>2026-04-05T09:09:17.906Z</time></trkpt><trkpt lat="45.555471193622814" lon="9.077111878584274"><ele>167.66666666666666</ele><time>2026-04-05T09:09:20.906Z</time></trkpt><trkpt lat="45.55538691044432" lon="9.077158291278915"><ele>167.33333333333331</ele><time>2026-04-05T09:09:23.906Z</time></trkpt><trkpt lat="45.55531809927859" lon="9.077180661996858"><ele>167.0</ele><time>2026-04-05T09:09:25.906Z</time></trkpt><trkpt lat="45.55523025995485" lon="9.077198525616499"><ele>166.6</ele><time>2026-04-05T09:09:27.906Z</time></trkpt><trkpt lat="45.55514080108951" lon="9.077212438881059"><ele>166.2</ele><time>2026-04-05T09:09:29.906Z</time></trkpt><trkpt lat="45.55505409012747" lon="9.077244638759044"><ele>165.8</ele><time>2026-04-05T09:09:31.906Z</time></trkpt><trkpt lat="45.55495068904459" lon="9.077263771769223"><ele>165.4</ele><time>2026-04-05T09:09:33.906Z</time></trkpt><trkpt lat="45.55485535826186" lon="9.07728762990246"><ele>165.0</ele><time>2026-04-05T09:09:35.906Z</time></trkpt><trkpt lat="45.55476865969286" lon="9.07730369628839"><ele>165.0</ele><time>2026-04-05T09:09:37.906Z</time></trkpt><trkpt lat="45.55467806411185" lon="9.077324728337823"><ele>165.0</ele><time>2026-04-05T09:09:39.906Z</time></trkpt><trkpt lat="45.554575019672626" lon="9.077335779299096"><ele>165.0</ele><time>2026-04-05T09:09:41.906Z</time></trkpt><trkpt lat="45.554480673658254" lon="9.077347667602897"><ele>165.0</ele><time>2026-04-05T09:09:43.906Z</time></trkpt><trkpt lat="45.55438282695601" lon="9.07734811695404"><ele>165.0</ele><time>2026-04-05T09:09:45.906Z</time></trkpt><trkpt lat="45.554289497977685" lon="9.07734666097211"><ele>165.4</ele><time>2026-04-05T09:09:47.906Z</time></trkpt><trkpt lat="45.55418355737592" lon="9.077344732277377"><ele>165.8</ele><time>2026-04-05T09:09:49.906Z</time></trkpt><trkpt lat="45.55408692077157" lon="9.0773459511062"><ele>166.2</ele><time>2026-04-05T09:09:51.906Z</time></trkpt><trkpt lat="45.553988999730414" lon="9.077346048418713"><ele>166.6</ele><time>2026-04-05T09:09:53.906Z</time></trkpt><trkpt lat="45.553893631892834" lon="9.077349253136365"><ele>167.0</ele><time>2026-04-05T09:09:55.906Z</time></trkpt><trkpt lat="45.553796565934725" lon="9.077352722592368"><ele>167.0</ele><time>2026-04-05T09:09:57.906Z</time></trkpt><trkpt lat="45.55371101558381" lon="9.077358042718732"><ele>167.0</ele><time>2026-04-05T09:09:59.906Z</time></trkpt><trkpt lat="45.553633821819545" lon="9.07735437715989"><ele>167.0</ele><time>2026-04-05T09:10:01.906Z</time></trkpt><trkpt lat="45.553566167465696" lon="9.077360549288581"><ele>167.0</ele><time>2026-04-05T09:10:03.906Z</time></trkpt><trkpt lat="45.55349768331839" lon="9.077302536491121"><ele>167.0</ele><time>2026-04-05T09:10:05.906Z</time></trkpt><trkpt lat="45.55345367998614" lon="9.077204424755678"><ele>167.0</ele><time>2026-04-05T09:10:07.906Z</time></trkpt><trkpt lat="45.553425110002415" lon="9.077079727737065"><ele>166.66666666666666</ele><time>2026-04-05T09:10:09.906Z</time></trkpt><trkpt lat="45.55340849484629" lon="9.07694769730327"><ele>166.33333333333331</ele><time>2026-04-05T09:10:11.906Z</time></trkpt><trkpt lat="45.5533987210283" lon="9.076828614442883"><ele>166.0</ele><time>2026-04-05T09:10:13.906Z</time></trkpt><trkpt lat="45.55337865943242" lon="9.076739567346392"><ele>165.66666666666666</ele><time>2026-04-05T09:10:15.906Z</time></trkpt><trkpt lat="45.553348602266226" lon="9.076619263363499"><ele>165.33333333333334</ele><time>2026-04-05T09:10:17.905Z</time></trkpt><trkpt lat="45.55334067198598" lon="9.076500455117738"><ele>165.0</ele><time>2026-04-05T09:10:20.905Z</time></trkpt><trkpt lat="45.55333296531618" lon="9.076408837082342"><ele>165.0</ele><time>2026-04-05T09:10:21.905Z</time></trkpt><trkpt lat="45.553326829402906" lon="9.076294821488549"><ele>165.0</ele><time>2026-04-05T09:10:23.905Z</time></trkpt><trkpt lat="45.5532801890723" lon="9.076187710415976"><ele>165.0</ele><time>2026-04-05T09:10:25.905Z</time></trkpt><trkpt lat="45.55327355397499" lon="9.07605067426213"><ele>165.0</ele><time>2026-04-05T09:10:27.905Z</time></trkpt><trkpt lat="45.55327249627272" lon="9.075905580297542"><ele>165.0</ele><time>2026-04-05T09:10:29.905Z</time></trkpt><trkpt lat="45.55326676512234" lon="9.075760750795412"><ele>165.16666666666666</ele><time>2026-04-05T09:10:31.905Z</time></trkpt><trkpt lat="45.55326722346753" lon="9.075610557370211"><ele>165.33333333333334</ele><time>2026-04-05T09:10:33.905Z</time></trkpt><trkpt lat="45.553264523235704" lon="9.075479850431957"><ele>165.5</ele><time>2026-04-05T09:10:35.905Z</time></trkpt><trkpt lat="45.55325961334354" lon="9.075349269808674"><ele>165.66666666666669</ele><time>2026-04-05T09:10:37.905Z</time></trkpt><trkpt lat="45.55323287528731" lon="9.075239007110362"><ele>165.83333333333334</ele><time>2026-04-05T09:10:39.905Z</time></trkpt><trkpt lat="45.55317753363725" lon="9.075167601202429"><ele>166.0</ele><time>2026-04-05T09:10:41.905Z</time></trkpt><trkpt lat="45.55311056870126" lon="9.075147897662715"><ele>166.0</ele><time>2026-04-05T09:10:43.905Z</time></trkpt><trkpt lat="45.553044700986675" lon="9.075150475518543"><ele>166.0</ele><time>2026-04-05T09:10:45.905Z</time></trkpt><trkpt lat="45.55296290926795" lon="9.075148602209117"><ele>166.0</ele><time>2026-04-05T09:10:47.905Z</time></trkpt><trkpt lat="45.55289727680118" lon="9.075158723733184"><ele>166.0</ele><time>2026-04-05T09:10:50.905Z</time></trkpt><trkpt lat="45.552830601811934" lon="9.075159919995437"><ele>165.0</ele><time>2026-04-05T09:10:53.905Z</time></trkpt></trkseg></trk></gpx>